ECMWFFLT1_925_thetae_000.txt.gz
Theta_e
316 317 317 318 318 318 318 319 319 320 321 320 320 320 320 319 318 317 317 317 316 315 316 317 318 319 319 320 320 322 322 323 323 324 325 325 325 327 328 329 328 327 328 330 328 328 329 328 328 327 327 326 326 327 329 330 330 331 332 332 332 332 332
316 316 316 317 318 318 318 318 318 319 319 319 318 319 318 316 314 313 313 312 312 311 311 312 314 315 317 318 319 320 320 321 321 321 322 322 322 323 324 325 325 324 326 328 327 326 327 327 327 328 327 326 326 328 330 329 329 330 331 331 331 330 330
315 315 315 317 318 319 318 318 318 318 318 317 317 317 315 313 313 313 312 312 311 310 310 310 311 312 313 315 316 317 318 319 319 319 320 320 320 321 321 321 321 322 323 324 323 323 324 324 324 325 325 325 326 326 326 326 326 326 328 329 330 329 328
315 315 316 318 318 318 318 318 317 318 317 316 316 316 314 314 314 313 312 312 311 311 310 310 310 310 311 312 313 314 315 316 316 316 316 317 318 318 318 318 318 319 320 320 320 320 320 321 321 321 321 320 320 321 322 324 325 325 325 324 326 327 327
317 316 316 318 318 318 318 317 317 317 318 317 316 316 314 314 314 314 313 312 311 311 310 310 310 310 310 311 311 311 312 313 313 313 313 313 314 315 315 315 315 316 317 317 317 318 318 319 318 319 318 317 317 319 319 320 322 322 323 322 323 325 326
317 317 316 318 318 317 317 317 317 316 317 317 316 316 315 314 315 315 314 313 312 311 310 310 310 310 310 310 311 311 311 311 311 311 311 311 311 311 311 312 312 313 314 314 314 316 316 316 316 317 317 316 316 317 316 316 317 318 320 322 323 324 325
317 317 316 317 318 317 317 317 316 315 316 317 317 317 315 315 315 316 315 313 312 311 311 310 310 310 310 310 310 311 311 311 310 310 310 310 309 309 309 309 309 310 311 311 312 313 313 313 315 315 315 314 315 314 313 314 316 317 319 321 322 322 322
316 316 316 316 318 318 317 317 316 315 316 316 317 318 316 315 316 316 316 314 313 312 311 311 310 310 310 309 310 311 311 310 310 310 310 309 308 308 307 307 308 308 308 309 309 310 310 311 312 313 313 313 313 314 314 314 315 317 319 320 320 320 321
319 317 316 316 318 319 318 317 316 315 315 315 316 318 318 317 317 317 316 316 314 313 312 311 311 310 310 310 310 311 311 310 311 310 310 310 309 309 308 307 307 307 307 307 308 309 309 310 310 311 312 312 312 313 314 314 315 316 319 320 320 320 320
322 320 318 318 318 318 319 318 317 316 315 315 316 318 318 318 317 317 317 316 315 313 312 311 311 310 310 310 310 310 310 310 311 310 310 310 309 309 308 307 307 308 307 307 308 308 309 309 310 310 311 312 312 312 313 313 314 315 316 318 319 319 320
319 321 321 321 318 316 317 319 319 318 317 316 317 317 318 319 318 318 317 317 315 314 312 311 311 311 311 310 310 310 310 310 310 309 308 308 308 307 307 307 307 307 308 308 308 308 308 309 310 310 310 310 311 312 313 313 314 315 315 315 317 319 320
319 321 323 324 322 318 315 316 319 319 319 317 316 317 318 319 318 318 317 317 316 314 313 312 311 311 311 311 310 310 309 309 309 308 307 307 306 306 306 306 306 306 306 307 308 308 308 308 309 309 310 310 310 311 312 313 313 314 315 315 316 317 318
321 322 323 325 324 322 317 315 316 318 320 318 316 316 317 318 318 318 318 317 316 315 314 312 312 312 312 311 310 309 309 308 308 308 307 306 306 305 305 305 305 305 305 306 307 307 307 307 307 307 308 309 310 311 311 312 313 313 314 314 315 315 315
323 323 323 324 324 323 321 319 317 317 320 319 317 316 317 317 318 318 317 317 316 315 314 313 312 311 311 311 310 309 308 308 308 307 307 306 306 305 304 304 304 305 305 305 306 306 307 307 307 307 307 308 308 309 310 311 312 312 313 313 313 314 313
323 323 323 324 323 322 321 321 320 319 320 320 318 317 317 318 318 318 318 317 316 315 314 312 312 311 311 310 309 309 308 308 307 307 307 306 305 305 305 304 304 304 304 305 306 306 306 306 306 306 307 307 307 308 308 309 309 311 311 311 312 312 312
322 323 323 323 323 323 322 322 321 320 320 320 319 318 317 318 318 317 317 317 316 315 313 312 311 311 311 310 309 309 308 307 307 307 307 305 304 304 305 304 304 304 303 304 305 305 305 306 306 305 306 307 307 307 307 307 307 308 309 310 310 310 310
322 322 323 323 322 323 323 322 322 321 320 321 320 318 318 319 318 317 317 317 316 314 313 312 311 311 311 310 309 309 308 307 307 306 306 305 304 304 304 304 303 303 303 304 304 304 305 305 305 304 305 306 306 307 307 307 306 307 307 308 309 309 309
322 322 323 323 322 322 322 322 322 321 320 321 321 319 320 319 318 318 318 317 316 314 313 312 311 311 310 309 309 308 307 307 306 306 305 304 303 303 303 303 303 302 303 303 304 304 304 304 304 303 304 304 304 305 306 306 307 307 307 307 308 308 308
323 323 323 323 322 321 321 321 322 320 320 320 321 320 320 319 318 318 318 317 315 314 313 312 311 310 309 309 308 308 307 306 305 304 304 303 302 302 302 302 302 302 302 302 303 303 303 303 304 304 303 304 304 304 304 305 305 305 306 307 307 307 308
323 323 323 323 323 322 322 321 322 321 320 320 321 320 319 319 319 318 318 316 315 314 313 312 311 310 309 308 308 307 306 305 304 303 301 300 300 300 300 300 300 300 301 301 302 302 302 302 303 303 303 304 304 304 304 304 304 304 305 305 306 306 307
321 322 322 323 323 323 323 322 322 321 321 320 320 320 319 319 318 318 317 316 314 313 312 311 310 309 309 308 307 307 305 304 302 301 300 299 299 299 299 299 299 299 299 299 298 299 299 299 300 301 302 302 303 303 303 303 303 304 304 305 305 305 306
319 320 321 321 322 322 322 322 322 322 321 321 320 320 320 319 318 317 316 315 314 313 312 311 310 309 308 308 306 305 303 302 301 300 299 299 298 298 298 298 298 297 296 294 293 293 294 294 296 297 299 300 301 302 302 303 303 304 304 304 304 305 305
317 318 319 320 320 321 321 322 322 322 321 321 320 320 319 317 316 316 315 314 313 312 311 310 309 307 307 306 304 303 301 300 299 298 298 298 298 298 298 298 298 296 294 293 293 293 293 293 293 294 295 297 298 300 301 302 302 303 303 303 304 304 304
315 317 318 318 320 320 320 321 320 321 321 320 320 318 316 315 314 313 313 313 313 312 311 309 307 306 304 303 302 301 300 299 298 298 298 297 298 298 298 298 298 297 296 296 296 295 294 294 294 294 294 294 295 296 297 299 300 301 302 302 303 303 304
311 314 316 317 318 319 319 319 320 319 319 318 317 316 314 314 313 313 313 312 312 311 309 307 305 304 303 302 301 300 300 299 298 297 297 297 297 297 297 297 297 298 298 297 296 296 296 296 296 295 295 294 294 293 294 295 297 299 300 301 302 303 303
309 312 315 316 317 318 318 318 318 319 318 317 316 315 314 314 313 313 312 310 309 308 307 306 305 303 302 302 299 298 298 298 298 297 297 297 297 297 297 297 297 297 297 297 296 296 297 297 296 296 296 296 295 295 295 295 295 295 296 298 299 301 301
309 310 312 314 316 317 317 317 317 317 317 316 315 315 314 313 313 312 310 308 307 306 306 305 304 303 302 299 296 296 298 298 297 297 297 296 296 297 297 297 297 297 297 297 297 297 297 296 296 296 296 297 297 297 297 297 296 296 295 295 297 298 299
309 309 311 313 315 316 316 316 316 316 316 316 315 314 313 313 312 310 308 308 306 305 305 305 303 301 299 296 294 295 297 298 297 297 297 297 297 297 297 297 297 297 297 297 297 296 295 295 295 295 295 296 297 297 297 298 298 297 297 297 297 298 298
309 310 311 313 314 315 315 315 315 315 316 315 314 314 312 311 310 308 308 307 306 305 304 303 301 299 296 294 294 295 297 298 298 297 297 297 297 297 297 297 297 297 297 297 296 295 294 294 294 294 295 295 296 297 297 297 297 296 296 297 297 297 298
309 310 311 312 313 314 315 314 314 314 314 314 314 313 311 310 309 308 307 305 304 303 302 300 299 297 294 293 294 295 297 298 298 298 298 298 298 297 297 297 297 297 297 296 296 295 293 293 293 294 295 295 296 296 296 296 296 296 295 295 295 295 296
309 310 311 312 313 314 314 314 314 314 314 314 314 312 310 309 308 306 305 304 303 302 301 299 297 295 293 293 294 296 297 298 298 298 298 298 298 298 297 297 296 296 296 296 295 294 293 292 293 294 294 295 295 295 296 296 296 296 296 295 295 294 294
309 310 311 312 313 313 313 313 313 313 314 314 314 313 310 308 306 305 304 303 302 302 299 296 295 294 294 293 293 295 297 297 297 298 298 298 298 298 297 297 297 296 296 295 294 293 292 292 292 293 293 294 294 294 295 295 295 295 295 295 295 295 295
310 310 311 312 312 312 312 312 312 313 313 314 314 312 309 306 304 304 303 301 300 300 299 297 295 294 294 294 293 294 296 297 297 298 298 298 298 297 297 297 296 296 295 294 293 293 292 291 292 292 292 292 293 293 294 294 294 294 294 294 294 294 294
309 310 311 312 311 312 312 312 313 313 313 313 312 310 307 305 304 304 302 300 299 299 299 298 297 295 295 295 295 295 296 297 297 297 297 297 297 296 296 296 296 296 295 294 293 292 292 292 291 291 291 291 292 292 291 291 291 291 292 292 292 292 293
309 310 311 311 311 311 311 312 312 312 311 310 308 306 305 303 303 302 301 299 298 298 297 297 297 296 295 295 295 295 295 296 296 295 295 295 295 295 296 296 296 296 295 294 293 292 292 291 291 290 290 290 290 290 289 290 290 290 291 291 291 292 292
309 310 311 311 311 311 311 311 311 309 308 307 305 303 303 302 301 300 300 299 298 298 298 296 295 294 294 294 293 293 293 293 292 293 294 295 295 295 295 296 296 295 294 293 292 291 290 290 289 289 289 289 289 289 289 289 289 290 290 290 291 291 291
309 309 310 311 310 310 310 309 307 306 305 303 302 301 301 301 300 300 299 299 298 298 298 296 295 293 292 292 291 291 291 291 291 292 293 294 295 295 295 295 294 293 292 291 290 289 289 289 289 289 289 289 289 289 289 289 290 290 290 291 291 291 291

ECMWFFLT1_925_thetae_003.txt.gz
Theta_e
320 320 320 319 318 319 320 321 322 322 322 322 322 321 320 319 318 318 318 317 316 316 317 319 320 321 321 322 322 322 322 323 324 326 326 326 327 328 328 327 327 327 326 325 325 327 328 329 329 327 326 325 325 324 323 324 327 327 326 325 326 328 330
319 318 318 318 318 319 320 320 320 320 320 321 320 318 316 315 315 314 314 314 313 313 313 315 317 319 321 321 322 322 322 322 323 323 323 323 324 325 325 325 325 326 326 325 325 326 327 327 327 327 327 327 326 324 321 322 323 322 320 322 324 326 328
319 317 318 319 318 319 319 319 319 319 319 319 318 316 315 315 314 314 313 313 313 312 312 313 314 315 317 319 320 321 321 321 321 322 321 321 321 321 321 321 322 323 325 325 324 324 324 325 324 325 325 326 327 324 320 319 320 319 320 322 323 323 324
319 318 318 319 319 319 319 319 319 318 318 319 317 316 316 316 315 314 314 313 313 313 313 313 313 313 314 316 316 317 317 318 317 318 318 317 318 318 317 317 318 319 320 321 321 320 320 321 321 321 320 320 320 318 316 318 321 323 323 322 322 320 321
318 318 319 319 319 320 319 319 319 319 318 318 317 316 316 316 315 315 314 314 314 314 313 313 313 313 314 314 315 315 315 315 314 314 314 314 314 314 314 314 314 316 317 317 317 318 318 318 318 317 316 315 315 315 316 316 318 319 320 320 320 320 320
318 318 319 320 319 319 319 318 318 319 318 318 317 317 317 316 316 316 315 314 314 314 314 314 314 313 313 313 313 314 314 313 313 313 313 313 312 311 312 312 312 313 315 314 314 315 316 316 316 316 316 316 316 315 315 314 314 315 316 317 318 320 322
319 318 318 320 319 318 319 318 318 318 319 319 318 318 317 317 317 317 315 314 313 314 314 314 314 313 313 313 313 314 313 313 314 313 313 312 312 311 310 310 311 311 312 312 313 313 314 314 315 316 316 315 314 315 314 313 313 314 316 318 318 320 321
319 319 318 319 319 318 319 318 317 317 319 319 319 319 317 317 318 317 316 314 313 313 313 313 313 313 313 312 312 313 313 312 313 312 312 311 311 311 310 309 310 310 310 310 311 311 312 313 313 314 314 314 314 314 315 315 314 314 316 318 319 319 320
319 319 318 318 320 319 319 319 318 317 318 319 319 319 317 318 319 318 316 316 314 313 313 313 313 313 313 312 312 313 312 313 313 313 313 312 312 312 310 309 310 311 310 309 309 310 311 312 312 312 313 314 314 314 314 314 315 315 315 316 318 319 319
320 319 318 318 319 319 319 319 318 317 318 318 320 321 318 318 319 318 318 317 316 315 314 314 313 312 313 312 313 313 313 313 313 312 312 312 311 311 310 309 309 310 309 309 310 310 310 311 312 312 313 313 313 313 314 314 314 315 316 315 315 316 317
322 321 319 318 319 320 320 320 319 318 317 317 320 321 319 319 319 319 319 318 317 315 314 313 313 313 312 312 312 312 312 313 313 312 311 311 311 309 309 309 309 309 309 309 310 311 310 311 311 311 312 312 313 313 314 314 314 314 315 316 316 315 316
323 322 321 319 319 320 320 320 319 319 318 317 319 320 319 320 319 319 319 319 317 316 315 314 313 313 313 313 312 312 312 313 313 312 311 310 310 309 310 309 308 308 308 308 310 311 310 310 310 309 310 310 312 313 313 314 314 314 314 315 316 316 316
322 321 321 321 321 320 320 319 319 319 319 318 319 320 320 319 319 319 319 319 318 316 316 315 314 314 314 313 313 312 312 311 311 311 311 310 309 309 309 309 309 308 307 306 308 310 309 309 309 309 309 309 310 311 312 313 313 313 313 314 314 314 315
322 322 321 321 322 322 321 320 318 319 320 319 319 320 319 319 320 319 319 319 319 317 316 315 314 314 314 314 313 312 311 311 311 311 310 310 309 308 308 308 308 308 307 307 308 308 308 309 310 309 309 310 310 310 310 311 311 312 312 312 313 313 313
323 325 323 321 322 323 322 320 319 318 318 319 319 319 319 319 320 319 319 319 318 317 316 316 315 314 314 314 313 312 311 311 310 310 310 310 310 309 308 308 308 308 307 307 307 307 307 308 308 307 308 309 309 309 309 309 309 310 310 310 310 311 311
323 324 323 322 322 322 321 321 321 320 320 319 319 318 318 319 320 320 319 319 318 318 316 316 315 314 314 314 313 312 311 311 310 310 310 310 309 309 309 309 308 307 307 307 307 307 307 307 307 307 307 307 308 309 309 309 310 309 310 310 309 310 310
324 324 323 323 323 323 322 321 320 320 321 320 319 318 317 318 320 320 320 319 318 318 317 316 315 314 314 314 313 312 312 311 311 311 310 309 308 308 308 308 307 307 306 307 307 307 307 307 308 307 306 306 307 307 308 309 310 310 310 310 310 309 309
325 325 325 324 324 324 324 323 321 321 322 321 320 319 319 319 319 319 320 320 319 318 318 317 315 315 314 314 313 313 312 311 311 311 310 309 308 307 307 307 307 307 306 306 307 307 307 307 307 306 306 306 305 305 306 307 308 308 308 309 309 309 309
324 324 324 324 324 324 324 324 323 322 322 322 320 320 320 319 319 319 320 320 320 319 318 317 316 315 314 314 314 313 312 312 311 311 310 309 307 307 307 306 306 305 305 305 306 306 306 306 306 306 306 306 305 306 306 306 306 306 306 307 307 307 308
322 323 324 324 325 325 325 325 324 323 323 322 322 321 320 318 319 320 319 320 320 319 318 317 316 315 315 314 314 313 312 312 311 310 309 308 306 306 305 305 305 304 304 304 304 305 305 305 305 305 304 305 305 305 305 306 306 306 306 306 306 307 307
317 321 322 322 323 324 324 324 324 323 323 322 322 322 321 319 319 320 319 320 320 320 319 317 316 315 315 314 314 313 312 312 311 309 308 306 305 304 303 303 303 303 303 303 303 302 302 301 301 301 301 302 302 303 303 304 305 305 306 306 306 307 306
314 318 320 320 321 321 322 323 324 323 322 322 322 322 322 321 320 320 320 320 320 320 319 317 316 315 315 314 313 313 312 311 310 308 306 304 303 303 302 302 302 301 302 301 298 296 295 294 295 296 297 299 300 301 302 302 303 304 305 305 305 306 306
313 316 318 318 319 319 320 322 323 323 323 323 323 322 323 323 321 320 321 320 320 319 318 317 316 315 314 314 313 312 311 309 308 306 305 304 303 302 302 302 301 301 300 298 296 294 293 293 293 294 295 296 297 298 299 300 301 302 302 303 303 304 304
311 312 314 316 318 318 319 320 321 322 322 323 323 322 322 323 322 321 321 320 319 319 318 317 315 314 313 312 312 311 309 307 306 305 304 303 303 302 302 302 301 301 300 299 298 298 297 296 296 295 296 296 296 296 296 297 298 299 300 301 302 302 303
310 310 312 314 316 317 317 319 320 320 320 321 322 322 322 322 322 321 321 319 318 317 316 316 314 312 311 310 309 307 307 306 304 304 303 303 302 302 302 301 301 301 301 300 300 300 299 298 297 297 297 296 296 296 296 296 297 297 298 299 300 301 301
310 310 311 311 313 316 317 317 318 318 319 319 319 320 320 320 321 320 319 318 316 315 315 314 312 311 309 307 306 305 305 305 303 303 303 302 302 301 301 301 301 301 301 300 299 299 299 299 299 299 298 297 297 297 297 297 297 297 297 298 298 299 299
310 310 310 310 311 313 315 317 317 317 317 318 318 318 318 319 320 319 319 317 315 313 312 311 310 309 307 306 305 305 304 303 303 302 302 302 301 301 301 300 300 300 300 300 300 300 300 300 300 299 298 298 298 298 298 298 298 298 298 298 298 298 299
310 310 310 310 311 311 314 316 316 316 316 317 317 317 317 318 319 318 317 316 313 310 309 309 308 307 306 305 304 302 303 302 302 301 301 301 301 300 300 300 300 300 300 300 300 300 299 299 298 298 297 297 297 297 298 299 299 299 299 298 298 299 299
310 310 310 310 310 311 312 315 316 316 316 316 316 316 316 317 318 317 316 313 310 309 308 307 306 306 305 302 299 299 301 302 301 301 301 301 301 300 300 300 300 300 300 300 300 299 298 297 297 297 296 296 297 297 298 298 299 298 298 298 298 299 299
309 309 309 310 310 311 312 314 315 316 316 315 316 315 315 316 317 316 315 311 309 307 306 305 306 305 303 299 296 298 300 301 301 301 301 301 301 301 301 300 300 300 300 300 300 298 297 296 296 296 296 296 297 297 298 298 298 298 298 298 297 297 297
309 309 309 309 310 311 312 313 315 315 315 315 315 315 315 315 315 315 313 310 307 306 305 305 304 301 298 296 296 298 300 300 301 301 301 301 301 301 301 300 299 299 300 299 299 298 297 296 296 296 296 296 297 297 297 297 297 297 297 297 297 297 297
309 309 310 309 310 310 311 313 314 314 314 314 314 314 314 314 314 313 312 309 306 304 304 302 299 297 295 295 296 297 299 300 300 301 301 301 301 301 301 300 299 299 299 298 298 297 296 295 295 296 296 296 296 296 296 296 296 296 296 296 297 297 297
309 310 310 310 310 311 311 312 313 313 313 313 312 312 313 313 312 311 309 306 304 302 301 298 296 294 294 294 295 296 297 299 300 300 301 301 300 300 300 299 299 298 297 297 296 296 295 294 294 294 294 295 295 296 295 295 294 294 294 294 294 295 295
308 309 310 310 310 310 310 311 312 312 312 312 313 313 312 311 310 308 306 304 302 300 298 296 295 294 294 295 295 295 296 298 300 299 299 299 298 298 298 298 298 297 296 296 295 294 294 293 292 291 292 293 294 293 293 292 292 292 292 292 293 293 293
307 308 309 310 310 310 310 310 311 312 312 313 313 313 311 309 307 305 304 303 302 300 297 295 295 295 295 295 295 295 296 298 298 296 296 297 297 297 297 297 297 297 296 295 294 293 292 292 291 290 291 291 291 291 290 290 291 291 291 291 291 292 292
307 307 309 310 310 310 310 310 311 312 312 312 311 310 309 308 306 304 302 301 300 299 297 296 296 296 295 295 295 294 294 295 294 293 295 296 296 297 297 298 298 297 296 295 294 293 292 291 290 290 291 291 290 290 290 290 290 291 291 291 291 292 292
306 307 308 310 310 311 311 311 312 312 311 310 309 308 306 304 303 301 301 300 299 298 296 295 294 294 293 293 292 292 292 292 292 292 294 295 296 297 297 297 296 295 294 293 292 291 291 291 291 291 291 291 291 290 291 291 291 291 291 291 291 292 292

ECMWFFLT1_925_thetae_006.txt.gz
Theta_e
322 321 320 319 320 321 322 323 323 322 322 322 320 319 319 318 317 317 316 315 316 318 319 320 321 322 321 321 322 323 323 324 325 325 325 325 325 325 326 327 326 326 327 327 327 328 329 329 329 328 327 325 323 321 319 320 322 320 317 315 314 315 317
321 320 319 319 320 321 322 322 321 322 321 319 317 315 315 314 314 314 314 313 313 314 316 318 320 321 321 321 321 321 322 322 323 323 323 323 323 323 324 326 326 327 327 326 326 326 326 327 327 328 328 328 328 326 321 318 316 315 314 313 314 316 319
320 319 320 319 320 321 321 320 320 320 319 317 315 315 315 314 314 314 313 313 312 312 313 314 317 318 319 320 320 320 320 319 319 319 318 318 318 317 318 321 322 324 325 325 325 324 324 325 325 325 323 324 325 323 319 316 315 316 317 317 317 318 318
318 319 320 319 320 320 320 319 319 320 318 317 316 316 316 315 314 314 314 314 313 313 313 314 315 315 316 317 316 317 316 316 316 315 315 316 315 313 314 315 316 318 319 319 319 319 319 320 321 320 317 316 317 316 315 315 316 316 316 316 318 317 314
318 319 320 319 320 319 319 320 319 319 318 317 317 316 316 315 314 314 315 315 314 314 314 314 314 315 315 315 315 315 314 314 313 311 309 311 312 312 313 313 314 315 314 314 315 315 316 317 317 318 316 315 316 316 315 315 314 312 313 314 316 317 315
319 320 320 320 320 319 320 320 319 319 318 317 317 317 316 316 315 315 315 314 314 314 313 313 313 314 314 314 314 314 313 313 313 311 309 308 308 311 312 311 312 313 312 313 313 314 314 314 315 317 316 315 316 315 314 314 314 313 313 313 314 316 317
319 319 320 319 320 320 320 320 320 319 318 318 317 317 317 317 316 316 315 314 314 314 315 314 314 314 313 314 315 314 314 314 311 311 311 310 309 308 308 311 311 310 311 311 311 312 313 313 314 315 315 315 315 315 315 315 314 314 314 314 315 316 317
318 319 321 320 320 320 319 320 319 319 319 319 318 317 317 318 317 316 315 314 315 314 314 313 314 314 313 313 314 313 313 312 310 308 307 309 309 306 307 311 311 308 307 308 310 311 312 312 312 313 314 316 316 316 315 314 314 315 315 315 315 316 316
318 318 320 320 320 319 320 319 318 320 320 319 319 318 317 318 318 315 315 314 314 313 313 312 312 313 313 312 313 312 312 312 313 313 309 309 309 308 308 311 312 309 306 307 310 310 309 310 311 312 312 314 316 316 316 316 316 315 315 314 315 316 316
319 318 319 320 320 319 320 319 317 319 320 320 320 318 317 319 318 316 316 315 314 314 314 314 313 313 313 313 313 313 314 313 313 313 312 311 311 310 310 309 311 310 307 308 311 309 308 310 310 311 312 312 314 316 316 316 316 316 314 314 315 315 315
319 319 319 320 320 319 320 320 318 317 319 320 321 319 318 319 319 318 317 316 315 315 315 314 313 313 313 313 313 314 314 313 312 311 312 311 310 309 309 309 310 310 308 309 310 310 309 311 310 310 311 311 312 313 315 316 315 314 313 313 314 314 314
321 320 319 320 320 320 320 320 319 318 318 320 321 320 319 319 320 319 318 317 316 316 315 314 313 313 313 313 313 313 312 313 313 312 311 310 309 309 309 309 309 309 309 308 309 311 311 310 310 309 308 309 310 311 312 314 315 314 313 313 313 312 313
322 321 321 320 320 321 320 321 320 318 318 319 321 321 319 319 320 319 319 319 318 316 315 314 313 313 313 313 312 312 312 313 313 312 311 310 310 310 310 310 309 308 306 306 307 310 310 309 310 309 308 309 310 310 309 311 313 313 311 311 311 311 311
324 323 322 321 320 321 320 319 319 319 319 318 320 321 321 320 320 320 320 320 319 317 316 315 314 314 315 313 313 313 312 312 313 312 311 310 310 310 310 310 310 309 307 306 307 308 308 308 310 309 309 310 310 310 310 310 311 311 310 310 310 309 308
324 322 321 321 320 321 321 320 320 320 319 319 319 320 320 320 321 320 320 320 319 318 316 316 315 314 315 314 314 314 312 311 312 312 312 311 310 309 309 308 309 309 308 307 306 307 307 307 307 308 309 309 309 309 308 308 309 309 310 310 309 309 309
324 324 324 324 322 320 320 320 320 319 319 320 319 320 320 320 320 320 320 320 320 319 318 317 316 315 315 314 314 314 312 311 311 312 311 311 310 310 309 308 309 309 308 307 307 307 307 306 307 308 308 307 307 307 307 308 309 310 310 311 310 311 310
325 325 325 325 325 323 322 322 321 319 317 318 319 319 320 319 319 319 320 320 320 319 318 317 316 316 315 315 315 314 313 312 312 311 311 310 310 310 310 309 309 309 308 308 308 308 307 307 308 307 307 307 306 306 306 307 308 308 309 309 309 309 308
326 327 326 326 325 324 323 323 322 321 320 320 320 321 320 319 318 319 320 320 320 320 319 318 317 316 315 315 315 314 313 312 312 311 311 311 310 310 309 309 309 308 308 307 307 307 307 307 307 307 306 306 306 306 306 306 306 306 307 307 307 306 306
326 326 326 326 325 324 323 322 322 322 322 321 320 320 320 319 319 319 319 320 320 320 320 319 318 317 316 315 315 314 313 313 312 312 312 311 310 309 308 308 308 308 307 307 307 307 307 306 306 306 306 306 306 306 305 305 306 306 306 306 306 306 306
324 324 323 322 322 323 323 322 322 322 321 321 320 320 320 320 320 320 320 320 320 320 320 319 319 318 316 315 315 315 314 313 313 312 312 311 310 309 308 307 307 307 306 306 306 305 306 306 305 305 304 303 303 302 303 303 304 304 305 305 305 306 306
321 321 321 321 321 321 322 322 322 322 321 321 321 321 321 321 321 321 320 320 319 319 319 320 319 318 317 316 315 315 314 314 313 312 312 311 310 308 308 307 306 306 305 305 305 305 305 304 302 301 300 299 299 300 300 301 302 302 303 303 304 305 305
317 318 318 319 319 319 320 321 321 322 322 322 322 321 321 321 321 321 321 320 319 319 319 319 319 319 318 317 316 315 315 314 313 312 311 310 309 307 306 305 304 304 304 304 304 304 302 299 296 295 294 295 296 298 298 298 298 299 299 300 301 302 303
315 316 316 318 318 317 319 320 320 320 322 323 323 322 323 322 322 322 321 321 320 319 320 319 318 319 318 317 316 315 314 314 313 312 311 309 307 306 305 304 304 303 303 303 302 301 299 297 295 294 293 294 295 295 296 296 296 297 297 298 299 300 301
312 312 313 316 317 317 318 320 320 320 321 322 322 323 324 324 323 323 323 322 321 320 320 319 319 318 318 317 316 315 314 313 313 311 309 307 306 305 304 303 303 303 302 301 301 300 299 299 298 297 296 297 297 296 297 296 296 296 297 298 298 298 299
310 311 311 312 313 315 316 317 318 318 320 320 320 322 322 323 323 323 323 323 322 321 321 320 319 318 318 317 316 315 313 313 311 309 308 306 305 304 304 303 303 303 303 302 301 300 301 300 299 298 299 299 298 298 297 297 297 297 297 298 298 298 299
310 310 311 311 311 311 313 315 316 317 318 319 319 320 320 321 321 322 322 322 322 322 321 321 319 319 318 316 315 314 312 311 309 307 306 305 304 304 303 303 303 303 303 302 301 301 300 300 300 300 300 299 298 298 298 298 298 298 297 298 298 298 299
310 310 310 310 310 310 311 312 314 317 317 317 318 319 319 319 319 319 320 321 320 319 320 319 318 318 316 314 313 312 309 308 306 305 304 304 303 303 303 302 302 302 302 302 302 301 301 300 301 301 300 299 299 298 298 298 298 297 298 298 298 298 298
310 310 310 310 310 310 310 311 312 315 316 316 316 317 318 318 318 318 319 319 318 317 317 316 315 314 313 312 311 309 307 306 305 304 304 303 303 303 302 302 302 301 301 301 301 301 301 301 300 300 299 299 298 298 297 297 297 298 298 298 298 299 299
310 310 310 310 310 310 310 311 312 314 315 316 316 316 316 317 317 318 318 319 318 317 315 313 312 311 311 311 309 307 305 304 304 303 303 302 302 302 301 301 301 301 301 301 301 301 301 301 300 299 298 298 297 297 297 297 297 298 298 298 298 298 298
310 310 309 309 309 310 310 310 311 313 315 316 316 315 315 315 316 316 317 317 316 316 314 310 309 309 309 308 307 305 304 304 303 302 302 302 302 302 301 301 301 301 301 301 301 301 301 300 299 298 298 298 297 297 297 297 297 298 298 297 297 297 297
309 309 309 309 309 309 309 310 310 312 314 315 315 315 315 315 315 315 316 315 314 314 311 308 307 307 307 306 305 304 303 303 302 302 302 302 302 302 302 301 301 301 301 301 301 300 299 299 298 298 298 297 297 297 297 297 297 297 297 297 297 296 297
309 309 309 310 310 310 310 309 310 311 313 314 314 314 314 314 314 315 314 313 312 312 310 307 307 307 306 305 304 303 301 301 301 301 302 302 302 302 302 302 302 301 300 300 299 299 298 298 297 296 296 296 296 296 296 296 296 296 296 295 295 295 295
308 308 309 310 310 310 310 310 310 310 312 313 314 313 313 313 314 313 312 310 309 309 309 307 306 306 304 302 300 300 300 300 300 300 300 301 301 301 301 301 300 300 299 299 298 297 296 296 295 295 294 294 294 294 295 295 294 294 293 293 292 293 293
307 307 309 310 310 310 310 310 309 310 311 312 313 313 313 313 312 310 308 306 306 307 308 307 305 303 299 297 296 298 298 298 299 299 299 299 299 299 299 298 298 299 298 297 297 296 295 295 294 293 293 292 292 292 292 292 292 291 291 291 291 292 292
306 307 307 308 309 310 310 310 309 309 310 311 313 313 313 313 311 308 305 303 303 305 306 304 301 297 295 294 296 296 296 296 298 298 297 296 297 297 297 298 297 297 297 296 296 295 294 293 292 292 292 292 291 291 291 291 291 291 291 291 291 291 292
305 306 307 307 308 309 310 310 310 310 311 313 313 312 311 311 309 306 303 301 301 302 301 298 295 294 294 295 296 296 295 295 296 295 293 294 295 296 297 298 298 297 296 295 294 293 293 292 292 292 292 292 292 291 291 291 291 291 291 291 292 292 292
305 305 306 307 307 308 310 311 311 311 312 313 313 311 309 308 307 304 302 300 298 297 296 295 294 295 296 296 295 295 294 293 293 292 292 293 295 296 297 297 297 297 296 294 293 293 293 293 293 293 292 292 292 292 292 291 291 291 292 292 292 292 292

ECMWFFLT1_925_thetae_009.txt.gz
Theta_e
320 320 321 321 320 321 322 322 321 321 320 320 320 320 320 317 316 317 318 319 320 320 321 321 322 323 323 324 325 325 326 326 326 326 325 326 326 326 326 327 327 326 326 327 326 326 329 332 330 328 328 326 325 323 321 319 318 317 318 317 315 313 316
320 320 320 320 320 321 321 321 321 319 318 316 316 317 317 315 313 314 316 318 318 319 320 320 320 321 321 322 323 323 323 323 325 325 324 323 323 323 325 326 326 326 326 326 326 325 326 330 331 329 326 326 327 325 323 321 318 317 317 318 316 313 314
320 320 320 320 322 322 322 321 319 316 315 314 313 314 314 314 312 312 313 314 315 315 317 319 320 320 320 320 320 320 322 321 321 321 319 318 317 317 320 324 325 325 325 325 324 324 324 324 327 324 318 318 321 320 320 319 318 317 315 316 316 313 311
319 319 320 321 322 321 320 319 317 315 315 315 314 314 313 312 312 312 313 314 313 313 314 316 317 317 317 317 316 316 317 318 319 318 316 315 315 314 316 319 320 319 318 318 317 318 318 318 321 320 314 314 315 314 315 315 314 314 313 313 314 313 312
318 318 320 322 321 319 318 317 316 315 315 315 315 314 313 312 312 313 313 313 313 314 315 315 315 315 315 314 313 312 311 311 313 314 313 312 313 313 314 314 315 314 313 313 313 314 315 315 316 317 314 314 315 314 313 313 314 314 313 313 313 314 314
318 318 320 321 320 318 318 318 317 316 315 316 314 312 313 313 313 312 313 313 314 314 314 314 313 314 313 312 311 310 306 304 306 307 307 309 311 312 313 313 313 312 311 312 313 313 314 314 314 314 314 313 314 314 313 313 313 314 314 314 315 315 316
318 318 319 319 319 318 319 318 317 316 314 315 314 312 313 314 314 312 312 313 313 313 313 312 312 312 311 310 310 309 306 303 303 303 303 305 308 310 311 311 310 310 310 311 311 312 313 313 313 312 313 314 313 313 313 313 313 314 314 314 314 315 315
318 318 318 318 318 319 319 319 318 316 315 315 314 314 314 315 315 313 310 310 311 313 314 314 313 313 313 313 312 310 307 304 303 302 302 303 307 310 310 309 308 307 309 310 310 310 311 311 312 312 313 315 317 316 313 313 312 312 313 313 313 314 313
318 318 319 318 319 320 319 319 318 317 317 316 315 314 315 317 315 313 310 308 309 311 314 314 313 314 313 311 311 310 309 310 308 305 305 306 308 310 311 310 309 307 307 309 310 308 308 310 311 311 312 312 316 317 317 317 316 312 311 312 312 313 312
319 318 319 319 319 319 319 319 319 318 318 318 317 315 316 317 315 311 309 308 307 308 312 313 313 312 311 309 309 311 313 314 313 310 309 308 308 309 310 310 310 308 306 307 308 307 307 309 310 310 310 310 312 315 317 319 318 313 311 311 312 311 311
319 319 319 320 320 320 319 319 319 319 318 318 319 317 315 317 316 312 308 308 307 308 312 313 311 311 312 310 310 311 312 313 312 311 311 310 308 308 309 309 310 309 306 307 308 309 308 308 308 308 308 308 309 311 312 315 317 314 311 311 310 310 309
319 320 319 319 320 320 318 319 320 320 319 319 319 318 317 317 317 314 311 310 308 309 313 314 312 311 313 312 311 311 310 309 310 310 310 310 307 307 308 308 309 309 307 306 308 310 309 308 308 308 308 308 308 309 309 311 314 313 310 309 309 308 308
318 319 320 318 319 320 318 318 319 319 319 320 319 319 318 318 317 316 315 314 311 310 312 314 312 311 313 312 311 312 310 309 311 310 308 308 307 306 307 308 309 308 306 305 308 310 310 308 308 309 309 309 309 310 309 309 311 311 309 308 308 308 308
318 319 321 320 319 320 320 318 318 319 320 320 320 319 319 318 318 317 316 317 315 312 311 313 313 311 313 313 312 312 311 310 313 312 308 308 308 308 308 309 309 309 307 305 306 308 308 307 308 308 309 309 309 309 310 309 309 309 307 307 308 308 309
322 321 322 321 320 320 321 319 318 320 321 320 320 320 320 319 318 317 317 317 318 316 313 313 312 311 312 313 312 312 312 311 313 313 310 310 309 308 308 309 309 309 309 306 304 305 307 307 307 308 307 308 307 307 307 308 308 307 307 308 308 308 308
323 323 322 321 321 321 322 321 319 319 320 321 321 320 320 320 319 318 318 318 318 318 317 315 314 312 312 314 313 312 312 312 312 313 312 311 310 309 308 307 307 308 309 308 305 305 307 307 307 307 307 306 306 306 306 306 307 307 307 307 307 306 306
323 324 323 323 322 321 321 320 320 319 319 321 321 321 320 320 320 320 319 319 319 319 319 317 316 314 313 313 314 313 313 313 312 311 312 312 311 310 309 309 308 308 309 309 306 306 307 307 307 307 307 306 306 306 306 306 306 306 306 305 306 306 305
324 325 325 325 324 323 322 320 320 319 318 319 320 321 321 321 321 320 320 320 320 320 320 319 318 317 315 314 314 314 314 314 312 311 311 312 311 310 311 310 309 308 309 308 307 306 307 307 307 307 306 306 306 305 305 304 304 304 304 303 304 304 304
325 325 325 325 325 324 323 322 320 319 319 318 318 319 321 321 321 320 320 320 320 320 320 320 319 318 317 315 314 315 314 314 313 311 311 312 311 310 310 310 309 309 308 308 307 307 307 307 307 306 305 305 304 304 303 303 303 303 303 302 302 303 303
323 324 325 325 325 325 324 323 322 320 319 318 317 318 319 320 319 319 319 319 319 320 320 320 319 319 318 317 315 315 315 314 313 312 311 311 311 311 310 309 309 308 308 307 306 306 306 306 306 305 305 304 303 302 301 301 301 301 301 301 300 300 300
320 321 322 322 323 323 323 322 322 321 319 318 318 318 318 318 317 317 317 316 317 318 320 320 320 319 319 317 316 315 315 314 314 313 312 312 311 311 310 309 308 307 307 306 306 306 305 305 305 304 302 300 298 298 298 298 298 298 298 297 297 296 296
320 320 320 320 320 321 321 321 321 321 320 320 319 319 318 318 318 317 316 316 316 317 319 320 320 320 319 318 317 316 315 315 314 313 312 312 311 311 310 309 308 307 306 306 306 305 304 304 304 302 299 296 294 294 294 295 296 296 296 296 296 296 296
317 317 318 318 318 319 319 319 319 318 319 319 319 320 320 320 319 318 318 318 318 319 320 320 320 320 319 319 317 316 315 315 314 313 313 312 311 310 309 308 307 306 305 305 304 304 303 303 303 300 298 296 295 294 295 296 296 297 296 296 296 297 297
314 316 317 317 316 316 316 317 318 318 318 318 318 319 319 319 319 320 320 320 320 320 321 321 320 319 319 319 318 317 316 315 314 314 313 312 311 311 309 307 306 305 304 304 303 303 303 302 301 300 299 298 298 298 298 298 298 297 297 297 297 297 297
313 314 315 316 317 317 317 319 319 320 320 320 320 320 320 320 320 321 321 322 322 322 322 322 322 321 320 320 319 318 317 316 315 314 313 312 312 310 308 306 305 304 303 303 303 303 302 301 301 300 299 299 299 299 298 298 298 297 297 297 297 297 297
310 311 312 313 314 314 315 316 317 317 319 320 321 321 321 321 322 322 322 322 322 322 322 323 323 322 321 320 319 318 317 316 315 314 313 312 311 309 307 305 304 303 303 303 303 303 302 301 301 300 300 299 299 299 298 298 298 298 298 297 297 297 297
310 310 310 310 310 311 311 311 313 315 317 318 319 320 321 321 321 320 320 320 319 320 321 321 322 322 321 320 319 317 316 315 314 313 312 310 308 307 305 304 304 303 303 303 303 302 302 301 301 300 300 300 300 299 299 298 298 297 297 297 297 297 297
310 310 310 309 309 310 310 310 311 312 315 316 316 317 319 319 319 318 317 316 317 318 319 319 319 319 320 318 317 316 314 313 312 310 309 307 305 305 304 303 303 303 302 302 302 302 301 301 301 301 300 300 300 299 298 298 298 297 297 297 297 297 297
310 310 309 309 309 309 309 310 310 311 312 315 315 315 316 317 317 318 317 316 316 317 317 317 317 316 316 316 315 313 311 309 308 307 306 305 304 304 303 303 302 302 302 301 301 301 301 301 301 300 300 300 299 298 298 298 297 297 297 297 297 297 297
310 309 309 309 309 309 309 309 309 310 312 313 315 315 315 315 316 316 318 318 317 317 316 315 314 313 312 312 312 310 308 307 306 305 305 304 303 303 303 302 302 302 302 301 301 301 301 301 301 300 299 299 298 298 298 297 297 297 297 297 297 297 297
309 309 309 309 308 308 309 308 309 309 310 312 313 314 315 315 314 315 316 317 317 317 315 314 312 310 309 310 309 308 306 305 304 303 303 303 302 303 302 302 302 302 301 301 301 301 301 301 300 299 298 297 297 297 297 296 296 296 296 295 295 295 295
309 309 309 309 308 309 309 308 308 308 309 311 312 313 314 314 314 314 315 315 315 315 314 312 310 309 308 308 308 307 305 304 303 302 302 302 302 302 302 302 302 301 301 301 300 300 299 298 298 297 296 296 295 295 295 294 294 294 293 293 293 292 292
308 308 308 307 308 309 309 309 309 308 309 309 311 312 313 313 313 314 314 314 314 314 314 312 309 307 307 307 306 306 304 303 302 302 301 301 300 301 301 301 301 300 300 299 298 297 297 296 296 295 295 294 294 293 293 293 292 292 292 291 291 291 291
306 306 306 307 308 310 309 309 309 309 308 308 309 312 313 313 313 313 312 313 313 313 312 311 308 307 306 306 305 304 304 303 302 302 301 299 298 298 298 298 298 298 298 297 297 296 296 296 295 294 294 293 293 292 292 292 292 291 291 291 291 291 291
305 305 306 307 309 310 310 310 309 308 308 308 310 312 313 312 311 310 310 310 311 310 310 309 308 307 305 304 304 303 302 302 301 300 299 298 297 296 297 297 297 297 296 296 296 296 295 294 294 293 293 293 292 292 292 292 292 292 292 292 292 292 292
305 305 305 306 307 308 309 309 308 308 308 309 311 312 311 310 309 307 307 307 308 308 307 307 306 305 304 302 302 301 300 299 298 298 297 296 295 295 296 297 296 296 296 296 295 294 294 294 293 293 293 292 292 292 292 292 292 292 292 292 292 292 292
305 304 304 305 305 306 307 307 308 309 309 310 312 311 309 308 306 304 303 304 305 306 305 304 303 301 300 299 299 298 297 296 295 295 294 293 293 294 295 296 296 296 296 295 294 293 293 293 293 293 293 292 292 292 292 292 292 292 292 292 292 292 292

ECMWFFLT1_925_thetae_012.txt.gz
Theta_e
319 320 321 322 322 321 320 320 320 320 320 320 319 319 319 321 320 319 320 322 323 325 325 326 326 326 326 326 327 327 328 328 327 327 327 327 327 327 327 327 326 326 325 326 326 326 329 330 328 326 324 325 325 324 324 322 320 319 317 317 317 317 317
320 321 321 322 321 321 320 320 320 320 320 320 319 317 316 318 319 319 320 321 322 323 323 324 324 324 324 324 325 325 325 326 326 326 326 325 326 326 326 326 326 326 326 325 325 325 326 328 330 326 319 318 321 322 323 323 320 319 318 317 317 317 317
321 321 321 321 321 321 320 320 319 319 318 318 317 315 314 316 318 318 318 319 321 321 321 322 322 323 323 323 324 324 324 324 323 322 321 321 322 324 325 326 326 326 325 322 322 323 323 322 325 323 315 313 316 316 317 316 315 315 315 315 315 316 317
321 320 320 321 321 321 320 318 317 315 314 315 315 314 312 313 314 313 312 314 317 319 319 320 320 321 321 321 322 322 322 322 319 317 316 316 318 321 323 323 322 321 319 317 316 317 317 317 319 318 313 312 314 313 313 313 313 313 314 314 314 315 316
320 319 319 321 321 320 319 316 314 313 313 313 313 313 312 312 312 311 310 311 314 315 315 316 316 317 318 318 319 321 321 320 317 315 315 315 317 318 318 318 317 316 315 314 313 313 313 313 315 315 312 313 314 313 312 312 313 314 314 313 313 313 314
320 319 320 321 321 320 317 314 313 314 314 313 312 312 312 312 311 311 311 313 313 311 311 311 312 312 311 310 311 314 315 316 314 313 313 313 314 315 314 313 313 312 312 312 312 313 313 313 313 313 312 312 313 313 312 312 312 313 313 313 312 312 313
319 318 320 321 321 319 316 314 314 313 313 312 310 310 311 311 311 312 313 314 313 311 310 310 309 307 306 304 304 304 306 308 308 309 310 312 312 312 312 311 311 310 311 311 311 312 312 312 312 312 312 312 312 312 311 311 312 313 312 312 313 312 311
318 318 320 321 320 318 314 313 313 311 309 309 308 309 310 310 311 313 314 313 312 312 311 310 307 306 305 303 302 302 302 303 304 306 309 310 310 309 308 307 308 309 309 308 308 309 310 312 311 311 312 313 315 314 311 311 311 312 311 310 311 310 308
317 318 320 321 320 316 313 312 311 309 308 307 307 309 310 310 310 311 312 312 313 313 313 313 310 308 306 304 303 304 304 303 303 305 308 309 309 308 307 307 305 306 307 305 304 304 306 309 311 311 310 311 315 316 315 316 314 311 310 308 308 308 306
318 318 319 321 319 316 315 314 311 308 307 307 308 309 310 309 307 308 310 312 314 314 313 313 313 310 307 305 305 306 306 306 304 304 306 308 309 309 309 309 308 306 307 307 306 305 305 307 308 309 308 308 311 314 316 319 317 312 310 309 307 307 306
319 318 318 319 319 317 317 316 313 311 310 308 308 309 310 310 308 306 306 308 312 313 313 312 312 311 307 305 306 308 308 307 305 304 305 306 308 309 309 310 309 307 307 308 309 308 308 308 308 307 308 308 309 311 312 314 315 312 309 308 307 307 307
319 318 317 317 317 318 318 317 316 315 314 312 311 310 310 311 309 307 305 305 308 311 312 312 312 311 309 308 308 309 310 309 307 305 305 305 305 307 309 309 309 307 305 306 309 310 309 308 308 308 308 308 308 309 309 309 311 311 309 308 307 307 308
321 319 317 316 317 318 318 318 317 317 317 316 315 313 311 311 309 308 307 305 306 307 309 311 312 311 312 312 310 309 310 310 307 306 306 307 305 306 307 307 308 307 306 306 308 309 308 307 308 308 308 309 309 309 309 309 309 309 308 307 307 307 307
321 319 318 317 318 319 319 319 318 318 318 317 317 316 314 313 312 309 308 307 307 306 307 309 311 311 312 313 311 311 311 310 309 309 308 307 306 306 307 308 308 308 307 306 306 306 307 307 307 307 307 308 308 307 307 307 308 307 307 306 306 306 306
321 320 318 318 319 319 319 319 318 318 318 318 318 317 317 317 315 313 312 311 310 309 308 308 309 309 310 312 312 311 312 310 310 311 311 309 307 306 307 308 308 308 308 307 305 304 306 306 307 307 307 307 306 306 305 305 305 305 306 305 305 305 304
321 320 318 318 319 319 319 319 319 319 318 318 319 318 318 318 317 317 316 315 315 314 313 311 310 309 308 309 311 311 312 311 310 311 312 311 310 308 307 306 307 308 308 308 307 305 305 307 307 307 307 306 306 305 305 305 304 304 304 304 304 304 303
321 320 320 320 319 319 319 319 319 319 319 318 319 318 319 318 318 318 317 318 317 317 317 316 314 313 311 310 310 311 311 311 310 311 312 312 311 310 309 308 307 307 307 307 308 306 305 306 307 307 307 306 306 305 304 303 303 303 302 302 302 302 302
322 321 321 321 320 320 320 319 318 320 319 319 319 319 319 319 318 319 318 318 318 318 318 318 317 316 316 314 312 311 311 311 311 312 312 312 312 311 311 310 309 309 308 307 308 307 306 306 306 307 307 306 305 304 303 302 302 301 301 300 300 299 298
322 322 321 321 321 320 320 319 320 320 319 319 319 318 319 319 319 319 318 318 319 319 318 318 318 318 318 317 316 314 313 312 312 312 312 312 311 311 311 311 310 309 309 308 308 308 307 306 306 306 306 305 304 303 301 300 299 299 298 297 296 296 296
322 321 322 321 321 320 320 319 319 320 320 320 319 319 319 319 319 319 319 319 319 319 319 319 319 319 319 319 318 316 315 313 313 313 313 313 311 311 311 311 310 310 309 309 308 308 307 306 306 306 305 305 303 301 298 296 295 295 295 295 296 296 296
321 321 322 322 321 321 321 320 319 320 321 321 321 321 321 320 320 320 320 320 319 319 320 320 320 320 319 319 318 318 317 315 314 313 313 314 312 311 311 311 310 310 309 309 308 307 307 306 306 305 304 304 302 299 296 294 293 294 295 296 296 296 296
322 321 321 322 322 321 320 320 319 319 319 319 319 320 320 320 320 320 320 320 319 319 319 319 319 319 319 319 318 318 317 316 315 314 314 314 313 311 311 311 310 309 309 308 308 307 306 306 305 304 304 303 301 299 297 295 295 296 297 297 297 297 297
321 320 319 320 320 319 319 320 321 320 319 318 317 318 318 318 319 319 319 319 318 318 317 317 317 317 318 319 319 318 318 317 316 315 314 314 313 312 311 311 311 309 308 308 307 307 306 305 304 303 303 302 300 299 298 297 298 298 298 297 297 297 297
320 320 320 319 320 320 320 320 321 321 320 319 319 319 319 319 319 319 319 319 319 319 318 318 318 318 319 319 320 319 318 317 317 316 315 314 313 312 311 311 310 309 308 308 307 306 305 304 303 303 302 301 300 299 299 299 299 298 298 297 297 297 297
319 319 318 318 318 319 319 319 320 320 319 319 318 318 318 318 319 318 318 319 320 320 320 321 321 321 321 320 320 320 319 318 317 316 315 315 314 313 312 310 309 309 308 308 306 304 304 303 303 302 302 301 301 300 300 299 299 298 298 297 297 297 297
316 317 316 316 317 317 317 317 318 319 319 318 319 319 319 319 319 319 320 321 321 322 322 322 322 321 321 322 321 321 319 318 317 316 315 314 314 312 311 310 308 308 307 306 305 303 303 303 302 302 302 301 301 300 300 300 299 298 298 297 297 297 297
313 313 313 314 314 314 313 314 314 315 316 317 318 319 320 320 320 321 321 321 320 320 319 318 318 319 320 321 321 321 320 318 316 315 315 313 312 311 310 308 307 307 306 305 304 303 303 303 302 302 301 301 301 300 300 300 299 299 298 298 297 297 297
310 311 311 311 311 311 310 310 311 312 314 315 316 317 317 319 320 321 321 320 317 316 315 314 315 317 318 318 318 319 319 318 316 314 313 312 311 309 308 307 306 306 305 304 303 303 302 302 302 301 301 301 300 300 300 299 299 298 298 297 297 296 296
310 310 309 309 309 309 309 309 310 310 312 313 314 315 315 316 318 319 319 318 317 316 316 315 315 315 316 316 317 317 317 316 314 312 311 310 309 307 306 306 305 304 303 303 302 302 301 301 301 301 301 300 300 300 299 298 298 297 297 297 297 297 296
310 309 308 308 308 308 308 309 309 309 311 312 313 314 314 314 315 316 316 316 316 317 316 316 316 315 315 315 315 315 314 313 311 309 309 307 306 306 305 304 303 302 302 302 302 301 301 301 300 300 300 299 299 298 298 297 297 297 296 296 296 296 295
309 309 308 308 308 308 308 308 308 308 309 310 311 312 314 314 314 314 314 314 315 316 316 316 316 315 314 314 313 312 311 310 308 307 307 306 305 304 303 302 302 302 302 301 301 301 300 300 299 299 298 298 297 297 297 296 296 296 295 295 294 294 293
309 309 308 308 308 308 308 308 307 307 307 309 310 310 312 313 314 314 314 314 315 315 316 316 314 312 312 311 311 310 309 308 306 305 305 304 303 302 302 302 302 302 302 301 301 300 299 299 298 298 297 296 296 295 295 294 294 293 293 293 293 292 292
309 309 308 308 308 308 307 308 308 307 306 307 307 308 309 311 313 314 313 314 314 315 315 314 312 310 309 309 308 308 307 307 305 304 303 302 302 302 302 302 301 301 301 300 299 298 297 297 297 296 296 295 294 294 293 293 292 292 292 292 292 292 292
306 306 306 306 307 306 307 308 309 308 307 306 306 306 307 309 311 313 313 313 314 313 313 312 309 307 307 307 307 306 306 305 304 303 302 301 301 301 300 300 300 299 298 297 297 297 296 296 296 295 295 294 293 293 292 292 292 292 292 292 292 291 291
305 305 305 305 305 306 306 308 309 309 309 308 307 306 307 308 310 311 312 312 312 312 310 309 307 305 304 305 305 304 304 304 303 302 301 299 298 298 298 297 297 297 296 296 296 296 296 295 294 294 294 293 293 293 292 292 292 292 291 291 291 291 291
305 305 305 305 304 305 306 308 310 309 309 308 307 307 308 309 310 310 310 311 311 310 308 307 305 304 303 303 303 303 303 302 301 301 300 298 297 297 297 296 296 296 296 296 295 294 294 294 293 293 293 293 293 292 292 292 291 291 291 291 291 291 291
305 305 305 305 305 305 305 306 308 309 308 308 307 307 308 309 309 309 309 310 310 309 307 305 304 304 303 302 302 301 301 300 299 298 297 296 295 296 296 296 296 296 295 294 294 293 293 293 293 293 293 293 292 291 291 291 291 291 291 290 290 290 290

ECMWFFLT1_925_thetae_015.txt.gz
Theta_e
323 321 320 321 321 321 321 321 320 319 319 320 321 322 323 324 323 321 321 322 323 325 325 326 327 328 328 328 328 328 327 326 326 326 325 326 326 326 326 326 326 325 324 325 325 325 328 329 326 322 320 321 323 322 322 321 318 318 317 317 318 317 318
319 318 319 320 321 320 320 320 319 319 318 319 319 321 322 323 321 320 320 321 323 324 325 325 325 325 325 325 326 327 327 327 326 326 326 326 327 327 327 326 326 326 325 325 325 323 325 328 327 323 317 315 317 316 316 315 314 314 314 314 315 315 317
318 318 319 321 320 320 320 320 319 318 318 318 318 318 320 320 320 319 320 320 322 323 323 324 323 323 322 322 324 324 325 326 325 326 325 325 325 325 326 326 326 326 324 322 323 324 323 322 323 320 313 312 315 314 312 313 312 312 312 312 313 314 316
317 318 320 322 320 320 320 319 319 318 317 317 316 317 318 319 319 318 319 320 320 321 322 322 322 321 321 321 322 323 323 322 322 322 322 323 324 324 324 325 325 323 320 317 317 319 318 317 317 316 312 312 313 312 312 312 312 311 311 311 310 311 313
317 317 319 320 320 320 319 319 318 317 316 315 315 316 317 316 316 315 315 318 320 320 320 321 321 321 321 321 322 322 320 318 316 316 318 320 322 322 320 320 319 317 315 314 313 313 313 313 313 313 311 311 312 311 311 312 312 312 311 310 309 308 309
317 316 317 318 320 320 319 319 317 314 314 314 314 314 313 313 313 311 310 314 318 318 318 319 319 319 320 320 321 320 318 315 314 314 315 316 317 316 314 313 313 313 313 312 312 312 312 312 311 311 310 311 312 311 311 312 312 311 311 310 308 306 307
318 317 316 316 318 320 319 319 315 312 312 313 313 313 312 311 311 310 309 312 313 313 313 313 314 314 314 315 317 318 317 314 312 313 314 313 313 312 311 311 311 311 311 311 311 311 312 311 311 310 310 310 310 310 310 311 311 310 309 309 307 306 306
318 317 316 314 315 318 319 317 314 311 311 313 313 312 312 311 310 310 311 312 311 310 308 307 307 306 306 307 309 311 311 309 308 310 311 311 310 309 308 307 308 307 307 306 306 308 310 311 310 309 309 311 312 311 309 309 310 309 308 307 306 306 307
318 317 317 315 314 316 318 316 313 310 311 312 312 312 312 311 310 311 312 312 311 310 306 305 304 304 303 303 303 304 304 303 305 307 309 309 307 305 304 304 304 304 303 303 304 306 309 309 309 308 308 309 313 314 313 314 312 309 308 306 306 307 307
319 318 318 316 314 316 317 316 313 311 312 311 311 312 312 311 310 311 311 311 312 311 309 306 305 303 303 303 303 303 302 302 302 305 306 306 305 304 305 305 305 305 305 306 306 307 308 308 307 307 308 308 309 312 315 317 314 309 308 307 306 307 307
319 319 319 316 314 316 318 317 313 312 312 311 310 311 311 311 311 311 311 311 312 312 311 310 307 305 303 304 304 303 303 302 303 304 306 306 305 306 306 306 306 307 308 308 308 308 308 308 308 308 308 308 309 310 311 313 313 310 308 307 306 306 306
320 318 318 318 316 316 317 316 313 311 312 311 310 311 311 310 310 311 311 310 311 312 312 312 311 308 305 304 306 306 305 304 303 305 306 307 307 308 307 306 305 305 307 308 309 308 307 307 308 308 308 309 308 309 308 309 311 310 307 307 306 305 304
319 314 315 319 318 317 316 315 313 311 312 311 309 310 312 311 309 309 310 310 310 311 311 311 311 310 307 306 308 308 308 308 306 305 306 307 307 308 308 307 306 305 306 307 308 308 307 307 307 307 308 308 307 307 306 307 308 307 306 305 304 304 303
317 312 314 319 319 318 317 315 314 314 313 311 310 311 312 312 310 308 309 310 310 310 310 311 311 310 309 309 309 308 309 309 308 306 307 306 306 308 308 307 309 308 306 306 306 306 306 306 306 306 307 307 306 305 305 305 305 305 305 304 303 303 302
317 314 315 319 319 319 318 315 315 316 315 313 311 310 310 312 312 308 307 307 309 310 310 309 309 309 309 310 311 310 309 309 308 307 308 308 307 307 308 308 309 308 308 307 305 304 305 306 306 306 306 306 306 305 305 304 303 303 303 302 302 300 299
320 318 318 319 319 319 319 317 316 317 317 315 314 313 312 311 313 311 308 306 307 308 308 307 308 308 308 308 309 309 310 309 308 308 309 310 309 307 307 307 307 307 307 308 307 306 305 305 306 306 307 307 306 305 304 303 301 301 301 300 298 297 296
320 320 320 320 319 318 318 318 317 317 318 317 316 315 314 313 314 314 311 308 306 307 307 307 308 308 308 308 308 309 309 309 309 308 308 309 310 310 309 308 307 307 306 307 307 307 306 305 305 306 306 306 306 305 303 300 299 298 297 296 295 295 295
320 320 320 320 320 319 318 318 318 318 318 318 317 316 315 315 316 315 314 311 309 308 309 308 309 309 309 309 309 309 309 310 310 309 308 309 310 310 310 310 310 308 308 308 308 307 306 305 305 306 306 305 305 303 301 299 297 296 295 294 295 295 296
321 321 320 320 320 319 319 318 318 318 318 318 317 316 317 316 316 316 316 315 313 313 313 312 312 312 311 311 311 311 311 310 311 311 310 310 311 311 311 311 311 310 309 309 309 308 307 307 306 306 305 305 304 302 300 298 297 295 294 295 296 296 296
321 321 321 321 320 320 319 318 318 318 318 318 318 317 317 318 317 317 317 317 316 315 315 315 315 315 315 315 314 313 313 313 312 312 312 311 311 312 311 311 311 311 310 310 310 309 308 307 307 306 305 305 304 302 300 299 298 296 296 296 297 296 296
321 321 321 320 320 320 318 318 318 318 318 318 318 318 318 318 318 317 317 318 317 316 316 317 317 317 317 317 317 316 316 316 314 313 314 313 312 312 312 312 311 310 310 310 309 309 308 307 307 306 305 305 303 302 301 299 298 297 297 298 297 297 297
320 321 321 320 320 320 319 318 319 318 319 319 318 318 318 318 318 317 317 317 317 317 317 318 318 318 318 318 319 318 318 318 317 316 316 315 313 313 313 313 312 311 311 310 309 309 308 307 306 306 305 304 303 302 301 300 299 298 298 299 298 297 297
320 320 320 320 320 320 320 320 320 319 319 319 318 318 318 318 318 317 317 318 317 317 317 318 318 318 318 318 318 318 318 319 318 318 317 316 314 315 314 314 312 311 310 310 310 309 308 307 306 306 305 303 302 301 301 300 299 299 299 299 298 298 297
320 320 320 320 320 320 320 319 319 319 319 319 318 319 320 319 319 318 318 318 317 317 317 318 318 318 318 318 318 318 319 319 319 319 318 318 316 316 316 315 313 312 310 310 309 308 307 307 305 305 303 303 302 301 301 300 300 299 299 299 298 298 297
320 319 320 320 319 320 320 319 318 318 318 318 318 319 319 319 318 318 318 317 318 319 319 319 320 320 321 320 320 320 320 320 319 319 318 318 317 316 315 314 314 312 310 309 308 308 306 306 304 303 303 302 301 301 301 300 300 299 299 298 298 297 297
319 319 319 319 319 319 319 318 317 317 317 318 318 318 318 318 318 318 318 318 319 320 321 321 320 319 319 319 320 320 321 321 320 320 318 317 316 315 314 313 313 311 309 308 307 306 305 304 303 302 302 302 301 301 300 300 299 298 298 297 297 297 296
319 319 319 319 319 319 319 319 319 318 318 319 319 318 318 318 318 319 319 320 320 321 320 318 316 315 315 316 317 318 319 320 320 320 319 318 316 315 313 312 311 309 308 307 306 306 304 303 303 302 302 301 301 300 300 300 299 299 298 297 297 296 296
317 317 317 317 317 316 315 315 315 315 315 316 317 317 317 317 318 319 320 320 321 320 318 316 315 314 314 314 315 315 316 318 319 319 318 316 314 313 312 311 309 308 307 306 305 304 303 303 303 302 302 301 301 300 300 299 299 299 298 297 297 297 296
313 314 313 313 314 311 310 310 310 310 312 313 315 315 315 315 316 317 318 319 319 319 317 316 315 315 315 314 313 314 315 316 317 316 315 313 311 310 309 308 307 306 306 305 304 303 303 303 303 302 301 301 300 300 299 299 298 298 297 297 296 296 295
310 311 310 310 310 309 308 309 309 309 310 311 312 313 314 314 314 314 315 316 316 316 316 316 315 315 315 314 313 313 314 315 314 312 311 309 308 307 306 305 306 305 304 303 303 303 302 302 301 301 300 300 299 298 298 297 296 296 296 295 294 294 293
309 309 309 308 307 307 307 307 308 308 308 309 310 311 312 313 313 313 314 314 314 314 315 315 315 315 315 314 313 313 313 312 311 309 308 306 305 305 304 304 304 303 303 302 302 301 301 301 300 300 299 299 298 297 297 296 296 295 294 294 293 293 292
309 309 309 307 305 305 305 306 306 307 306 306 308 309 310 311 312 313 313 314 314 314 314 314 315 314 314 313 312 312 312 311 309 308 306 306 304 304 304 303 302 302 301 301 301 300 300 300 299 299 298 298 297 296 296 295 295 294 293 293 293 292 292
308 309 308 307 306 306 306 306 306 306 305 305 305 307 308 308 308 309 310 312 313 314 314 314 314 313 312 311 311 311 310 309 308 306 305 305 304 303 302 302 301 301 300 300 299 299 299 298 298 297 297 296 295 295 294 294 293 293 292 292 292 291 291
308 309 308 308 308 307 307 307 306 306 306 306 305 305 305 304 304 304 305 308 312 313 313 312 312 311 310 309 308 308 307 307 306 305 304 303 302 302 301 300 299 299 298 298 298 297 297 297 296 295 295 294 294 293 293 293 292 292 291 291 291 291 290
307 307 307 307 307 306 307 307 307 307 307 307 307 306 305 305 304 304 304 307 310 312 312 310 310 309 308 307 306 306 305 305 304 304 303 302 301 300 299 298 297 297 297 297 297 296 295 295 294 294 293 293 293 292 292 292 291 291 291 290 290 290 290
306 305 305 305 305 305 305 305 307 308 308 308 308 307 307 306 306 306 306 307 309 310 309 308 307 307 306 305 305 304 304 304 303 302 302 301 300 298 297 297 297 296 296 296 295 295 294 293 293 293 293 293 292 292 291 291 291 290 290 290 290 290 290
305 305 305 305 305 304 305 304 305 307 308 308 308 308 307 307 306 307 307 308 309 309 308 306 305 304 304 303 303 303 303 303 301 300 300 299 298 297 297 296 296 296 295 295 294 294 293 293 293 292 292 292 291 291 291 290 290 290 290 289 289 289 289

ECMWFFLT1_925_thetae_018.txt.gz
Theta_e
324 323 322 321 321 320 320 319 319 320 320 321 321 321 323 323 322 322 321 323 325 325 326 327 327 328 328 328 328 327 326 326 325 325 325 325 326 326 325 325 324 324 324 323 323 324 327 326 321 317 314 313 313 314 312 312 312 312 313 314 315 316 317
323 322 322 321 321 320 319 318 318 318 319 320 320 320 322 322 321 320 320 322 324 324 324 326 327 326 326 327 327 327 327 326 326 326 325 325 325 325 325 325 325 324 323 324 324 322 323 326 324 319 313 312 312 311 309 310 310 310 312 313 314 314 315
322 321 321 320 320 319 319 318 318 317 317 318 319 320 321 321 320 319 319 321 324 324 324 324 324 324 324 324 325 326 326 326 326 326 325 325 325 325 325 325 326 325 324 323 324 323 321 320 319 316 312 312 312 310 310 309 308 308 309 310 311 311 312
322 320 319 319 319 320 319 318 318 317 317 318 318 318 319 319 318 319 319 320 322 323 323 322 322 322 322 323 323 323 323 323 323 324 325 325 325 325 325 326 325 322 321 320 319 320 318 315 315 314 311 311 312 311 311 310 309 307 307 308 309 308 309
322 319 317 317 318 319 319 319 318 317 317 317 317 318 318 318 318 318 318 318 320 321 321 321 321 320 321 321 321 319 317 318 319 321 323 323 322 322 322 321 319 316 315 314 313 313 313 312 313 312 310 310 311 311 311 310 309 308 307 307 307 307 307
321 319 316 315 317 319 319 318 318 317 317 316 317 317 317 316 315 315 316 318 319 320 320 320 320 320 321 320 319 317 315 315 316 318 320 319 318 317 316 314 314 313 312 312 311 311 311 310 310 310 309 310 310 310 311 310 308 308 307 307 306 306 305
320 318 316 313 315 319 319 318 318 317 316 315 315 315 314 313 312 311 313 317 318 318 318 319 319 319 319 319 318 317 316 315 314 315 315 314 314 313 312 312 311 311 310 310 311 310 310 308 307 308 308 309 309 308 309 309 307 307 307 306 306 305 305
319 318 316 313 313 318 319 318 318 316 313 313 314 313 312 311 310 308 310 314 315 313 313 313 314 314 315 317 318 318 315 313 311 312 312 311 310 308 307 307 306 305 305 307 307 308 307 306 307 306 306 308 309 307 307 308 308 307 306 306 306 305 304
318 317 316 315 315 317 317 316 316 313 310 312 313 313 312 311 310 308 308 310 309 307 306 306 306 306 307 310 313 312 310 308 309 309 309 307 305 303 303 303 302 302 303 304 305 306 307 307 308 307 306 307 308 309 311 311 308 307 306 306 305 304 304
319 317 317 316 315 314 315 315 315 312 309 311 313 312 312 311 310 309 309 309 308 305 304 303 303 303 303 304 305 305 305 306 308 307 306 304 303 303 303 303 303 304 305 306 306 307 308 308 308 309 309 307 307 312 316 314 309 307 307 305 304 304 303
318 318 318 317 315 314 315 315 315 313 310 310 311 311 312 311 311 311 311 310 310 308 306 304 303 302 302 302 302 302 304 306 307 306 305 305 305 305 305 305 306 306 307 307 307 307 308 308 308 308 309 309 307 309 312 312 310 308 306 304 303 303 302
318 318 319 317 314 315 316 316 316 314 311 310 311 310 311 312 311 312 312 311 311 311 310 307 304 303 303 303 302 302 304 305 305 307 307 307 306 305 305 307 307 307 308 308 307 307 307 307 308 308 309 308 307 306 307 308 309 307 305 304 302 301 300
318 318 319 316 312 313 316 316 317 315 311 310 310 309 310 311 312 312 312 312 312 312 312 311 308 305 304 305 304 303 304 304 304 305 307 307 307 305 304 305 306 307 308 308 307 307 307 307 307 307 307 306 306 306 305 305 306 306 304 303 301 299 296
317 319 319 315 311 312 315 316 318 316 312 310 310 309 309 310 311 312 312 312 312 312 313 313 311 308 306 306 307 306 305 305 305 305 305 306 307 307 306 305 306 305 306 306 306 306 306 306 306 306 306 306 305 306 305 303 303 303 302 301 298 296 295
317 319 319 315 312 313 315 317 318 318 314 312 312 310 309 310 312 313 312 312 312 313 312 312 312 310 308 308 308 308 307 306 306 305 305 305 306 307 307 307 307 306 306 305 304 305 305 306 306 306 306 306 306 305 303 301 300 300 299 297 295 295 295
319 319 319 315 310 312 317 318 319 318 315 314 314 313 311 311 311 313 313 312 312 312 312 312 312 311 310 310 310 310 309 308 307 306 305 305 305 306 307 307 307 307 307 307 306 305 305 305 305 306 306 306 305 304 301 300 299 298 296 295 295 295 296
319 319 319 317 312 313 318 319 319 318 316 315 315 315 314 312 311 312 312 312 311 311 311 312 312 311 311 311 312 311 311 310 309 308 308 308 307 307 306 307 307 306 306 306 306 306 305 305 304 305 305 305 304 303 301 299 299 298 295 295 295 296 296
318 318 319 318 316 316 318 319 319 318 317 317 316 315 315 314 314 313 313 313 313 312 311 311 311 312 312 312 312 312 311 311 311 310 310 310 310 309 309 308 308 307 307 307 307 307 306 305 305 305 305 305 304 303 301 300 299 298 297 296 296 296 297
319 319 319 319 319 318 319 318 318 318 318 317 317 316 316 316 315 315 315 315 315 315 314 312 311 311 311 312 312 312 312 311 311 311 311 310 311 311 310 310 310 309 309 308 308 308 307 307 306 306 305 304 304 302 301 300 299 299 298 298 297 297 297
319 319 319 320 320 319 319 319 318 318 318 318 318 318 317 317 317 316 316 316 316 316 316 315 314 313 313 312 312 312 312 312 311 311 311 311 311 311 311 311 311 311 310 309 309 308 308 307 307 306 305 305 303 302 301 300 299 299 299 298 298 298 298
319 320 319 319 319 320 320 319 319 319 318 318 318 318 318 318 318 317 317 317 317 317 317 317 316 316 315 315 314 314 314 313 312 312 313 312 312 312 313 313 312 311 311 311 310 309 309 308 308 307 306 305 303 302 301 300 300 300 299 299 299 298 298
319 320 321 320 320 320 320 320 319 317 317 318 319 318 317 317 317 317 318 317 317 317 317 317 317 317 316 316 315 315 316 315 315 315 317 316 315 315 316 316 314 312 312 311 310 310 309 309 308 307 306 305 304 302 301 301 300 300 299 299 299 299 299
320 320 321 321 320 320 320 320 318 316 316 317 317 317 317 317 316 317 318 317 318 318 317 317 317 317 317 317 317 317 317 317 316 317 318 318 318 317 317 318 316 314 313 312 311 310 309 309 308 307 306 305 303 302 301 301 300 300 300 300 299 299 299
321 320 320 320 320 320 320 320 319 318 317 317 317 317 316 316 316 317 318 318 317 317 317 317 317 317 317 317 317 317 317 317 317 317 318 318 318 318 318 318 317 315 314 314 313 310 309 309 308 307 305 304 302 301 301 301 300 300 300 300 299 299 298
320 320 320 320 320 319 319 319 319 318 318 317 317 317 317 316 316 317 318 318 316 316 316 317 317 318 319 318 318 318 318 319 319 319 319 319 319 319 318 318 317 316 315 314 313 311 309 308 306 305 304 302 301 301 301 301 300 300 300 299 299 298 297
319 320 319 320 320 319 319 319 319 318 318 318 318 318 318 318 317 318 318 317 316 317 317 317 318 319 319 319 319 319 319 319 320 320 320 319 319 318 317 316 316 316 315 314 313 311 308 307 305 304 303 302 301 301 301 301 300 300 299 299 298 297 297
318 319 319 319 319 319 319 319 318 318 318 318 318 318 318 318 318 318 318 317 318 318 317 318 319 318 317 316 317 317 317 317 318 319 319 319 318 318 316 315 314 314 313 313 311 309 307 306 305 303 302 301 301 301 301 301 300 299 299 298 297 297 297
318 318 318 318 318 318 318 319 318 318 318 318 318 318 318 318 318 317 318 318 318 318 319 319 318 315 314 314 313 313 313 315 316 317 318 317 317 316 314 313 312 311 311 310 308 306 305 305 303 302 301 301 301 301 301 300 299 299 299 298 298 297 297
316 318 318 318 318 317 316 316 316 316 317 317 317 317 318 318 318 318 318 319 319 320 320 318 315 314 314 314 312 311 312 314 315 315 315 314 313 313 311 310 309 309 308 307 305 304 304 303 302 301 301 301 301 300 299 299 298 298 297 297 296 296 295
314 315 316 316 316 313 311 311 311 312 314 315 316 316 316 315 316 316 317 317 318 319 319 316 314 314 315 314 312 311 312 314 314 313 312 311 310 309 309 307 307 306 305 304 304 303 302 302 302 302 302 300 299 299 298 297 297 296 296 295 294 294 293
311 312 313 313 312 310 308 309 309 310 311 313 314 314 314 314 314 314 314 314 315 316 316 315 314 314 314 313 312 312 312 313 312 311 310 308 307 306 305 304 304 304 304 303 303 302 302 302 302 301 300 299 298 297 297 296 295 295 294 293 293 292 292
309 310 310 309 309 308 308 308 308 308 308 309 311 312 312 313 312 312 312 312 313 314 314 313 313 313 313 313 312 311 312 312 310 309 307 305 304 303 303 302 302 302 302 302 301 301 301 300 300 299 299 298 297 296 295 295 294 293 293 292 292 292 292
308 308 309 308 307 307 307 307 307 307 307 307 308 309 309 308 308 307 307 307 307 310 312 313 313 313 312 312 311 311 311 311 310 308 306 305 304 303 302 301 301 300 300 300 300 300 300 299 299 298 297 297 296 295 294 294 293 292 292 292 292 292 291
307 308 309 308 307 306 307 307 307 307 306 306 307 306 305 304 304 304 304 304 304 306 310 311 312 312 311 311 310 310 310 309 309 308 306 304 303 302 301 300 300 299 299 299 299 299 298 298 297 296 295 295 294 294 293 293 292 292 292 291 291 291 290
306 307 308 308 307 307 307 307 307 307 307 306 306 305 304 304 304 305 304 304 304 305 308 310 310 310 309 309 308 308 307 307 307 306 305 303 302 301 300 299 299 298 298 298 297 297 296 296 295 295 294 293 293 293 292 292 291 291 291 290 290 290 289
305 306 307 308 308 308 307 308 307 306 307 307 307 306 306 305 306 305 305 304 305 306 308 309 310 309 307 305 305 305 305 305 305 304 303 302 301 300 299 298 298 297 297 296 296 295 295 294 294 293 293 292 292 292 291 291 290 290 290 289 289 289 289
304 304 305 306 307 307 306 307 307 306 306 308 308 308 307 307 307 306 305 305 306 307 308 309 309 308 306 304 304 303 303 303 302 302 302 301 300 299 298 297 297 296 295 295 294 294 293 293 293 292 292 291 291 291 290 290 290 289 289 289 289 289 288

ECMWFFLT1_925_thetae_021.txt.gz
Theta_e
325 323 322 321 321 320 319 319 320 320 321 322 322 323 323 321 321 321 322 324 324 325 327 327 327 327 327 327 327 327 327 327 326 327 327 327 327 327 326 324 323 322 323 324 325 326 324 319 316 315 313 312 311 312 312 312 312 312 312 312 313 315 317
324 322 322 321 320 319 319 319 320 320 320 320 320 321 323 321 320 319 320 323 325 325 326 326 327 327 327 328 327 327 327 327 326 326 327 327 327 327 326 326 325 325 324 324 324 325 324 321 317 315 314 312 311 312 311 311 310 309 309 309 310 311 312
324 322 321 320 319 318 318 318 319 319 319 319 319 320 321 320 319 319 319 323 325 324 324 324 324 325 326 327 327 327 327 327 326 326 326 327 327 327 326 327 326 326 326 326 325 324 323 321 319 316 315 315 313 312 311 310 309 309 308 308 308 308 308
323 322 321 320 319 318 317 317 318 318 318 319 318 319 319 319 318 318 318 321 324 323 322 322 321 322 323 324 324 325 326 326 326 326 325 325 326 326 326 327 326 326 325 325 324 323 322 320 318 316 315 315 314 313 311 310 309 309 308 308 307 307 306
323 322 320 319 318 318 318 317 317 317 317 318 318 318 318 318 318 317 317 319 323 323 321 321 320 321 321 320 320 321 323 324 324 324 325 325 325 325 325 323 321 321 321 320 320 320 320 319 317 316 315 314 314 313 311 311 309 308 308 307 307 306 305
322 320 319 318 318 318 318 317 317 317 317 317 318 318 318 317 316 316 317 320 322 322 321 320 320 320 319 317 317 318 319 322 323 323 323 323 323 321 319 317 316 317 316 315 315 315 316 316 315 315 314 314 314 313 312 311 310 308 307 306 306 306 304
321 319 318 317 317 318 318 318 317 317 317 317 318 317 315 314 313 315 318 320 321 321 320 320 320 320 318 317 317 316 317 319 320 319 318 319 318 316 315 315 314 314 312 311 311 311 312 312 312 313 313 314 315 313 311 310 310 310 308 306 305 305 304
321 319 318 317 314 315 318 318 318 316 315 315 316 314 312 311 311 314 318 318 318 318 318 318 319 318 317 316 317 315 314 315 315 315 314 314 313 313 313 311 310 310 309 309 309 309 310 310 311 313 313 313 314 313 312 310 310 309 308 307 305 303 303
321 318 318 318 314 315 317 318 317 314 312 313 314 312 312 311 310 312 315 315 314 314 313 314 315 316 316 316 316 314 312 313 312 311 310 308 307 307 306 305 306 307 307 307 308 307 307 307 309 311 311 312 312 313 312 311 310 309 307 307 305 302 301
319 316 317 318 316 315 317 317 317 312 310 312 313 312 312 311 310 309 310 311 310 309 308 308 309 312 314 314 312 310 310 310 309 306 305 304 303 302 302 302 304 307 307 307 308 307 307 307 308 309 309 310 311 311 311 310 311 311 308 306 305 302 299
319 318 318 318 316 315 314 315 316 312 309 310 311 312 312 311 310 309 310 310 309 308 306 304 304 306 309 309 309 308 308 307 305 303 303 302 302 303 303 303 305 307 307 308 308 307 307 307 308 308 308 309 310 310 310 310 310 310 309 306 303 301 299
320 319 319 318 317 316 312 313 316 314 309 308 309 311 312 311 311 310 310 311 311 310 308 305 303 303 304 305 306 308 307 306 305 305 305 304 304 305 305 306 307 308 307 307 307 307 307 307 308 308 308 308 309 309 310 311 310 309 309 306 302 299 298
320 319 319 318 318 316 311 313 317 315 311 310 309 309 310 310 311 311 311 311 311 312 312 309 306 305 305 304 304 307 307 307 307 307 306 306 306 307 307 308 308 307 307 308 307 307 307 307 308 309 309 308 309 308 309 310 310 309 307 304 301 298 297
319 319 319 318 318 317 313 314 317 315 313 312 311 309 309 309 310 311 312 312 312 312 313 312 310 308 308 307 306 306 307 307 308 308 307 306 305 306 307 308 307 307 307 307 307 307 307 307 307 307 308 309 308 308 307 308 309 308 306 302 300 298 297
319 319 318 318 319 318 314 314 317 316 315 313 312 311 309 309 309 311 311 312 312 312 313 313 312 310 309 309 309 308 307 307 307 307 307 307 306 306 306 306 305 305 305 305 306 307 307 307 307 307 308 308 307 305 305 306 306 306 305 302 300 299 298
318 318 317 317 318 318 315 314 316 317 316 314 313 312 311 310 310 311 312 312 312 312 312 312 312 311 310 310 311 311 310 309 308 306 307 307 307 307 307 307 306 305 305 304 305 306 306 306 307 307 306 306 304 303 302 304 305 305 304 302 300 300 300
318 317 316 316 318 319 317 314 314 317 317 315 313 313 313 311 310 311 312 313 312 312 312 312 312 312 311 311 311 311 311 311 310 308 308 307 306 306 308 309 308 307 307 306 305 305 305 306 307 306 305 304 303 302 301 302 303 303 303 302 301 300 300
318 317 316 317 318 319 317 313 314 317 318 316 315 314 314 313 312 312 312 313 314 313 312 312 311 311 312 311 312 312 312 312 311 311 310 309 308 308 307 308 308 307 307 307 307 306 306 305 306 306 305 304 303 302 302 301 302 302 303 304 302 300 300
318 317 318 318 319 319 317 314 314 317 318 317 316 316 316 315 314 314 314 314 314 315 314 314 313 312 312 312 312 312 312 312 311 311 311 311 311 310 309 309 308 307 308 308 307 307 306 306 306 306 305 305 304 303 302 301 302 302 303 303 302 302 301
318 318 318 318 318 318 318 316 316 317 317 317 317 316 317 316 316 316 316 315 315 316 316 316 316 315 315 315 315 314 314 313 313 312 312 312 311 311 311 310 310 309 308 309 308 308 308 307 307 306 306 305 303 302 302 302 302 303 303 303 303 303 302
319 318 318 318 318 319 319 318 318 318 318 318 318 317 317 317 317 317 317 317 316 317 317 317 316 316 317 317 317 316 316 315 315 314 314 314 314 313 312 311 312 312 312 311 310 309 308 308 307 307 306 305 303 303 302 303 303 304 304 304 304 303 303
319 319 319 319 319 319 319 320 319 319 318 318 318 318 318 318 317 317 318 317 316 317 316 317 316 316 317 317 317 317 316 316 316 316 316 317 317 316 315 313 312 314 314 314 311 309 308 308 308 307 307 306 304 304 303 303 304 304 304 305 305 304 304
319 319 319 319 320 319 319 319 319 318 318 318 318 319 318 318 318 318 317 317 317 317 316 317 317 317 317 317 316 317 317 317 317 317 317 317 317 317 317 315 314 314 315 314 312 310 308 308 308 308 307 306 305 304 303 303 304 304 304 305 304 303 304
319 319 319 319 320 320 319 319 319 318 318 318 318 318 318 318 318 317 317 317 316 316 316 316 317 317 316 316 316 317 317 317 317 317 317 317 317 317 317 317 316 316 316 315 313 311 310 309 308 307 306 305 304 303 302 303 303 303 303 304 303 302 303
319 319 319 320 320 320 319 319 319 318 318 318 318 318 318 318 317 317 317 317 316 315 316 316 315 315 314 315 317 318 317 317 317 318 318 318 318 318 317 317 317 317 316 315 313 312 311 309 307 306 305 303 302 302 302 302 303 302 302 303 302 302 303
319 319 319 319 319 319 319 319 319 318 318 318 318 318 317 317 317 317 316 316 315 315 314 314 314 314 315 317 318 319 319 319 319 319 319 319 319 319 318 317 317 316 316 315 313 312 311 309 307 305 304 302 301 301 301 301 302 302 302 301 302 302 302
319 319 319 319 319 319 319 319 319 319 319 318 318 318 318 317 317 317 316 316 315 315 315 315 315 316 317 318 319 318 318 318 318 319 319 319 319 319 318 317 316 315 314 314 312 311 310 308 306 303 302 301 300 300 301 302 302 301 300 300 301 301 300
317 318 318 319 318 319 319 318 319 319 318 318 318 318 318 318 317 317 317 317 317 317 316 315 316 317 318 317 315 314 315 315 315 316 317 318 318 318 317 316 315 313 312 312 311 310 308 306 304 302 301 300 300 301 301 301 301 300 300 299 299 299 298
313 315 317 318 318 318 318 318 318 318 318 318 318 317 318 318 318 318 317 317 318 317 315 315 317 318 316 314 313 312 311 313 314 316 316 316 315 314 313 312 311 310 310 310 309 308 306 305 303 301 300 300 301 301 301 300 299 299 299 298 297 296 296
309 312 315 317 318 318 317 317 317 317 317 317 317 317 317 317 318 318 317 317 317 317 316 317 317 316 314 313 312 311 311 313 314 314 313 312 311 310 310 309 308 308 308 307 305 304 303 303 302 301 301 301 301 300 299 298 298 298 297 296 295 295 294
308 310 312 315 317 316 313 312 313 314 315 317 317 317 317 317 317 318 317 317 317 317 317 317 315 314 314 313 312 311 312 313 313 311 310 309 309 308 307 306 306 305 305 303 302 302 301 302 302 301 301 301 300 298 298 297 296 296 295 294 294 293 293
306 308 309 312 314 313 310 309 310 311 313 315 315 315 316 315 316 316 316 316 316 316 315 315 314 314 314 313 312 312 312 312 311 309 308 307 305 305 304 303 303 303 303 302 301 301 301 301 301 300 300 300 299 298 297 296 295 295 294 294 294 293 293
305 306 307 309 311 310 308 308 309 310 312 314 314 314 314 314 313 313 312 312 313 314 314 314 313 314 313 312 312 312 311 311 309 307 305 304 303 302 301 301 301 301 302 301 301 301 301 300 300 300 299 300 300 298 296 294 294 294 294 293 293 293 293
303 305 305 307 308 308 308 308 308 308 309 311 312 312 312 310 309 307 306 306 307 309 311 313 313 313 313 312 311 311 310 310 309 307 304 303 301 301 300 300 300 300 300 301 300 300 300 300 300 299 298 298 297 295 294 294 293 293 293 293 293 293 293
302 303 304 306 307 307 307 307 307 306 307 309 310 310 308 306 304 304 304 304 305 307 309 312 312 312 312 311 310 309 309 308 308 307 305 303 301 300 300 300 299 299 300 300 300 299 299 298 298 297 296 295 294 293 293 293 293 293 293 293 293 293 293
300 302 303 305 306 307 306 307 307 306 306 307 307 306 304 303 304 304 305 306 307 308 309 310 311 310 310 309 308 307 307 307 306 306 305 303 301 300 299 299 298 298 298 298 298 298 297 296 295 294 294 293 293 293 292 292 292 292 292 292 292 293 293
300 301 302 303 304 305 306 306 306 307 306 306 305 304 304 305 305 304 305 306 307 308 308 309 309 308 308 308 306 305 305 305 304 304 303 302 301 300 299 298 297 297 296 296 296 295 295 294 293 293 293 293 292 292 292 292 292 292 292 292 292 293 293

ECMWFFLT1_925_thetae_024.txt.gz
Theta_e
330 330 329 328 326 324 323 323 323 324 326 326 326 326 325 325 326 326 326 327 327 327 327 327 328 329 329 330 330 330 330 330 329 328 329 329 330 330 329 329 329 329 328 328 328 327 325 322 320 320 319 319 319 318 317 317 318 318 317 317 317 318 318
329 328 327 326 325 324 323 323 324 324 325 325 325 326 325 324 324 324 325 327 327 326 326 327 328 329 330 331 331 330 330 330 329 328 328 328 329 330 330 329 329 328 328 328 328 327 325 322 320 319 319 319 318 317 317 316 316 316 316 315 315 316 316
328 327 326 325 324 323 323 323 324 323 324 324 324 325 325 324 324 323 324 326 326 325 325 326 327 328 329 329 330 330 330 330 329 329 329 328 329 329 329 329 329 328 328 328 327 327 326 323 321 319 319 319 319 317 316 315 315 315 315 314 314 314 315
329 327 326 325 324 323 322 323 322 322 323 323 323 323 324 323 323 322 323 325 326 325 325 324 324 325 326 327 328 329 330 330 330 329 329 329 329 328 328 328 328 328 328 328 327 326 326 325 322 320 320 319 318 317 315 314 313 313 313 313 313 313 313
329 327 326 324 323 322 322 321 321 321 322 322 322 322 322 322 321 321 323 324 325 324 324 323 322 323 323 325 326 327 328 329 329 329 329 329 329 329 328 328 327 327 327 326 326 325 324 323 322 321 320 318 317 315 314 313 312 312 312 311 311 311 311
329 327 326 324 322 322 321 321 320 320 320 321 322 321 321 321 320 321 323 323 323 323 323 322 322 322 322 322 323 325 326 327 328 328 329 329 329 327 326 325 324 325 324 324 324 323 322 321 321 320 319 317 316 315 314 314 313 311 311 310 309 309 309
329 328 325 323 322 322 321 321 320 320 320 320 322 321 320 320 320 321 323 323 323 323 322 322 321 321 321 320 321 322 323 324 325 326 327 326 325 324 322 322 321 321 320 319 318 318 319 319 319 319 317 316 315 315 314 313 313 312 310 309 308 307 308
328 327 325 323 322 321 321 321 320 319 319 320 320 320 319 319 320 321 322 321 321 321 321 321 320 320 320 319 319 320 320 321 321 322 322 322 322 321 319 318 316 315 314 313 313 313 313 314 315 315 314 315 315 315 314 313 313 313 310 308 306 306 306
327 326 324 322 321 321 320 319 319 318 319 319 319 318 318 319 319 319 319 318 318 317 318 319 319 319 319 318 317 317 318 318 318 318 318 318 318 318 316 314 313 313 312 312 312 312 312 312 313 313 314 315 315 315 314 313 313 312 310 309 306 304 304
325 324 325 324 322 321 320 319 318 318 318 319 318 318 318 318 317 317 316 316 314 314 314 316 316 317 318 317 316 315 316 316 315 315 315 315 315 314 314 313 312 313 313 313 313 313 313 312 312 313 313 314 315 315 315 315 314 312 309 308 307 304 303
322 323 325 324 320 320 321 319 317 317 318 318 317 318 318 317 316 316 315 315 313 312 311 312 313 315 315 314 314 314 314 313 313 313 313 313 314 314 314 314 313 314 315 315 315 315 314 313 312 312 313 313 313 314 315 314 313 313 310 307 306 304 303
322 323 324 321 319 320 321 319 317 317 318 318 317 317 317 316 316 315 315 315 314 312 311 311 312 313 313 313 312 312 312 311 311 312 312 313 314 314 315 315 314 315 315 315 315 315 315 314 313 313 313 313 314 314 314 314 313 312 312 308 305 303 303
324 323 321 319 320 322 320 318 317 317 318 318 317 317 317 316 315 315 315 315 314 314 312 312 312 312 312 313 312 311 312 311 311 312 312 313 313 314 315 315 314 314 314 314 314 315 315 314 314 313 313 313 314 314 314 315 314 312 311 308 305 303 303
324 321 321 321 323 323 320 319 319 318 318 318 317 317 316 315 315 315 315 315 315 316 314 313 313 313 313 313 313 312 313 312 312 312 312 313 313 313 313 313 313 313 314 313 314 313 313 314 314 313 313 313 313 313 313 314 314 312 309 307 305 304 303
324 323 323 324 325 323 320 319 320 319 318 319 317 316 315 316 316 316 315 315 316 317 316 315 315 314 313 313 313 313 314 313 312 312 312 312 312 313 313 312 312 313 313 313 313 313 312 312 313 313 313 312 311 311 312 313 314 313 310 307 306 305 304
325 325 325 325 325 324 320 318 319 319 319 319 319 317 316 316 315 315 315 316 316 317 316 315 315 315 315 314 314 314 314 313 313 313 313 312 311 312 313 312 312 312 313 313 312 312 311 312 312 313 312 311 311 310 311 312 312 313 311 309 307 306 306
325 325 325 325 325 324 321 319 319 320 320 319 318 318 317 316 315 315 315 315 315 316 316 316 316 315 316 316 316 315 314 314 314 313 313 312 311 311 312 313 313 312 313 313 312 312 312 312 312 313 312 311 311 310 310 311 311 312 312 310 308 307 307
325 325 324 324 324 324 322 320 319 320 321 320 319 318 317 317 317 316 316 315 316 315 315 316 315 315 315 316 316 316 315 315 315 314 315 314 313 312 313 314 313 313 313 314 313 312 312 312 312 313 312 311 311 311 311 310 311 311 312 311 310 308 307
325 325 324 324 323 323 323 322 321 321 321 321 320 319 318 318 318 318 317 316 316 316 316 316 316 315 315 315 316 316 316 316 316 315 315 315 314 314 314 315 315 314 314 314 314 314 313 313 312 312 312 312 311 311 311 311 311 311 311 311 310 309 308
325 324 324 324 323 323 323 323 322 321 321 321 321 320 320 319 319 319 318 318 318 318 318 318 318 317 317 317 318 318 318 318 317 317 316 316 315 316 315 315 315 315 314 313 313 314 313 313 313 312 312 312 311 311 311 311 311 312 312 311 311 311 310
325 324 324 324 323 323 323 323 322 321 321 321 321 321 321 320 320 320 320 320 320 320 320 321 320 320 320 320 321 321 321 320 319 319 319 318 318 317 317 316 316 315 314 314 314 314 314 314 313 313 312 311 310 311 311 311 312 312 312 312 311 311 311
324 324 324 324 323 323 323 322 322 321 322 322 322 322 321 321 321 321 321 321 321 321 321 321 321 321 322 322 322 322 322 321 321 321 321 321 320 320 320 319 318 317 316 315 314 314 314 314 313 312 312 311 310 310 311 312 312 312 312 312 311 311 311
324 324 324 324 323 322 322 322 323 323 323 322 323 323 322 322 323 322 322 321 319 319 319 319 319 318 319 320 321 321 322 321 321 321 321 322 321 322 321 321 320 318 316 315 314 314 314 312 311 311 311 311 310 310 311 312 312 312 312 312 311 311 311
324 323 323 323 322 322 322 322 323 323 323 323 323 324 323 323 323 322 322 321 318 317 317 317 316 316 317 317 318 319 320 321 321 322 322 322 322 322 321 321 321 319 317 316 315 314 314 313 310 308 309 309 308 308 310 311 311 311 311 312 311 310 310
323 323 323 323 322 322 322 322 323 323 323 323 323 323 323 323 322 321 322 321 320 318 317 316 316 316 316 316 316 316 317 319 319 320 321 321 321 320 319 320 321 321 318 317 316 315 314 313 310 307 307 308 306 305 307 308 309 310 310 310 310 309 309
323 323 323 323 322 322 322 322 323 323 323 323 322 322 322 321 322 321 321 321 321 320 318 317 316 316 316 316 315 314 315 317 318 319 320 320 320 320 320 321 321 321 319 316 315 315 314 313 311 308 307 307 304 303 303 304 305 306 307 308 308 307 307
321 321 322 322 322 322 322 322 322 322 322 322 322 321 321 321 321 321 321 321 321 320 319 317 316 316 316 315 314 314 317 318 318 319 320 320 320 320 320 320 320 319 318 316 315 315 313 312 311 309 307 304 302 302 303 302 303 303 304 305 305 306 306
316 318 320 320 321 322 322 322 322 322 322 322 322 321 321 321 321 321 322 321 321 320 319 317 316 315 314 314 314 316 318 317 316 317 319 319 319 319 319 319 318 318 317 315 314 314 311 310 309 307 305 305 304 304 303 302 303 303 303 304 304 305 305
313 315 317 318 320 321 321 321 321 321 322 322 322 322 322 322 322 322 322 321 321 320 319 317 316 315 315 315 316 316 315 313 314 317 318 317 317 317 317 317 317 317 315 313 313 311 309 308 307 307 306 307 306 304 302 302 302 302 301 302 302 302 301
311 313 314 316 318 319 320 320 320 320 321 321 321 321 321 322 322 322 321 320 320 320 319 317 315 316 316 316 315 315 314 313 314 316 316 315 315 314 314 314 314 313 311 310 310 309 307 307 308 307 307 307 306 304 302 301 301 300 300 300 299 298 297
310 311 312 314 315 317 318 318 318 319 319 320 320 321 321 321 321 321 320 320 320 320 318 316 315 317 317 315 314 315 315 314 315 315 314 313 311 310 310 311 311 310 309 308 308 306 305 307 308 308 307 307 306 305 303 301 300 300 299 299 298 297 296
309 310 311 312 314 316 317 317 316 317 317 318 320 321 320 320 320 320 319 319 318 318 317 316 316 317 316 313 313 315 314 313 314 313 312 311 308 307 307 307 307 307 307 306 305 303 303 306 308 307 307 306 306 306 304 302 302 301 301 300 299 299 298
307 308 309 310 311 313 315 315 315 315 315 315 318 319 319 320 319 318 317 318 317 317 317 316 316 316 314 312 313 314 313 312 313 312 311 310 308 306 305 304 304 304 304 304 303 301 302 305 307 307 306 306 306 305 304 302 301 299 299 300 300 299 299
306 307 308 308 309 310 312 314 314 313 313 314 316 317 318 319 318 317 316 316 317 316 316 315 314 314 314 313 312 312 312 312 311 311 310 309 308 306 304 302 301 302 302 302 302 301 301 302 304 305 305 305 304 302 301 301 299 297 297 299 299 298 298
306 306 307 307 308 309 310 312 313 313 312 313 315 317 317 316 316 315 315 315 316 315 314 314 314 314 314 312 312 312 312 312 311 310 309 308 308 306 304 301 301 301 301 301 301 301 301 301 302 302 301 300 299 297 297 298 298 297 298 298 298 297 297
305 305 306 307 308 308 309 311 312 312 312 313 314 316 315 315 314 313 313 313 314 313 313 313 313 314 313 312 312 312 312 311 310 310 309 308 307 305 303 302 301 300 300 300 300 300 300 300 300 299 297 296 295 294 295 297 297 297 297 297 297 297 297
303 304 305 306 307 308 309 310 310 311 312 312 312 313 314 314 312 311 310 311 311 312 312 312 313 313 312 312 311 311 310 309 309 309 309 308 306 304 302 302 301 299 299 299 299 299 298 298 296 296 295 294 293 294 295 297 297 297 297 297 297 297 297

ECMWFFLT1_925_thetae_027.txt.gz
Theta_e
329 329 328 327 324 322 323 323 324 326 327 326 326 327 327 327 327 327 328 327 327 325 326 326 329 330 330 330 331 331 331 332 333 332 331 331 330 330 331 329 329 329 329 328 327 328 328 325 323 323 322 322 321 320 320 320 319 319 319 320 320 320 321
328 329 327 325 324 323 325 324 324 326 326 326 326 326 326 326 326 326 327 327 327 326 325 325 329 331 331 332 331 331 332 332 332 331 331 332 330 329 330 328 328 328 328 328 326 325 327 325 322 322 322 321 321 320 319 318 318 318 317 318 318 318 318
328 328 326 325 324 324 325 325 325 325 324 324 325 325 325 325 325 326 327 327 327 326 325 326 327 330 331 332 332 332 332 332 332 330 328 329 329 328 328 328 328 329 328 328 326 325 326 325 322 322 322 322 321 319 318 318 317 317 317 317 317 317 317
328 327 326 326 325 324 324 324 325 325 324 324 324 325 325 324 324 325 327 327 326 325 325 325 325 326 327 329 331 331 331 331 332 329 326 326 327 328 328 328 328 328 328 328 327 326 326 325 322 323 323 322 320 318 317 316 315 315 315 315 315 316 316
328 327 326 326 324 324 324 324 324 324 324 323 324 324 324 323 322 324 326 326 326 325 325 324 324 324 324 326 328 330 330 331 331 329 327 327 329 328 328 327 326 327 327 326 327 326 326 325 323 323 321 320 318 316 315 315 314 313 313 313 313 314 314
329 327 325 325 324 323 323 323 322 322 322 323 324 323 323 323 322 323 325 325 325 325 325 324 323 323 323 324 326 327 329 329 329 330 329 329 330 329 327 326 325 327 326 325 326 325 325 324 322 321 320 318 316 315 314 314 313 312 311 311 311 312 312
329 327 325 324 323 322 322 322 322 322 322 323 323 323 322 322 323 324 324 324 324 324 323 322 322 322 322 323 324 325 326 326 328 329 329 328 328 326 325 324 324 324 323 322 323 323 322 322 320 319 318 317 316 316 315 314 313 312 310 310 309 310 310
329 327 325 323 323 323 322 322 322 321 322 323 323 321 321 322 323 324 323 323 322 322 321 320 320 321 322 321 322 322 322 323 325 325 326 325 324 322 321 320 320 319 317 317 317 318 319 319 318 318 317 316 315 316 315 314 314 312 310 309 307 308 309
328 326 324 323 324 323 322 321 321 321 321 322 321 319 320 322 322 322 321 321 320 320 321 320 320 321 321 319 319 319 319 319 320 321 321 321 320 318 317 316 315 315 314 314 314 315 315 315 316 315 316 316 315 315 315 314 314 312 312 310 308 307 308
327 326 324 323 322 322 321 320 320 321 321 321 320 319 320 320 320 318 318 317 317 318 319 320 320 320 319 318 318 318 318 317 317 317 317 317 317 316 315 314 314 315 315 315 315 314 314 314 314 315 315 316 315 315 315 315 315 312 311 310 308 307 306
327 326 326 324 322 321 320 320 319 320 320 319 319 319 319 318 318 317 316 315 315 315 316 317 318 318 317 317 317 316 316 316 315 316 316 316 316 316 316 316 317 317 317 317 316 316 315 315 315 315 315 315 316 316 316 316 316 313 311 309 308 307 306
327 327 327 325 324 322 319 318 318 319 319 318 318 318 317 317 316 316 315 314 314 314 314 315 315 315 314 314 314 314 314 314 315 315 316 316 317 318 318 318 318 318 318 318 318 317 316 316 315 315 316 316 316 317 316 316 316 315 313 309 308 308 307
327 327 327 325 324 321 319 317 318 319 318 317 317 317 316 316 315 315 315 314 313 313 313 314 314 314 313 313 313 312 313 313 313 314 315 316 317 318 318 318 317 316 317 317 317 317 317 316 316 315 316 316 317 317 317 317 316 314 313 310 309 308 308
326 327 326 325 324 321 318 317 318 319 318 316 316 316 315 315 315 315 315 314 313 313 313 314 314 314 313 313 312 313 313 312 313 314 315 315 316 317 317 316 317 317 316 316 316 316 316 316 316 316 316 316 316 316 317 316 316 314 312 310 309 309 308
326 326 326 326 325 321 318 317 318 319 319 317 316 316 315 315 315 315 315 314 314 314 313 314 314 314 315 315 315 314 314 314 314 315 315 316 316 316 316 315 316 316 316 316 315 315 315 316 316 316 316 316 315 316 316 316 316 315 314 312 310 309 309
327 326 326 325 325 322 319 319 319 319 320 318 316 316 315 315 315 315 315 315 315 314 314 315 315 314 314 315 316 316 316 315 315 315 315 315 315 315 315 315 315 316 315 315 315 315 314 315 316 316 315 315 315 315 315 315 315 315 315 312 311 310 310
326 326 326 326 326 324 321 321 320 319 320 320 318 317 315 315 315 314 315 315 315 315 315 316 316 315 314 314 315 316 316 315 315 315 314 313 314 314 315 315 314 314 315 315 315 314 314 314 315 316 315 315 315 315 315 314 315 315 314 314 313 311 311
326 326 325 326 326 326 323 322 321 319 319 320 320 319 317 315 315 315 315 315 315 315 315 315 315 316 316 315 315 315 315 315 316 316 315 314 314 314 315 316 315 314 315 316 315 314 314 315 316 316 316 315 315 315 315 315 315 314 314 314 314 313 312
326 326 325 325 325 326 325 323 321 320 320 319 319 320 319 317 316 315 315 314 315 315 315 315 315 316 316 316 316 316 316 316 316 316 317 316 315 315 316 317 316 315 316 316 316 316 316 315 316 316 316 316 315 315 315 315 315 315 314 314 314 313 313
326 326 326 325 325 326 326 324 322 321 321 320 319 319 318 318 318 316 315 315 315 315 315 315 315 315 315 316 317 317 317 318 317 317 317 317 316 317 317 317 317 317 317 317 317 317 316 316 316 316 315 316 315 315 316 315 315 315 314 314 313 313 313
327 327 326 326 326 326 325 325 323 321 321 321 321 319 318 318 319 318 317 316 316 316 316 316 315 316 316 316 317 318 318 319 318 318 318 318 318 318 318 318 318 318 317 317 318 317 317 316 316 316 315 316 315 315 315 315 316 315 314 313 313 313 312
327 327 327 326 325 326 325 325 324 323 321 321 321 321 319 319 319 319 318 317 317 317 318 317 317 317 317 318 319 319 320 320 320 320 320 320 320 320 320 319 319 319 318 317 317 317 317 316 317 316 316 315 315 315 315 315 315 315 314 313 313 312 312
327 326 327 326 325 324 325 325 325 324 323 321 321 320 320 320 320 319 319 319 319 320 320 320 320 319 319 321 322 322 322 322 322 322 322 322 321 321 321 321 321 320 319 318 316 316 316 316 316 316 316 316 314 314 314 315 315 315 314 313 312 312 311
325 325 326 326 325 324 324 324 325 325 324 324 322 321 321 322 321 320 320 320 321 323 323 322 322 321 321 322 323 323 323 323 323 323 323 323 323 322 321 321 321 320 319 318 317 316 315 315 314 314 314 313 313 313 314 315 315 315 314 314 313 313 311
325 325 325 325 325 324 324 324 325 324 325 325 324 323 323 323 323 323 323 323 323 325 325 324 323 322 321 322 322 324 324 323 323 324 323 323 323 323 321 320 319 318 317 319 318 316 315 314 314 313 312 311 311 311 312 312 312 313 313 313 313 312 312
324 325 325 325 325 325 324 325 325 325 325 325 324 323 323 324 324 324 324 324 324 324 324 324 322 319 319 320 321 321 322 323 323 322 322 322 322 323 321 318 318 318 318 318 318 317 317 315 314 314 313 310 309 309 309 309 308 309 309 311 312 312 311
320 322 323 324 325 325 325 325 325 325 325 324 324 323 322 322 323 324 324 323 323 322 322 323 321 318 317 317 318 318 319 321 322 321 322 322 321 321 319 317 317 319 319 318 318 318 318 317 316 314 312 309 308 308 308 306 306 306 306 308 309 310 310
316 317 319 320 322 323 324 325 325 325 324 324 324 323 322 322 323 323 323 323 322 321 321 322 322 320 317 316 316 316 317 321 322 321 322 322 320 317 315 314 316 317 318 318 317 318 318 316 315 312 310 309 307 307 306 306 306 306 307 307 308 309 309
314 314 315 317 318 319 320 322 324 324 324 324 324 323 322 321 321 321 321 320 321 321 321 321 322 321 319 317 316 315 317 320 321 320 320 320 318 317 316 315 315 316 317 317 317 318 317 314 313 311 310 309 308 307 307 306 305 305 305 306 306 306 305
313 313 313 314 315 316 317 319 321 322 323 323 323 322 322 321 321 321 320 320 320 320 320 320 320 321 319 317 316 315 317 320 320 318 318 317 316 317 316 316 316 317 317 317 317 316 315 313 312 312 311 310 310 308 307 305 303 303 303 302 302 302 302
311 312 313 313 313 314 315 317 317 319 320 321 321 321 321 321 322 322 322 320 319 319 319 319 320 320 319 318 316 316 317 318 317 317 316 315 315 314 311 312 316 317 316 316 315 314 312 312 312 312 311 311 310 309 307 304 302 302 302 302 302 302 301
310 311 311 312 313 313 314 315 316 317 318 318 319 319 320 321 321 322 322 320 320 320 319 319 319 319 318 317 316 316 317 317 315 315 315 314 314 313 311 312 315 314 313 313 312 310 310 311 312 312 311 310 310 309 308 306 305 305 305 304 304 303 302
308 309 310 311 311 312 313 313 314 316 316 317 316 316 318 320 320 321 321 321 321 320 318 317 319 319 317 316 316 316 317 316 313 313 314 314 312 311 310 311 311 310 310 310 308 308 308 310 311 311 310 310 309 309 308 307 306 305 304 304 304 303 302
306 308 309 310 310 310 311 312 313 314 315 316 315 314 315 318 319 320 321 321 321 321 318 317 318 318 316 316 316 315 316 314 312 312 313 312 311 310 308 307 306 306 307 307 306 306 307 308 310 310 309 308 307 307 307 306 305 303 301 301 302 302 302
304 305 306 307 309 310 310 311 312 312 314 315 314 313 314 316 318 319 320 320 320 320 319 318 317 316 316 316 314 314 315 314 312 312 312 311 311 309 307 304 304 304 304 304 304 304 305 307 308 308 307 306 305 304 304 303 302 302 301 301 301 301 301
303 304 304 305 306 308 309 310 311 311 313 314 314 313 313 314 317 318 318 319 319 319 318 317 317 316 316 314 313 313 314 313 311 311 311 310 310 308 306 304 303 303 302 302 302 302 303 304 304 304 304 304 303 301 300 300 300 300 300 300 300 300 300
302 302 303 304 304 306 307 309 310 310 312 313 313 312 313 314 316 316 316 316 317 317 317 316 316 316 315 313 312 312 312 312 311 311 310 310 310 307 305 305 304 303 302 302 301 302 302 302 302 302 301 300 298 297 298 300 300 300 300 300 300 300 300

ECMWFFLT1_925_thetae_030.txt.gz
Theta_e
331 329 327 324 322 322 323 326 327 327 326 326 327 328 328 327 327 328 327 328 327 327 328 328 329 331 330 330 330 330 330 330 330 329 328 328 330 331 331 331 331 329 328 328 329 329 328 327 324 322 321 320 320 320 319 320 321 321 321 321 321 321 320
330 328 327 324 323 323 324 325 326 327 327 326 326 326 326 326 327 327 327 327 326 326 326 327 329 331 331 331 330 331 331 331 330 328 328 328 328 329 329 329 329 329 329 329 328 327 327 326 325 323 322 320 320 319 318 319 318 319 319 320 319 318 317
328 327 325 324 324 325 325 325 325 325 324 325 326 326 325 326 326 327 327 327 326 326 326 327 329 330 331 331 331 331 331 331 330 329 329 329 327 327 328 327 327 328 328 328 327 326 326 325 325 323 322 320 320 319 318 317 317 318 318 318 318 317 316
328 326 324 325 324 325 325 325 326 325 324 324 325 326 325 324 326 327 327 326 326 325 326 326 326 327 329 330 331 332 331 331 329 327 328 329 328 327 327 327 327 326 326 326 327 327 326 325 325 323 322 320 319 319 318 317 317 316 316 316 316 316 315
328 326 325 325 324 325 325 325 326 326 325 324 325 325 324 323 325 326 325 325 325 325 325 325 325 325 327 328 329 330 330 330 328 326 328 329 328 327 326 325 326 325 325 325 326 327 325 325 325 323 321 319 317 317 316 315 314 314 315 315 315 315 315
327 326 326 325 324 325 325 324 324 323 323 324 325 324 323 323 325 325 325 325 325 324 324 323 323 324 326 327 327 328 329 329 328 327 328 328 327 326 325 326 325 324 325 325 325 325 324 324 324 322 320 317 315 315 314 313 312 312 312 312 313 313 313
327 326 326 325 324 324 323 323 323 323 323 324 324 323 323 324 324 323 324 324 324 323 323 323 323 323 324 325 325 326 327 327 327 327 327 326 325 325 325 325 326 325 324 323 323 323 322 324 324 320 317 316 315 314 313 312 311 310 310 310 311 311 311
327 325 325 324 324 323 322 323 323 322 324 324 323 322 323 324 324 323 323 323 323 321 320 322 323 322 322 323 323 324 325 325 325 325 324 323 321 322 321 320 320 321 322 322 322 322 321 322 321 317 315 318 319 317 314 312 310 309 309 308 309 310 310
327 325 324 324 324 323 322 323 322 322 324 323 321 321 323 324 323 322 322 321 321 321 321 321 322 320 320 320 320 321 322 322 322 322 320 319 317 317 316 315 315 315 317 318 317 317 318 318 318 316 314 317 321 320 318 316 313 310 309 308 308 309 309
327 325 324 324 324 323 322 322 322 323 322 321 320 321 322 321 320 320 319 319 320 320 321 321 321 319 318 319 319 318 318 318 318 318 317 316 315 315 315 315 315 315 314 314 314 315 315 315 315 316 316 315 318 321 320 320 317 311 309 308 307 308 308
326 325 324 324 323 322 322 321 322 323 321 320 320 320 320 319 317 317 316 317 318 319 320 320 319 318 318 318 317 316 316 316 316 316 316 316 317 318 318 317 318 317 315 315 314 314 314 315 315 316 317 317 317 320 319 319 318 312 308 308 308 307 307
326 325 323 323 322 321 321 320 321 321 320 320 319 319 318 317 316 315 315 315 316 316 317 317 317 317 316 315 315 315 316 316 316 316 317 318 318 318 318 318 318 318 317 316 316 316 315 316 316 316 317 317 317 318 316 316 318 314 309 309 308 308 308
326 325 324 323 322 321 320 319 320 320 319 319 318 318 317 316 316 315 314 314 314 314 315 315 315 314 314 313 314 314 315 315 315 317 318 319 318 318 317 317 317 318 318 318 317 316 316 316 316 316 317 316 316 317 316 315 316 313 309 309 309 309 309
326 327 325 324 323 321 319 319 320 319 318 317 317 316 316 315 315 315 314 313 313 314 314 314 314 313 313 313 312 313 313 314 315 316 317 318 317 318 317 317 317 316 316 316 316 316 316 316 316 316 316 316 316 317 316 314 313 312 311 310 309 309 309
326 326 325 325 323 320 318 319 319 318 317 317 316 316 316 315 315 315 314 313 313 314 313 314 314 314 313 313 313 313 313 314 316 316 317 317 316 316 316 317 317 316 316 316 315 315 316 316 316 316 316 316 316 316 316 315 313 313 312 311 310 310 310
326 326 325 325 324 320 318 318 319 318 318 317 316 316 315 315 315 315 315 314 314 314 314 314 315 315 315 315 315 315 315 315 316 316 316 316 316 316 316 317 316 316 316 315 315 315 315 316 316 316 315 315 316 316 315 315 314 314 313 312 311 310 310
326 325 326 325 324 320 318 319 319 319 319 317 316 316 315 315 315 315 315 315 314 314 314 315 315 315 316 316 316 316 315 315 316 316 315 316 316 316 315 315 315 315 316 315 315 314 315 316 316 315 315 315 316 315 315 315 315 315 313 313 312 311 312
325 326 326 326 325 321 319 320 319 320 320 319 317 317 315 315 315 315 316 316 315 315 315 315 315 315 315 316 317 316 316 315 315 315 314 315 315 315 315 315 314 315 316 315 314 314 315 316 316 316 316 316 315 315 315 315 314 315 314 314 313 313 313
325 326 326 327 326 324 321 321 320 319 320 320 319 318 316 315 315 315 315 315 315 315 316 316 315 315 315 315 316 316 316 316 316 316 315 315 315 316 316 315 315 315 316 315 315 315 315 315 316 317 316 316 315 315 315 314 314 314 314 314 313 314 313
326 326 326 326 326 325 324 323 321 319 319 320 320 320 319 316 316 315 315 315 315 315 315 315 315 316 316 316 316 315 316 316 316 316 316 315 315 316 316 317 316 316 317 317 316 317 316 316 316 317 316 316 315 315 315 315 315 315 314 314 313 313 313
327 326 326 326 326 326 326 325 323 321 320 319 319 319 319 318 317 316 315 315 314 315 315 315 316 316 316 317 317 316 317 317 316 317 317 316 316 316 317 318 318 317 317 318 318 318 317 316 317 316 316 316 315 315 315 316 316 315 315 314 313 313 312
326 326 326 326 326 326 326 326 324 323 322 320 320 319 318 318 318 318 317 317 315 315 315 315 316 315 315 316 317 317 318 318 317 318 318 317 317 317 317 318 318 318 318 318 318 318 316 317 317 317 316 316 316 315 316 316 316 316 315 315 314 313 312
326 326 327 327 326 326 326 325 324 323 323 322 321 321 320 319 318 319 319 318 317 316 316 316 316 315 316 316 316 317 318 318 318 319 319 318 319 319 319 318 319 319 319 318 318 317 317 316 317 317 317 317 316 315 315 316 316 316 315 315 314 313 313
326 327 327 327 326 326 326 325 324 324 323 322 321 320 321 321 320 319 319 319 319 318 318 318 318 316 316 316 317 318 319 319 319 320 320 320 320 321 321 320 319 319 319 318 318 318 318 317 317 316 316 316 316 315 315 315 316 316 315 315 314 313 313
325 326 326 326 325 326 325 324 323 324 324 323 322 321 321 322 322 321 320 320 321 320 318 319 319 318 317 317 318 320 321 321 321 321 322 322 322 322 322 321 320 319 319 319 319 319 319 318 317 316 315 315 315 314 314 314 315 315 314 313 313 313 313
324 325 325 325 325 325 325 324 324 324 323 324 324 323 323 322 322 322 321 321 321 321 320 319 319 319 320 319 319 321 322 323 323 323 323 323 322 322 321 321 319 319 318 318 318 318 318 318 317 316 315 314 313 313 313 313 313 313 312 311 312 312 311
320 321 323 324 324 324 325 325 324 324 324 324 324 324 324 323 322 323 322 322 322 321 321 320 318 317 319 321 321 321 322 323 324 323 323 323 321 320 320 320 319 318 317 316 316 317 318 318 317 316 315 314 313 312 311 311 311 310 309 308 309 310 310
315 316 318 320 321 322 324 324 324 324 324 324 324 324 324 323 323 323 323 323 322 321 321 321 319 317 318 321 322 321 322 323 322 322 322 321 320 320 320 319 318 316 315 315 315 316 317 317 317 317 316 315 313 311 309 309 308 308 307 307 308 309 310
313 314 315 316 317 318 320 321 322 324 324 324 324 324 324 324 323 323 323 323 322 321 321 321 321 319 319 321 322 320 320 321 321 321 320 319 319 320 320 318 316 315 315 316 317 317 317 317 317 318 317 314 311 309 309 308 307 307 307 307 308 308 308
311 312 313 313 314 314 316 317 318 320 322 323 323 324 323 324 323 322 323 322 322 322 321 321 321 320 320 321 321 320 319 319 318 318 318 318 319 320 320 318 315 315 317 317 317 317 317 317 317 316 314 312 309 308 307 307 306 306 306 306 305 304 304
308 310 311 312 313 313 314 315 316 316 318 319 321 321 322 322 323 322 322 321 321 321 321 321 321 320 320 321 321 320 319 317 316 317 317 318 318 318 318 318 316 316 317 317 316 317 317 316 315 314 312 311 310 309 308 307 307 306 304 303 303 303 303
306 307 309 310 311 312 312 313 313 314 315 316 317 318 319 319 320 321 321 321 321 321 321 321 320 320 320 320 320 321 319 316 316 317 318 317 316 316 317 316 316 316 316 316 316 317 317 316 314 313 312 311 311 310 309 308 307 305 304 303 304 305 304
304 306 307 308 309 310 311 311 312 312 313 314 315 316 317 317 317 318 320 321 321 321 321 321 320 320 319 319 320 320 319 316 316 317 317 316 315 315 313 313 314 316 316 316 316 316 316 315 313 313 312 311 311 311 309 308 306 306 305 305 305 304 303
304 304 305 306 306 306 308 309 310 311 311 312 313 315 315 316 316 315 317 319 321 320 321 321 320 320 319 319 320 319 318 317 317 316 315 314 314 313 311 311 312 314 315 315 315 315 314 312 312 312 312 311 310 309 309 308 307 306 305 304 303 302 302
303 303 303 304 304 304 305 306 308 309 311 312 312 313 314 315 315 314 315 317 320 320 320 319 319 319 320 319 319 319 318 317 317 315 313 313 313 311 310 311 312 312 312 312 312 312 311 310 310 311 310 309 308 308 307 306 305 304 303 302 302 302 302
302 302 303 303 303 303 304 304 305 307 308 310 311 312 313 314 314 314 314 316 318 319 319 319 319 319 319 319 319 318 317 316 316 312 310 312 312 310 309 310 310 310 310 310 309 308 308 309 309 309 308 307 306 305 304 302 302 302 301 301 301 301 301
301 302 302 302 303 303 303 303 304 305 306 307 309 311 311 313 314 314 314 315 317 318 318 317 316 317 318 318 318 316 316 315 314 311 310 312 312 309 308 308 307 307 308 307 306 306 307 307 307 306 305 305 305 303 302 301 301 301 301 300 301 300 300

ECMWFFLT1_925_thetae_033.txt.gz
Theta_e
327 325 323 323 325 328 328 328 327 326 325 326 327 325 326 328 328 328 328 328 328 329 330 329 330 330 330 330 330 331 331 330 329 329 330 330 330 331 331 330 328 328 328 327 325 323 323 322 322 323 324 324 323 322 322 323 325 325 324 323 322 321 320
327 324 322 322 324 325 324 325 327 326 325 326 327 326 326 326 327 327 327 327 327 328 328 328 330 330 330 329 330 330 330 330 330 329 329 330 331 330 330 329 329 328 328 327 325 322 321 322 323 322 320 320 320 320 321 322 322 322 321 321 320 318 316
327 325 323 322 322 323 323 325 327 327 325 326 326 325 326 327 326 326 326 326 326 327 328 329 330 330 329 329 329 329 330 330 329 328 328 329 330 330 330 329 328 328 328 327 325 322 321 321 323 322 319 318 318 318 319 320 320 319 319 318 317 315 312
327 326 324 322 322 324 325 326 325 324 324 325 325 325 325 326 326 326 325 325 326 326 327 327 328 328 329 330 330 330 330 330 329 328 328 328 328 329 330 329 328 327 327 326 325 323 322 321 322 321 319 318 317 317 317 318 318 318 317 316 316 315 313
327 325 324 322 323 325 325 325 324 324 323 324 324 324 324 325 325 326 326 325 325 325 325 325 326 327 329 331 331 330 330 329 328 328 328 327 327 328 328 328 328 328 327 326 324 323 322 320 321 320 318 318 317 317 317 317 317 317 316 315 315 314 313
326 325 323 322 324 325 324 325 326 324 324 324 324 323 323 324 325 325 324 324 324 324 324 325 325 327 328 329 330 329 328 327 327 328 327 327 326 326 326 327 327 327 327 326 324 323 322 320 320 319 317 317 317 317 317 315 316 316 315 315 313 312 312
326 324 323 322 324 324 324 325 325 324 324 324 324 322 322 324 325 325 324 324 324 323 323 324 325 326 327 328 328 328 327 327 327 327 326 325 325 325 325 325 325 326 326 326 324 323 323 322 320 318 316 316 315 315 314 313 313 313 313 314 313 312 311
326 325 324 323 324 324 324 324 323 323 324 324 323 322 323 324 324 324 323 323 323 323 322 323 325 325 326 327 327 327 327 326 326 326 326 326 325 324 324 324 324 325 325 326 324 323 324 322 320 317 315 315 315 313 311 309 310 311 311 312 311 310 310
326 325 325 324 324 323 323 323 323 323 324 323 322 322 324 323 322 323 323 322 321 321 322 322 323 323 324 326 326 326 326 325 324 323 323 324 324 324 323 323 323 323 323 324 323 323 323 323 321 317 314 314 315 314 312 309 308 308 310 310 309 309 308
326 325 324 324 323 322 322 323 323 323 324 323 321 322 324 323 322 322 321 320 320 321 320 320 320 321 322 323 324 324 323 323 320 318 317 317 318 319 319 320 321 321 320 320 320 322 321 322 321 317 313 313 314 314 314 312 309 307 308 309 308 308 307
325 325 324 323 322 322 322 322 323 323 323 321 321 322 323 322 320 320 320 320 321 321 320 319 319 318 319 320 321 320 320 319 317 315 315 315 315 315 315 316 317 317 316 316 317 318 318 318 318 316 314 314 313 312 312 314 313 308 307 308 308 308 307
325 324 324 324 323 322 322 322 322 322 320 319 320 320 320 318 318 318 318 319 320 320 319 318 318 318 317 317 317 317 317 316 316 317 317 317 316 315 315 314 315 315 315 315 315 316 316 316 317 316 316 315 313 311 310 311 313 310 307 307 307 307 307
325 324 324 324 323 322 321 322 322 321 319 319 319 319 317 316 315 315 316 316 318 319 318 317 317 316 316 315 315 316 315 316 317 318 318 317 316 315 315 316 317 316 316 316 316 316 316 316 316 317 317 315 313 312 310 309 310 310 308 307 308 307 307
324 324 323 322 322 321 320 321 321 319 319 318 318 317 316 315 314 313 314 315 315 316 315 314 314 314 314 315 315 315 315 316 318 318 317 316 316 316 317 317 317 316 316 316 316 316 315 316 316 316 316 315 313 311 312 310 309 309 308 308 308 308 308
324 323 322 321 321 320 320 320 320 319 318 317 316 316 316 315 314 313 313 313 314 314 313 313 313 313 313 313 314 314 315 317 318 318 317 317 316 317 317 316 316 316 315 315 316 315 315 315 315 316 315 315 314 313 313 312 309 309 309 309 309 309 309
324 323 323 322 322 320 319 320 319 318 318 316 316 316 316 315 314 314 313 313 313 313 313 313 313 312 312 313 314 314 315 317 317 317 317 317 316 317 316 316 316 315 315 315 315 315 315 316 316 315 315 315 315 314 314 313 311 310 310 309 309 310 311
326 325 324 323 321 319 318 319 318 317 317 316 315 316 315 315 315 314 313 313 313 313 314 315 314 312 313 315 315 314 315 316 317 316 316 316 316 316 316 316 315 315 315 315 315 316 316 315 315 315 315 315 315 314 314 314 313 312 311 310 310 310 311
326 325 324 324 320 317 317 318 317 318 317 315 315 316 315 314 314 315 314 313 313 314 314 315 315 314 315 316 315 315 316 316 316 316 316 316 315 315 315 315 315 315 314 314 315 316 316 316 315 315 315 315 315 315 314 314 314 313 312 310 310 310 311
326 326 325 324 320 317 318 318 318 319 318 316 316 316 314 314 315 315 315 314 314 314 314 315 315 315 316 316 315 315 315 315 315 315 315 315 315 314 314 313 314 314 314 314 314 315 315 316 316 315 315 315 315 314 315 314 314 314 313 311 311 311 312
324 325 326 324 321 318 318 319 318 320 319 318 318 317 314 313 315 315 315 315 314 315 315 315 314 315 315 316 315 315 315 315 315 315 314 315 315 315 314 313 312 313 314 314 314 314 315 316 316 315 315 315 315 314 314 314 314 314 314 313 312 312 313
325 325 325 325 323 321 321 321 319 319 320 319 319 320 316 315 316 315 314 315 315 315 315 315 314 315 314 315 315 315 315 315 316 315 314 315 315 315 316 315 313 314 315 315 315 315 315 315 316 316 315 315 315 315 315 315 315 315 314 314 314 313 313
325 324 324 326 325 324 324 323 320 320 321 319 318 320 318 317 317 317 315 315 315 315 315 315 315 315 315 315 315 315 315 315 316 316 315 315 315 316 316 316 315 315 316 316 316 316 315 315 316 316 315 315 315 315 315 316 315 315 315 314 314 313 312
324 324 324 325 326 326 325 325 323 322 322 321 319 319 318 317 317 317 317 317 317 316 315 315 315 315 316 316 316 316 316 316 315 316 317 316 316 316 317 317 316 316 317 317 317 317 316 315 315 315 316 316 315 315 315 315 315 316 315 315 314 313 312
324 324 325 325 325 325 325 325 325 323 323 322 320 319 319 319 318 317 317 318 318 317 315 314 315 315 315 316 316 316 316 316 316 317 317 317 316 316 316 317 318 317 317 317 318 318 317 316 315 316 316 316 316 315 315 315 315 315 315 314 314 313 312
324 324 324 324 324 324 325 325 325 324 323 323 322 321 321 320 320 320 319 318 319 318 316 315 315 315 315 315 316 316 316 317 317 317 318 318 318 318 317 317 318 318 318 318 317 317 317 317 316 316 316 316 316 315 315 315 315 315 315 314 313 312 311
323 323 323 323 323 323 323 323 324 324 323 323 323 322 321 321 321 321 321 320 319 319 318 317 317 317 316 315 316 317 317 318 318 318 319 320 319 320 319 318 318 319 318 318 318 318 318 318 318 317 316 316 316 315 314 314 315 315 315 314 312 311 311
315 317 320 321 322 323 322 323 324 324 323 323 323 323 323 322 321 321 322 321 320 320 319 318 318 318 317 316 316 317 319 321 321 320 320 321 321 320 320 320 320 320 319 319 318 318 318 318 318 318 317 316 315 314 314 313 313 313 313 312 311 310 310
308 310 312 314 316 318 320 322 324 324 324 324 323 324 324 324 323 323 322 322 321 321 320 320 320 319 318 318 318 317 319 321 323 322 322 322 321 320 319 319 320 320 320 319 318 317 317 318 317 318 318 317 315 313 313 312 311 311 311 311 310 309 309
307 307 308 309 310 312 314 316 319 321 323 323 323 324 323 323 324 324 323 323 322 322 321 321 320 320 320 319 318 317 318 319 321 322 321 321 321 321 320 319 319 320 321 319 318 317 316 317 317 317 318 316 314 313 312 312 311 310 309 309 308 309 309
304 305 305 307 308 309 310 311 312 314 317 318 320 321 322 323 323 323 323 323 323 322 322 321 321 320 320 319 318 318 317 317 319 320 320 320 320 320 320 319 318 320 319 318 318 317 316 316 317 317 317 315 313 311 311 310 309 308 308 308 308 307 306
302 303 304 305 305 307 308 309 310 311 311 312 314 316 317 320 321 322 322 322 322 321 321 321 320 320 319 319 320 320 318 318 319 319 319 319 319 319 319 319 318 318 317 317 316 317 317 317 317 317 317 315 311 309 308 308 308 307 307 307 306 305 304
301 302 302 303 303 304 305 306 307 309 310 310 310 311 312 314 317 319 320 320 320 321 320 320 320 320 320 320 320 321 320 319 320 320 318 318 318 317 318 318 317 317 317 316 316 317 317 317 317 317 316 313 310 309 308 308 307 307 306 305 304 304 304
301 301 301 302 302 303 303 303 304 304 305 306 307 308 310 311 313 314 316 318 319 320 320 320 320 320 319 320 320 320 320 320 320 320 318 317 317 317 317 317 317 317 317 316 316 317 318 317 317 316 314 312 311 310 309 309 308 306 305 304 304 304 303
300 300 301 301 301 302 302 302 302 303 303 303 304 305 307 309 310 311 312 315 317 318 319 320 319 319 319 319 319 320 320 320 319 319 318 317 317 316 316 316 317 317 317 316 316 317 317 317 316 314 312 312 312 311 310 309 307 306 305 304 303 302 302
300 300 300 300 301 301 301 301 302 302 302 303 303 303 304 305 306 307 309 310 312 316 318 319 320 320 319 319 319 319 320 320 319 318 318 317 317 316 316 316 316 317 317 317 317 317 316 315 314 313 312 312 311 310 310 308 307 306 305 303 302 301 301
300 300 300 300 300 300 300 301 301 301 301 302 302 303 304 304 304 306 307 308 310 313 316 318 319 319 319 318 318 318 319 319 318 317 317 316 316 316 315 314 314 314 315 316 316 315 315 314 312 312 312 311 310 309 308 306 305 304 303 301 301 301 300
299 299 299 300 299 300 300 300 300 300 300 300 301 301 302 303 304 305 306 307 309 312 315 318 319 318 317 317 317 318 318 319 317 317 316 315 314 314 313 310 310 312 314 315 315 313 312 311 310 309 309 308 308 307 306 304 303 302 301 301 301 300 299

ECMWFFLT1_925_thetae_036.txt.gz
Theta_e
326 328 329 329 329 328 328 328 327 326 327 327 327 327 327 327 327 327 328 328 329 329 330 330 330 330 330 330 330 331 331 331 329 329 329 328 329 330 330 329 328 328 327 326 326 325 325 325 324 325 326 326 326 325 326 327 326 325 324 323 320 318 316
326 327 329 328 328 328 329 328 327 326 326 326 326 326 327 327 327 327 327 326 327 328 329 329 329 330 330 330 330 331 331 330 330 329 329 329 329 330 330 328 328 327 326 325 324 322 323 324 324 323 323 323 323 324 325 326 325 323 322 319 315 312 311
325 325 327 328 328 328 328 327 325 325 326 326 326 326 326 327 327 326 326 325 326 327 327 328 329 330 330 329 329 330 330 329 329 328 328 329 329 330 329 328 327 326 324 323 321 321 321 321 322 321 319 319 319 320 323 325 324 322 318 315 311 308 306
323 324 326 327 327 326 327 326 325 325 326 325 325 326 326 326 326 325 325 326 327 327 328 328 329 329 329 329 329 329 330 329 329 328 328 329 330 330 329 328 327 326 324 322 320 321 320 319 320 319 316 317 318 318 320 323 321 317 314 313 311 308 304
322 323 325 324 323 323 326 326 325 325 325 325 325 325 325 326 325 325 325 325 327 327 328 327 327 328 328 329 329 329 330 330 329 328 328 328 330 330 329 328 327 325 324 322 321 320 320 319 319 318 316 317 318 317 317 317 315 313 313 313 312 308 304
323 323 323 322 322 324 326 325 323 324 324 324 325 324 324 325 325 325 324 324 325 326 326 325 325 327 327 328 328 329 330 329 328 328 327 328 328 328 329 328 327 326 324 321 321 320 319 319 318 317 316 316 317 315 315 315 313 313 314 313 312 309 306
324 324 323 321 323 325 325 324 323 324 323 322 323 323 323 324 325 325 324 323 324 325 325 324 325 327 328 327 328 329 329 328 327 327 327 327 327 327 329 329 327 327 324 321 320 320 319 319 317 316 316 316 316 314 314 315 315 314 313 313 312 310 307
325 325 322 322 324 325 324 325 325 324 323 323 323 322 323 324 324 324 324 323 323 324 324 324 325 327 327 328 328 328 327 326 326 327 326 326 326 326 327 328 328 327 324 322 321 320 319 318 316 316 316 316 315 312 310 311 313 313 313 313 311 310 308
325 324 321 321 323 324 324 325 325 323 324 323 322 322 323 324 324 323 323 322 322 323 324 324 324 326 327 327 327 327 326 327 326 326 325 325 325 325 325 326 327 327 325 323 321 321 320 317 315 315 316 316 315 311 309 309 309 311 313 312 311 310 307
324 322 321 321 323 324 325 325 324 324 324 323 322 322 323 323 323 323 322 321 321 323 324 323 323 325 326 327 327 327 326 326 325 325 325 325 324 324 324 324 325 326 325 324 322 321 319 316 316 316 316 315 313 311 311 311 309 309 311 310 309 308 306
324 323 322 324 324 323 324 323 323 324 323 322 322 322 323 322 322 322 321 320 320 321 322 322 321 324 325 326 325 325 323 321 320 320 321 322 322 323 323 323 324 325 325 324 323 322 320 317 317 316 316 315 313 310 310 310 310 309 309 309 308 307 306
325 324 323 324 323 322 322 323 323 323 322 322 321 322 322 322 322 321 320 320 320 319 320 319 320 322 323 324 323 322 319 315 315 316 317 317 318 320 321 320 320 321 323 323 323 323 323 321 319 316 315 313 312 310 309 309 309 309 308 308 307 307 307
325 325 324 323 322 322 322 323 323 322 322 321 321 321 322 321 320 319 319 320 319 318 319 318 318 319 321 321 321 320 317 315 315 315 315 315 315 317 317 316 316 317 318 320 320 320 321 322 321 319 316 312 310 310 309 308 308 308 308 308 307 307 307
325 324 323 322 322 322 322 322 322 321 320 319 319 321 320 319 318 317 318 320 319 318 318 318 317 317 318 318 318 317 316 317 317 316 315 314 314 315 316 315 316 316 316 317 317 317 317 318 320 320 317 313 310 309 308 308 307 307 308 307 307 307 307
324 324 323 323 322 322 322 322 321 320 319 318 319 318 316 314 315 316 317 318 318 317 317 317 317 316 315 316 315 315 317 318 317 316 315 314 314 315 315 315 315 315 316 316 315 316 316 315 316 318 316 314 311 309 308 308 307 307 307 307 307 307 307
324 323 323 323 322 321 321 321 321 319 317 316 316 315 313 312 313 314 315 316 317 316 315 314 315 315 314 314 314 315 316 317 317 315 315 315 316 316 316 315 315 315 315 315 315 315 315 315 315 315 315 313 311 309 308 309 308 307 307 307 307 307 307
323 323 322 322 321 321 320 320 320 317 315 315 315 315 313 313 312 312 312 314 315 314 313 313 313 313 314 313 314 314 316 317 316 315 315 316 317 316 315 315 315 315 315 315 315 315 315 315 315 314 313 312 311 310 310 310 310 309 308 308 308 308 308
322 322 323 321 320 320 320 320 319 317 315 316 316 315 314 314 313 312 312 313 313 313 313 313 312 312 312 312 313 315 316 317 317 316 316 316 316 316 315 315 315 315 315 315 315 315 315 315 315 314 314 313 313 313 312 312 311 310 309 309 309 309 309
323 323 323 321 320 319 319 319 318 317 316 316 316 316 315 314 314 313 312 313 313 313 313 314 313 312 313 313 313 314 316 317 317 317 316 316 316 316 315 315 314 315 315 315 315 315 315 315 315 315 315 315 314 314 313 312 312 311 310 309 309 310 310
323 324 324 323 321 319 319 319 317 317 317 315 315 316 315 315 314 314 313 313 313 313 314 314 313 312 314 314 313 314 316 316 317 316 316 316 316 316 315 315 315 315 315 315 315 315 315 315 315 315 315 314 314 314 314 313 312 311 310 310 310 310 310
324 324 324 322 320 318 318 318 317 318 318 315 315 316 315 314 315 314 314 313 313 313 314 314 313 314 315 315 314 315 316 315 316 316 315 316 315 315 315 315 314 314 315 315 315 315 315 315 315 315 314 314 314 314 314 313 313 312 311 310 310 310 310
324 324 324 322 320 318 317 318 319 319 319 317 317 317 315 313 314 315 314 314 314 314 314 314 313 313 315 315 315 315 315 315 315 315 315 315 314 314 313 313 313 313 313 314 314 315 316 316 315 315 315 314 314 314 314 314 314 313 312 311 311 311 311
323 323 323 322 322 321 320 320 321 321 319 319 319 319 316 315 316 316 315 315 314 314 314 314 313 313 314 315 315 315 315 314 315 315 315 314 314 314 314 313 313 313 313 314 314 314 315 316 316 315 315 315 315 314 314 314 314 314 313 313 312 312 312
321 322 322 322 323 323 323 323 323 322 322 320 319 319 318 317 317 317 316 316 316 315 314 315 314 314 314 314 314 314 314 314 315 315 315 314 314 315 315 315 315 314 314 314 315 315 315 315 315 315 315 315 315 315 314 315 315 315 314 313 313 312 312
321 321 321 321 321 321 322 323 322 321 323 323 320 319 319 318 318 317 317 317 317 317 316 315 315 314 315 314 314 314 314 314 315 315 315 315 315 315 315 315 316 316 315 315 315 316 316 316 315 315 315 315 315 315 315 315 315 315 315 314 313 313 312
318 320 320 320 320 320 320 321 321 320 321 322 322 321 321 321 320 319 319 318 318 318 317 316 314 314 315 315 315 315 315 315 315 315 315 316 316 316 315 316 316 316 316 316 316 316 316 317 316 315 315 315 315 315 315 315 315 315 315 315 314 313 312
309 311 312 313 314 316 317 318 319 320 321 321 321 321 321 322 322 321 321 320 320 320 319 318 317 316 315 316 315 315 316 316 316 316 316 316 316 316 316 316 316 316 316 317 316 316 317 317 317 316 316 316 316 316 315 315 315 315 315 315 314 314 313
304 304 305 306 307 308 309 311 313 315 317 318 319 321 322 322 322 322 322 322 321 321 320 320 319 318 317 317 316 315 316 317 316 316 316 316 316 317 317 317 316 316 316 317 317 317 317 317 317 317 317 317 316 316 315 315 314 314 313 313 313 313 312
302 302 303 304 304 304 305 306 306 308 310 312 313 316 319 320 322 323 323 323 322 322 321 322 322 321 321 319 318 317 317 318 318 318 318 318 317 317 317 318 317 317 317 317 317 317 317 317 317 317 317 317 316 315 314 313 312 312 311 311 311 311 311
301 301 302 302 302 302 303 303 304 304 306 307 307 308 309 311 314 317 320 322 323 322 321 320 321 321 321 321 321 320 319 319 319 319 320 320 320 319 319 318 318 318 317 318 318 318 318 318 316 316 317 316 315 314 313 311 311 310 309 309 309 309 309
300 300 300 301 301 301 302 302 302 303 303 304 304 304 304 305 307 308 312 315 319 321 321 320 320 320 320 320 321 321 321 320 319 318 318 319 320 321 320 319 318 318 317 318 319 319 319 318 316 315 316 316 314 312 311 310 310 309 308 308 308 307 306
300 300 300 300 300 300 301 301 301 302 302 302 302 302 303 303 304 304 306 307 310 313 315 316 318 319 319 320 320 320 320 320 319 319 318 318 318 319 319 319 319 318 318 318 318 318 318 319 317 315 316 315 314 312 311 311 310 309 308 307 305 304 304
300 300 300 300 300 300 300 300 300 300 301 301 301 302 302 302 302 303 304 304 305 306 307 309 312 315 316 318 319 320 320 320 320 320 319 318 318 318 318 319 319 319 319 319 318 318 318 318 318 316 316 315 315 314 312 310 309 309 307 306 304 303 302
299 299 299 299 299 299 299 300 299 299 300 300 300 301 301 301 302 302 302 303 303 304 304 305 307 309 311 314 316 319 320 320 320 320 320 319 319 318 318 319 319 319 319 318 318 318 318 317 317 317 316 316 316 315 312 309 307 307 306 304 303 302 301
299 299 298 298 298 299 299 299 299 299 299 299 299 300 300 300 301 301 302 302 302 302 303 304 305 306 308 310 313 316 319 320 319 319 319 318 318 318 318 318 319 319 318 318 318 318 317 317 317 317 317 316 315 313 311 308 306 305 304 303 302 301 300
298 298 298 298 298 298 298 298 298 298 298 298 298 299 299 299 300 300 301 301 302 302 302 303 303 305 306 308 311 314 317 319 320 319 318 318 318 318 318 318 318 318 318 317 317 317 317 317 317 316 315 315 313 312 310 307 305 304 303 302 301 300 299
298 297 297 297 297 297 297 297 297 297 297 297 297 297 298 298 298 298 299 299 300 301 301 302 302 303 305 307 310 313 317 319 320 319 318 318 318 317 317 317 317 317 317 317 316 316 316 316 316 314 313 313 312 310 308 305 304 303 301 300 299 299 298

ECMWFFLT1_925_thetae_039.txt.gz
Theta_e
331 332 332 331 331 331 330 328 329 330 330 327 325 325 326 327 327 328 329 329 329 330 330 330 330 330 330 330 330 331 330 330 329 329 328 328 327 328 328 329 329 328 326 326 325 326 327 326 324 324 326 326 327 327 327 327 326 325 324 322 321 319 317
331 332 331 330 330 329 328 327 327 328 329 328 327 326 327 327 327 327 327 327 328 329 330 330 330 330 330 330 330 330 331 330 330 329 329 328 327 328 328 329 328 326 325 325 324 324 324 325 325 322 322 324 325 325 327 325 323 321 319 317 315 314 312
330 330 330 329 329 328 327 326 326 326 327 327 327 327 327 327 326 326 326 326 327 328 329 329 329 330 330 330 329 330 330 330 330 329 329 328 328 328 329 328 327 325 324 323 322 324 322 322 324 321 320 321 321 321 324 324 322 319 314 311 310 309 308
327 328 329 329 328 327 326 326 326 326 326 326 326 326 326 326 326 326 325 325 326 326 327 328 329 329 329 329 329 329 330 330 330 329 328 328 328 328 329 328 327 326 325 323 322 323 321 320 322 320 317 319 319 318 321 322 320 315 309 307 305 305 305
326 328 329 328 327 327 326 325 325 326 326 326 326 326 326 325 325 325 325 325 326 326 327 326 327 328 329 329 329 329 330 329 329 329 328 328 328 329 329 328 327 326 326 325 323 323 322 322 321 317 315 318 318 316 319 321 317 310 307 306 304 302 302
326 329 328 328 328 327 326 325 325 325 325 325 325 326 326 325 325 325 325 324 325 326 325 324 325 327 328 328 328 328 329 329 329 329 328 328 328 329 329 328 327 326 325 324 324 323 322 322 319 315 316 318 317 314 316 317 313 309 308 307 304 302 302
326 327 328 327 327 326 325 325 325 325 325 324 324 325 325 325 324 324 324 324 324 325 324 323 324 327 328 327 328 328 328 329 329 328 328 327 328 329 329 328 327 326 325 323 323 322 322 320 318 316 316 317 315 313 313 313 311 310 310 309 306 304 303
324 325 327 326 324 324 325 326 325 324 324 323 323 323 323 325 324 323 323 323 324 325 324 322 322 325 328 327 328 328 328 328 327 328 327 327 328 328 329 328 327 326 325 322 321 322 322 320 318 318 318 317 315 312 311 311 311 311 312 310 308 306 304
323 324 325 322 322 324 325 325 324 323 323 322 323 322 322 324 324 323 323 323 324 325 323 322 322 325 327 327 327 327 327 326 326 327 327 326 327 327 328 328 327 326 325 322 320 320 321 320 319 320 319 318 315 312 311 311 310 311 312 311 309 308 305
323 323 322 322 323 325 324 324 324 324 323 322 323 322 321 323 323 323 322 322 323 324 323 321 322 325 326 326 327 326 326 326 326 326 326 325 325 325 326 327 327 327 325 321 320 320 319 318 318 319 318 317 315 313 314 314 312 311 312 311 309 308 305
323 323 322 323 324 324 324 325 325 324 323 323 323 322 321 324 324 323 322 321 322 324 323 321 322 324 326 326 326 326 326 326 326 325 325 324 324 324 324 325 326 327 325 321 320 319 319 318 317 317 317 316 315 313 314 315 314 311 311 311 309 307 306
324 323 321 322 323 323 324 325 324 324 323 323 323 321 322 323 323 322 321 320 322 323 323 320 321 324 326 326 326 326 325 323 323 323 323 323 324 324 323 324 325 327 325 321 320 319 320 319 317 316 316 315 314 313 313 313 313 312 310 310 308 307 307
323 322 321 322 323 323 323 324 323 323 323 322 322 321 322 322 322 322 321 320 321 322 321 319 320 323 325 324 324 322 319 317 317 318 318 320 322 322 323 323 324 326 325 322 321 321 321 320 316 315 315 314 313 313 312 312 311 309 309 308 307 307 307
323 322 322 323 323 322 322 322 323 323 323 322 322 321 321 322 321 320 320 319 319 319 319 318 319 320 322 322 320 317 316 314 314 316 316 318 319 319 320 321 324 325 325 323 321 321 321 319 316 315 315 315 314 312 311 310 308 307 308 308 307 307 307
323 323 323 323 323 322 322 322 322 323 322 321 320 320 321 321 320 319 319 319 319 318 318 318 317 318 319 320 319 316 316 315 314 315 315 316 317 316 316 317 321 324 325 324 322 322 322 319 317 316 315 315 315 314 311 309 308 307 308 308 307 307 307
323 322 322 322 322 322 322 322 322 322 320 319 318 318 318 316 316 317 318 319 318 318 318 317 317 317 316 318 317 316 316 317 315 314 315 315 315 315 315 316 318 321 323 323 322 322 322 322 320 319 317 316 315 315 312 309 308 308 307 307 307 306 307
323 322 322 322 322 321 322 321 321 320 317 315 314 314 313 311 311 313 315 317 317 317 317 316 316 316 315 315 315 315 317 317 315 314 314 315 315 315 316 316 317 318 319 319 319 318 318 320 321 321 320 319 317 314 311 309 308 309 308 307 306 307 307
323 322 322 322 321 321 321 320 320 318 314 312 313 313 312 311 311 311 312 314 316 316 315 314 313 313 314 314 314 314 316 317 316 315 314 315 315 315 315 316 316 316 316 315 315 315 315 316 316 318 319 320 318 314 310 309 308 309 308 307 307 307 307
322 322 321 322 321 321 320 320 319 317 313 313 314 314 313 313 312 312 311 312 314 314 313 313 312 312 313 313 313 313 315 316 316 315 315 315 316 315 315 315 315 315 315 315 315 315 315 314 314 315 316 317 316 312 309 308 308 309 309 308 307 307 307
322 322 321 321 320 320 320 319 319 317 315 314 315 315 315 314 314 313 312 312 312 312 312 312 313 312 312 312 313 313 314 316 316 316 316 316 316 315 314 314 315 315 315 315 315 315 315 314 314 314 313 314 312 310 308 309 308 309 309 308 308 308 308
322 322 321 321 320 319 319 319 318 317 317 316 316 316 315 315 315 314 313 313 312 312 312 312 313 313 312 312 313 313 314 315 316 317 317 316 316 315 314 314 314 315 315 315 315 315 315 315 314 313 313 312 311 311 310 310 310 309 309 309 308 308 308
323 322 322 320 319 319 319 318 318 318 318 317 317 316 315 315 315 315 314 313 313 312 312 313 313 314 313 313 314 313 313 315 316 316 317 316 316 316 315 315 314 314 315 314 314 315 315 315 315 314 314 314 313 313 313 312 311 310 309 309 309 308 308
322 322 322 320 319 319 318 318 319 319 319 319 318 317 317 317 315 315 314 314 314 313 313 313 314 314 313 313 314 314 313 315 315 315 316 316 315 315 315 315 314 314 314 314 314 314 315 315 315 314 314 315 315 314 314 313 312 311 311 310 309 309 309
320 320 321 320 319 318 318 319 320 320 320 320 319 319 319 317 315 315 315 315 314 313 313 313 314 314 313 312 314 315 314 315 315 315 315 315 315 315 315 314 314 313 313 313 313 314 314 315 315 315 314 315 315 314 314 314 313 313 312 312 310 310 309
319 319 320 321 320 319 320 321 321 320 320 321 321 320 320 319 318 317 317 316 316 315 314 314 314 314 313 312 313 314 314 314 315 314 314 315 314 315 314 314 314 313 313 313 313 313 313 314 315 315 315 314 314 314 314 314 313 313 313 313 312 311 310
313 314 316 318 318 318 318 320 321 321 321 320 320 320 321 321 321 320 319 318 317 317 317 316 315 314 314 313 313 313 314 314 314 314 314 314 314 314 314 314 314 314 314 314 314 314 313 314 314 315 315 314 314 314 314 314 314 314 314 314 313 312 312
305 305 307 309 311 311 311 313 316 317 317 318 319 320 320 321 321 322 322 321 321 320 320 319 317 316 315 314 314 313 313 314 314 314 314 314 314 314 314 314 314 314 314 314 315 315 315 315 315 315 315 315 315 315 314 314 314 314 314 314 314 314 313
302 302 302 303 304 304 304 305 307 307 309 311 313 315 316 317 319 320 321 322 322 322 322 321 320 319 318 316 316 315 314 314 314 314 314 314 314 314 314 315 315 315 315 315 315 315 315 315 316 316 316 315 315 315 315 315 315 315 314 314 315 315 314
300 300 301 302 302 302 302 302 303 303 304 305 306 307 308 310 311 312 315 317 319 321 322 322 322 322 322 321 320 319 318 316 315 315 315 314 314 314 314 315 315 315 315 315 315 315 315 315 316 316 316 316 316 315 315 315 315 315 314 314 314 314 314
299 299 300 300 300 300 300 300 301 302 303 303 304 304 305 304 304 305 307 309 311 314 318 319 317 317 318 319 320 321 321 320 318 317 317 316 316 316 316 315 315 315 315 316 316 316 316 316 316 316 316 316 316 315 315 315 315 314 314 314 313 313 312
299 299 299 299 299 299 299 299 300 300 300 301 301 302 302 303 303 303 303 304 305 306 309 311 310 309 310 311 313 316 318 320 321 320 319 319 318 318 318 318 318 317 317 316 316 316 316 316 316 316 315 315 315 314 314 315 314 313 313 312 311 311 310
299 299 299 299 299 299 299 299 299 299 299 299 300 300 300 301 301 301 302 302 302 303 304 306 306 307 307 306 307 309 312 315 318 319 320 320 319 319 318 318 319 319 319 319 318 318 317 317 316 316 316 315 314 314 315 315 313 312 311 310 309 309 308
298 298 298 298 298 298 299 299 299 299 299 299 299 299 299 299 300 300 300 301 301 302 302 303 304 305 305 305 305 306 307 310 313 315 317 319 319 319 319 319 318 318 319 319 319 319 319 318 317 317 316 314 314 314 314 313 312 310 309 308 308 308 307
298 298 298 298 298 298 298 298 298 298 298 298 298 299 299 299 299 299 300 300 300 301 301 301 302 303 303 303 304 304 306 307 309 311 314 316 318 318 319 319 319 319 318 318 318 318 318 318 318 316 315 315 315 314 313 312 310 308 308 308 308 307 305
297 297 297 297 297 297 297 297 297 297 297 298 298 298 298 298 298 298 299 299 299 300 300 300 301 301 302 302 302 303 304 306 307 309 312 313 315 317 318 319 319 318 318 318 318 318 318 319 318 317 315 315 315 314 313 311 308 308 308 308 306 304 302
297 296 296 296 296 296 296 296 296 296 296 296 297 297 297 297 297 298 298 298 298 299 299 299 300 300 301 301 302 302 303 304 306 309 311 312 313 315 317 318 318 318 318 318 318 318 318 318 318 317 317 316 315 314 313 310 308 308 307 305 303 302 301
295 295 295 295 295 295 295 295 295 295 295 295 295 296 296 296 296 296 297 297 298 298 298 298 299 299 300 300 301 301 302 303 305 307 310 311 312 313 314 316 317 317 317 317 317 317 317 317 317 317 316 316 315 314 311 309 306 305 304 302 302 302 302

ECMWFFLT1_925_thetae_045.txt.gz
Theta_e
334 333 333 333 333 332 331 331 331 330 330 330 330 330 331 330 330 330 330 330 330 330 329 329 329 328 329 329 329 329 329 329 328 329 329 328 329 329 327 329 329 328 329 328 328 327 327 326 324 324 324 324 324 324 323 324 324 323 321 317 315 316 317
333 333 333 332 331 330 330 329 328 327 327 327 328 328 329 329 329 329 329 329 330 330 329 329 329 329 329 329 329 329 329 329 329 329 330 330 330 330 328 329 329 328 328 328 328 328 327 326 325 324 323 323 323 323 323 323 322 320 317 315 314 314 313
332 332 332 331 330 329 329 329 327 326 324 324 326 326 327 328 328 327 328 329 329 329 329 330 330 329 330 329 329 329 329 329 329 329 329 330 330 329 329 329 329 328 328 328 328 328 328 327 326 325 324 323 322 321 320 320 319 316 313 312 311 310 309
332 332 332 330 330 329 330 329 328 326 325 325 325 326 326 326 326 326 326 327 328 329 330 330 330 329 329 329 329 329 329 329 329 329 329 330 329 329 328 329 329 328 327 327 328 328 328 328 326 325 324 322 321 320 317 315 314 312 311 310 309 308 307
331 331 331 330 329 329 329 329 328 327 325 325 325 326 326 325 325 325 325 325 326 328 329 329 329 329 329 329 329 329 329 329 329 329 330 330 329 329 329 329 329 329 326 325 327 328 328 328 326 325 324 322 321 319 315 312 311 310 310 309 308 307 305
331 330 331 330 329 328 328 328 328 327 325 325 325 325 325 325 324 324 324 324 325 327 328 328 328 329 329 329 330 330 330 330 329 330 330 330 329 329 329 329 329 328 326 324 326 328 328 328 327 325 323 322 321 318 314 312 310 309 309 308 307 306 303
330 330 330 330 328 327 326 326 326 326 325 325 325 325 325 325 324 323 324 325 325 326 325 325 325 327 328 328 329 330 330 330 329 330 330 329 329 328 329 329 328 328 327 325 325 327 327 327 327 325 323 322 321 318 315 312 310 309 308 307 306 304 301
330 330 330 329 327 326 325 325 324 325 325 324 325 325 325 325 324 323 324 325 325 324 323 323 323 325 327 328 328 329 329 329 329 329 329 329 329 328 328 329 329 328 327 326 325 326 326 326 327 325 324 322 320 319 317 313 311 311 309 307 306 304 300
330 330 330 328 327 326 325 325 324 325 324 324 324 324 324 324 323 323 324 324 324 324 323 322 323 325 327 328 328 328 329 328 329 329 329 329 329 328 328 328 328 328 327 326 325 325 326 326 326 325 324 323 321 319 318 314 313 313 310 307 306 304 301
330 329 329 327 327 327 325 324 324 324 324 323 323 323 323 323 323 323 323 322 323 324 322 321 322 324 326 327 327 328 328 328 328 328 327 328 328 328 328 329 329 328 326 326 324 324 325 325 325 325 324 324 321 319 317 315 315 314 311 308 306 304 303
329 328 328 327 326 326 325 324 325 324 323 323 322 321 322 323 323 322 322 322 323 323 322 320 321 324 326 326 326 326 326 326 326 326 326 326 327 327 328 328 329 328 326 325 324 322 323 323 324 325 325 324 322 319 318 315 315 315 312 310 308 305 304
327 327 327 327 326 326 324 324 324 323 323 322 322 321 322 323 322 322 321 321 322 323 321 319 320 324 325 326 326 326 325 324 325 325 325 324 324 326 327 328 328 327 327 325 323 321 322 323 323 324 323 322 320 320 319 315 314 315 314 311 310 307 305
326 326 327 327 326 325 324 324 324 323 322 322 322 321 322 323 322 322 321 320 322 323 320 318 319 322 324 323 323 322 319 318 319 321 323 323 323 324 325 326 327 327 327 325 322 320 321 322 323 323 322 320 319 318 318 316 313 314 314 313 311 309 307
325 326 327 326 325 324 324 324 323 323 322 322 322 321 322 323 322 322 320 320 322 322 320 317 318 320 321 321 320 319 316 314 314 316 318 320 322 323 323 325 326 327 327 325 321 320 320 321 322 322 321 320 318 317 317 316 315 314 313 312 311 309 307
325 326 326 325 324 324 324 323 323 323 322 322 322 321 322 322 321 321 319 319 322 321 318 317 317 317 319 319 319 319 318 316 314 315 316 318 320 322 323 324 325 326 327 324 320 319 319 320 321 321 320 319 318 316 315 315 315 314 313 311 311 309 307
324 324 323 323 323 323 324 324 323 323 322 322 321 321 321 321 320 320 319 319 320 319 317 317 316 316 316 317 317 317 317 316 314 315 316 317 317 318 320 323 324 325 326 324 320 319 319 319 320 319 319 319 318 316 315 314 314 314 314 313 311 310 307
322 323 322 323 323 323 323 323 323 322 322 321 320 320 320 320 319 319 318 318 318 318 317 316 315 315 315 315 315 315 316 316 315 314 315 315 315 314 316 320 323 325 326 323 320 319 318 318 319 319 319 318 317 317 315 313 313 314 314 313 311 310 309
322 322 323 323 322 322 323 323 322 322 321 319 318 317 316 315 316 317 318 318 317 317 317 315 314 313 314 314 315 314 315 316 315 315 315 315 314 314 314 316 321 326 326 324 321 319 319 318 319 320 319 318 317 316 316 314 313 313 313 313 312 310 310
321 322 322 322 322 322 322 322 321 321 319 316 314 313 312 312 313 314 315 316 317 317 316 314 313 312 312 313 313 313 313 315 316 315 315 314 314 314 314 315 319 324 326 325 322 321 320 320 320 320 320 318 316 315 315 314 313 313 313 314 313 310 308
321 322 322 322 322 322 321 321 320 319 317 315 313 312 311 311 311 311 312 313 314 315 315 314 312 312 312 312 312 312 312 313 314 315 315 315 314 314 314 314 315 319 322 325 324 323 322 321 321 321 321 320 318 316 315 314 313 313 313 314 313 311 310
320 321 320 320 321 320 320 319 318 317 317 316 314 313 312 312 312 312 312 312 312 313 313 312 311 312 312 312 312 312 313 312 313 314 315 315 315 315 315 315 314 315 317 319 320 321 321 320 320 319 319 319 319 319 317 315 314 313 313 313 312 312 311
319 319 319 319 319 319 319 318 317 317 316 315 315 315 314 314 314 315 315 314 314 313 312 311 311 312 312 313 313 313 313 313 313 314 315 316 316 316 315 315 314 314 314 314 315 316 316 316 315 315 315 315 315 316 317 316 315 314 313 313 313 312 312
318 319 319 319 319 319 319 318 318 317 315 314 315 316 316 316 316 315 315 315 315 314 313 312 312 312 312 313 313 313 313 314 313 314 315 315 316 316 316 315 315 314 314 314 314 314 314 314 314 314 314 314 313 313 314 315 315 315 314 314 313 312 312
319 319 318 318 319 318 318 319 318 318 317 316 317 317 317 316 316 316 315 315 315 315 314 314 313 312 312 312 312 313 313 314 314 314 314 315 315 316 316 316 315 315 315 314 314 314 314 314 314 314 314 314 314 313 313 313 314 314 313 313 314 313 312
318 318 318 318 318 318 318 318 318 318 318 318 319 319 319 318 318 318 317 317 317 317 317 317 316 314 314 313 312 313 313 314 314 314 314 314 314 315 315 315 315 315 315 315 314 314 314 314 313 314 314 314 314 314 313 314 314 313 312 312 314 313 311
316 315 315 316 316 316 316 316 315 315 315 315 317 317 318 319 319 320 319 318 318 318 318 318 318 317 316 315 314 313 313 313 313 313 314 314 314 314 314 314 314 314 314 314 314 314 314 314 313 313 313 313 313 313 313 313 314 314 313 312 313 313 312
312 311 311 312 312 312 311 311 311 311 310 311 312 312 313 314 316 317 318 317 317 317 317 317 318 319 319 318 317 316 315 314 314 314 313 313 314 313 313 313 313 313 314 314 314 314 314 314 313 313 313 313 313 313 313 313 313 314 314 313 313 314 314
306 306 306 307 307 307 306 305 306 306 307 307 307 307 307 308 308 310 311 312 313 313 312 312 315 318 318 319 319 319 319 318 318 318 317 317 316 315 315 314 314 314 314 314 314 314 314 314 313 313 313 314 314 314 314 314 314 314 314 314 314 314 314
301 302 302 303 303 302 302 302 302 303 304 305 305 304 304 304 304 304 305 306 307 306 306 307 310 312 314 315 317 317 318 318 319 319 319 319 320 319 319 319 318 317 317 316 316 316 316 315 315 314 314 314 314 314 314 314 314 314 314 314 314 314 314
299 299 300 300 300 299 299 300 300 300 301 301 301 301 301 301 301 302 302 302 302 302 302 303 304 306 307 309 310 311 312 313 314 314 314 315 316 317 318 319 320 320 320 319 319 318 318 318 317 317 316 315 315 315 314 314 314 314 314 314 314 314 314
298 298 298 298 298 298 298 298 298 299 299 299 299 299 299 299 299 300 300 300 300 300 300 301 301 302 303 304 304 305 306 307 307 308 309 310 311 312 313 315 316 317 318 319 319 319 319 318 317 317 318 317 317 316 316 315 315 314 314 314 314 314 314
298 298 298 297 297 297 297 297 297 297 298 298 298 298 298 298 298 298 298 298 298 299 299 299 299 300 300 301 301 301 302 302 303 303 304 305 306 307 309 310 311 312 314 315 316 317 318 318 317 317 317 318 318 318 317 317 316 315 314 314 313 313 313
297 297 297 297 297 297 297 297 297 297 297 297 297 297 297 297 297 297 297 297 297 298 298 298 298 298 299 299 299 299 300 300 300 301 301 301 302 303 304 304 306 307 309 310 312 313 316 317 318 318 317 318 318 318 318 317 317 316 315 314 314 314 313
296 296 296 296 296 296 296 296 296 296 296 296 296 296 296 296 296 296 296 296 296 296 296 297 297 297 298 298 298 298 298 299 299 299 299 300 302 303 303 302 302 303 304 305 307 309 312 315 317 317 317 318 318 317 317 317 316 316 315 315 314 313 313
295 295 295 295 295 295 295 295 295 295 295 295 295 295 295 295 296 296 295 295 295 295 295 296 296 296 297 297 297 298 298 298 298 298 299 301 302 304 304 303 302 301 301 302 304 306 309 312 314 316 317 318 318 318 317 316 316 315 314 314 313 312 312
295 295 294 294 295 294 294 294 294 294 294 295 295 296 295 295 296 296 296 296 295 295 295 295 295 295 295 295 296 296 297 297 297 297 297 299 300 301 302 302 302 302 302 302 303 304 306 309 311 313 315 316 316 316 315 314 314 314 314 313 312 311 311
294 294 294 294 294 294 294 294 295 294 294 295 295 296 296 296 296 296 296 296 296 295 294 294 295 295 295 295 295 295 295 296 296 296 297 297 298 298 299 300 301 301 302 303 303 303 304 306 308 310 312 313 314 314 313 312 312 312 312 311 310 310 309

ECMWFFLT1_925_thetae_048.txt.gz
Theta_e
334 334 334 335 335 335 335 334 334 334 333 333 333 333 332 332 331 331 331 331 330 330 330 330 330 329 329 330 331 331 331 331 331 331 331 331 331 331 331 331 331 331 330 330 329 329 328 328 326 326 325 326 326 325 325 325 325 324 322 321 321 321 321
334 334 334 334 334 334 334 333 333 333 332 332 331 331 332 332 331 331 331 331 331 330 330 330 330 330 330 331 332 332 331 332 331 331 331 331 330 331 331 330 331 331 330 330 329 329 329 328 327 326 326 325 325 324 324 324 324 323 320 319 318 318 317
333 333 334 334 334 333 333 333 332 332 331 331 330 330 330 330 331 331 330 331 331 330 330 330 330 330 330 331 332 332 331 331 331 331 331 331 331 331 330 330 330 330 330 330 330 329 329 328 328 327 327 326 325 324 323 323 322 320 318 316 315 314 314
333 333 334 333 333 333 332 332 332 331 332 331 330 330 329 329 330 330 330 330 330 330 330 330 331 331 331 331 332 331 331 331 331 330 331 331 331 331 331 331 330 330 331 330 329 329 329 329 328 328 327 325 324 323 322 321 320 318 316 315 314 313 312
334 333 333 333 333 332 332 331 331 331 331 331 330 330 330 329 329 329 329 329 329 330 330 330 331 332 332 331 331 331 331 331 330 330 330 331 331 331 330 331 329 329 331 329 328 328 328 329 329 328 326 324 323 321 319 318 317 315 314 313 312 312 310
334 333 333 332 331 331 331 331 330 330 330 330 329 330 330 329 329 328 328 329 329 329 329 329 329 331 332 332 331 331 331 330 330 330 330 331 331 331 330 330 329 328 330 330 329 329 328 327 328 327 325 324 322 319 316 316 315 314 313 312 311 310 308
333 332 331 331 331 331 331 330 330 329 329 329 329 329 328 328 328 328 328 328 329 329 329 328 328 329 330 331 331 331 330 330 331 330 331 331 332 331 330 330 330 328 329 330 330 329 328 327 327 326 325 324 321 318 315 314 314 313 312 311 309 308 307
333 331 330 331 331 331 330 330 329 329 328 328 328 328 328 328 328 328 328 328 329 329 328 327 327 327 328 330 331 331 331 331 331 331 331 332 331 331 330 330 330 329 329 330 329 329 328 327 327 326 326 324 321 318 316 313 313 312 311 310 308 307 306
333 332 331 332 332 331 330 329 329 329 328 327 327 328 328 327 327 327 327 327 327 327 327 327 327 326 328 330 332 332 331 331 331 331 332 332 331 331 331 330 329 329 330 330 329 329 328 327 327 326 326 325 321 319 317 314 314 312 310 309 307 307 306
333 332 331 332 331 331 329 329 329 329 328 327 327 327 327 327 327 327 327 327 327 326 326 326 326 326 327 329 331 332 332 331 331 332 332 332 331 331 331 330 330 329 330 330 329 329 328 328 328 327 326 324 322 320 318 315 315 313 309 309 308 307 306
332 331 331 331 330 330 329 329 329 328 328 327 326 326 326 326 326 326 326 327 326 326 326 326 326 326 326 327 329 330 330 331 331 331 331 331 331 331 330 330 330 329 330 330 329 329 329 328 328 326 325 323 321 320 319 317 316 313 310 309 308 307 307
331 331 330 330 330 329 329 329 328 328 328 327 326 325 325 326 325 324 325 326 326 325 325 325 325 326 326 326 327 327 328 329 329 330 330 330 330 330 331 330 329 329 330 330 329 329 329 329 328 326 325 323 320 319 319 317 316 313 311 311 309 307 307
332 331 330 330 330 329 328 328 328 328 328 327 326 325 325 325 325 324 324 325 325 324 324 324 325 326 325 325 325 325 327 327 327 327 327 328 328 329 330 330 329 329 330 329 328 328 328 328 327 326 325 323 319 319 319 316 315 315 313 312 311 309 308
332 331 330 329 329 329 328 328 328 327 327 327 326 325 325 325 325 324 324 324 324 323 322 323 325 325 325 325 324 323 324 324 324 324 325 326 326 327 329 330 330 330 329 328 328 327 327 327 327 326 324 321 318 319 318 315 314 316 316 315 312 310 309
331 330 329 329 328 328 328 328 327 327 327 327 326 325 324 324 324 323 323 323 323 322 321 321 323 325 324 324 324 323 323 323 323 323 323 324 324 326 328 329 330 330 329 328 327 325 325 325 325 324 322 320 317 317 317 315 314 316 317 316 314 312 311
329 329 330 329 328 328 328 327 327 327 327 326 325 324 323 323 323 322 322 323 323 321 319 319 321 323 324 324 324 323 322 322 322 322 323 323 322 324 327 329 330 329 329 328 325 323 324 324 323 321 320 319 317 316 316 316 315 315 316 315 314 314 313
329 330 331 329 327 327 327 326 327 326 326 326 324 323 323 322 322 320 320 322 321 320 318 318 320 321 322 322 323 323 322 321 321 321 321 321 321 322 325 328 330 330 329 328 325 323 323 322 320 319 319 319 318 317 316 316 316 315 315 315 314 314 313
329 328 328 329 329 328 327 327 327 326 325 324 322 322 321 321 320 319 319 320 319 319 317 316 318 319 321 321 322 322 322 321 320 320 320 320 320 321 324 327 330 330 330 329 326 324 323 321 320 319 319 319 318 318 317 316 316 316 316 316 315 313 313
327 324 324 328 329 327 326 326 326 325 323 321 320 319 318 318 318 318 318 318 318 317 317 316 316 317 319 320 320 321 322 321 320 319 319 319 319 320 322 325 329 330 330 328 326 324 324 322 320 319 318 318 317 318 318 317 317 317 317 316 315 314 314
324 321 322 326 327 326 326 326 325 323 320 319 318 317 317 317 317 316 316 316 316 316 316 315 315 316 317 318 319 319 320 321 321 320 319 319 319 320 320 322 327 329 330 329 326 325 325 324 323 321 321 320 318 318 319 319 318 318 317 317 317 316 315
324 322 322 324 325 325 325 324 322 320 319 319 318 318 317 317 317 316 316 316 316 316 316 316 316 316 316 316 317 317 317 318 320 321 320 319 319 319 319 320 323 326 328 329 329 328 327 325 324 322 322 322 320 319 319 319 318 318 318 318 318 317 316
324 323 324 325 325 325 324 323 321 319 319 319 319 318 318 317 317 317 317 317 317 318 318 316 316 317 318 317 317 317 317 316 317 319 320 320 319 318 319 320 320 320 320 322 324 324 323 322 321 321 321 321 321 320 319 319 318 318 318 318 318 317 317
324 324 324 324 324 324 323 322 322 321 321 321 321 320 319 318 318 318 319 320 319 317 316 314 313 314 316 317 317 317 317 317 316 317 318 319 318 318 319 319 318 315 314 315 316 316 317 316 317 317 318 319 320 319 319 319 318 318 318 317 317 317 317
323 323 322 322 321 320 319 319 319 319 319 319 319 321 322 321 321 321 321 320 317 315 314 313 312 312 312 314 316 317 318 318 318 317 318 318 318 317 318 319 318 316 315 316 315 314 314 314 314 315 315 316 316 317 318 319 319 318 318 317 317 317 317
319 319 319 318 318 318 317 317 317 317 317 316 316 319 322 323 323 322 320 318 316 315 315 314 313 313 313 312 314 316 317 317 318 318 318 319 319 318 318 320 320 319 318 318 317 316 315 314 314 314 314 314 314 315 316 317 318 318 318 317 316 316 316
317 317 318 318 318 319 318 318 317 317 317 317 317 319 321 322 321 319 317 317 317 317 317 317 316 315 314 313 313 315 318 318 317 318 318 318 319 319 319 319 320 320 320 317 316 317 318 317 315 314 313 313 313 313 314 314 314 315 316 317 317 317 316
313 313 315 316 316 316 316 315 314 315 315 316 317 318 318 319 318 316 315 315 316 316 317 318 318 318 317 316 314 315 319 320 319 319 319 319 319 318 318 318 318 319 319 318 317 319 320 320 319 318 316 315 315 315 314 313 313 313 314 314 316 317 317
309 309 310 312 313 312 312 311 310 310 311 313 314 314 314 315 315 314 313 312 312 313 313 314 316 318 319 319 318 318 320 322 321 321 322 321 321 320 320 320 319 318 319 319 319 317 317 318 320 320 319 318 318 318 318 317 316 314 314 314 315 317 317
307 306 307 309 309 309 309 308 308 308 308 309 310 310 309 310 310 311 311 310 308 307 307 309 312 314 315 317 318 318 320 321 321 322 323 322 322 322 323 322 322 321 321 321 321 318 316 317 318 319 319 319 318 319 319 319 317 315 315 315 315 316 317
303 303 304 304 305 305 306 306 306 306 306 305 305 305 305 306 306 307 308 308 306 304 304 306 308 309 311 313 314 315 317 318 319 319 320 320 321 321 322 321 322 322 323 323 323 321 319 318 319 320 321 320 320 320 319 319 318 316 315 315 315 315 315
300 301 301 301 301 301 302 303 303 303 304 304 304 304 303 303 303 302 304 305 304 303 302 302 304 306 306 307 309 311 313 315 316 316 317 318 318 318 319 317 316 318 321 322 321 320 319 319 320 321 322 322 322 322 321 321 320 318 317 316 316 315 315
299 299 299 300 300 300 300 301 301 302 303 304 304 304 304 303 302 301 300 300 301 303 303 301 300 301 302 302 303 306 310 312 313 314 313 314 314 315 316 315 313 311 314 315 316 315 315 316 318 321 322 323 323 323 323 322 322 321 319 318 317 316 315
300 300 299 300 300 300 301 301 302 302 303 303 303 303 304 304 303 302 302 301 300 301 302 301 299 298 299 299 299 301 306 309 309 309 310 309 310 311 312 314 313 310 309 308 307 308 309 312 315 318 320 322 322 322 322 322 322 322 320 319 318 317 316
298 299 299 299 300 300 300 300 301 302 302 302 303 303 303 304 304 303 302 302 301 299 299 299 298 297 297 298 297 299 303 305 303 304 306 306 307 308 309 311 312 312 309 306 303 302 304 306 309 313 316 318 320 320 320 320 321 321 320 319 319 318 318
296 296 297 298 299 299 299 299 299 300 301 301 302 302 302 303 304 303 303 303 302 301 299 297 296 296 296 297 296 297 299 300 299 300 303 305 305 307 307 308 309 309 307 303 300 300 301 302 304 306 309 312 315 317 318 319 319 318 318 319 319 318 318
297 297 297 297 298 299 299 299 299 299 301 301 302 302 302 302 303 303 303 303 302 302 301 299 296 295 295 295 296 295 296 297 296 298 301 303 304 304 305 306 307 305 303 300 299 300 300 301 302 302 303 305 307 311 314 316 315 315 316 317 317 317 317
298 298 299 299 299 299 300 300 300 300 301 301 301 302 301 301 302 302 302 302 301 301 301 301 299 297 295 295 295 295 295 295 295 296 297 299 302 303 304 304 303 301 299 298 299 299 299 300 300 301 301 302 303 306 309 312 313 313 314 315 315 315 315

ECMWFFLT1_925_thetae_051.txt.gz
Theta_e
333 333 333 336 337 336 336 337 337 337 336 336 336 335 334 333 334 334 333 333 333 333 333 332 332 332 333 334 334 333 333 332 332 332 332 331 331 331 331 333 332 331 331 332 332 330 330 330 329 329 329 329 329 328 327 327 327 326 325 325 324 323 323
332 334 335 336 336 337 338 337 336 336 335 336 335 334 334 333 333 333 333 332 332 333 332 331 331 331 331 333 334 334 333 333 332 332 332 331 331 331 331 332 332 331 331 332 331 329 329 329 328 328 328 328 328 327 327 326 326 325 324 323 322 321 321
333 335 336 335 336 337 337 336 335 335 334 334 333 333 333 333 333 332 333 333 332 333 332 331 331 331 331 333 334 333 333 333 333 333 333 332 331 330 331 333 332 330 330 330 330 330 329 329 329 328 328 328 327 327 326 326 325 324 322 320 319 318 317
332 334 335 335 336 336 336 334 334 333 332 332 332 332 331 332 332 332 332 332 332 332 331 331 332 331 332 333 334 334 333 332 332 333 333 333 332 331 331 331 331 331 331 330 331 332 331 329 330 329 328 327 327 327 326 325 324 322 320 318 317 316 315
331 332 333 333 334 335 335 333 332 332 331 332 332 331 331 331 331 332 331 330 331 332 331 331 332 332 333 333 334 334 333 332 332 332 333 333 332 332 331 330 330 330 330 330 331 332 331 329 329 329 328 326 326 326 324 323 322 320 319 317 316 315 313
331 333 334 333 333 333 333 332 332 332 332 332 332 332 331 331 331 331 330 329 330 331 331 330 331 333 334 333 333 333 332 332 332 332 332 332 333 332 331 330 330 329 329 329 330 331 331 329 328 328 327 325 325 324 322 321 320 318 317 316 315 313 311
332 333 335 334 332 332 331 331 331 332 332 332 332 332 331 331 330 330 329 329 328 329 330 330 330 332 334 334 333 333 332 332 332 332 331 332 333 332 331 331 331 330 330 330 329 330 330 330 330 328 325 325 324 322 321 320 318 317 316 315 313 311 310
332 333 333 333 331 331 331 331 331 331 331 331 331 331 330 330 330 329 329 328 329 329 330 330 329 330 331 333 333 333 332 331 332 332 331 331 332 332 332 332 331 331 332 331 330 329 329 330 331 329 325 324 322 321 320 318 317 316 315 313 311 309 309
332 331 331 331 331 331 331 331 330 330 330 330 330 330 330 330 329 329 329 329 329 329 329 330 329 328 329 330 332 332 332 331 332 332 332 332 331 331 333 333 332 331 331 331 330 329 329 329 330 329 327 325 322 320 319 317 317 315 314 312 310 309 309
331 331 331 331 331 331 331 331 331 330 329 329 330 330 329 329 328 328 328 328 328 328 328 328 327 327 328 330 332 332 331 331 332 332 331 331 331 331 332 332 332 331 330 329 329 329 328 327 327 327 327 325 322 321 318 316 316 315 313 311 309 309 309
331 331 332 332 332 331 331 331 331 330 330 329 330 330 329 328 327 328 328 328 328 328 328 327 327 327 327 329 332 333 332 331 332 332 331 331 331 332 332 331 331 331 329 328 328 328 327 326 326 327 327 325 322 322 320 317 316 314 312 310 309 309 310
332 332 332 332 332 331 331 331 331 330 329 328 328 329 329 328 327 327 327 328 328 327 327 327 326 327 326 327 330 331 332 332 331 332 332 332 332 332 332 332 331 330 328 328 329 328 328 327 327 327 327 325 323 322 321 319 317 314 311 310 309 309 310
332 332 331 331 331 331 331 331 331 330 329 327 327 327 327 327 326 326 326 327 327 326 326 326 326 326 326 326 327 327 329 330 329 329 330 330 330 331 332 331 330 329 329 329 329 328 328 328 327 326 327 325 323 322 321 321 318 313 311 311 310 310 311
331 330 330 329 330 331 331 330 330 330 329 327 326 326 327 327 326 326 325 325 325 324 324 325 325 326 326 326 326 326 326 327 326 326 327 327 327 329 331 331 329 330 330 329 329 328 329 327 327 326 325 324 323 321 321 320 316 313 313 312 311 310 311
331 330 330 330 330 330 330 330 330 329 329 328 326 325 327 327 326 326 325 324 324 324 324 324 325 325 325 326 326 325 325 325 324 324 325 326 325 327 330 331 330 330 330 329 329 328 328 328 327 326 324 323 321 320 320 318 316 314 315 314 312 312 312
331 330 330 330 330 330 330 330 329 329 329 328 326 325 326 326 325 325 325 324 324 323 322 323 324 325 324 325 325 325 324 324 324 324 325 325 324 325 328 330 331 330 330 330 329 327 327 327 327 325 324 322 318 318 318 317 316 316 316 315 314 313 313
332 331 330 330 329 329 329 329 329 329 328 327 326 325 325 325 324 323 323 324 324 322 321 321 323 324 323 324 324 324 324 324 324 324 324 323 323 324 326 330 331 330 330 330 328 325 325 325 325 323 322 320 317 317 318 317 316 317 317 317 315 314 314
332 330 329 328 328 329 329 329 329 329 327 326 326 324 323 323 323 322 322 323 322 321 319 319 321 323 323 323 323 322 323 323 323 323 322 322 322 324 326 329 331 331 330 330 328 325 324 324 322 321 321 320 318 317 317 317 316 316 316 316 316 315 315
331 330 329 328 328 328 328 328 328 328 327 326 324 323 323 322 321 320 321 321 320 319 318 318 319 321 322 322 322 322 322 322 322 322 321 321 321 323 324 327 330 331 330 330 328 326 325 323 322 321 320 320 318 317 317 317 316 316 316 316 316 316 316
332 331 329 328 327 327 328 328 328 327 326 324 323 322 321 321 320 320 320 320 320 318 317 317 318 319 321 322 322 322 322 322 322 321 321 320 321 322 323 325 329 331 330 330 329 326 324 322 321 321 320 319 318 317 317 317 316 317 317 316 316 316 316
331 331 330 329 328 328 328 328 327 326 324 321 320 320 319 319 319 318 319 319 318 317 317 317 318 319 320 320 321 321 322 322 322 321 322 321 321 322 322 324 328 329 328 328 327 326 324 323 322 321 320 320 319 318 318 318 317 318 318 317 317 317 317
329 330 330 329 329 329 328 327 325 323 321 320 319 319 319 318 318 318 318 318 318 319 320 319 318 319 319 320 320 320 320 320 320 321 321 321 320 321 321 323 324 325 326 327 327 326 326 324 323 322 321 321 320 319 319 319 319 319 318 318 318 318 319
327 328 329 328 328 328 326 324 322 321 320 320 320 319 319 318 318 318 318 319 321 322 320 318 317 318 318 319 320 320 318 318 319 319 320 320 320 320 321 321 320 319 320 323 325 326 326 325 323 323 323 322 322 321 320 320 320 320 319 319 319 319 319
327 328 328 327 327 326 324 321 320 320 320 320 320 319 319 319 319 320 321 322 321 318 315 314 314 315 316 317 319 320 319 318 318 318 319 319 319 319 320 320 318 315 316 318 318 319 320 320 320 320 320 321 321 321 321 321 320 320 320 319 319 319 319
325 326 327 327 326 325 324 323 322 322 323 323 323 322 322 323 323 323 322 320 317 314 313 313 312 313 314 314 315 318 320 319 318 318 318 319 319 318 319 320 319 318 319 320 318 316 315 315 315 315 316 317 317 318 319 320 320 320 320 320 319 318 319
321 322 322 322 322 322 321 321 320 320 320 321 322 323 323 323 322 320 318 316 314 314 314 313 313 313 313 312 313 316 319 318 317 318 319 319 319 319 318 320 320 320 321 320 319 318 318 317 316 315 314 314 314 315 315 316 317 318 318 319 319 319 318
317 318 318 318 318 318 317 317 317 317 317 318 320 321 321 319 318 317 315 315 315 316 315 315 315 314 314 313 313 315 319 319 317 318 319 319 320 320 319 320 320 320 320 320 318 318 320 321 321 319 317 316 315 315 314 314 314 314 315 315 317 318 319
314 315 316 317 317 316 316 316 316 316 317 317 318 319 318 317 316 315 314 314 316 316 316 317 317 317 317 316 315 316 320 321 319 319 320 319 319 319 319 319 319 318 319 320 319 318 319 320 321 322 321 320 319 318 318 317 315 314 313 313 313 315 317
311 312 313 315 315 315 315 315 314 314 315 315 315 315 315 315 315 314 312 312 313 314 314 315 317 318 319 318 318 319 321 321 320 321 322 322 321 321 321 321 320 319 320 321 321 319 318 317 318 319 320 320 320 320 320 320 320 318 316 315 315 316 317
309 309 310 311 311 311 311 311 311 311 311 311 312 312 312 312 313 312 311 310 310 310 311 312 313 315 317 318 318 319 320 320 320 321 322 323 322 322 323 323 322 322 322 322 323 322 320 319 318 319 321 320 320 320 319 319 320 320 318 318 317 317 317
306 306 307 307 307 307 308 308 308 308 309 309 310 310 310 311 311 311 311 309 307 307 308 309 309 310 312 314 316 317 318 318 319 320 321 322 321 321 322 322 320 320 320 321 322 323 323 321 320 321 322 322 321 322 322 321 321 320 319 319 318 317 317
303 304 304 305 305 305 306 306 307 307 307 308 308 307 308 308 308 309 309 308 307 308 308 306 304 305 306 308 309 312 314 315 316 318 318 318 318 319 319 319 318 316 315 315 316 317 318 318 317 318 320 322 323 323 322 322 321 320 320 320 319 319 319
302 302 302 302 303 304 305 305 305 306 306 307 306 306 306 306 306 306 306 306 305 307 308 305 301 299 300 301 301 304 309 313 312 312 313 313 313 313 314 317 317 315 313 312 311 310 309 309 308 309 311 316 320 322 322 321 320 319 320 320 320 320 320
301 301 302 302 302 303 303 303 304 304 305 306 306 306 306 306 306 306 306 306 305 304 304 302 299 297 297 298 297 299 305 308 306 305 306 308 308 309 310 314 315 314 313 312 310 309 308 305 304 303 303 305 310 313 315 316 317 318 319 320 320 320 321
298 299 300 301 302 302 302 302 303 304 304 305 305 306 306 306 307 306 306 307 306 304 302 299 297 296 296 297 296 297 300 301 300 299 303 306 307 308 308 310 310 310 309 309 307 307 307 304 301 300 300 300 301 302 304 305 307 310 315 319 320 320 320
298 298 299 300 301 302 303 303 303 304 304 305 305 305 305 306 307 307 307 307 306 306 304 301 298 297 297 296 296 296 296 296 296 297 300 303 305 305 306 307 307 306 307 307 306 305 303 301 299 299 299 299 299 300 300 301 302 303 306 311 314 317 318
300 301 301 301 302 303 303 304 304 304 304 305 305 305 305 305 306 306 306 306 305 305 305 304 302 301 300 298 297 297 296 296 296 295 296 299 302 303 304 304 304 304 304 303 303 302 299 298 298 298 298 299 299 299 300 301 302 304 305 307 310 313 315

ECMWFFLT1_925_thetae_054.txt.gz
Theta_e
335 334 333 333 334 334 335 336 336 337 336 335 335 334 334 335 335 336 336 336 336 335 335 334 334 334 334 334 334 333 333 333 333 333 333 332 333 333 331 331 332 331 331 331 330 330 330 329 328 329 329 328 328 328 328 327 326 325 326 325 325 325 324
336 334 333 333 334 334 335 336 337 336 336 336 335 335 335 334 334 335 335 335 335 334 334 333 333 333 333 334 334 334 333 333 333 333 332 331 332 332 331 331 331 331 332 331 330 330 330 330 329 329 328 328 328 327 327 327 326 325 325 324 324 324 324
336 334 333 334 335 334 335 336 336 336 336 336 335 335 334 334 334 334 334 334 334 333 332 332 332 332 332 333 334 334 333 333 333 332 331 331 330 330 331 330 330 331 332 331 331 331 330 330 330 328 328 328 328 327 326 326 325 324 323 322 322 321 321
335 334 334 335 335 334 335 336 336 335 335 335 334 334 334 334 334 334 334 333 333 333 332 331 332 332 332 333 334 334 333 333 333 332 332 331 330 330 331 330 330 332 332 331 330 330 330 330 330 329 328 328 328 327 327 326 324 322 320 319 318 317 317
334 334 334 334 335 335 335 335 335 334 334 334 333 334 333 333 333 333 333 333 333 333 332 332 332 332 332 333 334 334 334 333 332 332 333 332 331 331 331 331 331 332 332 331 330 329 330 331 330 329 328 327 327 327 326 325 323 321 319 317 316 315 314
334 335 335 335 336 335 334 334 334 333 333 333 333 332 332 332 332 332 332 332 333 332 332 332 332 332 333 333 334 334 333 333 332 333 333 333 332 331 331 331 330 330 331 331 331 331 330 330 329 329 327 327 326 325 325 324 321 319 318 317 315 313 311
334 336 335 335 336 335 334 334 333 333 333 333 332 332 332 332 331 332 331 330 331 332 332 331 331 333 334 334 334 334 333 333 332 333 332 333 333 332 331 331 330 329 329 330 331 331 330 328 329 329 327 327 326 323 323 323 320 318 317 316 314 311 309
332 334 334 334 334 333 333 333 332 333 333 333 333 332 332 332 331 331 330 330 330 330 331 330 330 332 333 333 333 333 333 332 332 333 332 332 333 332 331 331 332 330 329 330 329 330 330 328 328 328 327 327 327 324 322 320 318 318 316 314 312 310 308
331 332 333 333 333 332 332 332 332 332 332 332 332 331 331 331 330 330 330 330 330 330 330 330 330 330 331 331 332 332 333 332 332 333 332 331 331 332 331 332 332 331 331 331 329 330 331 328 328 329 327 325 325 324 324 321 319 316 315 312 310 310 309
331 331 332 332 331 330 331 332 331 331 331 331 331 330 331 331 330 330 329 329 330 330 330 330 329 329 329 330 331 332 332 332 332 333 332 332 331 331 331 332 332 331 331 332 330 329 331 330 330 329 328 325 324 324 324 324 320 315 313 311 310 311 310
330 330 330 329 330 330 331 331 330 330 330 330 330 330 330 330 329 329 329 329 329 329 329 329 328 328 329 330 331 331 331 331 332 332 332 332 331 331 331 332 332 331 331 331 329 329 330 330 330 328 327 326 325 324 322 322 320 315 311 310 309 311 311
329 329 329 329 330 330 331 331 330 330 330 330 330 330 329 329 328 329 329 329 329 329 328 328 327 328 328 329 330 331 331 331 331 331 331 331 330 330 331 331 331 332 331 329 328 328 328 328 328 327 326 324 324 323 319 318 319 316 311 310 309 311 312
330 330 330 331 331 331 331 331 331 330 330 330 330 329 329 327 327 329 328 329 329 328 328 327 327 327 327 327 328 329 330 331 330 330 330 330 330 330 331 330 331 331 330 328 328 328 328 327 326 326 326 325 324 323 321 318 317 315 311 309 309 311 312
330 331 332 332 331 331 332 332 331 329 329 328 329 328 327 327 326 327 327 327 328 327 326 326 326 326 327 327 328 327 328 328 328 328 328 329 329 329 330 330 330 330 329 328 328 328 328 328 327 326 326 326 324 322 323 319 314 313 312 310 310 311 312
330 331 333 332 331 332 332 331 330 329 327 327 327 327 327 326 326 326 326 326 326 325 325 325 325 326 326 326 326 326 327 326 326 326 326 327 327 327 329 330 329 329 329 329 328 328 328 328 327 327 326 326 324 323 323 319 313 313 313 310 310 312 312
330 331 332 331 331 331 331 331 330 329 327 325 326 327 327 327 326 326 325 325 324 324 323 324 325 325 326 326 326 325 325 325 325 325 325 325 326 326 328 329 329 329 329 329 328 327 328 328 328 328 326 324 324 323 322 317 313 313 313 310 311 312 312
330 330 331 331 331 331 331 330 330 329 328 325 325 326 327 326 326 325 324 324 323 323 322 323 324 324 324 325 325 324 324 324 324 324 324 324 325 325 326 329 329 329 328 329 329 327 327 328 328 327 324 323 323 321 319 316 313 313 313 312 312 312 312
330 330 330 330 331 330 331 330 329 329 328 326 326 326 325 325 325 324 324 324 323 322 321 321 322 323 323 323 324 323 323 324 324 324 324 323 323 324 325 327 328 327 327 329 328 326 326 326 326 324 323 322 320 318 317 316 314 314 314 314 313 313 313
330 331 330 330 330 330 330 329 329 328 327 327 326 325 324 324 323 323 323 323 322 321 319 319 321 323 323 323 323 322 322 323 323 323 322 321 322 323 325 326 327 327 327 327 328 327 326 325 325 323 322 321 319 317 317 317 316 316 315 315 315 314 314
331 331 330 330 330 330 329 329 329 328 327 326 325 323 323 323 322 321 322 322 321 320 318 318 320 321 322 322 322 322 322 322 322 322 321 321 321 322 324 325 327 327 327 327 327 326 325 325 324 323 322 321 319 316 317 317 317 316 316 316 316 315 315
331 330 330 330 330 329 329 328 328 327 326 325 323 322 322 322 321 320 321 321 319 319 318 318 319 320 321 322 322 322 322 322 322 321 321 321 321 322 323 324 325 327 327 327 327 327 326 324 323 322 320 321 319 317 317 316 316 316 317 317 316 315 315
330 329 329 329 329 329 327 327 327 327 325 323 322 321 321 320 320 319 320 321 320 319 318 318 318 319 320 320 321 321 321 321 321 321 321 321 320 321 323 323 323 325 327 327 327 327 327 325 323 322 321 321 320 318 317 316 315 317 318 317 317 316 316
329 329 329 328 327 327 327 326 326 325 323 321 320 320 319 319 319 319 321 322 321 320 318 317 317 318 318 320 321 321 320 320 320 320 320 321 320 320 322 322 321 322 325 327 327 326 326 325 323 323 322 322 321 320 320 318 317 318 318 318 318 318 317
329 328 328 327 326 327 326 325 324 322 321 320 319 319 319 319 319 320 322 323 321 320 318 316 316 317 318 319 320 320 319 319 318 319 319 320 319 319 320 320 318 317 320 324 326 326 326 326 324 323 322 322 322 321 322 321 320 320 320 319 319 319 318
328 327 326 326 326 325 324 323 322 321 321 321 321 322 322 321 322 322 323 321 318 316 315 314 315 316 317 318 319 319 319 319 318 318 318 319 319 319 320 320 318 317 318 319 320 321 322 324 324 322 321 321 321 321 321 321 321 321 320 320 320 320 320
326 326 325 325 324 324 323 324 324 323 323 323 323 323 322 322 322 321 320 317 314 313 313 312 313 314 314 315 316 316 318 320 318 317 318 319 319 320 320 320 320 320 320 318 318 318 318 318 319 319 318 317 317 318 319 319 319 320 319 319 318 319 320
322 323 323 323 323 322 323 323 324 324 324 323 322 321 321 320 319 318 316 314 313 313 313 313 313 313 313 313 312 314 318 320 318 318 319 320 320 320 320 320 320 320 321 320 319 319 319 319 319 319 319 318 317 316 315 315 316 316 317 317 317 317 319
318 318 318 319 319 319 320 321 321 321 321 321 320 319 318 317 316 315 315 314 313 313 313 314 314 314 313 313 312 314 318 320 319 320 320 319 319 320 319 319 319 319 320 320 319 318 319 321 321 322 322 321 321 319 318 317 316 316 316 316 316 315 316
313 314 314 315 315 316 316 317 318 318 318 318 317 317 316 315 315 314 315 315 314 312 311 313 315 315 315 315 315 317 320 320 320 320 321 321 320 320 321 321 321 321 320 320 320 319 319 319 319 320 320 320 321 321 320 320 320 319 319 318 317 316 315
310 311 312 313 313 313 313 314 315 316 316 316 316 315 315 315 314 313 313 313 311 310 309 311 313 315 317 318 318 319 319 319 320 320 321 322 322 321 322 323 323 322 321 321 321 321 321 320 320 320 320 321 321 321 321 321 322 321 321 320 320 319 318
307 308 310 310 310 310 312 312 313 314 315 315 315 314 313 313 312 311 310 308 307 306 307 307 308 311 314 316 317 318 317 316 318 319 320 321 321 321 322 323 321 320 319 319 319 320 320 321 321 321 321 321 321 322 323 322 322 322 322 321 320 320 319
305 305 306 307 307 308 309 309 310 312 312 312 312 312 312 311 311 309 308 308 308 309 308 307 306 306 307 309 311 314 315 314 314 315 316 315 316 318 319 319 318 317 315 314 314 314 314 314 314 314 313 312 313 316 319 320 319 319 319 320 320 320 320
303 304 304 305 305 306 307 307 308 308 308 308 308 308 308 309 308 307 307 307 307 307 305 303 302 302 302 301 302 306 310 312 311 311 311 310 310 313 315 315 315 314 312 311 310 310 310 309 308 308 307 305 304 306 308 310 310 310 310 311 314 316 318
302 302 303 303 304 304 305 306 306 307 307 307 307 306 306 305 306 306 307 306 303 301 300 298 298 299 299 298 298 299 302 304 305 304 304 306 307 310 312 313 311 309 308 308 308 308 308 308 307 307 306 303 301 300 300 300 301 301 302 302 304 307 311
302 302 302 302 303 304 303 304 304 305 305 306 306 306 306 306 306 306 307 307 305 302 300 299 299 299 298 297 297 297 297 298 298 298 299 302 305 306 307 308 307 305 305 304 305 305 305 304 304 303 302 300 299 298 298 298 298 298 298 299 300 302 304
302 302 303 303 304 304 304 303 303 303 304 304 305 305 306 307 307 307 307 307 306 305 303 303 302 301 299 298 298 297 297 297 297 296 296 299 302 303 304 304 303 303 302 301 300 300 299 299 298 298 297 297 297 297 297 298 298 299 300 301 302 303 303
302 303 303 303 304 304 304 304 304 305 305 305 305 305 305 306 307 307 307 307 306 305 305 304 303 302 301 300 299 299 299 299 298 297 298 300 301 302 301 301 300 299 298 297 297 297 297 297 298 298 299 299 299 298 298 299 300 303 305 306 306 306 307

ECMWFFLT1_925_thetae_057.txt.gz
Theta_e
333 333 333 333 335 335 335 335 336 336 335 335 334 334 335 335 336 336 336 335 335 334 334 334 334 334 334 334 333 333 333 332 332 332 331 331 331 331 331 331 330 328 328 329 328 328 329 330 329 329 328 329 328 328 328 327 327 327 327 327 327 327 327
334 333 333 333 334 335 335 336 336 336 336 335 334 334 334 334 335 335 336 336 335 334 333 334 334 333 333 333 333 332 332 332 332 332 332 332 331 331 331 331 331 329 329 329 328 327 328 329 330 328 327 327 327 327 327 327 326 326 326 326 326 325 326
334 333 333 333 333 335 335 336 336 336 336 334 333 334 334 334 334 335 335 335 335 334 334 334 333 333 333 333 332 332 332 332 332 332 332 332 332 331 331 331 332 331 330 329 329 328 327 328 329 327 326 327 327 327 326 326 326 326 325 324 324 324 324
335 333 333 333 333 335 335 336 336 336 336 334 334 335 334 334 334 335 335 334 334 334 334 333 332 332 332 333 332 332 332 332 332 332 331 331 331 331 331 331 331 331 330 330 330 329 328 327 328 327 326 327 326 326 326 326 325 325 325 325 324 324 323
335 334 333 333 334 334 334 336 337 336 336 335 335 334 334 334 334 334 334 333 333 333 332 332 332 331 332 333 333 333 333 333 332 332 331 330 330 331 331 330 330 331 331 330 330 329 328 328 327 327 326 327 326 326 326 326 323 323 323 324 324 323 321
335 334 333 334 334 334 334 336 336 335 335 334 334 334 333 333 333 333 333 333 333 332 332 332 331 331 332 332 333 333 333 333 332 332 331 330 330 330 331 330 331 332 331 330 329 328 328 328 327 326 326 326 326 326 326 325 321 319 319 319 319 319 318
334 334 333 334 335 334 335 336 336 335 335 334 334 334 333 333 333 333 333 332 332 332 332 332 332 332 332 333 333 333 333 332 332 332 332 332 331 330 331 331 331 331 331 330 329 328 328 327 327 326 326 326 326 325 326 325 320 317 316 316 316 316 315
333 334 334 334 335 334 335 335 335 334 334 334 333 333 333 332 332 332 332 331 331 331 332 332 332 332 332 333 334 333 332 332 332 332 332 332 332 331 331 330 330 330 330 330 330 330 329 328 327 327 326 326 325 324 324 323 319 317 315 312 313 314 313
332 333 333 334 335 335 335 334 334 333 333 332 332 332 332 331 331 331 330 330 331 331 331 331 331 332 333 333 333 333 332 332 332 332 332 332 332 332 331 330 330 329 329 330 331 331 329 328 327 327 326 325 324 324 324 321 318 316 314 311 310 311 311
332 332 332 334 335 335 334 334 333 333 332 332 332 332 331 330 330 330 329 330 330 330 330 330 330 331 332 333 333 333 332 332 332 332 332 332 332 332 331 330 331 330 329 330 330 331 330 328 327 327 327 325 323 323 323 321 319 313 311 310 309 308 308
333 333 332 334 335 334 333 333 333 332 332 332 332 331 331 330 330 329 329 330 330 330 329 329 329 329 329 330 331 332 332 332 332 332 332 331 331 332 331 331 331 331 331 330 329 330 330 328 328 327 328 326 323 321 320 320 319 312 308 310 309 308 308
332 333 334 334 334 333 332 333 332 332 332 332 331 330 330 330 329 329 329 329 329 330 329 328 329 329 328 329 331 331 331 332 332 332 332 331 331 331 331 331 331 331 331 331 329 330 330 328 328 328 329 327 323 322 318 317 317 312 309 310 309 309 309
331 332 333 333 333 332 332 332 331 331 331 331 330 330 330 329 329 329 329 329 329 328 328 327 328 328 327 329 330 330 331 331 331 331 332 331 330 330 331 331 332 331 331 330 329 329 330 329 329 329 329 327 324 324 320 316 314 311 309 310 310 310 310
331 331 332 332 331 331 332 331 330 330 330 330 330 329 329 328 329 329 328 328 328 328 327 327 327 327 327 328 328 329 330 330 330 330 330 331 330 330 330 330 331 331 331 330 328 328 329 328 328 328 327 325 325 324 319 314 313 311 309 310 310 310 310
330 330 331 330 330 332 331 330 330 330 330 330 329 329 328 328 328 328 328 327 327 326 326 325 326 326 327 327 326 328 329 329 329 328 329 330 329 329 330 330 330 331 330 329 327 327 328 327 326 326 326 325 324 324 320 314 312 310 309 310 310 310 311
330 330 329 329 331 332 331 329 330 330 329 329 328 328 327 327 327 327 327 326 326 325 325 324 325 326 326 325 326 327 327 326 327 327 327 328 328 328 329 329 330 330 330 328 328 327 327 327 326 325 325 325 324 324 323 317 312 310 309 310 311 311 311
330 329 329 330 332 331 330 330 329 329 328 327 327 327 326 325 326 326 325 325 324 323 324 324 325 325 325 324 325 325 325 325 325 325 326 325 325 327 329 329 329 329 330 329 328 327 327 328 327 326 326 326 324 324 324 318 312 311 310 310 311 311 312
331 331 331 331 331 331 331 329 328 327 326 326 327 327 326 325 325 325 323 323 323 322 322 322 324 324 323 324 325 324 324 324 324 324 324 324 325 326 328 329 328 328 329 329 328 328 328 327 328 328 327 326 324 324 323 319 314 312 310 310 312 312 311
330 330 330 330 330 331 330 329 327 326 325 326 327 327 326 325 324 324 323 322 322 321 320 320 322 322 322 323 324 323 323 323 323 323 322 323 325 325 326 327 328 327 328 328 328 327 327 327 328 328 327 326 324 323 322 318 314 311 309 310 311 312 311
329 328 328 329 330 330 330 328 327 326 325 326 326 326 325 324 324 324 323 322 321 320 319 319 321 322 322 323 323 322 322 323 322 322 321 322 324 324 324 325 326 327 327 327 327 327 326 326 327 327 325 324 322 321 319 317 313 311 310 311 311 312 311
328 327 328 328 329 329 329 329 327 326 326 325 324 324 324 323 322 322 321 320 320 319 318 319 321 321 322 322 322 322 322 322 321 321 321 322 322 322 322 322 325 327 327 326 327 327 326 325 325 325 323 322 322 320 317 315 313 312 312 312 312 312 312
327 327 328 328 328 329 329 328 327 326 326 324 323 323 322 321 321 321 319 319 318 318 318 318 320 320 321 322 322 321 321 321 321 321 321 321 321 322 322 321 324 327 327 326 327 326 325 325 324 324 323 322 321 319 316 315 314 313 313 313 314 314 313
326 326 327 327 327 328 328 327 327 326 324 323 322 321 321 321 320 319 318 318 317 317 317 318 319 320 321 321 321 320 320 320 320 320 320 321 321 321 322 321 323 326 327 327 327 326 325 324 323 322 322 321 320 318 317 318 317 316 315 315 315 315 314
326 325 326 326 326 327 327 326 324 323 322 321 321 320 320 320 320 319 318 317 317 317 317 316 318 319 319 320 320 319 319 318 318 319 319 320 321 321 320 319 320 324 327 327 326 326 325 324 323 322 321 321 320 319 319 320 320 319 319 319 318 317 316
325 325 325 325 325 326 326 324 323 322 321 320 320 320 321 321 320 320 319 318 317 316 316 315 316 318 318 319 319 319 318 318 318 318 319 320 320 319 318 317 317 319 322 324 324 325 325 325 324 323 322 321 321 321 320 320 320 320 320 320 320 319 318
324 324 324 324 324 324 323 322 322 321 320 320 320 320 320 320 319 318 318 317 316 315 314 314 315 316 318 318 318 318 319 318 317 318 319 320 319 318 317 317 317 316 317 319 319 320 321 321 321 321 321 320 319 319 320 320 320 320 320 320 320 319 319
323 323 323 323 323 323 323 322 321 321 320 320 320 319 318 317 316 315 314 314 313 312 312 312 313 314 316 316 315 316 319 320 319 319 320 320 320 319 319 319 319 318 318 318 318 318 318 316 317 319 319 318 318 318 318 318 317 317 317 317 317 318 317
321 321 322 323 323 322 322 321 320 320 319 319 318 317 315 314 313 313 312 312 312 311 311 312 312 312 313 313 313 315 319 321 320 320 320 319 320 320 319 320 320 319 319 319 318 319 318 317 318 321 322 321 321 320 319 318 318 317 316 315 315 315 315
316 318 318 320 320 320 320 319 318 318 318 317 316 315 314 313 313 312 312 312 312 311 311 312 313 314 314 314 315 317 319 320 320 321 321 321 322 321 320 320 321 320 320 319 319 319 319 319 319 320 320 321 322 322 321 321 320 319 319 318 317 317 316
312 314 315 315 315 315 316 316 316 317 317 315 314 314 313 312 311 311 312 312 311 310 309 310 312 314 316 317 317 318 319 319 320 321 320 320 321 322 321 320 320 319 319 318 318 318 319 320 320 320 319 320 320 321 321 321 321 321 320 320 319 318 318
308 310 311 312 312 313 314 314 315 315 315 314 312 312 311 310 309 309 309 309 308 308 307 307 309 312 315 317 317 316 315 315 316 317 317 317 318 318 317 316 316 316 315 314 314 314 316 317 317 316 316 316 316 316 317 318 319 319 319 320 319 319 319
306 307 308 308 309 310 311 312 313 313 313 313 311 311 311 310 309 309 308 307 306 305 304 303 305 308 310 312 313 314 313 311 310 311 313 314 314 314 313 312 312 312 311 311 310 311 311 312 311 311 311 310 310 310 309 309 310 311 312 313 313 313 313
304 305 306 307 307 308 308 309 310 310 311 311 310 309 309 309 307 306 305 304 302 301 300 300 300 302 303 303 305 308 309 306 305 306 309 311 311 311 309 308 308 308 308 308 308 308 308 308 308 307 306 305 304 303 303 302 301 301 301 301 301 301 301
303 304 304 305 305 306 307 307 307 307 307 307 307 306 306 306 305 304 303 301 301 301 300 299 299 299 299 298 299 300 301 300 299 303 306 307 307 306 305 305 304 304 304 304 304 303 302 302 301 300 299 299 298 298 297 297 297 297 297 298 299 300 300
304 304 304 303 303 303 304 304 304 305 305 305 306 306 306 306 306 305 303 303 302 303 302 301 299 299 298 298 298 298 298 297 297 299 302 303 303 303 302 301 301 300 300 299 299 298 298 298 298 298 298 299 299 299 299 298 299 301 302 303 304 305 306
303 304 304 304 303 303 303 304 304 304 305 306 307 307 307 306 306 304 303 302 302 303 303 302 301 300 299 299 298 298 298 298 298 298 299 300 301 300 300 299 298 297 297 298 299 300 300 301 302 302 302 303 303 303 303 302 303 304 305 306 307 307 307
303 303 303 304 304 304 304 304 304 305 305 306 306 306 307 307 306 304 302 301 301 302 303 303 301 301 300 299 299 299 299 300 300 300 300 300 300 299 298 297 298 299 300 301 302 303 303 303 303 303 303 303 303 304 305 305 305 305 305 306 307 307 306

ECMWFFLT1_925_thetae_060.txt.gz
Theta_e
333 333 334 335 334 333 333 333 334 334 335 335 335 335 335 334 333 334 335 335 335 335 334 334 334 333 333 333 333 333 333 332 332 332 332 331 330 331 330 330 330 329 327 327 327 327 328 329 329 328 328 328 328 327 327 327 327 327 326 326 327 326 326
334 334 334 334 333 333 333 333 334 334 335 335 335 335 335 335 334 334 335 335 335 334 334 335 334 333 333 333 333 333 333 333 332 332 331 331 330 330 331 331 329 327 327 327 327 326 327 329 330 328 327 327 328 328 327 327 327 327 326 326 327 326 326
334 334 334 334 334 334 334 334 334 334 335 335 334 334 335 335 335 335 335 335 335 334 335 334 334 334 333 333 334 333 333 333 332 332 331 331 330 330 330 331 328 327 328 327 326 327 327 327 329 328 327 327 327 327 327 327 327 327 326 326 326 326 326
333 333 333 334 334 335 335 334 334 335 335 335 334 334 334 334 335 336 336 335 335 335 334 334 333 334 333 333 333 333 332 332 332 332 331 331 331 330 330 330 329 328 328 328 327 327 326 326 327 327 326 326 326 327 327 327 327 327 327 327 326 326 325
334 333 332 333 334 335 336 335 335 335 334 333 334 334 334 335 335 335 335 335 335 334 333 333 334 333 333 333 333 332 332 332 332 332 331 331 331 330 330 330 330 328 328 329 328 327 327 326 327 326 325 326 326 326 326 327 327 326 326 326 325 324 323
334 332 332 332 333 335 335 335 336 335 334 332 333 334 334 335 335 334 335 335 335 334 334 334 333 333 333 333 332 332 331 332 332 332 332 331 331 331 331 330 330 329 329 329 328 327 327 326 326 325 325 326 325 325 326 326 325 325 325 325 324 323 323
334 332 332 332 332 334 334 335 336 335 334 333 333 334 334 334 334 334 335 334 334 334 333 333 333 332 332 332 332 332 332 332 332 332 331 331 331 330 330 330 330 330 330 329 329 328 327 326 326 325 325 326 325 325 326 325 322 322 323 324 324 324 323
334 333 332 332 332 333 334 335 336 335 335 334 334 334 334 334 333 333 334 333 333 333 332 332 332 332 331 332 332 332 332 333 332 331 331 331 330 330 330 330 330 330 330 330 330 329 328 327 327 326 326 326 325 325 325 323 319 319 322 323 323 324 322
335 333 332 333 332 333 334 335 335 336 335 334 334 334 333 333 333 333 333 333 333 332 331 331 331 331 331 332 333 333 332 332 332 331 331 331 330 329 330 330 330 330 331 330 330 329 328 328 327 327 326 325 326 325 325 325 318 314 318 321 321 322 321
334 333 332 333 333 333 334 335 335 336 335 334 334 333 333 333 333 333 332 332 332 332 331 332 331 331 331 332 332 333 333 332 332 331 331 332 331 330 330 330 330 330 330 330 329 328 329 328 327 327 326 325 325 325 326 327 320 312 313 317 317 318 318
333 334 333 333 333 333 333 334 335 335 334 334 333 333 333 332 332 332 332 331 331 331 331 331 331 332 332 332 333 333 332 332 332 332 332 332 331 331 330 330 330 330 329 329 329 330 330 329 327 327 327 325 324 324 323 325 322 314 311 314 314 315 316
333 334 334 334 334 334 334 334 335 335 334 333 332 333 332 332 332 331 330 330 331 331 331 330 331 332 332 332 332 333 332 331 332 332 332 331 331 332 331 330 330 329 329 328 329 331 330 329 328 327 327 325 324 323 321 321 320 315 313 313 312 313 314
333 333 333 334 334 333 333 333 334 333 333 332 332 332 331 331 331 330 330 330 330 330 329 329 330 331 331 331 331 332 331 331 332 331 332 331 331 331 331 330 331 330 329 329 329 330 330 329 328 327 326 326 324 323 321 320 317 312 312 314 313 312 312
333 333 333 333 333 331 330 330 332 332 332 332 331 331 330 330 330 329 330 330 329 329 328 329 329 329 329 330 331 331 331 331 332 331 332 332 331 331 331 330 331 331 330 330 330 329 329 330 329 327 327 327 325 323 322 320 316 310 309 311 311 311 310
332 333 332 333 332 329 328 329 330 331 332 332 331 331 330 329 329 329 329 329 329 329 328 328 328 327 327 329 330 331 331 331 331 331 331 332 331 330 330 330 331 331 330 331 330 330 329 330 329 327 328 327 325 324 323 320 316 311 308 309 310 310 309
332 332 332 332 331 328 328 328 329 331 332 331 331 330 329 329 329 329 329 329 329 328 327 327 327 326 327 328 329 330 330 330 330 330 331 331 330 330 329 330 330 331 331 331 330 329 329 329 329 327 328 327 325 324 323 320 316 311 308 309 309 309 309
332 332 331 330 328 327 328 328 329 330 332 331 330 330 329 329 329 328 328 328 327 326 326 326 326 326 326 327 327 329 330 329 329 329 330 330 329 329 329 330 330 330 331 331 330 328 327 328 328 327 327 326 324 324 322 317 315 313 310 309 310 309 309
332 331 330 329 327 327 328 328 327 329 330 330 329 329 328 328 328 327 327 327 326 325 325 325 326 326 326 325 326 327 328 327 327 327 328 328 328 328 328 329 329 329 330 330 328 327 327 327 327 327 326 325 324 324 323 317 313 313 311 310 310 310 309
331 330 329 329 328 327 328 327 327 328 329 329 328 327 327 328 327 327 327 326 325 324 324 324 325 325 324 324 325 325 325 325 325 326 326 326 326 326 327 328 329 329 329 329 329 328 327 327 327 327 327 326 325 324 324 320 313 312 312 311 310 310 309
330 329 329 330 329 328 328 328 327 328 327 327 327 326 327 327 327 327 326 325 324 324 323 323 324 324 324 324 324 323 324 324 324 324 325 325 325 325 325 327 328 328 328 329 328 328 327 327 327 327 327 327 325 323 324 323 315 311 310 311 310 310 310
329 328 328 329 328 327 327 328 327 326 326 326 326 326 326 326 326 325 324 323 322 321 321 322 323 323 323 323 323 322 323 323 322 323 324 324 324 325 324 325 326 327 327 328 328 327 327 327 326 327 327 326 324 323 323 323 318 312 310 310 310 310 310
329 328 327 327 327 327 326 326 326 325 326 327 326 325 325 324 324 323 322 321 320 319 320 321 322 322 322 322 322 322 322 321 321 322 323 324 324 323 322 322 325 326 326 327 327 327 326 326 325 326 327 326 325 323 322 321 318 313 310 309 310 310 310
328 327 327 327 327 327 326 325 324 324 325 326 326 325 324 323 322 321 319 318 318 318 320 321 321 321 322 322 321 321 321 321 321 321 322 322 323 322 321 322 326 326 326 326 326 326 325 325 324 324 324 323 322 322 322 319 315 312 310 310 310 310 310
327 326 326 326 327 327 326 325 323 322 323 324 324 323 322 321 320 318 318 318 318 318 319 320 321 321 321 321 321 320 320 319 320 320 321 321 321 321 322 324 326 326 325 325 324 322 322 322 322 322 321 321 320 320 320 318 314 311 310 310 310 311 311
326 326 326 326 326 326 325 323 322 321 321 322 321 320 320 320 318 317 317 317 317 318 319 319 319 320 320 320 320 319 318 318 318 320 320 320 321 321 322 325 326 326 326 325 323 322 322 322 320 319 319 319 319 319 319 317 315 314 314 314 314 314 314
325 325 326 326 325 324 323 322 321 320 320 319 319 318 317 317 316 315 315 316 316 316 318 318 318 318 319 319 319 319 318 317 318 319 321 321 321 321 322 324 324 323 321 320 320 321 322 320 318 317 318 319 317 316 317 317 316 316 316 316 316 316 316
324 324 324 325 324 322 321 320 319 318 318 318 317 316 315 315 315 315 314 314 314 314 315 316 316 317 318 319 319 318 318 318 319 320 320 320 319 319 319 319 319 318 317 316 317 317 316 315 315 316 318 319 317 316 315 316 315 315 315 315 315 315 315
320 322 323 323 321 319 318 317 315 315 316 316 316 316 315 315 315 314 313 313 313 313 313 314 314 315 317 319 319 318 318 319 319 319 318 317 317 317 317 317 316 317 318 318 318 317 315 316 318 319 320 320 319 318 317 317 317 316 316 315 315 314 314
314 317 319 320 318 316 315 313 313 314 314 314 313 313 312 312 312 311 311 311 312 312 312 313 314 314 315 319 320 320 320 320 319 318 317 316 317 317 316 317 317 317 318 318 318 318 318 319 320 321 320 320 320 319 318 317 316 316 316 316 315 313 312
309 311 314 315 314 313 312 311 311 313 313 311 310 309 308 307 308 309 309 309 310 311 312 313 314 315 316 318 319 320 320 320 319 318 316 316 316 316 315 316 316 317 317 317 317 318 318 319 319 318 318 318 318 317 316 315 314 314 314 313 313 311 310
307 308 310 311 311 311 311 309 308 309 310 309 308 307 306 305 305 306 306 306 307 308 308 310 313 314 316 317 319 319 320 320 318 316 314 313 313 314 313 313 314 314 314 314 314 315 315 316 316 315 315 314 314 314 313 313 313 313 312 311 310 309 307
305 306 307 309 309 310 309 308 308 308 307 307 305 304 304 304 303 303 303 303 303 303 303 304 307 310 313 316 318 319 319 318 315 313 311 311 310 311 311 310 310 310 310 310 310 311 311 312 311 311 310 309 308 306 305 305 306 307 307 306 306 305 304
304 304 305 306 307 308 308 308 308 307 306 305 304 302 303 302 301 301 301 300 301 301 300 300 301 304 307 311 314 315 316 316 312 309 308 307 306 306 306 306 306 305 304 304 305 305 305 305 304 303 303 302 301 300 299 298 299 299 300 300 301 302 302
304 304 304 304 305 306 307 307 307 306 304 304 303 302 302 302 301 300 300 300 299 299 299 298 298 299 301 303 307 310 311 311 310 308 306 305 304 303 302 301 300 300 299 300 300 300 300 300 299 299 299 300 300 300 299 300 301 301 302 303 304 304 304
304 304 304 304 305 305 306 306 306 305 304 303 303 303 302 302 302 301 300 300 300 300 300 299 299 298 298 298 301 303 305 304 305 305 304 303 302 301 299 298 298 298 299 299 300 300 300 301 301 301 302 303 303 303 303 303 304 305 305 306 306 306 305
303 304 304 304 304 305 305 306 306 306 305 303 302 302 302 303 302 301 300 300 300 301 301 301 300 299 299 298 298 299 300 299 300 300 301 300 299 298 298 298 300 301 301 302 302 302 302 303 303 303 303 304 305 305 305 305 305 306 306 306 306 305 304
302 302 303 303 303 303 303 304 305 306 306 304 303 301 301 302 302 301 300 300 299 300 301 301 300 299 299 299 298 298 299 299 299 299 298 298 298 298 300 301 302 302 303 303 302 302 302 302 302 302 302 303 303 304 304 305 306 306 305 304 304 303 303

ECMWFFLT1_925_thetae_063.txt.gz
Theta_e
334 334 334 333 334 335 335 335 335 335 335 333 333 334 333 333 333 333 333 333 334 335 335 335 333 333 334 334 333 332 331 331 331 331 330 330 330 329 329 329 330 329 327 326 326 326 327 328 329 327 327 328 327 327 328 328 327 327 327 326 326 326 325
334 334 334 334 334 334 334 335 335 334 334 334 334 334 333 334 333 333 332 333 334 335 335 334 334 334 334 334 333 332 332 331 331 331 330 330 331 330 329 329 330 328 327 326 326 325 326 328 330 328 327 327 327 327 327 327 327 327 327 326 326 326 325
333 332 333 333 334 334 335 335 334 334 334 334 335 334 334 334 333 332 333 333 334 335 335 334 333 334 334 334 333 333 332 332 331 331 331 331 331 330 329 330 329 327 326 326 325 326 326 327 329 328 327 327 327 327 327 327 327 327 326 326 326 326 325
333 332 332 333 334 334 335 334 334 333 333 334 334 334 334 333 332 332 333 334 334 335 335 334 333 334 334 334 334 333 332 332 332 331 331 331 331 331 330 330 329 328 327 326 326 326 326 325 326 327 327 327 327 327 327 327 327 327 326 326 326 326 325
333 332 333 333 334 334 334 334 333 333 333 333 334 334 333 333 332 332 333 334 335 335 335 334 334 334 333 333 333 333 333 333 332 332 332 331 331 331 330 330 330 328 327 327 327 326 326 325 325 326 326 326 326 326 326 327 327 327 327 326 326 326 325
333 333 333 333 334 334 334 333 333 333 333 333 334 334 333 333 333 332 332 334 335 335 335 334 334 334 333 333 333 333 333 333 333 332 332 332 331 330 330 330 330 329 327 327 327 326 325 325 325 325 325 326 325 325 326 327 327 327 327 326 326 326 325
333 333 333 333 333 334 334 334 333 333 333 333 334 334 333 333 333 332 333 334 335 335 334 335 334 333 333 333 333 333 333 333 332 332 331 331 331 331 330 330 330 330 328 327 328 327 326 325 325 324 324 325 325 324 325 326 325 326 326 326 326 326 325
333 333 333 333 333 333 334 334 334 333 333 334 334 334 333 333 333 333 334 334 335 335 334 334 333 333 333 333 333 333 333 332 332 332 331 331 331 331 330 330 330 330 329 328 328 328 327 326 325 324 324 325 325 324 324 323 322 324 326 325 326 326 325
333 333 333 333 333 332 333 333 334 334 334 334 334 333 333 333 333 334 334 335 335 335 335 334 333 333 333 332 333 333 332 332 331 331 332 331 331 331 331 330 330 330 330 329 329 329 328 327 326 325 325 325 326 325 325 323 319 319 323 324 325 325 324
333 333 333 333 333 332 331 332 333 334 334 334 334 333 333 333 333 334 335 335 334 334 334 333 333 333 333 332 332 332 332 331 331 331 332 331 331 331 330 330 330 330 330 330 330 329 329 328 327 326 325 325 325 325 326 326 320 315 317 322 323 324 324
333 333 333 334 333 332 331 331 332 333 332 332 333 334 333 333 333 334 334 334 334 333 333 333 332 332 332 331 331 332 332 331 332 332 331 331 331 330 330 329 329 330 330 329 330 330 330 329 327 326 326 325 325 324 324 326 324 316 314 319 322 323 322
331 333 333 333 332 332 331 331 331 332 331 330 330 332 333 333 334 333 333 333 333 332 332 331 331 331 331 331 331 332 332 332 332 332 331 331 331 331 330 329 329 330 330 330 330 330 329 328 328 327 326 325 325 324 323 323 324 320 315 317 321 321 320
330 332 331 331 331 331 331 332 332 331 331 331 330 330 331 333 333 333 333 333 332 332 331 331 331 331 331 331 331 332 332 332 332 332 331 331 331 331 331 330 330 330 330 330 330 330 329 329 329 327 326 326 324 324 323 321 322 320 315 316 318 319 317
330 332 329 329 332 332 331 332 332 331 331 331 331 330 329 330 332 333 333 332 332 332 331 331 331 331 331 331 331 332 333 332 332 331 331 331 331 331 331 331 331 330 329 329 329 329 330 330 329 328 326 326 325 324 323 322 320 317 314 314 315 315 315
330 331 330 330 331 331 331 331 331 331 330 330 331 330 329 327 330 332 332 331 331 331 331 331 331 331 331 332 332 332 332 332 331 331 331 331 331 331 331 331 331 330 330 330 329 329 330 330 330 328 327 326 325 325 323 323 321 316 313 312 313 313 313
330 331 330 330 330 329 331 331 331 330 330 330 330 330 328 326 328 332 331 330 330 330 330 330 329 330 330 330 331 331 331 331 331 331 331 331 331 331 330 330 330 330 330 330 330 329 329 329 330 329 327 326 326 325 324 323 321 319 315 313 312 313 312
331 331 331 331 329 329 330 331 330 330 330 330 330 330 329 325 327 331 331 330 330 329 329 329 328 329 328 328 329 330 331 331 331 331 331 331 331 331 331 330 330 330 330 330 330 330 329 329 329 329 327 326 326 326 325 324 322 321 318 315 313 313 312
331 331 331 331 329 329 330 331 330 329 329 329 329 330 329 326 327 330 330 329 329 329 328 328 328 328 327 327 328 329 330 330 331 331 331 331 331 331 330 330 329 330 330 331 330 330 330 329 329 329 328 327 327 326 326 324 323 322 319 316 314 312 311
330 330 331 331 330 329 329 330 330 329 329 329 329 329 328 326 327 330 329 329 329 329 328 327 327 327 327 327 328 328 330 330 330 330 330 330 330 330 329 329 329 329 329 330 330 330 330 329 328 329 328 327 326 326 326 325 324 321 317 315 314 312 310
328 329 330 331 329 328 328 330 329 328 329 329 329 329 327 326 328 329 329 329 329 328 327 326 327 326 326 327 326 327 328 329 329 329 328 328 329 329 328 327 328 329 329 329 329 329 329 328 327 328 328 327 326 325 325 324 322 318 313 312 312 311 311
326 327 329 329 328 328 328 328 328 328 329 329 329 329 327 325 327 329 328 328 327 326 325 325 326 326 326 326 325 326 327 327 327 327 326 326 327 327 326 326 327 328 328 328 329 329 328 327 327 327 328 328 326 325 324 323 321 315 310 310 310 310 310
325 326 328 328 327 327 326 327 328 328 328 327 327 328 326 325 327 328 327 327 326 324 324 325 325 325 325 325 325 325 325 325 325 325 325 325 326 326 325 326 327 327 327 328 328 329 328 327 326 327 327 327 325 324 324 324 322 317 311 309 309 309 309
324 326 327 327 327 327 326 326 327 326 326 325 325 326 325 325 327 327 327 327 325 324 324 324 324 324 324 324 324 323 323 324 324 323 324 324 324 325 325 325 325 326 326 327 327 327 327 326 326 325 325 325 324 324 323 323 323 320 316 311 309 309 309
322 325 326 326 327 326 326 326 326 325 326 325 324 325 326 326 327 327 326 325 324 323 322 322 323 323 322 322 323 322 322 322 322 322 323 324 324 324 324 324 325 326 326 326 326 326 326 325 324 324 323 324 324 323 323 323 323 322 319 314 310 309 309
321 324 325 326 326 326 326 325 325 325 325 324 323 325 326 326 326 325 324 322 321 321 321 321 322 322 321 321 321 321 321 321 321 322 323 324 324 324 323 324 325 326 325 324 323 322 322 321 321 321 320 321 321 322 322 322 321 320 318 314 310 309 309
317 322 325 325 325 325 325 325 324 324 323 322 322 323 324 323 322 321 320 320 319 319 320 321 321 321 321 321 320 320 320 320 321 323 323 323 323 323 323 324 325 325 323 321 321 320 317 316 316 316 316 316 316 316 317 316 316 315 314 312 310 310 311
313 318 323 324 325 325 324 324 323 322 321 320 319 320 321 320 318 317 318 318 318 318 319 320 320 320 320 320 319 319 319 320 321 322 322 323 323 323 324 324 325 325 323 321 322 320 316 314 314 315 315 314 314 315 315 315 314 313 313 313 313 313 313
310 313 317 320 322 323 322 320 319 318 317 316 315 316 318 316 315 315 316 317 317 317 318 319 319 319 319 318 319 318 318 318 320 321 322 322 322 321 321 321 321 321 321 320 320 318 315 314 316 317 317 316 315 315 316 316 316 316 315 315 315 314 313
308 309 313 314 314 316 316 316 314 312 311 311 310 311 313 313 313 314 314 315 315 315 317 318 319 319 318 318 318 318 318 318 319 320 320 319 319 317 317 317 318 318 317 317 316 316 316 316 317 317 317 315 315 315 314 313 313 313 313 313 313 312 311
307 307 309 310 308 309 310 310 309 309 307 306 306 307 309 310 310 312 312 313 314 314 315 318 319 319 318 318 318 318 318 318 317 317 316 315 315 314 314 315 316 317 317 317 317 317 318 319 318 318 317 315 314 313 311 308 307 306 305 306 306 307 306
307 306 306 307 306 305 305 306 305 306 305 303 302 304 307 307 308 310 311 311 313 313 315 317 319 319 318 318 318 318 317 316 315 314 313 312 312 312 312 312 313 314 315 315 314 315 315 316 317 316 314 313 311 309 306 304 303 302 302 303 304 304 305
307 306 305 305 306 304 303 303 303 303 303 301 301 302 304 305 306 306 307 309 310 312 313 315 318 319 318 317 317 317 317 315 313 311 310 310 310 310 310 310 310 311 311 311 311 311 311 312 313 312 311 311 309 305 302 301 301 302 302 303 304 304 304
305 306 306 305 304 304 302 301 301 301 301 301 301 301 302 302 302 302 303 304 306 309 311 313 314 316 317 317 316 316 316 315 312 310 309 308 308 307 307 307 307 306 306 306 307 307 307 307 308 307 306 306 305 302 300 300 302 302 303 304 304 304 304
304 305 306 305 304 303 302 301 301 301 300 300 300 300 300 300 300 300 300 301 301 303 307 310 311 313 314 314 314 314 313 311 310 308 307 306 305 304 303 303 302 301 301 302 302 303 303 302 303 302 302 302 301 301 301 302 303 304 304 304 304 304 303
302 303 305 306 305 304 303 302 301 301 300 300 300 300 299 299 299 299 299 299 299 299 301 304 307 310 311 311 311 311 310 307 307 307 305 303 302 301 301 301 300 300 300 301 301 301 301 301 301 301 302 302 302 302 303 304 304 305 304 304 304 303 303
302 302 304 306 306 305 303 302 302 302 301 300 300 300 299 299 299 299 299 299 299 299 299 299 301 303 305 306 305 305 305 303 303 303 302 300 300 301 301 301 301 301 301 302 302 302 302 302 302 303 304 304 304 304 304 305 305 305 304 304 303 303 303
302 302 303 304 305 305 304 303 303 302 302 301 301 300 300 299 298 298 298 299 299 299 299 299 299 299 300 300 300 300 300 299 299 299 299 299 300 301 302 301 302 302 302 302 302 302 302 302 302 303 303 304 305 305 305 305 305 304 304 303 303 302 302

ECMWFFLT1_925_thetae_066.txt.gz
Theta_e
330 331 330 329 331 332 331 332 334 334 335 335 335 334 334 334 334 333 332 331 332 333 333 333 333 333 332 333 333 332 331 330 330 330 329 329 328 327 326 327 329 328 326 327 326 325 326 326 327 327 326 327 327 327 327 327 328 328 327 327 326 326 326
331 330 330 329 330 331 331 333 333 332 334 335 335 334 333 333 333 332 332 331 332 332 332 333 333 330 331 333 333 332 331 330 330 331 330 330 329 328 327 327 329 327 325 326 325 324 324 325 327 327 326 327 327 326 326 327 327 327 327 327 326 326 325
330 330 330 329 330 331 332 333 332 332 333 334 334 334 333 333 333 333 332 332 332 331 332 333 331 329 331 333 333 332 332 331 331 331 331 330 330 329 328 328 328 327 325 325 325 324 324 325 327 327 326 326 327 326 326 327 327 327 326 326 326 326 325
330 330 330 329 331 332 333 332 330 331 332 333 333 334 333 333 333 333 332 332 332 331 332 332 329 330 333 333 333 333 332 332 331 331 331 330 330 330 329 329 329 328 327 326 325 325 325 325 326 326 326 326 327 326 326 327 326 327 327 326 326 326 325
330 330 331 331 331 332 333 332 330 330 330 330 333 334 333 333 333 333 333 333 332 331 332 332 330 331 334 333 333 334 333 332 332 331 331 330 330 330 329 329 329 329 329 328 327 325 325 325 325 326 325 325 326 325 325 327 326 326 327 326 326 326 325
330 330 331 331 331 331 332 333 332 331 330 330 332 333 333 333 333 333 333 333 332 331 331 332 331 331 332 333 333 334 333 333 332 331 331 331 330 330 330 330 329 329 329 328 327 326 325 325 324 325 325 325 325 325 325 327 326 326 326 326 326 326 326
329 331 331 331 331 331 332 332 332 331 330 330 332 333 333 333 333 333 333 333 333 331 331 332 331 330 331 333 333 333 333 333 333 332 331 331 331 331 331 330 330 329 329 329 327 326 326 325 324 325 325 324 325 325 325 326 326 326 326 325 326 326 326
329 331 332 332 331 331 331 331 331 331 330 330 331 332 332 333 333 333 333 333 332 331 331 332 332 330 331 333 333 333 333 333 332 332 332 331 331 331 331 331 330 330 329 329 328 326 326 326 325 324 324 324 325 324 325 325 324 325 326 324 325 325 325
329 330 331 332 331 331 331 331 331 331 329 329 330 331 331 331 332 333 333 333 333 332 332 333 333 332 331 332 333 333 333 333 333 332 332 332 332 331 331 331 330 330 330 329 328 327 327 326 326 325 324 324 325 325 325 324 322 323 325 324 324 325 324
329 329 329 331 331 331 331 330 330 330 329 330 330 331 331 331 331 331 332 333 333 332 333 333 333 332 331 333 333 333 333 333 332 332 332 332 331 331 331 331 330 330 330 329 329 328 327 327 326 325 324 324 325 325 325 325 323 321 323 324 324 324 324
328 329 329 329 330 330 330 330 328 328 330 331 330 331 331 331 332 331 330 331 332 333 333 333 333 333 332 333 333 333 333 333 332 332 332 331 331 331 331 331 330 330 330 330 329 329 328 328 327 326 325 325 325 324 324 325 324 321 321 323 324 324 324
328 328 328 329 329 330 331 330 329 328 329 331 331 331 331 331 332 332 331 330 331 333 334 333 333 333 333 333 333 332 332 332 332 332 331 331 331 331 331 331 331 330 330 329 330 329 329 329 328 327 326 325 325 325 324 324 325 324 321 322 323 324 323
328 328 329 329 329 329 330 330 330 329 330 330 331 331 331 331 332 331 331 331 330 332 334 334 334 333 333 333 333 332 331 331 331 331 331 331 331 331 330 330 330 329 329 329 329 329 329 330 329 328 327 326 325 325 323 323 324 322 320 321 321 322 322
328 328 329 329 328 329 329 329 330 330 330 331 331 331 331 331 331 331 331 331 330 329 332 334 333 333 333 332 332 332 331 331 331 331 331 331 331 330 330 330 329 329 329 329 329 329 330 329 329 328 327 326 325 325 324 323 322 319 317 318 318 318 320
328 328 328 328 328 329 329 329 330 330 331 331 331 331 331 330 330 331 332 332 330 329 330 332 332 332 332 331 331 331 331 331 331 331 331 331 331 330 330 331 330 330 329 329 329 330 330 329 328 328 327 326 326 325 324 323 323 319 316 316 316 316 317
327 328 328 328 328 329 329 330 330 330 331 331 330 330 331 330 331 331 332 331 330 329 330 331 331 331 330 330 331 331 331 331 332 332 332 331 331 331 331 331 330 330 330 329 329 329 329 329 329 329 329 327 326 325 324 323 323 322 318 316 315 315 316
326 328 329 329 329 329 329 330 330 330 330 331 330 330 330 330 331 331 332 331 330 329 329 330 331 331 330 330 331 330 331 331 332 332 332 331 331 331 331 331 330 331 330 330 330 329 329 329 329 330 329 328 327 326 325 324 323 323 321 318 315 315 314
323 325 327 329 330 330 330 329 329 329 329 330 330 330 330 330 330 331 331 330 329 329 329 330 331 331 331 331 331 331 331 332 332 332 331 331 331 331 331 331 330 330 330 330 330 329 329 329 329 329 329 329 328 326 325 325 324 323 322 320 318 315 313
321 323 324 327 329 330 330 329 328 328 328 328 329 330 329 330 330 331 331 329 328 329 329 330 330 330 330 330 330 331 331 331 331 331 331 330 331 330 331 331 330 330 330 330 330 330 330 329 329 328 329 329 328 326 325 325 324 323 323 321 319 316 314
319 321 323 325 327 328 329 329 328 328 328 328 328 329 329 329 330 330 329 327 327 328 329 329 330 329 329 329 329 329 329 329 330 330 330 330 330 330 330 330 330 329 329 329 329 330 330 329 329 329 329 329 328 326 326 325 325 324 323 322 319 316 314
318 319 322 325 325 327 328 328 327 327 328 327 328 329 329 329 330 330 328 327 327 328 328 329 329 328 328 328 328 327 327 328 329 330 330 330 330 330 329 330 329 329 328 329 329 329 329 329 329 329 329 328 328 327 326 326 325 325 324 322 318 314 312
316 318 321 324 325 326 327 327 327 327 327 327 327 328 329 329 330 329 327 327 327 328 328 329 328 328 328 328 327 327 327 328 329 329 330 330 330 329 329 329 329 328 327 328 328 328 329 329 329 328 328 327 328 327 326 325 325 324 322 319 315 312 310
313 316 319 322 324 325 326 327 327 327 327 327 327 328 328 328 329 328 327 327 328 328 329 329 328 327 327 327 326 326 326 327 328 328 329 329 328 328 327 327 327 327 327 327 327 327 328 328 328 327 327 326 327 327 326 325 324 323 320 314 310 309 308
310 313 317 320 323 324 326 327 326 326 326 326 327 327 327 328 328 326 327 327 328 328 329 328 328 326 326 326 326 326 325 326 326 326 327 327 326 325 326 326 326 325 325 326 326 326 327 327 327 327 326 326 327 327 326 325 323 322 319 312 309 310 310
308 311 314 318 320 323 325 326 326 326 326 326 326 326 326 327 327 326 326 327 328 328 328 328 326 325 325 325 325 325 324 324 324 324 324 325 324 324 325 325 324 324 325 325 325 325 326 326 326 325 325 325 325 325 325 324 323 322 321 315 313 316 315
306 309 312 315 318 321 324 325 326 325 325 325 325 325 325 326 326 325 326 327 327 328 327 326 324 324 324 324 324 324 323 322 323 323 323 323 323 324 324 323 323 324 324 324 324 324 324 324 323 323 324 323 324 324 324 324 323 322 322 320 319 317 314
305 306 309 312 315 318 320 323 324 324 324 323 323 323 324 324 324 324 325 326 327 327 326 324 323 323 324 323 323 322 321 321 322 322 323 323 323 324 323 323 323 323 321 320 320 320 320 320 319 319 319 319 319 319 319 320 320 319 318 318 316 314 311
304 305 306 308 310 312 314 316 317 318 319 321 320 320 320 321 322 323 323 324 325 324 323 323 322 322 322 321 321 321 321 321 321 322 323 323 323 323 323 323 323 322 319 317 315 316 316 316 315 314 314 314 313 314 314 314 315 315 313 312 312 313 313
303 304 305 305 305 306 307 308 309 310 311 315 316 315 315 316 317 318 319 321 321 321 320 321 320 320 320 320 320 320 320 321 321 322 322 322 322 322 323 324 323 322 320 317 314 313 314 314 314 314 313 312 312 312 311 310 310 312 312 311 311 312 311
303 303 303 303 302 303 303 303 304 304 305 307 308 308 308 308 309 310 312 315 317 318 318 319 319 318 319 319 319 319 320 320 320 320 320 320 320 320 321 321 322 320 319 318 316 314 314 315 315 315 314 311 310 310 307 305 306 307 308 309 308 307 307
303 302 302 302 301 301 301 301 301 301 301 302 302 303 304 304 304 305 307 309 312 315 317 317 317 316 316 318 318 319 319 318 318 317 317 316 316 317 317 317 318 317 316 317 316 315 315 315 315 316 315 312 310 307 304 304 305 305 305 306 306 306 306
303 302 302 301 301 301 300 300 300 300 300 300 300 302 303 303 303 304 305 306 307 310 312 314 314 314 314 316 317 318 317 317 315 314 313 313 313 313 313 314 315 315 316 316 316 315 315 315 315 315 315 313 309 305 303 304 305 305 305 305 305 305 305
302 302 302 301 301 301 301 300 300 300 300 299 300 301 302 302 302 303 305 306 306 306 307 309 310 311 312 314 315 315 316 315 313 310 309 309 309 308 309 310 310 311 312 313 313 312 311 311 312 311 311 310 307 303 303 304 305 305 305 304 304 303 303
303 302 302 302 301 301 301 301 301 300 300 299 300 301 300 300 301 301 302 304 304 304 304 305 306 308 309 311 312 313 313 313 311 309 306 304 304 303 303 304 304 304 305 306 306 306 305 305 306 306 306 306 305 303 303 304 304 304 303 303 302 302 302
303 302 302 302 302 301 301 301 301 301 301 299 299 299 300 299 300 300 300 301 301 301 302 303 304 305 306 307 308 310 310 308 307 308 305 302 301 301 301 301 301 301 301 302 302 302 302 302 302 302 303 303 304 303 304 304 304 303 303 302 302 302 301
303 303 302 302 302 302 301 301 301 301 301 300 299 298 299 299 299 299 299 300 300 300 300 301 302 302 303 304 305 306 306 304 304 305 304 301 301 301 301 301 301 302 302 302 302 302 302 302 302 303 303 304 304 304 304 304 303 303 303 302 302 301 300
302 303 303 302 302 302 301 301 301 300 300 300 299 298 298 298 298 298 299 299 299 300 300 300 300 300 300 300 301 302 303 303 303 303 303 301 301 301 301 301 301 302 302 302 302 303 303 304 305 305 304 305 305 304 304 303 303 303 302 302 301 301 300

ECMWFFLT1_925_thetae_069.txt.gz
Theta_e
334 333 332 332 332 332 331 330 330 330 330 330 330 332 333 334 334 335 335 334 334 333 332 333 333 333 332 332 332 331 331 331 331 331 331 330 330 330 328 328 328 328 329 330 329 328 328 328 328 328 327 327 327 328 328 327 327 327 327 327 327 327 326
333 332 332 331 331 331 331 330 330 330 330 329 330 331 331 331 332 333 334 334 334 333 332 332 333 332 332 332 332 330 330 331 331 330 331 331 331 331 330 329 330 329 329 330 329 329 328 328 327 328 327 327 328 328 327 327 327 327 327 327 327 326 325
332 331 330 331 330 330 330 329 330 330 330 329 329 329 330 330 330 332 333 334 333 332 331 331 332 332 331 331 332 331 330 331 331 330 330 331 331 332 331 329 329 330 329 330 329 329 329 328 327 327 327 327 328 328 327 327 327 327 327 327 327 326 325
332 330 330 330 330 330 330 330 330 330 329 329 329 329 329 329 330 332 333 333 333 332 331 331 331 332 332 332 332 332 331 332 331 330 330 331 332 332 331 329 330 330 330 330 330 329 329 329 328 327 327 327 327 327 327 327 327 327 327 327 326 326 325
330 330 330 330 331 330 330 330 330 330 330 329 330 330 329 329 331 332 332 332 332 332 332 332 331 332 332 332 332 332 332 332 331 330 331 331 332 332 331 329 330 331 331 331 331 330 330 330 329 328 327 327 327 327 326 326 326 327 327 326 326 326 325
329 329 330 330 330 330 331 331 331 330 330 329 329 330 329 330 331 332 332 332 332 332 332 332 331 331 332 332 332 332 332 332 331 331 331 332 332 331 331 330 330 331 331 331 331 330 330 329 329 328 327 327 327 326 326 326 326 326 326 326 326 326 326
329 329 329 329 329 330 331 331 331 330 330 330 330 330 330 330 331 331 331 332 332 332 332 332 332 331 331 332 332 331 332 332 332 331 331 332 332 332 331 331 330 330 330 330 330 330 329 329 329 329 327 326 327 326 326 326 326 326 326 326 326 325 325
328 329 329 329 330 331 331 331 330 330 330 330 330 330 330 331 331 330 331 331 331 331 332 332 332 331 331 331 330 330 331 332 331 331 331 332 332 332 331 330 329 329 329 329 330 330 329 329 329 329 327 326 326 326 327 327 326 326 326 326 325 325 325
328 329 329 329 330 331 331 331 331 330 331 330 330 330 330 330 330 330 330 331 331 331 331 331 331 331 330 331 330 330 331 331 331 331 331 332 332 331 331 330 330 330 329 329 329 329 329 329 329 329 328 327 326 326 326 326 326 326 326 326 325 324 324
328 328 329 329 329 330 330 330 330 330 330 330 330 330 330 330 330 330 330 330 331 331 330 330 330 330 330 331 331 331 331 331 331 332 332 332 331 331 330 330 331 331 330 329 329 329 329 328 329 329 328 328 328 327 325 325 326 326 326 326 325 324 323
328 328 329 329 329 329 329 330 330 330 330 330 330 330 330 330 330 330 330 329 330 331 331 330 330 330 330 330 331 331 331 331 332 332 332 331 330 329 329 330 330 331 330 329 330 329 329 328 328 329 328 328 328 328 327 327 327 327 326 326 326 325 323
327 328 328 329 328 329 329 329 330 330 330 330 330 329 329 330 329 330 330 329 329 331 331 331 331 330 330 330 331 331 331 332 332 332 332 330 329 329 329 330 330 330 330 330 329 329 329 328 328 329 329 328 328 328 329 328 328 328 326 326 326 324 323
327 327 328 328 328 328 329 329 329 329 329 329 329 330 329 329 330 329 329 329 330 330 331 331 331 331 329 329 330 332 332 332 332 332 332 330 329 329 330 330 330 331 330 330 330 330 329 329 329 329 329 328 328 328 328 328 328 328 325 325 325 323 323
325 326 327 328 328 328 328 328 329 329 330 329 330 330 330 330 330 330 330 329 330 330 331 331 331 331 329 328 329 332 332 332 331 331 331 330 329 330 330 331 331 331 330 330 330 330 329 329 329 329 329 329 328 328 328 328 329 327 324 323 322 322 323
322 323 326 327 328 328 328 328 328 329 329 330 330 330 331 330 330 330 330 330 330 331 331 331 331 330 329 328 329 331 332 332 332 331 331 331 330 331 331 331 331 330 330 330 330 330 329 329 329 329 329 329 329 328 327 327 328 328 324 321 319 320 322
318 320 322 325 327 328 329 329 329 328 329 330 330 330 331 331 330 330 330 330 330 331 331 331 330 330 330 329 329 331 332 332 331 332 332 332 331 331 331 331 331 330 330 330 330 330 329 329 330 330 329 329 329 328 328 327 327 328 326 322 318 318 320
314 316 318 321 324 326 328 329 329 329 329 330 330 330 330 330 330 330 330 329 330 331 331 330 329 330 331 331 330 331 332 332 331 331 331 332 331 331 330 331 331 330 330 330 331 330 330 330 330 330 329 329 329 328 327 327 327 327 326 323 319 317 318
312 314 316 318 321 323 326 328 329 329 329 330 330 330 330 330 329 329 330 329 330 331 331 330 329 330 331 331 331 331 331 331 331 331 331 331 332 331 331 331 331 330 330 331 331 330 330 330 330 330 330 329 329 328 327 326 326 326 326 326 321 317 316
311 312 314 316 318 321 323 326 327 328 329 329 329 329 329 329 329 329 329 329 330 331 331 330 330 331 332 331 331 331 331 330 330 331 331 331 331 332 332 332 331 331 330 331 331 330 330 330 330 329 330 330 329 329 327 326 326 325 325 326 323 318 316
310 311 311 313 315 318 321 324 326 327 328 328 328 329 329 329 329 330 330 329 329 331 331 330 329 331 331 331 331 330 330 330 330 331 331 331 330 331 331 332 331 331 331 331 331 331 330 330 330 330 330 330 329 329 328 327 326 325 325 326 324 321 318
309 309 310 311 313 317 320 323 325 326 327 327 327 328 328 328 329 329 329 329 329 330 330 329 329 330 331 331 330 330 330 330 330 331 331 330 329 329 330 330 330 330 330 331 331 330 330 330 330 330 330 330 329 329 329 328 326 325 325 325 324 322 319
307 308 309 310 312 315 318 321 324 325 326 327 327 327 327 328 328 329 329 329 329 330 330 329 329 330 330 330 330 330 330 330 331 331 331 330 329 329 329 329 329 330 330 330 330 329 329 329 330 330 330 329 329 329 329 328 326 325 325 325 324 322 319
307 307 308 309 310 313 316 320 322 324 325 326 326 327 327 327 327 328 329 328 328 329 329 328 329 330 330 330 330 329 329 329 330 330 330 329 329 329 329 329 329 329 330 329 328 328 328 329 329 330 330 329 329 329 329 328 327 326 325 326 325 321 318
306 306 307 307 308 310 313 317 320 323 324 325 326 326 326 326 326 327 328 327 328 329 329 328 328 329 329 329 328 328 329 328 328 328 329 329 329 329 329 329 328 329 328 328 327 327 328 328 328 328 329 328 328 329 329 328 328 326 326 326 322 317 316
305 305 306 306 307 308 310 314 317 320 322 324 325 326 326 326 326 326 326 326 327 328 328 327 328 329 329 328 327 327 328 327 327 327 328 329 329 329 328 328 328 327 327 326 326 327 327 327 328 328 327 327 327 327 327 327 327 326 325 324 319 314 315
304 304 304 305 305 306 307 309 312 315 318 320 322 324 325 325 325 324 325 325 326 327 327 327 327 328 328 327 327 327 327 327 326 326 327 327 328 328 327 326 326 326 325 325 325 326 326 326 327 327 326 326 326 326 327 327 327 325 323 321 318 314 315
303 304 304 304 304 304 304 305 307 310 313 315 317 320 322 323 323 323 323 323 323 325 326 327 327 327 328 327 326 326 326 326 326 326 325 325 326 326 325 325 325 324 323 324 325 325 325 326 326 325 324 324 324 324 325 325 325 324 322 320 319 318 317
303 303 303 303 303 303 304 303 304 305 307 309 311 313 315 317 319 320 320 321 321 321 322 324 325 326 327 327 326 326 325 325 324 324 323 323 324 324 324 324 324 323 323 324 324 324 324 324 323 322 320 319 319 319 320 321 322 322 321 320 319 318 317
303 303 303 303 302 302 303 303 302 303 304 305 307 308 309 310 312 314 315 317 317 316 316 318 320 323 325 325 325 324 324 323 323 322 322 322 323 323 323 323 322 322 322 323 322 322 322 322 320 318 316 314 313 314 314 315 316 317 317 317 316 315 315
302 302 302 302 302 302 302 302 301 301 302 302 303 304 305 305 306 308 310 312 312 313 314 315 316 319 322 323 323 323 322 321 321 321 321 321 322 322 322 322 322 321 321 321 319 317 318 318 317 315 313 310 309 309 309 310 311 311 312 313 313 313 313
302 302 302 302 302 302 301 301 301 301 301 300 300 301 302 303 304 305 307 308 309 309 311 312 314 316 318 320 321 321 321 320 320 320 320 320 320 320 321 320 320 320 319 317 315 314 315 315 314 313 311 309 307 306 306 306 307 308 308 309 308 308 308
302 302 303 302 302 301 301 301 300 300 300 300 300 300 300 301 301 302 303 305 307 307 308 309 311 313 315 316 317 319 320 319 318 317 317 317 317 318 318 318 318 317 317 315 313 313 313 314 314 313 313 311 307 305 305 305 306 306 306 306 306 306 305
302 302 302 302 301 301 300 300 300 299 299 299 299 299 299 299 299 298 299 302 305 306 306 306 308 310 312 313 313 315 318 319 318 316 315 315 315 315 315 315 315 315 314 313 313 313 313 313 314 313 312 312 309 306 305 305 306 306 306 305 304 303 303
302 301 302 301 301 301 300 300 299 299 299 299 298 298 298 298 298 297 297 299 301 303 304 305 306 307 308 309 309 310 311 312 313 314 312 311 312 311 311 312 313 313 314 314 313 314 313 313 313 312 311 312 310 307 305 305 304 304 304 303 302 302 302
302 301 301 301 301 300 300 300 299 298 298 298 298 298 298 297 297 297 297 297 298 300 302 303 305 305 306 306 306 306 305 304 306 308 308 306 305 305 305 306 307 308 311 312 312 312 312 312 312 311 310 309 308 306 304 304 303 303 303 303 303 303 303
301 301 301 301 300 300 300 300 299 299 299 298 298 298 297 297 297 297 297 297 297 298 299 301 303 304 304 305 304 304 304 303 303 305 305 302 301 301 301 301 301 302 304 306 306 306 306 306 306 306 306 306 305 304 304 303 303 304 304 304 304 303 303
300 301 301 301 300 300 300 299 299 299 299 299 298 297 297 297 297 297 297 297 297 298 298 299 301 302 302 303 303 303 303 303 303 303 303 301 301 301 301 302 302 302 302 302 302 302 303 303 304 304 304 304 304 303 303 302 302 303 303 303 303 302 302

ECMWFFLT1_925_thetae_072.txt.gz
Theta_e
337 336 336 336 335 334 334 335 334 334 334 334 333 333 333 333 333 333 333 334 335 335 335 335 335 335 334 334 334 334 334 333 332 333 334 333 332 332 333 333 333 332 332 332 333 332 331 330 331 331 331 331 331 331 331 330 329 329 330 330 330 330 328
336 335 335 334 334 334 334 334 334 334 333 333 332 331 331 331 332 332 332 333 334 334 335 334 335 334 334 334 333 334 335 334 333 333 333 332 332 333 333 333 333 332 332 332 333 333 331 330 330 331 331 332 331 331 332 332 330 330 330 330 329 329 328
335 335 334 333 333 333 333 334 334 334 333 333 331 330 330 330 330 331 331 332 333 334 334 334 334 334 333 334 333 334 334 334 334 333 332 332 332 332 332 333 333 333 332 333 333 333 333 332 331 331 332 332 331 331 332 332 331 330 330 330 329 328 327
334 334 333 333 333 333 334 334 334 334 333 333 332 330 330 330 329 329 330 331 332 333 334 334 334 334 334 334 334 334 334 333 333 332 332 333 332 331 332 333 333 333 332 333 333 333 333 333 331 331 331 330 329 331 331 331 330 329 329 329 330 328 328
332 333 333 333 333 333 333 333 334 333 333 334 333 331 331 330 330 330 331 331 332 333 334 333 333 333 333 334 334 334 334 333 333 333 333 334 333 331 331 333 333 332 332 332 331 331 332 332 331 331 331 329 329 330 330 330 329 328 329 329 330 329 328
331 332 332 332 332 333 332 333 334 334 334 334 333 333 332 332 331 331 331 332 333 333 334 333 333 333 333 333 334 334 334 333 333 333 333 333 333 332 332 334 333 332 332 331 331 331 331 332 331 331 330 329 329 330 329 329 329 329 329 329 329 329 328
331 331 332 332 332 332 332 333 334 334 334 334 333 333 333 333 332 331 331 332 333 333 333 333 333 333 333 333 333 334 333 334 333 333 334 334 335 334 332 333 333 332 332 331 331 332 331 332 332 331 330 329 330 330 329 329 328 329 329 329 329 329 328
331 331 331 332 332 332 332 332 333 334 335 334 334 333 333 333 333 332 332 332 332 332 332 333 333 333 333 332 333 333 333 333 333 333 335 335 334 334 331 332 333 333 332 331 331 332 331 332 331 330 330 329 329 330 329 329 328 329 329 329 329 328 328
330 331 331 331 332 332 332 332 332 333 334 334 334 333 333 333 333 332 332 332 332 333 332 332 333 333 332 332 332 332 333 333 333 333 334 334 334 333 331 332 334 333 332 332 332 332 331 331 331 330 330 329 329 329 329 329 329 329 329 329 329 328 328
329 330 330 331 332 332 332 332 332 332 333 333 334 333 332 333 333 333 332 331 332 332 332 332 333 333 333 332 332 332 333 333 332 333 334 334 334 333 332 332 333 333 333 334 333 332 332 331 331 331 330 330 329 329 329 329 329 329 328 329 329 328 328
328 329 330 330 331 331 332 332 332 332 332 332 332 332 332 333 333 332 332 331 331 331 332 332 333 333 333 333 332 332 333 333 333 332 333 334 334 334 333 331 332 332 333 332 332 332 332 331 332 331 331 331 330 330 329 329 329 329 329 329 328 328 328
326 328 329 329 330 330 331 331 331 332 332 332 332 333 333 333 332 332 332 332 331 331 332 332 332 333 333 332 332 331 332 332 332 332 333 334 334 334 334 333 332 332 331 331 331 331 331 330 331 331 331 331 330 330 330 329 330 329 329 329 328 328 328
323 325 327 328 329 330 330 330 331 331 331 332 332 332 333 332 332 331 331 331 331 331 331 331 332 332 332 332 332 332 332 332 333 332 333 333 333 334 334 334 333 332 332 331 330 331 331 330 331 332 331 331 331 331 330 329 331 330 329 329 328 328 328
319 321 323 325 328 329 330 330 330 330 331 331 331 331 332 332 332 332 332 332 332 331 331 331 332 332 332 332 332 332 332 333 333 333 332 332 332 333 334 333 333 333 332 331 330 331 332 331 332 332 332 331 331 331 331 330 330 330 329 328 328 328 327
317 318 320 321 324 326 328 329 330 330 330 331 331 331 331 332 332 332 332 332 332 332 331 331 332 332 332 332 332 332 332 333 333 332 332 331 330 331 333 333 333 333 331 330 330 330 332 332 332 332 332 331 332 331 331 331 329 330 328 327 327 328 327
316 317 318 318 320 321 323 326 328 330 330 331 331 331 332 332 332 333 332 332 333 332 332 332 332 332 332 332 331 331 332 333 333 332 332 331 330 331 332 333 334 333 331 330 331 331 331 332 331 332 331 331 332 331 331 330 329 329 328 327 326 326 327
315 315 316 317 317 318 320 322 325 328 330 330 330 331 332 332 332 333 333 332 332 332 332 332 332 332 332 332 332 332 332 333 333 332 332 332 332 331 332 333 333 332 330 330 331 331 331 331 332 332 331 331 331 331 331 330 330 328 328 328 326 325 325
313 314 314 315 316 317 318 320 322 325 327 329 330 330 331 332 332 332 332 332 332 331 331 332 332 332 332 331 332 332 332 333 333 333 332 331 331 330 330 330 330 330 330 331 332 332 331 332 332 331 331 331 330 330 331 331 330 329 328 328 326 324 324
312 313 313 314 315 316 317 319 321 324 325 327 329 330 330 331 331 331 332 332 331 330 330 331 332 332 332 331 332 332 332 333 333 332 331 330 330 331 331 331 330 330 331 332 331 332 332 332 333 331 331 331 330 330 331 331 330 329 328 328 326 323 323
311 312 312 313 313 314 316 317 319 322 324 326 327 329 330 330 331 331 331 332 331 331 331 332 332 332 331 331 332 332 332 331 332 332 331 329 329 331 332 331 330 329 331 332 332 332 332 332 332 332 331 331 330 329 330 330 330 329 329 329 327 324 322
311 311 311 311 312 313 314 315 317 320 323 325 326 327 328 329 330 330 331 331 331 331 331 332 333 332 331 331 332 332 331 330 332 333 331 329 330 331 331 331 330 329 330 332 332 332 332 332 332 331 331 330 329 329 330 330 329 328 328 328 328 326 323
310 310 310 310 310 311 312 313 314 316 319 322 325 326 327 328 329 329 330 330 330 330 330 331 332 332 331 332 332 332 332 333 333 331 330 331 333 333 333 332 331 330 330 330 331 331 332 331 330 330 330 330 330 330 330 329 329 328 328 328 328 327 324
309 309 309 309 309 310 310 311 311 312 314 317 321 324 326 327 327 328 329 329 330 330 329 329 331 331 331 332 332 332 333 333 331 329 330 333 333 333 333 332 331 331 331 330 330 331 331 330 329 330 329 329 329 329 328 328 328 328 328 328 328 327 325
308 308 308 308 308 308 308 308 309 310 311 312 315 318 322 325 326 327 328 328 329 329 329 329 330 330 331 331 331 332 332 331 330 331 332 333 333 333 333 332 332 332 331 331 330 330 330 330 330 330 330 329 329 329 328 328 328 328 328 328 328 327 326
307 307 308 307 307 307 307 307 307 308 309 310 311 313 316 320 324 326 326 327 327 328 328 328 328 329 330 330 330 331 331 330 331 333 333 331 331 332 332 332 332 332 331 330 330 330 330 329 329 329 329 330 330 330 329 329 328 327 327 328 326 324 324
307 307 307 306 306 306 306 306 306 306 307 308 308 309 310 314 319 322 324 326 327 326 327 327 327 328 329 328 329 330 330 330 331 332 331 330 330 331 332 331 331 331 330 329 330 330 329 328 328 328 328 329 329 329 329 329 328 326 326 326 325 324 323
306 306 306 306 306 306 305 305 305 305 306 306 306 306 307 309 313 316 319 322 325 326 326 326 326 327 327 327 328 329 328 329 331 330 330 330 330 331 331 331 331 331 329 328 329 330 328 327 327 327 328 328 327 327 327 328 328 327 326 326 325 324 322
306 306 306 305 305 305 305 304 304 304 304 304 304 304 304 305 307 310 313 315 318 321 323 324 324 325 325 326 327 327 327 328 330 330 329 329 330 330 331 330 329 328 328 328 328 328 327 327 327 327 327 326 323 322 324 325 325 326 326 325 325 324 322
305 305 305 305 305 304 304 304 303 303 303 303 303 303 303 303 303 305 308 310 312 313 316 319 321 322 323 325 326 326 326 326 327 328 328 328 328 328 328 328 325 325 327 327 325 324 325 326 326 325 324 322 319 319 321 323 323 323 324 324 324 323 322
305 305 305 304 304 304 303 303 302 302 302 302 301 301 301 301 301 301 303 305 307 308 310 313 316 318 322 324 324 324 324 324 325 326 326 326 325 325 325 326 326 326 326 325 322 323 324 325 324 323 322 319 317 316 316 317 317 319 321 322 321 320 319
305 305 304 304 304 303 303 302 302 301 301 301 300 300 300 300 300 300 300 301 303 305 307 309 311 315 319 321 322 322 321 321 322 324 323 322 322 323 323 324 325 325 324 322 322 323 323 323 322 321 320 318 316 314 311 311 312 313 314 316 316 315 315
304 304 304 304 304 303 303 302 301 301 301 300 300 300 300 299 299 299 299 299 300 302 304 306 307 310 315 317 318 319 319 318 319 320 319 318 318 319 319 320 322 323 322 322 322 321 320 320 321 320 318 317 315 313 311 309 309 310 310 311 310 310 310
304 304 304 304 304 303 303 302 301 301 300 300 300 299 299 299 299 298 298 298 299 299 301 303 304 307 310 313 315 316 316 314 314 315 315 314 313 314 314 316 317 318 319 319 318 317 316 317 318 318 317 316 314 313 311 310 310 310 309 309 307 306 306
303 304 304 304 304 303 303 302 302 301 300 300 300 299 299 299 299 299 298 298 298 298 299 301 302 304 307 311 312 312 312 311 311 311 311 310 310 311 312 312 311 312 315 315 313 313 313 314 315 315 315 314 313 311 310 308 308 307 307 306 306 305 305
302 303 303 303 303 303 303 302 302 301 301 300 300 300 299 299 299 299 299 298 298 298 299 300 300 301 304 308 309 310 309 308 308 310 309 307 307 308 309 308 307 308 311 311 310 310 311 312 313 313 313 312 311 309 307 306 306 306 305 305 305 305 305
302 302 302 302 302 302 302 302 302 301 301 300 300 300 300 299 299 299 299 299 298 297 297 299 299 299 301 305 307 308 308 307 307 309 307 304 303 303 305 305 305 307 309 309 309 310 310 310 312 312 311 309 307 307 307 306 306 307 306 306 306 306 306
301 301 301 301 301 301 301 301 301 301 301 300 300 300 300 299 299 299 299 299 298 297 297 297 298 297 299 301 303 305 305 305 306 307 305 302 300 301 301 302 304 306 307 308 308 308 308 308 308 308 307 306 306 307 308 308 308 308 308 308 307 307 306

ECMWFFLT1_925_thetae_075.txt.gz
Theta_e
338 339 338 338 339 338 338 338 338 338 338 337 337 336 336 336 336 335 335 335 334 335 335 335 334 334 334 335 334 333 333 336 338 337 336 336 335 335 336 336 335 334 334 334 333 333 333 332 331 332 333 333 332 332 332 331 330 330 330 331 330 330 331
337 338 337 337 338 337 337 337 337 338 338 337 336 336 335 335 335 335 334 334 334 334 334 335 334 333 334 335 334 333 335 337 338 338 337 334 333 334 335 335 333 334 335 334 333 333 334 333 332 333 333 333 333 332 331 330 330 330 331 331 330 330 330
337 337 337 337 337 337 338 337 337 337 337 337 337 337 336 335 335 334 334 334 333 333 333 334 334 334 334 335 334 334 336 336 336 338 336 332 332 335 335 333 332 334 335 334 332 333 334 332 332 333 333 333 333 332 332 331 330 330 331 331 330 331 330
336 336 336 336 336 337 337 337 337 337 337 337 337 337 336 335 334 334 334 333 333 332 332 333 334 334 334 334 334 335 336 335 335 336 335 333 335 336 336 334 333 334 334 333 332 333 333 333 333 333 332 333 333 333 332 331 331 331 331 331 331 330 330
334 334 334 335 335 336 335 335 336 336 337 337 337 337 336 335 334 334 334 333 332 331 331 332 334 334 334 334 333 333 334 334 334 334 333 335 337 336 336 335 334 335 334 332 332 333 333 333 333 332 332 333 333 333 332 331 331 331 330 331 330 330 330
334 333 334 334 334 335 335 334 334 334 335 336 337 337 335 335 334 334 334 333 333 331 331 333 334 334 334 335 334 332 333 334 334 334 333 335 336 335 336 335 333 334 333 332 331 331 332 333 333 331 331 332 332 332 332 332 332 331 330 330 330 330 330
333 333 334 334 334 334 334 334 333 331 332 334 336 337 336 335 335 334 334 334 334 333 332 333 334 334 334 334 333 332 333 334 333 334 334 334 334 333 334 335 334 333 333 332 331 331 332 332 332 331 331 331 330 331 332 332 332 331 330 329 329 330 329
331 332 333 333 333 333 333 334 334 332 332 332 334 336 336 336 335 335 334 334 335 335 334 333 334 334 333 334 334 333 334 333 332 333 334 334 333 333 334 335 334 333 332 332 331 331 332 332 332 330 331 331 331 331 331 331 330 330 329 329 329 329 329
328 330 331 332 333 334 333 334 335 333 332 333 333 334 335 336 335 335 335 334 334 335 335 334 334 334 334 335 335 334 333 333 333 334 334 334 333 333 333 333 333 334 333 332 331 331 331 331 331 331 331 330 330 331 331 330 330 329 330 329 329 329 329
325 327 329 330 332 333 333 334 334 334 332 332 332 332 333 334 335 335 335 334 334 335 335 334 334 334 335 335 335 334 333 333 334 334 334 334 333 333 333 332 333 335 333 331 331 330 331 332 332 332 332 331 331 331 330 330 330 329 330 329 329 330 330
323 324 326 327 329 331 332 333 333 333 333 332 332 332 332 333 334 335 335 335 334 334 334 334 334 334 334 334 334 333 333 334 334 334 333 333 333 332 332 332 334 334 333 331 331 331 331 332 333 332 331 330 331 331 330 331 331 331 330 329 330 330 329
321 322 323 324 325 327 330 331 331 331 332 332 331 331 332 333 334 335 335 335 334 334 334 334 334 333 333 333 333 333 333 334 333 333 333 332 333 333 332 332 333 333 333 331 330 331 331 333 335 334 331 332 332 331 331 333 332 331 330 330 330 330 329
320 320 321 322 322 324 326 328 329 330 331 331 331 331 331 333 334 334 334 335 334 334 334 334 334 333 332 333 333 333 334 334 333 333 333 332 333 333 332 333 332 332 333 332 331 331 332 334 335 335 332 332 332 330 330 332 332 330 330 330 330 329 330
319 319 319 320 321 322 323 324 325 327 329 331 332 331 331 332 333 333 333 334 334 334 334 334 334 333 333 332 333 333 334 334 333 333 334 334 333 333 333 333 331 332 333 333 333 333 334 334 335 334 332 331 331 330 330 331 331 331 330 331 330 329 329
318 318 318 319 319 320 320 321 322 324 327 329 331 332 332 332 333 333 333 332 332 333 333 334 334 333 333 333 333 333 334 334 333 333 334 334 333 332 333 333 331 331 332 332 333 332 332 334 334 333 332 331 331 330 330 331 331 331 330 331 331 329 328
317 317 317 317 318 318 319 320 321 323 324 326 329 331 331 332 332 332 332 332 332 332 332 333 333 334 333 333 333 333 333 333 332 333 333 333 333 333 333 333 332 332 331 331 332 331 332 335 334 332 332 331 330 329 330 331 330 331 331 330 330 329 328
316 316 316 316 317 317 318 319 320 321 322 324 326 328 330 331 331 331 332 332 332 332 332 332 332 334 333 333 332 332 332 332 331 331 332 333 332 332 333 333 333 332 330 329 330 331 334 335 333 331 331 330 330 330 330 331 330 330 331 329 329 328 328
315 315 315 315 315 316 317 317 318 319 320 322 324 326 328 330 330 331 332 331 331 332 332 331 331 332 333 332 332 331 332 331 330 331 333 333 331 331 332 334 333 332 331 330 330 331 333 334 332 331 330 329 329 330 330 331 331 330 330 330 329 328 328
314 314 314 314 314 315 315 316 316 317 318 319 321 323 326 328 329 330 330 330 330 331 331 331 331 331 332 331 331 332 333 332 331 331 331 331 331 332 333 333 332 331 332 331 330 330 332 333 332 332 330 329 329 330 331 331 331 330 330 329 330 328 326
313 313 313 313 313 313 314 314 314 315 315 316 318 320 321 324 326 328 330 329 329 329 330 331 331 331 331 330 330 332 334 334 333 331 330 330 330 332 333 333 332 332 333 332 331 331 331 332 332 332 331 330 329 330 331 330 330 330 329 329 330 328 326
312 312 312 312 312 312 312 312 312 313 313 314 315 316 317 318 321 324 327 328 328 329 330 330 330 330 330 330 330 331 332 332 332 332 331 331 331 332 333 333 332 332 333 334 333 332 331 331 331 332 332 331 329 330 331 330 329 329 330 329 329 328 325
311 311 311 311 311 311 311 311 311 311 311 312 312 313 314 315 316 317 321 325 327 328 329 329 330 329 329 329 329 329 329 330 331 332 331 331 331 332 332 331 330 331 331 332 333 332 331 331 331 331 332 331 329 329 330 329 328 328 329 329 327 327 326
310 310 310 310 310 310 310 310 310 309 310 310 310 310 311 312 312 312 315 319 323 326 328 329 330 330 329 329 329 329 329 330 332 333 332 331 332 332 331 330 330 330 331 331 331 332 331 330 330 330 331 330 329 329 328 329 328 328 328 327 325 326 327
309 309 309 309 309 309 309 309 308 308 308 308 308 309 309 309 310 310 310 313 317 321 325 327 328 329 329 329 329 329 329 330 332 333 330 329 331 332 331 330 330 330 330 330 330 330 330 330 330 330 331 330 329 329 329 330 331 328 327 326 326 325 327
308 308 308 308 308 308 308 308 307 307 307 307 307 307 307 307 307 307 307 308 311 315 319 320 322 325 327 328 328 328 329 330 331 331 330 329 330 332 332 331 329 329 329 329 329 329 329 330 330 330 330 329 329 329 329 330 330 329 328 328 326 326 327
308 308 307 307 307 307 307 307 307 306 306 306 306 306 305 305 305 305 305 305 306 309 312 315 317 319 323 325 327 327 328 330 329 329 330 330 329 330 330 329 328 327 328 329 330 330 329 330 330 330 329 329 329 329 329 329 329 330 330 329 328 327 328
307 307 307 307 307 306 306 306 306 306 306 305 305 305 304 304 303 303 303 303 303 304 306 309 313 315 318 321 324 325 326 328 329 329 329 329 328 328 327 328 328 327 327 328 329 330 331 331 330 330 329 329 329 329 329 328 328 329 328 328 329 329 328
306 307 306 306 306 306 306 306 305 305 305 305 304 304 303 303 302 302 302 302 302 302 303 305 308 311 314 317 319 322 323 325 328 327 327 327 328 328 327 327 328 327 327 328 328 330 331 330 330 329 329 329 327 327 327 327 327 327 327 327 328 328 328
306 306 306 306 306 306 305 305 305 304 304 304 304 303 303 302 302 301 301 300 300 300 301 303 304 307 311 313 316 318 319 322 325 327 327 328 327 327 327 326 326 327 328 328 328 329 329 329 329 329 328 327 324 323 325 325 325 326 326 327 327 326 326
306 306 305 306 305 305 305 305 304 304 304 304 304 303 302 302 301 301 300 300 299 299 299 300 302 304 308 310 313 315 317 319 323 327 328 328 326 326 326 326 326 327 327 328 328 328 328 328 328 326 325 325 322 320 320 322 323 324 325 327 327 326 325
305 305 305 305 305 305 305 304 304 304 304 303 303 303 302 302 302 301 300 299 299 298 298 299 300 302 306 308 311 313 314 318 323 326 326 324 322 323 325 326 326 325 325 327 328 328 327 326 325 324 324 324 321 317 316 317 319 321 322 324 324 324 323
304 304 304 304 304 304 304 304 303 303 303 303 303 303 302 302 302 301 300 299 298 297 297 297 298 301 304 307 309 311 312 318 322 322 321 320 318 319 323 325 325 323 324 326 327 326 325 324 324 324 324 323 320 316 314 314 316 317 318 318 318 318 317
304 304 304 304 304 304 304 304 303 303 303 303 303 302 302 302 302 301 300 299 298 297 297 296 297 299 302 305 308 310 312 316 318 317 315 315 315 315 318 322 323 323 323 324 324 324 323 323 323 323 323 322 319 315 313 313 314 314 314 314 313 312 312
303 303 303 303 303 303 303 303 303 303 302 302 302 302 301 301 301 301 301 300 299 298 297 296 296 298 300 303 306 308 310 312 313 313 312 311 311 310 311 314 317 318 319 320 321 322 322 322 322 321 321 320 317 314 313 313 313 312 312 311 310 309 309
303 302 302 302 303 303 302 302 302 302 302 302 302 302 301 301 301 301 301 300 299 299 298 297 296 296 297 300 303 305 305 306 308 310 310 308 306 305 304 306 309 311 313 315 317 319 320 320 320 319 318 317 314 312 312 311 311 311 310 309 309 308 308
302 302 302 302 302 302 302 301 301 302 302 302 302 301 301 301 300 300 299 299 299 298 298 298 297 296 296 297 299 300 301 302 302 304 305 304 303 302 302 303 305 306 309 311 314 315 316 316 316 315 315 313 311 310 309 309 309 309 309 309 308 308 307
302 302 301 301 301 301 301 301 300 301 301 301 301 301 301 300 300 299 298 298 298 298 298 297 297 297 296 296 297 297 298 299 299 298 298 299 301 301 301 302 303 305 307 309 311 311 312 311 310 310 310 309 309 308 308 308 308 308 308 307 307 306 306

ECMWFFLT1_925_thetae_078.txt.gz
Theta_e
338 338 338 339 339 339 339 338 339 339 339 338 338 339 338 337 337 337 337 337 337 336 335 335 335 335 335 335 335 335 333 333 333 333 333 331 331 331 331 330 332 335 335 334 334 334 335 335 334 333 333 333 333 332 332 332 332 331 330 330 331 331 331
337 337 337 338 338 338 338 337 337 337 338 337 337 338 337 337 336 335 336 337 337 336 335 335 335 334 335 335 335 334 333 332 333 333 332 332 331 330 330 329 331 335 336 334 333 333 335 336 335 333 333 332 332 332 332 332 332 331 330 330 330 330 330
336 336 336 336 336 336 336 336 335 335 336 335 335 336 337 337 336 335 334 335 336 336 335 335 335 334 334 334 334 335 334 333 333 333 332 332 332 330 331 332 334 335 335 334 334 334 335 334 334 334 333 332 332 331 332 333 332 331 330 330 330 330 330
335 335 335 335 335 335 335 335 335 335 335 334 334 335 336 336 336 334 333 333 335 335 334 335 334 334 334 334 334 335 335 334 333 332 332 333 332 331 331 333 335 335 335 334 334 334 334 333 333 335 333 332 332 332 333 333 332 331 330 331 331 330 329
333 334 334 335 335 334 334 334 334 335 335 334 333 333 334 334 335 334 333 332 334 334 335 334 334 333 333 333 334 334 334 335 334 333 333 334 333 332 332 333 335 335 334 334 333 333 334 333 333 334 332 331 332 333 333 333 332 331 330 331 331 330 330
329 330 332 333 334 334 334 334 334 334 335 334 334 333 333 333 334 334 334 333 333 334 334 334 334 333 332 333 334 334 334 335 334 334 334 334 333 333 333 333 334 335 334 333 334 334 333 333 333 332 331 329 330 332 333 334 333 332 331 332 331 330 330
325 327 329 330 331 332 333 334 334 334 334 334 334 333 332 333 333 334 334 334 334 334 334 334 334 333 333 332 334 334 334 334 334 334 334 334 334 333 333 333 333 334 333 332 333 333 332 333 333 333 331 331 330 330 332 334 333 332 332 331 331 330 330
324 325 326 327 328 329 330 331 333 333 332 333 334 334 332 332 333 333 333 333 333 333 334 334 334 334 333 333 333 334 334 335 334 334 334 334 334 333 333 333 333 334 332 331 332 334 332 332 333 332 330 331 332 331 331 333 333 332 332 331 331 330 330
322 323 324 325 325 326 326 328 330 331 332 332 333 333 333 332 332 332 333 333 333 332 333 333 333 334 334 334 334 334 334 334 334 334 334 333 334 333 333 333 333 333 332 333 334 334 332 331 331 331 330 331 333 333 334 333 333 332 331 330 330 330 330
321 321 322 323 323 323 324 325 326 328 329 330 332 333 333 332 332 332 332 332 332 332 333 332 332 333 334 334 334 334 334 334 333 333 333 333 333 333 334 334 334 333 333 334 334 333 332 331 331 330 330 330 331 332 334 334 333 332 331 330 329 330 330
320 320 320 321 321 322 323 323 324 324 325 327 329 331 332 332 332 332 332 331 332 332 332 332 331 331 333 333 333 333 333 333 332 332 332 332 333 333 334 334 334 334 333 333 334 333 332 331 331 330 330 330 329 331 332 333 333 331 330 330 329 329 330
319 319 319 319 319 320 321 321 321 322 323 324 326 328 330 331 331 331 331 331 331 331 331 331 331 331 332 331 331 332 332 332 331 332 332 332 332 333 334 334 333 334 333 333 334 334 332 331 331 331 331 331 330 330 330 332 335 333 330 329 329 329 330
318 318 318 318 319 319 319 320 320 321 322 323 324 326 328 329 329 330 330 329 330 330 330 329 330 331 331 331 332 332 333 333 332 332 332 332 332 333 333 334 333 333 333 334 335 335 332 332 332 331 332 331 329 330 331 332 335 335 330 329 330 329 330
317 317 317 317 317 318 318 318 319 320 321 321 322 324 325 326 328 329 330 329 329 329 329 329 329 330 331 331 332 333 333 333 333 332 332 332 332 333 333 333 333 332 332 334 335 334 332 331 332 332 331 331 330 331 332 332 333 333 330 329 330 329 329
316 316 316 316 316 316 317 317 318 318 319 319 320 321 323 324 325 327 328 329 330 329 329 328 328 330 330 329 330 332 333 333 332 331 331 331 331 332 333 333 333 332 332 333 334 333 332 331 331 331 331 331 332 332 333 332 332 331 329 329 329 329 329
315 315 315 315 315 315 315 316 316 316 316 317 318 319 320 321 322 323 324 327 329 329 329 329 329 330 330 329 329 330 332 332 331 329 330 330 330 331 332 332 333 332 332 332 332 332 332 331 331 331 331 331 331 331 332 332 331 330 330 330 330 329 329
314 314 314 314 314 314 314 314 314 314 314 315 315 316 317 318 319 320 320 322 325 327 329 329 329 329 329 329 329 330 331 332 331 330 330 330 329 330 331 331 332 332 332 332 332 332 332 332 331 332 331 331 329 328 331 331 330 330 329 329 331 331 329
313 313 313 313 313 313 313 313 313 313 313 313 313 314 314 315 316 317 317 318 319 322 325 327 328 329 329 329 329 329 330 331 331 331 331 331 330 330 331 331 331 332 333 332 332 332 333 332 331 331 331 330 329 328 330 331 330 330 329 329 331 331 329
312 312 312 312 312 311 312 311 311 311 311 311 311 311 312 312 313 314 314 314 315 318 320 324 327 327 326 327 329 330 330 330 330 330 330 330 330 330 330 330 331 332 332 332 332 332 332 332 331 331 331 330 329 328 330 331 331 331 330 329 330 330 329
311 311 311 311 311 310 311 310 310 310 310 310 310 309 310 310 310 311 311 311 312 313 317 322 322 318 317 319 323 327 329 329 328 329 330 329 329 329 329 329 330 330 330 332 332 332 331 332 331 330 331 331 330 329 330 331 331 330 329 328 328 329 328
310 310 310 310 309 309 309 309 309 309 309 309 308 308 308 308 308 308 308 308 308 309 313 317 315 311 311 314 317 320 325 328 328 328 329 329 329 330 330 330 329 328 329 331 332 332 330 330 331 331 330 329 329 330 330 329 330 329 328 327 327 327 326
309 309 309 309 309 308 308 308 308 308 308 308 307 307 307 306 306 306 306 306 306 306 308 311 309 306 306 309 312 316 320 324 327 328 328 328 328 329 329 329 329 329 329 329 331 332 330 330 332 332 330 329 329 330 329 327 328 328 327 327 327 327 326
308 308 308 308 308 308 307 307 307 307 307 307 306 306 305 305 305 305 304 304 305 304 305 306 304 303 305 306 308 313 317 321 324 327 328 327 326 327 328 329 330 329 329 329 330 332 331 331 332 331 330 330 330 330 328 328 329 327 326 326 326 326 326
307 307 307 307 307 307 307 307 306 306 306 306 306 305 305 304 304 304 303 303 303 303 304 303 301 301 304 306 307 310 314 317 321 324 327 327 327 327 327 328 329 330 329 329 331 332 331 331 331 331 331 331 331 331 329 329 329 326 325 326 326 326 327
307 307 307 307 307 306 306 306 306 305 305 305 305 305 304 304 304 303 302 302 302 301 302 301 299 300 303 305 306 308 312 315 318 321 325 327 327 327 328 328 329 329 330 330 330 331 331 332 331 331 331 331 331 331 329 329 329 327 326 326 325 325 326
306 306 306 306 306 306 305 305 305 305 305 305 304 304 304 303 303 302 302 301 300 300 300 299 297 299 302 304 305 308 311 314 316 319 322 325 327 327 328 328 327 328 329 330 328 328 329 330 330 330 330 330 330 330 329 330 330 328 327 327 326 326 326
306 306 306 305 306 305 305 305 304 304 304 304 304 304 303 303 303 302 301 300 299 299 299 297 296 298 301 303 305 307 310 313 316 318 320 323 325 327 327 326 327 328 329 328 327 327 327 328 329 329 329 328 329 329 329 330 330 329 328 328 327 327 326
305 305 305 305 305 305 305 305 304 304 304 304 303 303 303 303 303 302 301 300 299 299 298 297 296 297 299 302 305 308 310 312 315 317 320 322 324 327 326 325 327 328 327 327 327 327 327 328 329 328 327 325 326 327 327 328 329 329 329 328 327 327 326
304 304 304 304 304 304 304 304 304 303 303 303 303 303 302 302 302 302 301 300 299 299 298 297 296 296 298 301 305 308 309 311 313 315 318 320 322 325 326 325 326 327 327 326 326 327 328 328 328 327 326 324 324 326 327 328 328 328 329 328 328 327 326
304 304 304 304 304 304 303 303 303 303 303 303 303 302 302 302 302 302 301 300 299 299 298 297 296 296 297 300 304 306 308 310 312 315 317 319 321 323 325 326 326 327 326 326 325 326 328 328 327 327 325 324 324 325 326 326 327 327 328 328 327 328 328
304 303 303 303 303 303 303 303 303 303 303 303 302 302 301 301 301 301 300 300 299 299 298 297 296 296 296 298 301 303 305 308 310 313 316 317 319 322 324 325 326 326 325 325 326 326 327 327 327 326 324 322 321 322 322 323 324 325 326 326 325 324 323
303 303 303 303 303 303 302 302 302 302 302 302 302 302 301 301 300 300 299 299 298 298 298 297 297 296 296 297 298 300 301 303 304 307 308 309 311 314 317 320 324 326 325 325 325 326 327 327 327 325 322 320 319 318 318 320 322 323 323 322 320 318 318
303 303 302 302 302 302 302 301 301 301 301 302 301 301 301 301 300 299 299 298 297 297 297 297 297 297 297 296 296 297 298 299 299 301 302 302 303 305 307 311 316 322 325 325 325 326 326 326 326 323 321 321 319 317 317 319 320 320 319 317 315 314 315
302 302 302 302 302 302 301 301 301 301 301 301 301 301 301 300 300 299 299 298 297 297 296 296 296 297 297 297 296 296 296 296 297 298 300 300 300 300 301 303 306 313 321 324 324 326 326 324 324 322 321 321 320 318 317 317 317 316 315 313 311 311 311
302 302 302 302 301 301 301 300 300 300 300 300 300 300 300 300 300 299 299 298 297 297 296 296 296 296 297 297 297 296 296 296 297 297 298 298 298 298 299 299 300 305 316 321 320 322 323 323 323 323 321 319 318 317 316 315 314 312 311 310 309 308 308
303 302 302 302 301 301 301 300 300 300 300 300 300 300 300 300 300 299 299 298 298 297 297 296 296 296 296 297 297 297 297 296 296 297 296 297 297 298 299 299 299 301 310 316 317 317 319 320 320 320 319 316 314 314 313 312 311 310 308 307 307 306 306
302 302 302 302 301 301 301 300 300 300 300 300 300 300 300 300 300 299 299 298 298 298 297 296 296 296 296 296 296 297 297 297 297 297 296 296 297 298 299 300 300 300 304 310 312 311 313 315 315 314 314 313 312 312 311 310 309 308 306 305 305 304 304

ECMWFFLT1_925_thetae_081.txt.gz
Theta_e
335 335 335 335 335 335 336 336 336 336 336 336 336 336 337 336 335 334 335 334 334 334 335 335 335 335 336 336 335 335 334 331 330 332 332 331 332 331 332 332 329 329 331 330 331 332 334 335 334 333 334 333 332 332 332 332 332 332 331 331 330 330 329
333 333 334 334 334 334 334 334 335 334 335 335 335 335 335 336 335 334 334 333 333 334 334 335 334 334 334 335 334 335 334 332 331 332 332 331 332 332 332 332 329 329 330 331 330 329 330 334 335 333 332 332 333 332 332 332 332 332 331 330 330 330 330
329 331 332 332 332 333 333 333 334 334 334 334 335 334 334 334 334 334 334 333 333 333 333 333 334 334 334 335 335 334 334 333 332 332 331 331 332 332 332 331 330 330 330 329 330 329 330 333 334 333 331 332 333 332 332 332 332 332 331 330 330 330 330
326 327 329 329 330 331 331 331 332 332 333 333 333 334 334 333 333 332 333 334 334 333 332 332 333 335 335 334 334 334 334 333 332 332 331 331 332 332 332 331 330 330 330 329 330 330 330 332 334 333 331 331 332 331 331 332 332 332 331 330 330 330 331
323 325 326 327 327 328 328 328 329 330 331 331 332 332 333 333 333 332 332 333 333 334 333 333 333 334 334 333 333 333 334 333 333 332 331 331 332 332 332 331 330 330 331 331 331 331 331 333 333 332 331 331 332 331 331 332 332 332 331 331 330 330 330
322 323 324 324 325 325 326 326 327 328 328 329 330 331 332 333 333 332 332 332 332 333 333 333 333 333 334 333 333 333 333 333 333 332 330 330 331 332 332 331 331 331 331 332 332 332 333 332 331 331 331 332 332 331 331 332 332 332 332 331 330 330 330
320 321 321 322 321 322 323 324 324 325 325 325 325 327 330 331 331 332 332 331 332 332 332 333 333 333 333 333 333 333 333 333 333 332 330 330 330 331 330 331 332 332 333 333 333 334 332 329 329 331 331 331 331 330 330 331 332 332 332 331 330 331 330
319 319 319 319 319 320 321 321 321 321 322 323 324 325 327 328 329 330 331 331 331 330 330 331 331 332 332 332 333 332 333 333 333 332 330 329 330 331 330 330 332 331 332 334 334 335 334 331 331 330 331 331 331 329 328 330 331 331 332 331 330 331 331
318 318 318 318 318 319 319 319 319 320 321 322 323 324 325 326 328 329 329 330 330 330 330 330 330 330 331 331 331 331 332 332 333 333 331 330 331 331 330 331 331 329 331 333 334 334 334 333 333 331 331 331 330 331 329 329 330 330 331 331 330 331 331
317 318 318 317 317 317 318 318 318 318 319 320 321 322 323 324 326 327 328 329 329 329 329 329 330 330 329 330 330 331 331 331 331 332 332 332 332 332 332 332 332 331 331 333 333 333 333 333 333 331 332 330 329 331 331 330 330 329 330 331 330 331 331
315 316 316 316 315 316 316 317 317 317 317 318 318 319 320 321 322 324 326 327 327 328 329 329 329 329 329 329 330 330 330 329 329 330 331 332 332 332 333 332 333 333 332 332 332 332 332 333 333 332 331 330 328 329 330 330 330 329 330 331 330 331 330
314 314 314 314 314 314 314 315 315 315 315 315 316 316 318 319 319 321 322 322 323 326 328 328 328 329 328 328 329 329 329 329 329 329 329 330 331 331 332 332 332 333 333 333 333 332 332 332 333 332 330 329 328 329 329 330 331 331 330 331 331 330 330
313 313 313 313 313 313 313 313 313 313 313 313 313 314 315 316 317 317 318 318 319 321 323 325 328 328 328 328 328 329 329 328 328 328 328 329 330 331 330 330 332 333 332 333 332 332 332 333 333 331 329 329 329 329 329 328 330 331 330 330 330 329 330
312 312 312 311 312 312 311 311 311 312 311 311 311 312 313 313 314 314 314 315 316 317 319 321 324 325 325 326 327 329 329 328 328 328 329 330 330 330 330 329 330 332 332 333 332 332 332 333 333 331 329 328 329 330 330 328 329 329 328 328 328 328 329
311 311 311 310 310 310 310 309 310 310 309 309 309 309 310 310 311 311 311 311 312 314 316 317 317 318 318 319 321 324 327 328 328 328 329 330 329 329 330 329 329 331 332 333 332 332 332 332 332 331 329 328 329 331 330 328 328 328 327 328 328 328 329
309 310 309 309 309 309 309 309 308 308 308 308 308 308 308 308 308 308 308 308 308 310 313 313 313 313 313 313 315 317 321 324 326 328 329 329 328 327 329 330 329 330 331 332 333 333 333 332 332 332 331 330 329 330 329 328 328 328 327 327 327 328 329
309 309 308 308 308 308 308 308 307 307 307 307 307 306 306 306 306 306 306 306 306 307 309 310 309 310 309 309 310 313 316 319 323 326 328 328 328 327 328 329 329 330 330 331 332 332 333 333 331 331 331 332 331 329 328 328 329 329 327 326 327 328 328
308 308 308 307 307 307 307 307 307 307 306 306 306 305 305 304 305 304 304 304 304 305 307 307 305 305 305 306 307 309 312 315 319 323 326 328 328 327 328 328 329 329 330 331 332 332 332 332 331 330 330 331 332 330 328 328 329 329 327 326 327 327 328
307 307 307 307 307 306 306 306 306 306 305 305 305 304 304 304 303 303 303 303 302 303 305 304 301 300 301 303 305 307 309 313 316 319 323 326 328 328 328 329 328 328 328 329 330 331 331 332 332 332 331 331 331 331 330 329 329 327 327 327 327 327 327
307 306 306 306 306 306 306 305 305 305 305 304 304 304 303 303 303 302 302 301 301 302 303 301 298 298 298 300 302 304 307 310 313 317 320 324 326 328 328 328 329 328 327 328 329 329 331 332 332 332 332 332 331 331 330 330 329 327 326 327 327 327 326
306 306 306 306 305 305 304 304 304 305 305 304 303 303 303 303 302 301 301 301 300 301 301 299 297 297 297 297 299 302 305 308 310 313 317 321 325 327 328 328 329 328 328 329 328 327 330 332 332 332 332 331 331 330 330 330 329 328 327 327 327 326 326
305 305 305 305 305 304 304 303 304 304 304 304 303 303 303 303 302 301 300 300 299 299 300 298 297 297 296 296 297 299 303 306 307 310 314 319 322 325 327 328 328 328 328 328 328 327 329 331 332 332 332 332 330 331 330 329 328 328 327 327 326 325 325
305 305 305 304 304 304 304 303 303 303 303 303 303 303 303 303 302 301 300 299 299 299 299 298 297 297 297 297 297 298 302 306 307 309 312 315 319 323 325 327 328 327 328 328 327 327 328 330 331 331 331 331 331 330 330 327 326 327 327 326 326 326 325
305 305 304 304 304 304 304 303 303 303 302 302 302 302 302 302 302 300 300 299 299 299 298 297 297 297 298 299 299 300 303 306 308 309 310 311 316 321 323 325 327 327 327 327 327 327 328 328 329 330 330 331 331 330 329 327 327 327 327 326 326 326 326
304 304 304 303 303 303 303 303 303 303 302 301 301 301 302 302 301 300 300 299 299 299 298 297 297 297 298 300 302 303 304 305 307 308 308 309 313 318 321 324 326 327 327 327 327 327 328 328 328 329 330 330 330 330 328 328 327 327 328 327 326 326 326
303 304 303 303 302 302 302 302 303 303 302 301 300 301 301 301 300 300 299 299 299 298 298 297 297 297 298 299 302 303 302 302 305 308 309 310 313 316 319 322 324 326 326 326 327 327 328 328 328 328 329 330 330 330 329 327 327 327 328 328 327 326 327
303 303 303 302 302 301 301 301 302 302 302 301 300 301 300 300 299 299 298 298 298 298 297 297 297 297 297 299 301 302 300 300 303 306 307 310 312 314 317 320 323 325 325 326 327 328 328 328 328 329 329 329 329 329 328 327 327 327 327 327 327 327 327
302 303 303 302 302 301 301 301 301 302 302 301 300 300 300 299 299 298 298 298 297 297 297 296 297 297 298 298 299 300 299 299 300 302 303 306 308 310 312 316 320 323 325 325 326 327 328 328 328 328 328 328 329 328 326 326 327 328 327 326 326 327 326
302 302 302 301 301 301 301 300 300 301 301 300 300 300 300 299 299 298 297 297 297 297 296 296 296 297 297 298 298 298 298 298 298 299 300 301 303 306 308 310 313 317 321 324 326 327 328 328 328 327 327 327 327 326 325 326 327 328 328 327 326 326 325
301 302 301 301 300 300 300 301 300 300 300 300 300 300 300 299 298 298 297 297 297 297 296 296 296 296 297 297 297 297 297 297 298 298 298 299 300 303 305 306 307 310 313 318 322 325 327 328 327 326 325 325 325 325 325 325 327 328 328 327 326 326 325
301 301 301 301 300 299 300 300 300 300 300 300 300 300 299 299 298 298 298 297 297 296 296 296 296 296 296 296 297 296 296 297 297 297 297 298 298 300 303 304 305 306 307 311 316 320 323 326 327 325 324 323 323 322 322 323 324 325 325 325 325 326 325
301 301 301 301 300 300 299 300 300 300 300 299 299 300 299 299 298 298 298 298 297 296 296 296 295 296 296 296 296 296 296 296 296 297 297 297 297 298 300 302 304 304 306 309 313 316 319 323 326 326 324 323 322 321 321 322 322 322 322 322 322 322 323
301 301 301 301 300 300 299 299 299 300 300 299 299 299 299 299 298 298 298 298 297 296 296 295 295 295 296 296 295 296 296 295 295 296 297 296 296 297 298 299 301 302 304 308 312 316 318 322 325 325 324 323 322 321 321 321 319 319 319 319 317 318 319
301 301 301 301 300 300 299 299 299 299 299 300 299 299 299 299 298 298 298 298 297 296 296 295 295 295 296 296 295 295 295 295 295 296 296 296 296 296 296 297 299 300 302 305 310 315 318 320 323 324 324 324 323 322 321 318 316 316 316 315 314 314 315
301 301 301 301 301 300 299 298 298 298 299 299 299 299 299 299 298 298 298 297 297 296 295 295 295 295 295 296 296 295 295 295 296 296 296 295 295 295 295 296 297 300 302 303 306 311 316 319 322 323 323 322 321 319 318 315 314 314 313 312 312 312 312
301 301 301 300 300 300 299 298 298 298 298 299 299 299 299 299 299 298 297 297 296 295 295 295 295 295 295 295 296 296 295 295 296 296 296 295 295 295 295 296 297 299 302 303 303 305 309 314 319 321 321 319 317 316 314 312 312 312 310 310 309 308 309
301 300 300 300 300 300 299 298 298 298 298 298 299 299 299 299 299 298 297 296 295 295 295 296 296 296 296 295 295 295 295 295 295 296 296 296 295 295 296 296 297 299 301 303 303 302 303 307 311 315 317 315 314 313 311 309 308 308 308 307 306 306 305

ECMWFFLT1_925_thetae_084.txt.gz
Theta_e
330 330 331 331 332 332 333 333 333 333 333 333 333 333 333 333 333 333 333 332 332 332 331 331 331 332 332 332 332 332 331 331 330 330 330 330 329 330 331 331 329 329 329 329 330 331 333 334 333 332 332 333 332 331 331 331 331 331 330 330 330 330 329
328 329 329 329 329 329 330 330 331 331 331 331 332 332 332 333 333 333 332 331 331 331 331 331 331 331 331 332 332 332 331 331 331 330 329 329 329 330 330 330 330 329 329 328 328 328 329 332 333 333 332 331 331 331 331 331 331 331 330 330 330 330 330
326 327 327 326 326 326 327 327 327 328 328 329 330 330 331 331 332 332 332 331 331 331 331 331 331 331 331 332 332 333 332 332 331 331 330 330 330 330 330 330 330 329 329 328 328 328 328 329 331 332 332 331 331 331 331 331 331 331 331 331 331 330 330
324 324 324 323 323 324 324 324 324 324 325 327 328 328 329 329 329 330 330 331 331 331 331 331 331 332 332 332 332 333 333 332 332 332 332 331 331 330 330 330 330 330 329 328 329 328 328 328 330 331 330 331 332 331 331 331 332 332 331 331 331 331 331
320 320 320 320 321 322 322 321 321 322 324 326 326 326 327 327 328 329 329 329 330 330 330 330 330 330 331 332 332 332 333 332 332 332 332 332 331 330 330 329 330 331 330 329 329 329 329 329 329 330 329 330 331 331 331 331 332 332 332 332 332 331 331
318 318 318 319 319 319 319 319 320 320 321 323 323 323 323 325 326 327 328 329 329 329 329 329 329 329 329 330 330 331 332 332 332 332 332 332 331 330 330 329 330 331 330 330 330 329 329 329 329 329 328 330 331 330 331 331 331 332 331 331 332 331 331
317 317 317 318 318 318 317 317 318 318 319 319 319 320 320 322 323 325 326 326 326 327 328 328 329 329 329 329 329 329 329 330 331 331 331 332 332 331 330 330 330 330 330 330 330 329 328 328 328 328 328 329 330 329 330 331 331 331 331 331 332 332 331
315 315 315 316 317 317 316 315 315 316 316 316 317 317 318 319 320 321 322 322 322 324 326 327 328 328 329 329 329 328 328 328 329 330 331 331 331 330 329 329 330 330 330 331 330 329 328 328 329 329 328 330 330 329 329 330 330 331 331 331 331 332 331
314 313 313 314 314 315 314 313 313 313 313 314 315 315 316 316 316 317 318 318 319 321 322 324 325 326 327 328 328 328 328 328 328 329 329 330 330 330 329 329 330 329 330 331 330 329 329 329 329 329 328 328 330 331 330 330 330 330 331 331 331 331 331
312 312 312 312 311 312 312 312 311 311 311 312 312 313 313 313 313 313 314 315 317 318 319 320 321 321 322 324 324 325 326 327 327 328 328 328 329 329 328 328 329 329 329 330 330 330 330 330 330 329 328 327 329 330 331 331 329 329 330 331 331 331 331
311 311 310 310 310 310 310 309 309 309 309 309 309 310 310 310 310 310 311 312 313 315 315 315 316 316 318 319 320 321 322 324 326 327 328 328 328 328 328 328 328 328 329 329 330 330 330 330 330 329 329 328 328 328 328 330 330 328 328 330 331 331 331
310 309 309 308 308 308 308 308 308 307 307 307 307 307 307 307 307 307 307 308 310 311 312 311 312 312 314 315 317 318 319 320 322 325 327 327 328 328 328 329 329 329 329 329 330 330 330 330 329 329 329 328 328 327 326 327 329 328 327 329 330 330 331
308 308 308 308 308 308 307 307 307 306 306 306 305 305 305 305 305 305 305 306 307 308 308 308 309 310 311 312 313 314 316 317 319 321 324 326 327 328 328 328 329 329 329 329 329 329 330 330 330 329 329 328 327 327 326 326 328 329 327 328 329 330 331
307 307 307 307 307 307 307 306 306 305 305 304 304 304 304 304 304 304 304 304 305 306 305 305 307 307 308 309 310 311 313 314 315 317 320 323 325 327 328 328 328 328 328 329 329 329 329 330 330 329 329 328 327 327 327 326 327 328 327 327 329 330 330
307 306 306 306 306 306 306 305 305 304 304 304 303 303 303 303 302 302 302 302 303 304 303 303 303 303 303 304 307 308 309 310 312 314 317 320 322 325 327 329 328 328 328 329 329 329 329 329 329 329 329 329 328 327 327 327 327 327 327 327 329 329 329
306 306 305 305 305 305 305 305 304 303 303 303 303 302 302 302 301 301 301 301 302 302 301 300 300 300 300 300 302 305 307 308 308 310 313 316 319 322 324 327 328 328 328 328 329 329 329 329 329 328 329 329 328 328 328 327 327 327 327 327 328 328 328
305 304 304 304 304 305 305 304 304 303 303 303 303 302 301 301 300 300 300 300 301 301 300 299 299 299 299 298 298 300 303 305 306 308 310 313 316 319 322 325 327 328 328 328 329 329 329 329 329 328 328 328 328 328 328 328 327 328 328 327 327 327 328
304 304 303 303 303 304 304 304 303 303 303 303 302 301 301 300 300 300 300 300 300 300 299 298 298 298 298 299 298 299 300 302 303 305 307 310 313 315 319 322 325 327 328 328 328 329 329 329 329 328 329 329 329 328 328 327 327 328 328 327 326 327 327
304 303 303 303 302 302 302 302 302 302 302 303 303 301 300 300 300 299 299 299 299 299 298 298 297 297 298 299 299 299 300 301 302 303 304 307 310 312 315 319 323 326 327 328 328 328 329 329 329 329 329 330 329 328 328 328 327 327 328 327 326 326 327
304 304 303 303 302 302 301 301 301 301 302 302 302 301 300 300 300 299 299 299 299 298 298 297 296 297 297 298 299 298 299 300 301 302 304 306 308 310 313 315 319 324 326 328 328 328 328 329 329 328 329 330 330 329 328 328 327 327 327 327 326 325 326
303 303 303 303 302 302 301 300 300 301 301 301 301 301 300 299 299 299 299 299 298 298 297 296 296 296 297 298 298 298 299 299 300 302 304 306 308 309 311 312 315 320 324 327 328 328 328 328 328 328 328 329 330 329 328 327 327 327 327 327 326 325 326
302 302 303 303 303 302 301 300 300 300 300 300 300 300 299 299 299 299 298 298 298 298 297 296 296 296 296 297 298 298 298 299 300 301 303 305 307 308 310 311 313 317 321 324 326 327 328 328 328 327 328 328 330 330 329 327 327 327 327 327 325 325 325
301 301 301 302 303 302 301 300 300 300 300 300 299 299 298 298 298 298 298 298 297 297 296 296 296 296 297 297 297 298 298 299 300 301 302 303 305 307 308 310 312 315 318 321 323 325 327 327 328 328 328 328 330 331 330 328 327 326 326 326 325 325 325
300 300 300 301 302 302 301 300 299 300 300 299 299 298 298 297 297 297 297 297 297 297 296 296 296 296 297 298 297 297 297 298 299 300 301 301 303 304 305 308 310 313 315 318 320 323 325 326 327 327 328 328 328 330 331 329 327 326 326 326 325 325 324
301 300 300 300 301 301 301 299 299 299 299 299 298 298 298 297 297 297 296 296 296 296 296 296 296 296 297 298 298 297 297 297 298 299 299 300 301 301 302 304 307 310 312 314 317 320 324 326 327 327 327 327 327 328 330 330 328 327 325 325 325 325 324
300 300 300 300 300 300 299 299 299 299 299 298 298 298 298 297 297 297 296 296 296 295 295 295 295 296 297 297 298 297 296 297 297 298 299 299 299 300 300 300 302 305 308 311 313 315 318 322 326 326 327 326 326 327 328 329 329 328 326 326 325 325 325
299 300 300 300 299 299 299 299 299 299 299 298 298 298 297 297 297 297 296 296 296 295 295 295 295 296 296 297 297 297 296 296 296 297 298 298 298 298 299 299 300 301 303 306 309 309 311 314 319 323 326 326 326 327 327 328 328 327 326 326 325 325 325
299 299 299 300 300 299 299 299 299 299 299 298 298 297 297 297 297 296 296 296 296 295 295 295 295 295 296 296 297 296 295 296 296 296 297 297 297 298 297 298 299 299 299 302 304 305 306 309 313 317 322 326 326 326 327 327 328 328 327 327 325 325 326
299 299 299 299 300 300 299 299 299 299 299 298 298 297 297 297 297 296 296 296 295 295 295 295 295 295 295 296 296 295 295 295 295 295 296 297 297 297 297 297 298 298 298 299 302 304 305 308 311 313 317 323 325 325 325 326 327 327 328 327 327 326 326
300 299 298 299 299 299 299 299 299 299 299 299 299 298 297 297 296 296 296 295 295 295 295 295 295 295 295 295 295 295 294 294 294 294 295 296 297 296 296 297 297 297 297 298 301 303 304 306 309 311 314 319 323 324 323 324 326 327 327 327 327 327 326
300 299 298 298 298 298 299 299 299 299 299 299 299 299 298 296 295 295 295 295 295 295 295 295 295 295 295 295 295 294 294 294 293 293 294 295 296 296 296 296 296 296 296 298 300 302 303 304 307 310 313 316 321 323 322 323 324 325 325 326 325 326 325
300 299 298 298 298 298 298 298 298 299 298 298 299 299 298 296 295 295 295 295 295 295 295 295 295 295 295 295 295 294 294 293 293 293 293 294 295 295 295 296 296 295 296 298 300 301 303 304 306 309 311 315 319 322 322 323 324 324 324 324 323 325 325
300 299 298 297 297 297 297 297 297 297 297 297 298 298 298 296 295 295 295 295 295 295 295 295 295 295 295 295 295 295 294 293 293 293 293 293 294 294 294 295 295 296 296 297 299 300 302 304 307 309 311 315 319 322 322 323 323 323 323 322 322 323 324
300 299 298 297 297 297 297 297 297 297 297 297 297 297 297 296 295 295 295 294 295 295 295 295 295 295 295 295 295 295 295 294 293 292 292 293 293 293 294 294 294 295 296 297 298 300 301 304 307 309 312 315 318 321 322 322 321 320 320 320 320 320 321
299 299 298 298 298 298 297 297 297 297 297 297 297 297 297 296 296 295 295 295 294 294 294 294 295 295 295 295 295 295 295 294 294 293 292 292 292 292 293 293 294 294 295 296 298 299 300 302 305 308 312 316 318 321 321 320 318 317 316 316 316 315 315
300 299 298 298 298 298 298 298 297 297 297 297 297 296 296 295 295 295 295 295 295 294 294 294 295 295 295 295 295 295 295 294 294 294 293 292 292 292 292 293 294 294 295 296 297 298 299 301 301 304 310 315 317 319 319 316 315 314 312 312 311 310 310
300 299 299 299 298 298 298 298 297 297 297 297 297 296 295 295 294 294 294 294 294 294 294 294 295 295 295 295 295 295 295 294 294 294 294 293 292 292 292 292 294 295 295 295 296 297 298 299 299 301 305 308 310 312 313 311 311 310 309 308 307 306 306

ECMWFFLT1_925_thetae_087.txt.gz
Theta_e
327 326 326 327 327 328 329 329 329 329 329 329 330 330 330 330 330 331 331 331 331 331 331 330 330 330 330 330 331 331 331 331 331 330 330 330 330 330 330 330 330 330 329 328 328 329 331 333 332 330 330 330 331 330 331 332 332 332 332 330 330 329 328
325 324 324 325 326 326 326 326 326 327 327 327 327 328 328 329 329 329 329 330 330 330 330 330 329 329 329 330 330 331 331 332 332 331 330 330 330 330 330 329 329 330 329 328 328 328 328 330 332 332 331 330 331 331 331 332 332 332 331 331 330 329 329
323 323 323 324 324 324 324 323 323 324 324 325 325 326 326 327 328 328 328 329 329 329 329 329 329 329 329 329 329 330 330 331 332 332 331 331 331 330 330 330 329 329 329 328 328 328 327 328 330 331 331 331 331 331 331 332 332 332 331 331 330 330 329
321 321 322 321 321 320 320 320 321 321 321 322 323 324 324 325 326 326 327 327 327 328 328 328 328 328 329 329 329 329 329 330 330 331 331 332 331 331 331 330 330 330 329 329 328 328 327 327 328 329 329 330 331 330 330 331 332 332 331 331 331 330 330
318 319 319 319 318 317 317 317 318 318 318 319 320 321 322 322 322 323 324 323 324 325 325 326 327 327 327 328 328 329 329 329 328 329 330 330 330 331 332 331 330 330 330 329 328 328 328 327 328 329 328 329 331 330 330 331 331 331 331 330 331 330 330
317 317 317 317 315 314 314 314 314 314 314 315 316 317 317 317 318 319 320 319 320 321 322 322 324 325 325 326 327 327 328 327 327 327 328 328 329 330 330 330 330 330 330 330 329 328 328 327 327 329 328 328 329 330 330 330 330 330 330 330 331 330 330
315 315 314 314 313 312 312 311 311 312 312 312 313 313 313 313 314 315 315 317 317 317 317 319 321 322 323 324 324 324 325 325 325 326 326 327 328 328 328 329 330 330 329 329 328 328 328 328 327 328 328 328 328 328 328 329 330 330 330 330 330 331 331
313 312 312 312 311 311 310 310 309 309 310 310 310 310 310 311 311 312 313 314 314 313 314 315 317 319 320 320 321 321 322 322 322 324 325 326 327 327 327 328 328 329 329 329 329 329 328 328 327 328 328 328 328 328 328 328 329 330 330 330 330 331 331
311 311 310 310 309 309 308 308 307 307 307 307 308 308 308 308 309 309 310 311 311 309 311 312 313 315 316 316 317 318 319 319 320 321 323 324 325 327 327 327 328 328 329 329 329 329 328 328 327 327 327 328 329 329 329 328 328 329 330 330 330 331 331
309 309 308 308 307 307 306 306 305 305 305 305 305 305 306 306 306 307 308 308 307 307 309 310 311 312 313 313 313 314 315 315 317 319 320 322 323 324 326 327 327 328 328 328 329 328 328 328 328 327 327 327 328 329 330 330 329 329 329 330 330 330 331
308 307 307 306 306 305 305 304 304 304 303 303 303 303 303 304 304 305 306 305 305 306 307 307 308 309 310 310 311 312 312 313 314 316 318 319 320 322 323 325 326 327 328 328 329 328 328 328 328 328 328 328 327 328 329 330 330 328 328 329 330 330 331
307 306 306 305 305 304 304 304 303 303 302 302 302 302 302 302 302 302 303 304 303 303 303 303 303 304 305 306 307 308 309 310 311 313 315 316 318 318 320 322 324 326 327 328 329 329 328 328 328 328 328 328 328 327 327 328 329 329 328 328 329 330 330
306 306 306 305 304 303 303 303 303 302 302 301 301 301 301 301 301 301 302 302 301 300 300 300 300 300 301 301 302 303 304 304 306 308 311 313 315 315 316 318 321 323 325 328 328 329 329 328 328 328 328 328 328 328 327 327 327 328 327 327 329 329 330
305 305 305 304 304 303 303 303 303 302 301 301 300 300 300 300 300 300 300 300 299 299 298 298 298 298 299 299 299 300 301 301 301 302 304 308 311 312 312 314 317 320 323 326 328 329 329 329 329 328 328 328 328 328 327 327 326 327 326 326 327 328 329
305 305 305 304 304 303 303 302 302 302 301 300 300 300 299 299 300 299 299 299 298 298 298 298 298 298 298 298 298 299 300 300 300 300 301 303 306 307 307 309 313 317 320 322 326 328 328 328 328 329 329 329 328 328 328 327 326 326 326 326 326 327 328
304 304 304 304 303 303 302 302 302 302 301 300 300 300 299 299 299 299 299 299 298 297 297 297 297 297 297 297 297 298 298 298 299 300 300 301 302 303 303 304 307 311 314 316 321 326 327 328 328 329 329 329 328 328 328 327 326 326 326 326 326 326 327
302 301 301 302 302 302 302 302 302 302 300 300 299 300 299 299 299 299 298 298 297 297 296 296 297 297 297 297 297 297 297 298 299 300 300 301 301 302 302 303 305 308 309 311 316 322 326 327 328 328 329 329 329 328 328 328 327 326 326 326 326 326 327
301 301 300 300 301 301 302 302 301 301 300 299 299 299 299 299 298 298 298 297 297 296 296 296 296 297 297 297 297 297 297 298 298 299 300 301 301 302 302 303 305 307 308 309 312 317 322 326 327 328 329 329 328 328 328 328 327 327 326 326 327 327 327
302 301 300 300 300 300 300 300 300 300 299 298 298 298 298 297 297 297 297 297 297 296 296 296 296 296 297 297 298 297 297 297 298 299 300 301 301 302 303 304 305 306 308 309 311 315 318 321 323 326 328 329 329 328 328 327 327 327 327 327 327 327 326
302 301 300 300 300 300 299 299 298 298 297 297 297 296 296 296 296 296 296 296 296 296 295 295 295 296 296 297 297 297 297 297 297 298 299 300 301 302 303 303 304 306 308 309 311 312 314 315 317 321 325 327 329 328 328 327 327 327 327 327 327 327 326
302 301 300 299 300 299 299 298 298 297 297 296 296 296 296 296 296 295 295 295 295 295 295 295 295 295 296 296 297 297 296 297 297 297 298 300 300 301 302 302 302 304 306 307 308 308 309 310 311 314 319 324 327 329 328 327 327 327 327 326 327 326 326
302 301 299 299 299 299 298 298 297 297 297 296 296 296 296 296 295 295 295 295 295 295 295 295 295 295 295 295 296 296 296 296 296 297 298 299 299 299 300 300 301 302 303 304 305 306 307 309 309 309 313 318 322 327 329 328 327 326 326 326 326 326 326
301 300 299 298 298 298 297 297 297 296 296 296 296 296 296 295 295 295 295 295 295 295 295 295 295 295 295 295 295 295 295 295 295 296 297 298 298 298 299 299 299 300 301 302 302 303 305 308 309 309 311 312 315 320 325 328 327 326 326 326 326 326 325
299 298 298 298 298 298 297 297 296 296 296 296 296 296 295 295 295 295 295 295 295 295 295 295 295 295 295 295 295 295 295 295 295 295 296 297 297 298 298 298 298 299 300 301 301 301 302 304 307 309 311 313 313 315 319 324 327 327 326 325 325 326 325
298 298 298 298 298 298 297 297 297 296 296 296 296 295 295 295 295 294 294 294 294 295 295 295 295 295 295 295 295 295 295 295 294 294 295 295 297 297 297 297 298 298 299 300 300 299 299 301 305 307 309 312 314 315 317 320 324 326 326 326 325 325 325
299 299 298 298 298 298 298 298 298 297 297 296 295 295 295 294 294 294 294 294 294 294 294 295 295 295 295 295 295 294 294 294 294 294 294 294 296 296 296 296 297 297 298 298 298 297 297 298 301 305 307 309 312 315 317 319 321 324 325 325 325 325 325
299 299 299 299 299 298 298 298 298 298 297 296 295 294 294 294 294 294 294 294 294 294 294 294 294 294 295 295 294 294 294 294 294 294 294 294 294 295 296 296 296 297 297 297 296 296 295 295 297 301 304 307 309 312 315 317 320 322 323 324 325 325 326
299 299 299 299 299 299 299 298 298 299 298 296 295 294 294 294 294 294 294 294 294 294 294 294 295 295 295 295 294 294 294 294 294 294 294 294 294 294 295 295 295 296 296 295 295 295 294 295 295 297 300 303 306 308 311 314 318 320 322 324 324 325 325
298 299 299 299 299 298 298 298 298 298 298 296 295 295 295 294 294 294 294 294 294 294 294 294 294 295 295 295 294 294 294 294 294 294 294 293 293 294 294 295 295 295 295 294 294 294 294 294 295 296 297 299 302 305 308 312 316 318 320 322 324 324 325
297 297 298 298 298 297 297 297 297 297 297 296 295 295 295 294 294 294 294 293 294 293 293 294 294 295 295 295 294 294 294 293 294 293 293 293 293 293 293 294 295 294 294 293 294 294 295 294 294 295 296 298 300 302 306 311 315 317 320 321 322 324 325
297 297 297 297 297 297 296 296 297 296 296 295 294 294 294 294 294 294 294 294 294 294 294 294 294 294 295 295 294 294 293 293 293 293 293 293 293 292 293 294 294 294 293 293 293 294 295 294 294 295 295 297 298 300 304 310 313 316 319 321 322 324 324
297 297 297 297 296 296 296 296 296 296 295 294 294 294 294 294 294 294 294 294 294 294 293 293 294 294 295 294 294 294 293 293 293 293 293 292 292 292 292 293 294 293 293 293 294 294 294 294 294 294 295 297 298 300 304 308 310 314 319 320 321 323 323
297 297 297 297 296 296 296 296 296 295 294 294 294 294 294 294 294 294 294 294 294 293 293 293 293 294 295 294 294 294 293 293 292 292 292 292 292 292 291 292 292 293 293 293 294 294 294 294 294 294 295 296 297 299 303 306 308 313 318 320 321 322 322
297 297 297 297 297 297 296 296 296 295 295 295 294 294 294 294 294 294 294 294 293 293 293 293 293 294 295 294 294 294 294 293 292 292 292 292 291 291 291 291 292 292 292 293 294 294 294 294 294 294 295 296 298 301 305 306 307 313 318 320 320 321 321
297 297 297 297 297 297 297 297 296 296 295 295 294 294 294 294 294 294 293 293 293 293 292 292 293 294 294 294 294 294 294 293 293 292 292 291 291 291 291 291 291 292 292 293 294 295 294 294 294 294 295 297 300 304 308 309 308 312 317 318 318 317 317
298 298 298 298 298 297 297 297 296 296 295 295 295 294 294 294 294 294 293 293 293 292 292 292 293 294 294 294 294 294 294 294 293 292 292 291 291 291 291 291 291 292 292 292 293 294 294 293 293 294 295 297 300 303 306 308 309 312 314 315 314 313 313
299 298 298 298 298 298 297 297 297 296 296 295 295 294 294 294 294 294 293 293 292 292 292 292 293 294 294 294 294 294 294 294 293 292 292 291 291 291 291 291 292 292 292 292 292 293 294 293 293 293 294 296 298 300 301 303 305 308 309 309 308 308 308

ECMWFFLT1_925_thetae_090.txt.gz
Theta_e
324 324 324 324 324 324 325 325 325 325 325 326 326 326 326 326 327 328 328 328 328 328 328 328 328 328 328 328 328 328 328 328 329 329 331 331 330 330 330 330 330 330 330 330 330 330 332 331 330 329 330 329 329 329 329 330 331 331 331 331 331 330 329
322 322 322 323 322 323 323 323 323 323 323 323 323 324 323 324 325 325 326 326 326 326 325 326 326 327 327 328 328 328 328 328 328 328 329 329 329 330 330 330 330 330 329 330 330 330 330 331 331 330 330 330 329 329 329 329 330 331 331 332 331 330 330
321 321 321 321 320 321 321 321 321 321 321 320 320 321 321 321 322 323 323 324 323 322 323 323 324 324 324 326 327 327 328 328 328 328 328 328 329 329 330 330 330 330 330 330 329 329 329 329 330 330 329 329 329 329 328 329 329 330 330 331 331 331 331
319 319 319 318 317 317 317 318 318 318 318 317 317 317 318 319 319 320 320 321 320 320 320 321 321 321 321 323 324 324 325 325 326 326 327 327 328 328 329 329 329 330 330 330 330 330 329 328 329 329 328 328 329 329 329 329 329 329 330 330 330 330 331
316 316 315 314 313 313 313 314 314 314 314 314 314 314 314 315 316 316 317 318 317 317 318 318 318 318 319 320 321 321 321 322 322 323 323 324 325 326 327 327 328 328 328 329 329 330 329 329 329 329 328 327 328 329 329 330 329 329 330 330 330 330 331
314 313 312 311 310 310 310 310 310 310 311 311 310 310 311 311 312 313 314 313 313 313 314 315 315 316 317 317 318 318 318 318 319 319 320 321 322 323 325 326 326 327 327 328 328 329 329 329 328 328 328 327 327 328 328 329 330 329 329 330 330 330 331
311 310 309 309 308 308 307 307 307 307 307 307 306 307 307 308 309 310 310 310 309 310 311 312 313 314 314 314 314 315 316 316 316 317 318 319 320 321 322 323 324 325 325 326 327 328 328 328 328 328 328 327 327 327 328 328 329 329 330 330 330 330 330
309 308 307 307 306 306 306 305 305 305 305 304 304 304 305 306 307 307 307 307 307 307 307 308 309 309 310 311 311 312 313 313 314 315 316 316 317 318 319 320 321 323 324 325 326 327 328 328 328 328 328 328 328 328 328 328 328 328 329 329 329 329 330
307 307 306 305 305 304 304 303 303 303 303 303 303 303 304 304 305 305 304 303 303 304 304 304 304 305 306 306 307 308 309 310 311 312 312 313 313 314 315 316 317 319 321 323 324 326 327 328 329 328 327 327 329 329 328 328 328 328 328 328 329 329 329
306 305 304 304 304 303 303 302 301 301 302 302 302 302 302 302 302 302 301 300 301 301 302 302 302 303 303 304 304 304 304 305 306 307 308 308 309 310 311 312 313 315 317 319 321 324 326 327 328 328 328 327 327 329 329 329 329 328 328 328 329 329 329
304 303 303 303 303 302 301 301 300 300 300 300 300 300 300 300 300 299 299 299 299 299 300 300 300 301 301 302 302 302 302 301 302 303 304 304 305 306 307 308 309 312 314 315 317 320 324 326 328 328 328 328 327 327 328 328 329 328 327 328 328 329 329
304 303 303 303 302 302 301 300 300 300 300 299 299 299 299 299 299 298 298 298 298 298 298 298 299 299 300 300 300 300 300 299 300 301 302 302 303 303 303 305 306 308 310 311 313 316 320 323 326 328 328 328 328 327 327 327 328 328 327 327 328 328 329
304 303 303 302 302 302 301 300 300 300 299 299 299 299 298 298 298 297 297 297 297 297 297 297 297 298 298 298 298 297 297 297 298 299 300 302 302 302 302 303 303 305 306 307 310 313 315 319 323 326 328 328 328 328 327 327 328 328 327 327 328 328 328
304 303 302 302 302 302 301 300 300 300 299 299 299 298 298 297 297 297 296 296 296 296 296 296 296 297 297 297 297 297 296 297 297 298 299 300 301 302 302 302 303 304 305 305 308 310 312 315 318 322 326 328 328 328 327 327 328 328 327 327 327 327 328
303 302 302 302 302 301 300 299 299 299 298 298 297 297 296 296 296 296 296 296 295 295 295 295 296 296 296 297 297 297 296 296 297 297 298 299 300 301 302 302 303 304 304 305 306 308 310 312 314 318 321 324 326 328 328 328 327 327 327 326 326 326 327
302 302 302 302 301 300 299 298 298 297 297 296 296 295 295 295 295 295 295 295 295 295 295 295 295 295 295 295 296 296 296 296 296 297 298 299 300 301 302 302 303 303 304 305 306 308 310 311 313 315 316 317 320 323 326 328 328 327 327 327 326 326 326
300 301 301 301 300 299 298 297 296 296 295 295 295 295 295 295 295 295 295 295 295 295 295 295 295 295 295 295 295 295 295 295 295 296 297 298 299 300 301 301 302 303 303 304 306 307 309 309 309 310 311 312 314 317 320 325 328 328 327 327 327 326 326
300 300 299 299 298 297 296 296 296 295 295 295 295 295 294 295 295 295 295 295 295 295 295 294 294 295 295 295 295 295 295 295 295 295 296 297 299 299 300 300 301 301 302 302 304 305 306 305 305 305 306 307 309 311 314 318 323 328 328 327 327 327 326
299 299 298 297 297 296 296 296 296 295 295 294 294 294 294 294 294 294 294 294 294 294 294 294 294 294 295 295 295 295 295 295 295 295 295 296 297 298 298 299 299 299 300 301 303 303 303 303 303 303 303 304 305 306 308 311 316 323 328 328 327 327 326
299 298 298 297 296 296 296 296 295 295 294 294 294 293 293 294 294 294 294 294 294 294 294 294 294 294 294 294 295 295 295 295 295 295 295 295 296 297 298 298 298 298 299 301 301 301 301 301 301 301 301 301 301 301 303 306 310 316 323 327 327 327 326
298 298 297 296 296 296 296 295 295 294 294 293 293 293 293 293 293 293 293 294 294 294 294 294 294 294 294 294 294 294 294 294 294 295 294 295 295 296 297 297 297 298 299 300 300 300 300 300 299 299 299 299 299 299 300 303 306 310 317 324 327 327 326
298 297 296 296 296 296 296 295 295 294 294 293 293 293 293 293 293 293 293 293 293 294 294 294 294 294 294 294 294 294 294 294 294 294 294 294 294 295 296 296 297 297 298 298 298 298 298 298 297 297 297 297 297 298 298 300 302 306 312 319 325 327 326
297 296 296 296 296 296 296 295 295 294 294 293 293 293 293 292 293 293 293 293 293 293 294 294 294 294 294 294 293 294 294 294 294 294 294 294 294 294 295 296 296 297 297 297 298 298 297 296 296 296 295 295 295 296 297 298 300 303 307 313 320 325 326
297 297 297 297 296 296 296 296 295 295 294 294 294 293 293 293 293 293 293 293 293 293 293 294 294 294 294 293 293 293 293 293 294 294 294 293 293 294 294 295 296 296 296 297 297 297 296 295 295 295 296 296 296 296 296 297 299 301 304 308 315 321 325
297 297 297 297 297 296 296 296 295 294 294 294 294 293 293 293 293 293 293 293 293 293 293 294 294 294 294 293 293 293 293 293 293 293 293 293 293 293 294 294 295 295 296 296 297 296 295 295 294 295 297 298 298 298 297 297 298 299 301 304 309 315 322
298 298 297 297 297 297 296 295 295 294 294 294 294 293 293 293 293 293 293 293 292 292 293 294 294 294 293 293 293 293 293 293 293 293 293 293 293 293 293 293 294 295 295 296 295 295 294 294 293 294 296 297 298 299 298 298 298 299 300 302 305 309 315
298 298 298 298 298 297 296 295 294 294 294 294 294 293 293 293 293 293 293 292 292 292 293 294 294 293 293 293 293 293 293 293 293 293 293 293 293 293 293 293 293 294 294 294 294 294 293 293 293 293 294 295 296 298 298 299 299 299 300 302 304 307 312
298 298 298 297 297 297 296 295 294 294 294 293 293 293 293 293 293 293 292 292 292 292 293 294 293 293 293 293 293 293 293 293 293 293 293 293 293 292 292 292 293 293 293 293 293 293 292 292 292 293 293 294 295 296 297 298 299 299 300 301 303 306 310
297 297 297 297 296 296 295 294 294 294 293 293 293 293 293 293 293 292 292 292 292 292 293 294 293 293 293 294 293 293 293 293 292 292 293 293 292 292 291 292 293 293 292 292 292 292 292 292 292 292 293 294 294 295 296 298 299 299 299 300 301 303 306
296 296 296 296 296 295 295 294 294 294 294 294 293 293 293 293 292 292 292 292 292 292 293 294 293 293 293 294 294 293 293 292 292 292 292 292 292 291 291 292 292 292 292 292 292 292 292 292 292 292 293 293 294 294 295 297 297 298 299 299 300 303 306
296 296 296 296 295 295 294 294 294 294 294 294 293 293 293 293 292 292 292 292 292 292 293 294 293 293 293 294 294 293 293 292 292 292 292 292 291 291 291 291 292 292 291 291 292 292 292 292 292 292 293 293 294 294 295 295 296 297 300 301 301 304 307
296 296 296 296 295 295 295 295 294 294 294 294 294 294 293 293 293 292 292 292 292 293 293 293 293 293 293 294 293 293 292 292 291 291 291 291 291 291 290 291 291 291 291 291 292 292 292 292 291 292 292 293 293 293 294 294 295 296 299 302 303 304 307
296 296 296 296 296 295 295 295 295 294 294 294 294 294 294 294 293 292 292 292 292 293 293 293 293 293 293 293 293 292 292 291 291 291 291 290 290 290 290 291 291 291 291 292 292 292 292 292 291 291 292 292 292 292 293 294 295 297 299 302 303 304 306
296 296 296 296 296 296 295 295 295 295 295 294 294 294 294 294 293 293 292 292 292 292 292 292 293 293 293 293 293 292 292 291 291 291 291 290 290 290 290 290 291 291 291 292 292 292 292 292 291 291 291 291 291 292 293 295 296 298 301 303 303 305 308
297 297 297 296 296 296 296 296 295 295 295 295 294 294 294 294 294 293 293 292 292 292 292 292 293 293 293 292 292 292 292 292 291 291 291 290 290 290 290 291 291 291 291 292 292 292 292 292 291 291 291 291 292 292 294 295 296 298 301 304 305 307 309
297 297 297 297 296 296 296 296 296 295 295 295 294 294 294 294 294 293 293 292 292 292 292 292 293 293 293 292 292 292 292 292 292 291 291 291 290 290 291 291 291 291 291 291 292 292 292 292 291 291 291 291 292 292 293 294 296 297 298 301 302 304 305
298 298 298 297 296 296 296 296 296 296 295 295 294 294 294 294 294 293 293 292 292 291 292 292 293 294 293 292 292 292 293 292 292 292 291 291 291 291 291 291 291 291 291 291 291 292 292 292 291 291 291 291 292 292 292 293 295 296 297 298 299 300 300

ECMWFFLT1_925_thetae_093.txt.gz
Theta_e
324 323 322 321 321 321 322 321 320 320 320 320 321 322 322 322 322 321 321 322 323 322 323 323 322 322 323 324 324 324 324 326 327 328 328 328 328 328 328 328 329 329 330 331 330 330 330 330 331 331 331 331 330 330 331 331 330 330 330 330 330 330 330
322 320 319 319 319 319 319 319 318 318 318 317 318 317 317 317 317 317 317 318 319 319 319 320 319 320 321 321 321 321 321 323 323 324 325 325 326 326 326 327 328 329 330 330 330 331 331 331 331 330 330 331 331 331 330 330 330 330 330 329 330 330 330
319 318 317 317 316 316 316 316 316 315 315 314 314 314 314 313 314 314 313 314 315 315 316 317 317 317 318 318 319 319 319 320 320 321 321 322 323 323 324 325 326 328 328 329 330 330 330 331 331 330 330 330 330 331 331 330 330 330 329 329 329 329 329
316 316 315 314 314 314 313 313 313 312 312 311 310 311 311 311 311 311 311 312 312 313 313 314 315 315 315 315 316 316 317 317 317 318 319 319 320 320 321 323 324 324 326 327 329 329 329 329 330 330 330 329 330 330 331 330 329 329 329 328 329 329 329
313 313 312 311 311 311 311 310 310 310 309 308 308 308 308 308 308 308 308 309 309 309 309 310 310 311 311 312 312 313 313 314 314 315 315 316 316 317 318 320 321 321 323 325 326 327 327 328 328 329 329 329 329 330 330 330 329 329 328 328 329 329 328
311 310 309 309 309 308 308 308 308 308 307 307 307 307 307 306 305 304 304 304 304 304 305 305 306 307 308 308 308 309 309 309 310 310 310 311 311 313 315 316 318 319 321 322 323 324 325 326 327 328 328 329 329 329 330 330 330 329 329 329 329 329 328
308 308 307 307 306 307 306 306 306 306 306 306 305 305 306 304 302 302 302 302 302 302 303 303 304 304 305 305 305 305 306 306 306 306 306 307 307 309 310 311 313 315 317 319 321 322 323 324 326 327 328 329 330 330 329 330 330 330 330 330 329 329 329
307 306 306 305 305 305 305 305 305 305 305 304 304 304 303 302 300 300 300 301 301 301 301 302 302 303 304 304 303 303 304 304 304 304 305 305 305 305 306 307 309 310 313 315 317 319 320 321 322 324 326 328 329 329 329 330 330 330 330 330 330 330 330
306 305 305 305 304 304 304 303 304 303 303 303 303 301 300 299 299 299 299 299 299 299 300 300 301 302 302 302 301 301 302 302 303 303 304 304 305 305 305 305 306 307 309 311 312 315 316 317 319 321 323 325 327 329 329 331 330 329 329 330 330 330 329
305 305 305 304 304 303 303 303 303 302 302 302 301 300 299 298 298 298 298 298 298 298 298 299 299 300 301 300 300 300 300 301 302 303 303 304 304 304 305 305 305 306 307 308 309 310 312 314 316 317 319 321 324 327 329 330 330 329 329 330 329 328 328
305 304 304 304 303 303 303 302 302 302 301 301 300 299 298 298 297 297 296 296 296 297 297 297 298 298 299 299 299 300 300 300 301 302 302 303 303 304 304 304 305 305 306 307 307 308 309 311 313 314 316 317 320 324 326 328 330 330 329 329 328 327 327
304 304 303 303 303 302 302 302 301 300 300 299 299 298 298 298 298 297 296 296 296 296 296 296 297 297 297 298 299 299 299 299 300 301 301 302 302 303 304 304 304 305 306 306 306 307 308 309 311 313 314 316 318 320 322 324 327 329 329 329 329 327 327
304 303 303 302 302 301 301 300 300 299 299 298 297 297 297 298 297 297 297 296 296 296 296 296 296 296 297 297 298 298 298 298 299 300 300 301 301 302 303 303 304 304 305 305 306 307 308 309 311 312 312 313 314 315 317 319 322 325 328 329 329 327 326
303 302 302 301 301 300 299 298 298 297 297 297 297 297 297 297 297 297 297 296 296 296 296 296 296 296 297 297 298 298 298 298 299 299 299 300 301 301 302 302 303 303 303 304 305 306 307 308 309 309 309 309 310 310 311 314 316 319 322 325 328 328 327
301 300 300 299 299 298 297 296 296 296 296 296 296 296 296 296 296 296 296 296 296 296 296 296 296 296 296 297 297 297 297 298 298 298 299 299 300 300 301 301 302 302 302 302 303 304 305 306 306 306 306 307 307 308 308 310 312 314 316 319 322 326 328
300 299 298 298 297 297 296 295 294 295 295 296 295 296 295 295 295 296 296 296 296 296 296 296 296 296 296 296 297 297 297 298 298 298 298 299 299 299 300 300 300 300 300 301 302 303 304 304 304 304 304 305 305 305 306 306 307 309 311 313 316 320 325
299 298 298 297 296 295 295 295 295 295 295 295 295 296 296 295 296 296 296 296 296 296 296 296 296 296 296 296 297 297 297 297 298 298 298 298 298 299 299 299 300 299 299 300 301 302 302 302 302 302 302 303 303 303 303 303 304 305 308 310 312 315 319
298 298 298 297 295 295 295 295 295 295 295 295 295 296 296 296 296 296 296 296 296 296 296 296 296 296 295 296 296 297 297 297 297 297 298 298 298 298 298 299 299 299 299 299 300 300 300 300 300 300 300 300 301 301 301 301 302 303 304 307 309 311 314
299 298 297 296 295 294 295 295 295 295 295 295 295 295 295 295 295 295 295 295 296 296 296 296 295 295 295 295 296 296 297 297 297 297 297 298 298 298 298 298 298 298 299 299 299 299 299 299 299 299 299 299 299 299 299 300 301 302 303 304 306 309 311
298 298 297 296 295 295 294 295 295 295 295 295 295 295 295 295 295 295 295 295 295 296 296 295 295 295 295 295 296 296 296 296 297 297 297 297 297 297 297 297 298 298 298 299 299 298 298 298 298 298 298 298 298 298 298 299 300 301 302 303 304 307 310
298 297 296 296 295 295 295 294 295 295 295 294 295 295 295 295 295 295 295 295 295 295 295 295 294 294 294 295 295 296 296 296 296 296 297 297 297 297 297 297 297 297 298 298 298 297 297 297 297 297 297 297 297 297 297 298 299 300 301 302 304 305 308
297 297 296 296 295 295 295 295 295 294 294 295 295 295 294 294 294 295 295 295 295 295 295 294 294 293 294 294 295 296 296 296 296 296 296 296 296 296 296 296 296 297 297 297 297 297 297 296 296 296 296 296 296 296 296 297 298 299 300 301 303 304 306
298 297 296 296 295 295 295 295 295 295 295 295 294 294 294 294 294 294 295 295 295 295 294 294 293 293 293 293 294 295 296 296 296 296 296 296 296 296 296 296 296 296 296 296 296 296 296 295 294 294 294 295 295 295 295 296 297 298 299 301 302 303 305
298 297 296 296 296 296 296 295 295 295 295 294 294 294 294 294 294 294 294 295 295 295 294 293 293 293 293 293 293 294 295 295 296 296 296 296 296 296 295 295 295 295 295 295 296 295 295 294 293 294 295 295 295 294 295 295 296 297 298 299 300 302 303
298 297 296 296 296 296 296 295 295 295 294 294 294 294 294 294 294 294 294 295 295 295 294 293 293 293 293 293 293 294 295 296 296 296 296 295 295 295 295 295 295 295 295 295 295 294 294 293 293 293 294 295 296 295 295 295 296 296 297 298 299 300 301
298 297 296 296 296 296 295 295 295 294 294 294 294 294 294 294 294 294 294 294 294 295 294 293 293 293 293 293 293 294 295 295 295 295 295 295 295 294 294 294 294 294 294 294 294 294 293 293 292 293 293 294 295 296 296 295 295 296 296 297 298 299 300
298 297 295 295 296 296 295 295 294 294 294 293 293 294 294 294 293 293 294 294 294 294 293 293 293 292 292 293 293 294 295 295 295 295 295 295 294 294 294 294 294 294 294 294 294 293 292 292 292 293 293 294 295 295 295 296 296 296 297 297 298 298 299
297 296 295 296 296 295 295 294 294 294 294 294 294 294 294 293 293 293 293 294 294 294 293 292 292 292 292 292 293 294 295 295 295 295 295 294 294 294 293 293 294 293 293 294 293 292 292 292 292 293 293 294 294 294 295 295 296 296 296 296 297 297 298
297 296 296 296 296 295 295 294 294 294 294 294 294 294 293 293 293 293 293 293 294 294 293 292 292 292 292 292 293 294 294 294 294 294 294 294 294 294 293 293 293 293 293 293 293 292 291 291 292 293 293 293 293 294 294 294 294 294 294 294 295 295 296
296 296 296 296 296 295 295 294 294 294 294 294 294 294 294 293 293 293 293 293 293 294 293 292 291 292 292 292 293 294 294 294 294 294 294 294 293 293 293 293 293 293 293 293 292 292 291 292 292 293 292 293 293 293 293 293 293 293 293 293 294 295 296
296 296 296 296 295 295 295 295 294 294 294 294 294 294 294 294 293 292 292 293 293 293 293 292 291 291 292 292 293 293 294 294 294 293 293 293 293 293 293 293 293 293 292 292 292 292 291 292 292 292 292 292 292 292 292 292 292 292 293 294 295 296 297
296 296 296 295 295 295 295 294 294 294 294 294 294 294 294 294 293 292 292 292 293 293 293 293 291 291 292 292 293 293 293 293 293 293 293 293 293 293 293 293 293 292 292 292 292 292 292 292 292 292 292 292 291 291 291 291 291 292 293 294 295 297 299
296 296 296 295 295 295 295 294 294 294 294 294 295 294 294 294 294 293 292 292 292 293 293 292 291 292 292 293 292 293 293 293 293 293 293 293 293 293 293 293 293 292 292 292 292 292 292 292 292 292 292 291 291 291 291 291 292 292 293 293 295 297 299
296 296 296 295 295 295 295 295 295 294 295 295 295 294 294 294 294 293 292 292 292 292 292 292 292 292 292 293 292 292 293 293 293 293 294 293 293 293 293 293 293 292 291 291 292 292 292 292 292 292 292 291 291 291 291 291 292 292 292 293 295 297 299
296 296 296 296 296 296 295 295 295 295 295 295 295 295 294 294 294 294 294 293 293 292 292 292 292 292 292 292 292 293 293 292 292 293 294 293 293 293 293 293 292 291 291 291 292 292 292 292 292 292 292 291 291 291 291 291 291 291 292 292 293 295 297
296 296 296 296 296 296 296 296 295 295 295 295 296 296 295 295 295 295 294 294 293 293 292 292 292 292 292 292 292 292 292 292 292 292 293 294 293 293 293 292 292 291 291 291 292 292 292 292 292 292 292 292 292 291 291 291 291 291 291 292 292 294 295
297 297 296 296 296 296 296 296 296 296 295 296 296 296 296 296 296 295 295 294 294 293 293 293 292 292 292 292 292 292 292 293 292 292 293 293 293 292 292 291 291 291 291 291 292 292 292 292 292 292 292 292 292 291 291 291 291 291 291 292 292 293 293

ECMWFFLT1_925_thetae_096.txt.gz
Theta_e
329 328 327 326 325 325 324 324 322 320 319 319 319 319 319 319 319 319 319 320 320 320 319 319 319 319 320 321 322 322 322 323 323 324 324 325 326 327 328 328 328 329 330 331 331 331 331 331 331 330 330 330 331 332 333 333 334 334 334 334 334 333 333
327 326 325 324 324 323 323 322 321 320 319 318 317 317 317 316 316 316 316 317 317 317 317 317 318 318 318 319 319 319 319 320 321 321 322 322 323 324 324 324 325 326 327 328 329 330 331 331 330 329 329 330 330 330 331 333 334 334 334 334 334 333 333
325 324 323 323 323 322 321 320 319 318 317 316 314 314 314 313 313 313 313 313 313 313 313 314 314 314 315 316 316 317 317 318 318 319 319 319 320 321 321 321 322 323 324 325 326 327 329 330 329 329 329 329 329 330 330 331 333 333 334 335 335 334 333
323 323 322 321 321 320 319 318 317 316 314 313 312 312 311 311 310 310 310 310 310 310 310 311 311 311 312 313 314 314 314 314 315 315 315 316 316 317 317 319 319 320 321 322 323 324 326 327 327 328 328 328 328 329 330 330 331 332 333 334 334 335 333
320 320 319 318 317 317 316 315 315 314 312 312 311 310 310 309 309 308 308 308 308 308 308 309 309 309 310 312 312 312 312 312 311 311 312 312 312 313 313 314 315 317 318 319 320 321 322 323 324 326 327 327 327 328 329 329 330 331 332 334 334 335 335
317 317 316 315 315 314 314 313 313 312 311 310 310 309 309 308 308 307 307 307 307 307 307 307 308 307 309 310 310 310 311 310 310 310 310 310 310 310 311 311 312 314 315 316 317 318 319 320 321 323 323 323 325 326 327 328 330 330 331 333 334 335 335
314 314 313 313 313 312 312 312 311 310 310 309 309 308 307 307 307 306 306 306 306 306 305 306 307 306 307 309 309 309 309 309 309 309 309 309 309 309 309 310 310 311 312 312 313 314 316 317 319 320 320 320 322 323 325 326 328 329 330 331 332 333 334
312 312 311 311 311 310 310 310 309 309 309 308 308 307 306 306 306 305 305 305 305 305 304 305 306 306 307 308 308 308 308 308 308 309 309 308 308 308 308 308 309 309 310 310 311 312 312 313 315 316 318 319 320 320 321 323 326 328 329 329 330 331 333
311 311 310 309 309 309 309 309 308 308 308 307 307 306 305 305 305 305 304 304 304 304 304 304 305 305 306 307 307 307 306 307 308 308 308 308 307 307 307 308 308 309 309 309 309 310 311 311 312 314 315 317 318 319 320 321 323 325 327 329 329 331 331
309 309 309 308 308 308 308 308 307 307 307 306 306 305 305 304 304 304 304 304 303 303 303 304 304 304 305 305 306 305 305 306 307 307 307 307 307 307 307 307 307 308 308 308 309 309 309 310 311 313 314 315 316 318 318 318 319 320 323 326 327 330 331
308 308 308 308 308 307 307 307 306 306 306 305 305 305 304 304 304 303 303 303 303 303 302 303 303 304 304 305 305 304 304 305 306 306 306 306 306 306 307 307 307 307 307 307 308 308 309 309 310 311 312 312 313 314 315 316 315 316 319 321 323 325 325
308 307 307 307 307 306 306 306 306 305 305 304 304 304 303 303 303 303 303 303 302 302 302 302 303 303 303 304 304 304 304 304 304 305 305 305 305 306 306 306 306 306 306 306 307 307 307 308 308 308 309 309 310 311 312 313 314 314 315 317 318 319 319
307 307 307 306 306 305 305 305 304 304 303 303 303 303 303 303 302 302 302 302 302 302 302 302 302 303 303 303 303 303 303 304 304 304 304 305 305 305 305 305 305 305 305 304 305 305 306 306 306 306 307 307 308 309 310 311 311 311 312 313 314 315 316
306 306 305 305 304 304 304 303 303 303 302 302 302 302 302 302 302 302 302 302 302 301 301 302 302 302 302 303 303 303 303 303 303 304 304 304 304 304 305 305 305 304 304 303 303 304 305 305 305 305 305 306 306 307 307 308 309 309 310 310 310 311 313
305 305 304 304 303 303 303 302 302 302 302 302 301 301 301 301 301 301 301 301 302 301 301 301 301 301 302 302 302 303 303 303 303 303 303 303 303 304 304 304 304 303 303 302 302 303 304 303 303 303 303 304 304 305 305 306 306 307 308 308 309 310 311
304 304 304 303 302 302 302 302 301 302 302 301 301 301 301 301 301 301 301 301 301 301 301 301 301 301 301 301 302 302 302 302 303 303 303 303 303 303 303 303 303 302 302 302 302 302 302 302 302 302 302 302 302 303 303 303 304 305 306 306 307 309 310
303 303 303 303 302 302 302 301 301 301 301 301 301 301 301 300 300 301 301 301 301 300 300 300 300 300 301 301 301 301 302 302 302 302 302 302 302 302 302 302 302 301 301 301 301 301 301 301 301 301 301 301 301 301 301 302 302 303 304 305 306 307 308
303 303 302 302 302 302 301 301 301 301 300 300 300 300 300 300 300 300 301 301 300 300 300 299 299 299 300 300 301 301 301 301 301 302 302 302 302 302 301 301 301 301 300 300 300 300 300 300 300 300 300 300 300 300 300 300 301 302 302 304 304 305 306
303 302 302 302 301 301 301 301 300 300 300 300 300 300 300 300 300 300 300 300 300 299 299 298 298 298 299 300 300 301 301 301 301 301 301 301 301 301 301 301 300 300 300 300 299 299 299 299 299 299 299 299 299 299 299 300 300 301 301 302 303 304 305
302 302 301 301 301 300 300 300 300 300 300 300 300 300 300 300 300 300 300 300 299 299 298 297 297 297 297 299 300 300 301 301 301 301 301 301 301 300 300 300 299 299 299 298 298 298 298 297 297 297 297 298 298 298 299 299 299 300 301 301 302 303 304
301 301 301 301 300 300 300 300 300 300 299 300 299 299 299 299 299 300 300 300 299 298 297 296 295 295 296 297 299 300 300 301 301 301 301 301 300 300 299 299 299 298 298 297 297 297 297 296 296 296 296 297 297 297 298 298 299 299 300 301 302 302 303
301 301 300 300 300 300 300 299 299 299 299 300 299 299 299 299 299 299 300 300 299 297 296 295 293 293 294 295 297 300 300 300 300 300 300 300 300 299 299 298 298 298 297 297 296 296 296 295 295 295 296 296 296 297 297 298 298 299 299 300 301 301 302
301 300 300 300 300 300 300 300 299 299 299 299 299 299 299 299 299 299 300 300 299 297 295 293 292 293 294 294 297 299 300 300 300 300 300 299 299 299 298 298 298 297 297 296 296 296 296 295 294 294 294 295 295 295 296 296 297 298 298 299 300 300 301
300 300 300 300 300 299 299 299 299 299 299 299 299 299 299 299 299 299 299 299 298 297 294 292 292 293 294 295 297 299 300 300 299 299 299 298 298 298 298 297 297 297 297 296 296 296 296 295 294 294 294 294 294 295 295 296 297 297 298 298 298 299 299
300 300 300 299 299 299 299 299 299 299 299 299 299 299 298 299 299 299 299 299 298 296 294 292 292 293 294 295 297 298 299 299 299 299 298 298 298 297 297 297 297 296 296 296 296 296 295 294 294 294 294 295 295 296 296 296 296 296 297 297 298 298 298
299 299 299 299 299 299 299 299 299 299 299 299 298 298 298 298 298 299 299 299 298 296 293 292 292 293 294 295 296 298 299 299 298 298 298 298 297 297 296 296 296 296 296 296 296 295 294 294 294 294 295 296 296 296 296 296 296 296 296 297 297 298 298
299 299 299 299 299 299 299 299 299 299 299 299 298 298 298 298 298 298 299 299 298 295 293 292 292 293 294 295 296 297 298 298 298 298 297 297 297 297 296 296 296 296 295 296 296 294 293 293 294 294 295 296 296 296 296 296 296 296 296 296 297 297 297
299 299 299 299 299 299 299 299 299 299 299 298 298 298 298 298 298 298 298 298 298 296 293 292 292 293 294 295 296 297 298 298 298 297 297 297 297 297 296 296 295 295 295 296 295 293 292 292 293 295 296 296 296 296 296 296 296 296 295 295 295 295 295
299 299 299 299 299 299 299 300 299 299 298 298 298 298 297 297 297 297 297 297 298 297 294 292 292 293 294 295 296 297 297 297 297 297 297 297 297 297 296 295 295 295 295 295 294 292 292 292 293 295 296 296 296 295 295 295 295 294 294 294 294 294 294
299 299 299 299 299 299 299 299 299 299 298 298 298 298 297 297 297 297 297 297 297 297 295 292 292 293 293 294 296 297 297 297 297 297 297 297 296 296 296 295 295 294 295 294 293 292 292 292 293 295 295 295 295 295 294 294 294 294 293 294 294 294 294
299 299 299 299 299 299 299 299 299 299 299 298 298 298 298 297 297 297 297 296 296 297 296 293 291 292 292 293 295 297 296 296 297 296 296 296 296 296 296 295 295 294 293 293 292 292 293 293 293 295 295 295 294 294 294 293 293 294 294 294 294 294 294
299 299 299 299 299 299 299 299 299 299 298 298 298 298 298 297 297 297 297 296 295 296 296 294 291 291 292 292 293 295 296 295 296 296 296 296 296 296 296 295 295 293 292 292 292 293 293 293 293 294 295 294 293 293 293 293 293 294 294 294 294 294 294
299 299 299 300 299 299 299 299 299 299 298 298 298 298 298 298 298 297 297 297 296 295 295 295 292 291 292 292 293 294 295 295 295 296 296 295 296 296 295 296 295 293 292 292 292 293 293 293 293 294 294 293 293 292 293 293 293 294 294 294 294 294 294
299 299 299 299 299 300 300 300 300 299 299 299 298 299 299 298 298 297 297 297 297 296 294 294 293 292 292 292 292 293 294 294 294 296 296 295 296 296 295 295 295 293 292 292 293 293 293 293 293 294 294 293 293 293 293 293 294 294 294 294 294 294 294
300 300 300 299 299 300 300 300 300 299 299 299 299 299 299 299 298 298 297 296 297 297 295 294 293 292 292 293 292 292 293 293 293 295 296 295 295 296 295 295 294 293 292 292 293 293 294 294 294 294 294 293 293 293 293 294 294 293 293 294 294 293 293
300 300 300 300 300 300 300 300 300 300 300 300 299 299 299 299 298 298 297 297 297 297 297 296 295 293 293 293 294 293 293 293 293 294 296 295 295 295 295 295 294 293 292 293 293 293 294 294 294 294 294 293 294 294 294 294 294 293 293 293 293 293 293
300 300 300 300 300 299 300 300 300 300 300 299 299 299 299 298 298 297 297 297 297 297 297 297 296 295 294 294 294 294 294 294 293 294 295 295 295 295 295 294 293 293 293 293 293 294 294 294 294 294 294 294 294 294 294 294 294 293 293 293 293 292 292

ECMWFFLT1_925_thetae_099.txt.gz
Theta_e
332 331 330 329 328 327 326 325 324 323 321 320 320 320 320 319 320 320 320 320 320 320 320 320 320 319 320 321 321 321 321 322 322 322 323 323 323 324 323 323 324 325 325 326 328 328 329 329 328 329 329 330 330 330 331 330 330 331 332 334 335 334 333
329 329 328 327 326 325 324 323 322 321 319 318 317 317 317 317 317 317 317 317 317 317 317 317 317 317 318 319 319 319 319 319 320 320 320 320 320 320 320 321 321 322 323 323 324 324 325 326 325 326 326 327 327 328 329 329 330 330 331 333 334 334 334
327 327 326 326 325 324 323 322 321 319 318 317 316 315 315 315 315 315 315 315 314 315 315 315 315 315 317 317 317 317 317 317 317 316 317 316 316 316 317 317 318 319 320 321 322 322 323 323 323 323 324 324 324 325 326 327 328 328 329 331 332 334 334
326 326 325 325 324 323 321 320 319 317 316 315 315 315 314 314 314 313 313 313 313 313 313 314 314 314 315 315 315 316 316 315 315 314 315 314 313 314 314 315 316 316 317 318 319 319 319 321 321 321 322 322 323 323 323 324 324 325 326 328 329 332 333
324 324 323 322 321 321 320 319 317 316 315 315 314 314 313 313 313 312 312 312 312 311 312 313 312 313 315 313 313 314 315 314 314 313 313 312 312 312 312 313 314 314 315 315 315 315 316 317 318 318 319 320 320 321 321 321 322 322 323 325 327 330 332
321 321 320 319 319 318 318 317 316 315 315 314 314 313 312 311 311 311 311 310 311 310 311 312 311 312 313 312 311 313 313 313 313 313 313 312 311 311 311 312 312 313 313 313 313 313 314 314 315 316 317 317 318 319 319 320 321 321 322 323 326 328 331
319 318 317 317 317 316 316 315 315 315 314 313 312 312 311 310 310 310 310 309 309 309 310 310 310 311 312 310 310 311 311 312 312 312 312 312 311 311 311 311 311 311 311 311 312 312 312 313 313 314 315 315 316 318 318 318 319 320 320 322 323 325 327
316 316 315 315 315 314 314 314 314 314 313 312 311 310 310 310 309 309 308 308 308 308 309 309 309 310 310 309 308 309 310 311 311 310 311 311 311 311 311 310 311 311 311 310 310 311 311 311 312 312 313 314 314 315 315 316 317 318 318 319 319 320 322
315 314 314 314 313 313 313 313 313 312 312 311 310 309 308 308 308 308 307 307 307 308 308 308 308 309 309 309 308 308 309 310 309 309 309 309 310 310 310 310 310 310 310 309 309 310 310 310 311 311 311 312 312 312 312 312 314 314 315 316 317 318 319
313 313 313 313 312 312 312 312 311 311 310 309 309 308 308 307 307 307 307 306 306 307 308 307 308 308 308 308 307 307 308 308 308 308 308 308 309 309 309 309 309 309 308 308 309 308 309 309 309 309 309 310 310 310 310 310 311 311 312 313 314 315 315
312 312 312 312 312 312 311 311 310 309 309 308 308 307 307 306 307 306 306 306 306 306 307 307 307 307 307 307 307 307 307 307 307 308 308 308 308 308 308 308 309 308 307 307 308 307 308 308 308 307 308 308 308 309 309 309 309 309 310 311 311 312 312
312 311 311 311 311 310 309 309 308 308 307 307 307 306 306 306 306 306 306 306 306 306 306 306 306 306 307 307 307 307 307 306 307 307 307 307 307 307 308 308 307 307 306 306 306 306 307 306 306 306 306 306 307 307 308 307 307 307 308 308 309 309 310
311 311 310 310 309 309 308 307 307 306 306 306 306 306 306 306 305 306 305 305 305 305 305 305 306 306 306 306 306 306 306 306 306 306 306 306 306 307 307 306 306 305 305 305 305 305 306 305 305 305 305 305 305 305 306 306 306 306 306 307 307 307 308
309 309 308 308 307 307 307 306 306 306 306 305 305 305 305 305 305 305 305 304 304 304 305 305 305 305 305 306 306 306 306 305 306 306 306 306 306 306 306 305 305 305 304 304 304 304 304 304 303 303 304 304 304 304 304 305 305 305 305 305 306 306 306
308 307 307 307 306 306 306 306 306 305 305 305 305 305 305 305 305 305 304 304 304 304 304 304 304 304 305 305 305 305 305 305 305 305 305 305 305 305 305 305 304 304 304 303 303 303 303 302 302 302 303 303 303 303 303 303 304 304 304 304 304 305 305
307 307 306 306 306 306 305 305 305 305 305 304 304 304 304 304 304 305 304 303 303 303 303 303 303 303 304 305 305 305 305 305 305 305 305 305 304 304 304 304 303 303 303 302 302 302 301 301 301 301 301 301 301 302 302 302 302 303 303 303 303 304 304
307 306 306 306 306 305 305 305 304 304 304 304 304 304 304 304 304 304 304 303 303 302 302 302 302 302 303 304 304 305 304 305 305 304 304 304 304 304 303 303 303 302 301 301 301 300 300 300 299 300 299 300 300 300 301 301 301 302 302 302 302 303 304
306 306 306 305 305 304 304 304 303 303 303 303 303 303 303 304 304 304 303 302 302 301 300 300 300 301 302 303 304 305 304 304 304 304 304 304 303 303 303 302 302 301 301 300 300 299 299 299 298 298 299 299 299 300 300 300 300 301 301 302 302 302 303
306 305 305 305 304 304 304 303 303 303 303 303 303 303 303 303 303 303 303 302 301 300 299 298 298 299 300 301 303 304 304 304 304 304 303 303 303 302 302 302 301 300 300 299 299 298 298 298 298 298 298 298 298 299 299 299 300 300 300 301 301 301 302
305 305 304 304 303 303 303 302 303 303 303 303 303 303 303 303 303 303 302 301 300 299 298 297 296 297 299 301 303 304 304 304 304 303 303 303 302 302 301 301 300 300 299 299 298 298 298 297 297 297 297 298 298 298 298 298 299 299 299 300 300 300 301
304 304 303 303 303 302 302 302 302 303 302 302 302 303 303 303 303 303 302 301 299 298 297 296 295 296 297 299 302 304 303 303 303 303 303 302 301 301 300 300 300 299 298 298 297 297 297 297 297 297 297 297 297 297 297 298 298 298 298 299 299 300 300
303 303 303 302 302 302 302 302 302 302 302 302 302 303 303 303 303 303 302 301 299 297 296 295 295 296 297 298 301 303 303 303 303 302 302 301 301 300 300 299 299 299 298 298 297 297 297 296 296 296 296 296 296 296 297 297 298 298 298 298 299 299 299
303 302 302 302 302 302 302 302 302 302 302 302 302 302 303 303 303 302 302 300 299 297 295 294 295 296 297 297 299 302 303 303 302 302 301 301 300 300 299 299 299 298 298 297 297 297 297 295 295 295 295 295 296 296 297 297 298 298 298 298 298 299 299
302 302 302 301 301 301 301 301 302 302 302 302 302 302 303 303 303 302 301 299 298 297 295 294 295 296 297 298 299 301 302 302 302 301 301 300 300 299 299 299 298 298 298 297 297 297 296 295 295 295 295 296 296 297 297 297 298 297 297 298 298 298 298
302 301 301 301 301 301 301 301 301 302 302 302 302 302 302 303 303 303 301 298 297 296 294 294 295 296 297 298 299 300 302 301 301 301 300 300 300 299 299 298 298 298 298 297 297 296 295 295 295 295 296 297 297 297 297 297 297 297 297 297 298 298 298
302 301 301 301 301 300 300 301 301 302 302 302 302 302 302 303 303 303 302 299 297 295 294 293 295 296 297 298 299 300 301 301 300 300 300 300 299 299 299 298 298 298 297 297 297 295 295 295 295 295 297 297 297 297 297 297 297 297 297 297 297 297 297
301 300 301 301 301 301 301 301 301 301 301 301 302 302 302 302 302 302 302 300 297 295 293 292 294 295 297 298 298 300 301 301 301 300 299 299 299 299 298 298 297 297 297 297 296 294 294 294 294 296 297 297 297 297 297 297 297 297 296 296 296 296 296
301 301 301 301 301 301 301 301 301 301 301 301 301 301 301 301 301 301 302 301 298 295 293 292 292 294 296 298 299 299 300 300 300 300 300 299 299 298 298 298 297 297 296 296 295 293 293 293 294 296 297 296 297 297 296 297 297 296 296 296 296 296 296
302 301 301 301 301 302 302 301 301 301 301 301 300 300 300 300 300 300 301 301 300 297 293 291 292 293 294 297 299 299 299 299 300 300 299 299 299 299 298 297 297 296 296 295 294 293 293 293 294 296 296 296 296 296 296 296 296 296 295 295 295 295 295
301 301 301 301 301 302 302 302 301 301 301 301 301 300 300 300 300 299 299 300 300 298 294 291 292 292 293 296 298 299 298 299 299 299 299 298 298 298 298 297 296 295 295 294 294 293 294 294 294 296 296 296 296 296 296 296 296 295 295 296 296 296 296
302 301 301 301 301 302 302 301 301 301 301 301 300 300 300 300 300 299 298 298 299 299 295 292 292 292 292 294 297 299 298 297 298 299 299 298 298 298 297 297 296 295 294 293 293 293 294 294 294 295 296 296 296 296 296 296 296 296 296 296 296 296 296
302 302 302 302 302 302 302 302 301 301 301 301 300 300 300 300 300 300 299 297 297 298 297 294 292 292 293 293 295 297 297 297 297 299 299 298 298 298 297 297 297 295 293 293 293 294 294 294 294 295 296 296 296 296 296 295 296 296 296 297 297 296 295
302 302 302 302 302 302 302 302 301 301 300 300 300 300 300 300 300 300 300 299 298 297 297 296 294 293 293 293 294 295 297 296 296 297 299 298 297 297 297 297 297 295 293 293 293 293 294 294 294 295 295 296 295 295 295 295 296 296 296 296 296 295 295
302 302 302 302 302 302 302 302 301 301 300 300 301 301 301 301 300 300 300 300 299 298 298 297 296 294 293 293 294 295 296 296 295 296 298 298 297 297 297 297 297 295 294 294 294 293 294 294 294 295 295 295 295 295 295 295 296 295 295 295 295 295 295
302 302 302 302 302 302 302 302 302 301 301 301 302 301 301 301 300 300 300 300 300 300 299 299 298 295 293 294 294 294 295 295 294 295 297 297 297 297 297 297 296 295 294 294 294 294 294 294 295 295 295 294 295 295 295 295 295 295 295 295 295 294 295
302 302 302 302 302 302 302 302 302 302 302 302 302 301 301 301 300 300 300 300 299 300 300 300 299 296 294 294 295 295 295 295 294 295 296 297 296 296 296 296 296 295 295 295 294 294 294 295 295 295 295 295 295 295 295 295 295 295 295 295 294 294 294
302 302 302 302 302 302 302 302 302 302 302 302 302 301 301 301 300 300 300 300 299 300 300 299 299 297 295 295 295 295 295 295 295 294 295 296 296 295 296 296 296 295 295 295 294 294 294 295 295 295 295 295 295 295 295 295 295 295 295 295 294 294 294

ECMWFFLT1_925_thetae_102.txt.gz
Theta_e
332 330 329 328 327 326 325 324 322 320 319 319 318 318 318 318 318 317 317 318 318 317 317 317 317 318 319 318 318 318 317 318 318 318 318 316 316 317 316 316 317 318 318 319 321 321 321 321 321 321 321 320 319 320 321 322 322 322 322 321 322 324 327
329 329 328 327 325 324 323 322 320 319 318 317 317 317 316 316 316 316 315 315 316 316 316 315 316 317 317 316 317 317 316 316 316 316 315 314 315 315 314 315 316 316 316 317 317 316 317 317 318 318 317 317 317 318 318 319 319 319 320 321 321 321 324
328 328 327 325 324 323 322 320 319 318 317 316 316 316 315 315 315 315 314 314 314 314 315 314 315 316 315 314 315 316 315 314 315 314 314 313 313 313 313 314 314 314 315 315 314 314 314 315 315 315 315 315 315 315 316 316 317 317 319 320 321 322 325
327 327 326 325 324 322 321 319 317 317 317 316 315 314 314 313 313 313 313 312 312 313 313 313 314 315 313 312 314 314 314 314 314 314 313 312 312 312 312 312 313 313 314 313 313 313 313 313 313 313 313 313 313 314 314 314 315 316 317 318 319 319 321
326 325 325 324 322 321 320 318 317 317 316 315 314 313 312 312 312 311 311 311 311 311 312 312 312 313 311 311 312 312 313 313 313 313 312 312 311 311 311 311 311 312 312 312 312 312 312 312 312 312 311 312 311 312 312 312 313 313 314 315 316 315 315
324 322 322 321 320 319 318 317 317 316 315 314 313 312 311 311 310 310 310 310 310 310 311 311 311 311 310 309 310 311 312 311 311 311 311 311 311 311 311 311 311 311 310 310 310 311 311 311 311 311 310 310 310 310 310 310 310 310 311 312 312 312 313
321 320 319 319 318 317 316 316 316 315 313 312 312 311 311 310 309 309 309 309 309 309 310 310 310 310 309 308 309 310 311 310 309 310 310 310 310 310 310 310 311 310 308 309 309 309 310 310 310 310 309 309 309 309 309 309 309 309 309 310 309 310 310
318 318 317 317 316 316 315 315 314 313 312 311 310 310 310 309 308 308 308 308 309 309 309 309 309 309 309 308 308 309 309 309 308 308 308 309 309 309 309 309 310 309 307 308 309 308 308 308 308 308 308 308 308 308 308 307 307 308 308 308 308 308 308
317 316 316 315 315 314 314 314 313 311 310 310 309 308 308 308 308 307 307 307 308 308 308 308 308 308 308 308 308 308 308 308 308 308 308 308 308 309 309 308 308 308 306 307 308 307 308 307 307 307 307 307 307 306 306 306 306 306 306 306 306 306 306
315 315 314 314 314 313 313 312 311 310 309 309 308 308 307 307 307 307 307 307 307 307 308 307 307 307 307 308 308 307 307 307 308 307 307 308 308 308 308 307 306 306 306 306 306 306 306 306 305 305 305 306 306 305 305 305 305 305 305 305 305 305 305
314 314 313 313 313 312 311 310 309 309 308 308 308 307 307 307 307 306 306 306 306 306 307 307 307 307 307 307 307 306 306 307 307 307 307 307 307 307 307 306 305 305 305 305 305 305 305 304 304 304 304 304 304 305 305 304 304 304 304 304 304 304 304
313 313 312 312 311 310 309 308 308 308 308 308 307 307 307 307 306 306 306 306 306 306 306 306 306 307 306 306 307 306 306 306 307 307 306 306 306 306 306 305 305 304 304 304 304 304 304 303 302 302 303 303 303 303 304 304 303 303 303 303 303 303 303
312 312 311 310 309 308 308 308 307 307 307 307 307 306 306 306 306 305 305 305 305 305 305 306 306 306 306 306 306 306 306 306 306 306 306 305 305 305 305 305 304 304 303 303 303 302 302 301 301 301 301 301 301 301 302 302 302 302 302 302 302 302 302
310 310 309 308 308 307 307 307 307 307 306 306 306 306 306 306 305 305 305 305 305 304 304 305 305 306 306 306 306 305 306 306 306 305 305 305 305 304 304 304 303 303 302 302 301 301 300 300 299 300 300 300 300 300 300 301 301 301 301 301 301 301 302
309 308 308 307 307 307 306 306 306 306 306 305 305 305 306 306 305 304 304 303 303 303 303 304 304 305 305 305 305 305 305 305 305 305 305 304 304 304 304 303 302 302 301 301 300 299 299 299 299 299 299 299 299 299 299 300 300 300 300 300 300 301 301
308 307 307 307 307 307 306 306 305 305 305 305 305 305 305 305 305 304 303 302 302 301 301 302 302 303 304 305 306 305 305 305 305 305 304 304 303 303 303 302 302 301 300 300 299 299 299 298 298 298 298 298 298 298 299 299 299 300 300 300 300 300 300
307 307 307 306 306 306 305 305 305 305 304 304 305 305 305 305 304 303 302 301 300 300 299 300 301 302 303 305 306 305 305 305 304 304 304 303 303 303 302 302 301 300 300 299 298 298 298 298 298 298 298 298 298 298 298 298 298 298 299 299 299 299 299
307 307 306 306 305 305 304 304 304 304 304 304 304 305 305 304 303 302 301 300 299 299 297 298 299 301 302 304 305 305 304 305 304 304 303 303 302 302 301 301 301 300 299 299 298 298 298 298 298 297 297 297 297 298 298 298 298 298 298 298 298 299 299
306 306 305 305 304 304 304 304 304 304 304 304 304 304 304 304 303 301 300 299 299 297 296 296 297 300 302 303 305 305 304 304 304 303 303 302 301 301 300 300 300 299 299 298 298 298 298 297 297 297 297 297 297 297 297 297 297 298 298 298 298 299 299
306 305 305 304 304 304 304 304 304 304 304 304 304 304 304 304 303 301 299 298 297 296 295 296 297 299 301 303 304 304 304 304 303 303 302 302 301 300 300 300 300 299 298 299 298 298 297 296 296 296 296 296 296 297 297 297 298 298 298 298 298 298 298
305 304 304 304 303 303 303 303 304 304 304 304 304 304 304 304 303 301 299 298 296 295 295 296 297 298 300 302 303 304 304 304 303 302 302 301 301 300 300 299 299 299 299 299 298 297 296 296 295 295 295 296 296 297 297 297 298 298 298 298 298 298 298
304 304 303 303 303 303 303 303 303 303 303 304 304 304 304 303 302 300 299 298 296 295 295 296 297 298 299 301 302 303 303 303 302 302 301 301 301 300 300 299 299 299 298 298 298 297 296 295 295 295 295 296 296 297 297 297 298 298 298 298 298 298 298
303 303 303 303 303 303 303 303 303 303 303 304 304 304 304 302 301 299 298 298 296 295 295 296 297 297 299 300 301 302 303 302 302 302 301 301 301 300 300 299 298 299 298 297 298 297 295 294 294 295 295 296 297 297 297 297 298 297 297 297 297 298 298
303 303 303 302 302 302 303 303 303 303 303 303 304 304 304 303 301 299 297 296 295 294 294 296 297 298 299 300 301 302 302 302 302 301 300 300 300 300 299 298 298 298 298 297 297 296 294 294 294 295 296 297 297 297 297 297 297 297 297 297 297 297 297
303 302 302 302 302 302 302 302 303 303 303 303 304 304 304 304 302 299 297 295 294 293 293 295 297 298 299 300 301 301 302 302 301 301 300 300 300 299 299 298 298 298 297 297 296 295 294 294 294 295 296 297 297 297 297 297 297 296 297 297 297 296 296
302 302 302 301 301 301 302 302 302 303 303 303 303 303 304 304 303 301 298 296 293 292 292 293 296 297 298 299 300 301 302 302 301 301 300 299 299 299 299 298 298 297 296 296 296 294 293 294 294 295 296 296 297 297 296 296 296 296 296 296 296 296 296
302 301 301 301 301 302 302 302 302 302 302 302 302 302 303 303 303 302 299 297 294 292 292 293 295 297 298 299 300 300 301 301 301 301 300 298 299 299 298 298 298 297 295 295 295 294 294 294 294 294 295 296 296 296 296 296 296 295 295 296 296 296 296
301 302 302 302 302 302 302 302 302 301 302 302 301 301 301 302 303 302 301 298 294 292 292 293 294 296 298 299 300 299 299 300 300 300 300 298 298 299 298 297 298 297 295 295 294 293 293 294 294 294 295 295 296 296 296 296 296 296 295 296 296 296 296
302 302 302 302 302 302 302 302 301 301 301 301 301 301 300 301 301 302 302 299 295 293 292 293 293 295 297 298 299 298 298 299 299 300 300 298 298 299 298 297 297 297 295 294 293 293 293 294 294 294 294 295 295 296 296 295 296 296 295 296 296 296 296
303 302 302 302 302 302 302 302 302 301 301 301 301 301 300 299 299 300 301 300 297 294 292 292 292 293 294 297 298 298 297 297 298 299 299 299 298 298 298 297 297 297 295 294 293 294 294 294 294 294 294 295 295 296 296 295 295 295 295 296 296 296 295
303 302 303 303 303 302 302 302 302 302 301 301 301 301 301 299 298 298 298 299 299 296 294 293 293 292 293 294 296 298 297 296 297 297 298 299 298 298 298 297 297 297 295 294 294 294 294 294 294 294 294 294 295 296 296 295 295 295 295 295 296 295 295
302 302 303 303 303 302 302 302 302 301 301 301 301 301 301 301 300 298 297 297 298 298 297 296 295 293 292 292 294 296 297 296 296 296 297 298 298 298 297 297 297 296 295 294 294 295 294 294 294 294 294 295 295 296 295 295 295 295 295 295 295 295 295
302 302 302 303 302 302 302 302 302 302 301 301 301 301 301 301 301 300 299 298 298 298 298 298 297 295 293 292 293 295 296 296 295 295 297 297 298 297 297 297 297 296 295 294 295 295 295 295 294 294 294 295 295 295 295 295 295 295 295 295 295 295 295
303 303 303 303 302 302 303 302 302 301 301 302 302 301 301 301 301 301 301 300 300 300 299 299 298 296 293 292 293 294 295 295 295 295 296 297 297 297 297 296 296 295 295 295 295 295 295 295 295 294 294 295 295 295 295 295 295 295 295 295 295 295 295
303 303 303 303 303 303 303 302 302 301 301 302 302 302 302 302 301 301 301 301 301 301 300 299 298 296 293 292 293 294 295 295 295 295 295 296 296 297 296 295 295 295 295 295 295 295 295 295 295 294 294 294 294 295 295 295 295 295 294 294 295 295 295
303 303 303 303 303 303 303 303 302 302 302 302 302 302 302 302 301 301 301 301 301 301 301 300 298 296 293 292 293 294 294 295 295 295 294 295 296 296 295 295 295 295 295 296 295 295 295 295 294 294 294 294 294 295 295 295 294 294 294 294 295 295 294
303 303 303 303 303 302 303 302 302 303 303 303 303 302 302 301 301 300 300 301 301 301 301 300 298 296 294 294 294 293 293 295 295 294 294 295 295 295 294 295 295 296 296 296 296 295 295 295 294 293 293 293 293 294 295 295 294 294 294 294 294 294 294

ECMWFFLT1_925_thetae_105.txt.gz
Theta_e
330 328 327 326 325 324 322 321 319 317 317 316 315 315 315 314 314 315 315 315 314 315 316 315 314 314 315 314 313 314 314 312 312 312 311 312 312 312 312 312 313 313 312 312 311 312 313 313 312 311 310 310 310 310 310 310 309 309 310 310 313 311 311
329 327 326 325 324 322 320 318 318 316 315 315 314 314 314 313 312 312 313 313 313 314 315 314 312 312 313 313 313 313 313 312 311 311 310 311 311 311 311 311 312 312 311 311 311 311 312 312 311 310 310 309 309 309 309 308 308 309 308 309 310 308 308
327 326 324 323 322 321 319 317 317 315 314 313 313 312 312 312 311 310 311 311 312 313 313 312 310 310 311 312 312 312 312 311 311 310 310 310 310 310 310 310 310 310 310 310 310 310 311 310 310 309 309 308 308 308 307 307 307 307 307 308 307 306 307
326 324 323 322 321 319 318 317 316 314 313 311 311 310 310 310 309 309 310 310 311 311 311 310 309 309 311 312 310 310 310 311 310 310 310 309 309 309 309 308 308 308 309 308 308 308 309 308 308 308 307 307 307 307 306 306 305 305 306 306 305 305 306
325 324 323 322 319 318 317 316 315 314 312 310 309 309 308 308 308 308 308 309 310 310 310 309 308 308 310 310 309 308 309 309 309 309 309 309 308 309 308 307 306 307 308 307 307 307 308 307 307 307 306 305 306 305 305 304 304 304 305 304 304 304 304
324 323 323 321 318 317 316 316 314 312 311 310 309 308 307 307 308 308 308 308 309 309 308 308 307 307 309 309 308 308 308 307 308 308 308 308 308 308 307 305 305 306 307 306 306 307 306 306 305 305 305 305 305 304 304 304 303 303 303 303 303 303 303
321 320 319 318 317 316 315 314 313 311 310 310 309 308 307 307 307 307 308 308 308 308 308 308 307 307 308 308 308 308 307 307 307 307 307 308 307 306 305 305 305 306 305 305 305 305 304 304 303 304 304 304 304 304 304 303 303 303 303 303 302 302 302
319 318 317 316 316 315 314 312 311 309 309 308 308 308 307 306 305 306 307 307 307 307 307 307 307 307 307 307 307 307 307 307 306 307 307 307 306 305 304 304 304 304 304 304 304 303 302 301 301 302 302 302 302 302 302 302 302 302 302 302 301 301 301
317 316 316 315 315 314 313 311 309 308 307 307 307 307 306 306 305 305 305 306 307 306 307 307 307 307 306 306 307 307 307 306 306 306 306 306 306 305 304 304 303 303 303 302 302 300 299 299 299 300 301 301 301 301 300 300 300 300 301 300 300 300 300
316 315 314 314 314 313 311 309 308 308 307 306 306 306 306 306 306 305 305 305 306 306 306 306 306 306 306 306 306 306 306 306 305 306 305 305 305 304 303 303 302 302 302 301 299 298 297 297 298 298 299 299 300 300 299 299 299 299 300 300 300 300 299
315 314 314 313 312 311 309 308 308 307 307 306 306 306 305 305 305 305 305 305 306 306 306 306 306 305 306 305 306 306 306 305 305 305 304 304 304 303 303 302 301 301 300 298 298 297 297 298 298 298 298 298 298 299 299 299 299 299 299 299 299 299 299
314 313 313 311 310 309 308 308 307 307 306 306 306 306 305 305 305 305 305 304 305 305 306 306 306 305 305 305 305 305 305 305 304 304 304 304 303 302 302 301 301 300 298 297 297 297 298 298 298 298 298 297 297 298 298 298 298 298 299 299 298 298 298
313 312 311 309 308 308 308 307 307 306 306 306 306 305 305 305 305 304 304 304 304 305 305 305 305 305 305 305 305 305 305 304 304 303 303 303 303 302 301 301 300 299 297 297 297 298 298 298 298 297 297 297 297 297 297 298 298 298 298 298 298 298 298
311 310 309 308 307 307 307 306 306 306 306 306 305 305 304 304 304 303 303 303 303 303 304 305 305 305 305 305 305 305 304 304 304 303 303 302 302 301 301 300 299 298 297 297 297 298 298 298 297 297 296 297 297 297 297 297 297 298 297 297 297 297 297
309 308 308 307 307 306 306 306 305 305 305 305 305 304 304 303 302 302 301 301 302 302 303 304 305 305 305 305 305 304 304 304 303 303 302 302 301 301 301 300 299 298 298 298 298 298 297 297 296 296 296 296 296 296 296 297 297 297 297 297 297 297 298
308 307 307 306 306 305 305 305 305 305 305 305 305 304 303 302 301 300 298 298 299 300 302 303 305 305 305 304 304 304 304 303 303 302 302 301 301 300 300 299 298 298 298 298 298 298 297 296 295 295 295 296 296 296 296 296 297 297 297 297 297 297 297
307 307 306 306 305 305 305 304 304 305 305 304 304 303 302 302 300 298 296 295 295 298 300 303 304 305 305 304 304 304 304 303 302 302 301 300 300 300 300 299 298 298 298 298 298 297 296 295 295 295 295 295 296 296 296 296 297 297 297 297 297 297 297
306 306 306 305 305 305 304 304 304 304 305 304 303 302 301 299 297 295 294 294 294 296 299 302 304 304 304 304 304 304 303 302 302 301 301 300 300 299 299 299 299 298 298 297 297 296 295 294 294 294 295 295 296 296 296 296 297 297 297 297 297 297 297
306 305 305 305 304 304 304 304 304 304 304 304 303 302 300 297 295 293 293 294 295 296 298 301 303 304 304 304 303 303 303 302 301 301 300 300 299 299 298 299 299 298 297 297 297 296 295 294 294 294 295 296 296 296 296 296 297 297 297 296 296 296 296
305 304 304 304 304 304 304 304 304 304 304 304 303 302 300 297 294 293 294 294 295 296 298 300 302 303 303 303 303 303 302 301 301 301 301 300 299 299 298 298 299 298 297 297 297 296 294 294 294 294 295 296 296 296 296 296 297 297 296 296 296 296 296
304 304 304 304 304 304 304 304 304 304 304 304 303 302 300 297 294 294 294 295 296 297 298 299 301 302 303 303 303 302 302 301 301 300 300 300 300 299 298 297 298 298 297 297 297 296 294 294 294 294 295 296 296 296 296 296 296 296 296 296 295 295 295
304 304 304 304 304 303 303 304 304 304 304 303 302 301 299 295 294 294 294 295 296 297 297 299 300 301 302 302 302 302 301 301 301 300 300 300 299 299 298 297 297 298 297 296 296 296 294 294 294 294 295 295 296 296 296 296 296 296 296 295 295 295 295
303 303 303 303 303 303 303 303 304 304 303 302 302 301 297 293 293 293 294 294 295 296 297 298 299 300 301 301 301 301 301 301 300 299 299 300 299 299 299 297 297 297 296 295 295 295 294 294 294 294 294 294 295 295 296 296 296 296 296 295 295 295 295
303 303 303 303 303 303 303 303 304 304 303 303 302 301 299 295 292 292 293 293 294 296 297 298 298 300 301 301 301 301 301 301 300 299 299 299 299 299 298 297 297 297 296 295 294 293 293 293 294 294 294 294 294 295 295 295 296 296 296 296 295 295 295
303 303 302 302 303 303 303 303 303 304 304 303 302 302 301 298 293 292 293 293 293 295 296 298 299 299 300 300 301 301 301 300 300 300 298 298 299 299 297 297 297 297 296 294 293 293 293 294 294 294 294 294 294 294 294 295 295 295 296 296 295 295 295
302 302 302 302 302 303 303 303 303 304 304 304 303 302 302 300 295 292 293 293 293 294 296 297 298 299 299 300 299 300 300 300 300 300 298 298 299 298 297 297 297 297 296 294 293 294 294 294 294 294 294 294 294 294 294 295 295 295 296 296 295 295 295
302 302 302 302 302 303 303 303 303 303 303 303 303 302 302 301 297 293 292 293 293 293 295 296 298 299 299 298 298 298 299 300 300 300 299 298 299 298 297 297 297 297 295 294 294 294 294 294 294 294 294 294 294 294 294 295 295 295 295 295 295 295 295
301 301 301 302 302 302 302 302 302 302 302 302 303 302 302 302 299 294 292 292 292 292 292 293 295 298 298 297 296 296 298 299 299 299 299 298 298 298 297 297 297 296 295 294 294 295 295 295 295 295 294 294 294 294 294 294 295 295 295 295 295 295 295
300 300 301 302 302 302 302 302 302 301 301 301 302 302 301 301 301 297 293 292 292 292 292 292 292 294 295 296 295 294 295 297 298 299 299 298 298 298 297 297 297 296 295 294 295 295 295 295 295 295 295 294 294 294 294 294 294 294 295 294 294 294 294
301 301 302 302 302 301 301 301 301 300 300 300 300 301 301 301 301 298 294 294 295 295 294 293 291 291 292 293 293 293 293 295 297 298 298 298 298 298 297 297 297 296 295 294 295 295 295 295 295 295 294 294 294 294 293 293 294 294 295 294 294 294 294
302 302 302 302 302 301 301 301 300 300 300 298 297 297 299 299 299 296 295 296 297 297 297 295 292 291 291 292 292 292 292 293 295 296 297 297 297 297 297 296 296 295 294 295 295 295 295 295 295 294 294 293 293 293 293 293 293 294 294 294 294 294 294
302 302 302 302 301 301 301 301 301 301 300 300 298 298 298 298 297 297 297 298 298 298 298 296 293 291 291 291 291 292 292 293 293 294 295 296 297 297 296 296 295 295 295 295 295 295 295 295 294 294 293 293 293 293 292 292 293 294 294 294 294 294 294
302 302 302 301 301 301 301 301 301 301 301 301 301 300 300 299 299 299 299 299 299 299 299 297 294 291 291 291 292 292 294 294 294 294 294 295 296 296 295 295 295 295 295 295 295 295 295 294 294 293 293 293 292 292 292 292 293 294 293 293 293 294 294
302 302 302 302 302 301 301 301 301 301 301 301 301 301 300 300 300 300 300 300 300 300 299 297 295 292 290 291 291 292 294 295 294 294 294 295 295 295 295 295 295 295 295 295 295 295 294 294 294 293 293 292 291 291 291 291 292 293 293 293 293 293 294
302 302 302 302 302 301 301 301 301 301 301 301 301 301 301 301 301 301 301 300 300 300 299 298 296 293 291 290 291 291 293 294 294 294 294 295 295 294 294 295 295 296 296 296 295 295 294 294 294 293 293 292 290 290 290 291 292 292 292 292 293 293 293
302 302 302 302 302 302 302 301 301 301 301 300 301 301 301 301 301 301 301 300 300 301 300 298 296 293 291 290 290 290 292 293 293 294 295 295 294 294 295 295 296 296 296 296 295 295 294 294 294 293 293 291 290 290 290 290 291 291 291 292 292 293 293
302 302 302 302 302 302 301 301 300 300 300 300 301 301 301 301 301 301 301 301 301 301 299 297 296 293 291 290 290 290 291 293 294 294 295 295 295 295 295 296 296 296 296 296 295 294 293 293 293 293 293 292 291 290 290 290 290 290 290 291 292 292 293

ECMWFFLT1_925_thetae_108.txt.gz
Theta_e
327 324 322 320 319 319 318 318 317 316 316 315 314 314 315 315 315 315 315 315 313 312 311 311 311 312 312 311 309 309 310 310 309 310 309 309 309 309 310 310 309 307 308 308 308 310 311 309 307 305 304 303 304 303 303 302 301 303 304 302 302 302 302
326 323 321 319 318 318 317 316 315 315 314 313 313 312 313 313 313 314 314 313 312 310 310 310 310 311 311 310 309 309 309 309 309 309 308 307 307 308 308 308 307 306 306 306 307 307 307 307 306 305 304 303 303 303 302 301 301 302 303 302 302 302 301
324 321 319 318 318 317 316 314 313 313 312 311 311 310 311 311 311 312 312 311 310 309 310 310 309 309 310 309 309 309 308 308 308 308 307 306 306 307 307 306 307 306 306 306 306 306 305 305 305 304 303 302 303 302 302 301 301 301 302 302 301 301 301
322 320 319 317 317 316 314 312 311 311 310 310 309 309 309 310 310 311 310 309 308 308 309 309 308 308 308 308 308 308 308 308 307 307 306 305 305 306 305 305 305 305 305 304 304 304 303 303 303 302 302 301 302 302 301 300 300 301 301 301 300 300 300
322 320 318 317 316 315 313 310 309 309 309 308 308 308 308 309 309 309 309 308 307 307 308 309 308 307 307 307 307 307 307 307 307 306 304 304 305 305 304 304 304 303 302 302 301 301 301 301 301 301 300 300 301 300 299 299 299 299 300 299 299 299 299
321 320 318 317 316 315 313 310 308 307 307 307 307 307 308 308 308 308 308 308 307 306 308 308 308 307 307 307 306 307 307 307 306 305 304 304 304 304 303 303 302 301 299 298 298 298 299 299 299 299 299 299 299 298 298 298 298 298 299 298 298 299 298
321 318 317 316 315 315 313 310 308 307 307 306 306 307 307 307 307 307 307 307 307 306 307 307 307 307 306 306 306 306 306 306 305 304 304 303 303 303 302 302 301 299 297 296 296 297 297 298 298 298 298 298 298 297 297 297 297 298 298 298 298 298 298
320 317 317 316 315 314 312 309 308 307 307 306 305 306 306 307 307 307 307 307 307 306 306 306 306 306 306 306 306 306 305 305 305 304 303 303 302 302 300 299 298 297 296 296 297 297 297 297 297 298 297 297 297 297 297 297 297 297 297 297 297 297 297
318 316 315 314 313 312 310 308 307 307 306 306 305 305 305 306 306 306 306 306 306 306 306 306 306 306 306 305 305 305 304 304 304 303 302 302 302 301 298 296 296 296 296 296 297 297 297 297 297 297 297 297 297 297 297 297 297 297 297 297 297 297 296
316 315 314 313 312 310 308 306 306 306 306 305 305 305 305 305 306 306 306 305 305 306 305 305 305 305 306 305 304 304 304 304 303 302 302 301 301 300 297 296 296 297 297 297 297 297 297 296 296 296 296 297 297 297 297 297 297 297 297 296 296 297 296
315 314 313 312 311 308 306 305 305 305 305 305 305 305 304 305 305 305 306 305 305 305 305 305 305 305 305 304 304 304 303 303 302 302 301 301 301 299 296 296 297 297 297 297 297 296 296 295 295 296 296 296 296 296 297 297 296 296 296 296 296 296 296
314 313 312 312 309 307 306 306 305 305 305 305 305 305 304 304 304 305 305 305 305 305 304 304 304 304 304 304 304 303 303 303 302 302 301 301 300 298 296 297 297 297 297 297 297 296 294 294 295 295 296 296 296 296 296 296 296 296 296 296 296 296 296
313 312 311 310 308 306 306 306 306 306 305 305 305 305 304 304 304 304 305 305 305 305 304 304 304 304 304 304 304 303 303 302 302 301 301 300 299 297 297 297 298 298 297 297 296 295 294 294 294 295 296 296 296 296 296 296 296 296 296 296 296 296 296
312 311 310 308 307 306 306 306 306 305 305 304 304 304 304 303 303 303 304 304 305 305 304 304 304 304 304 304 303 303 302 302 301 301 300 299 298 297 297 298 298 298 297 296 296 295 293 293 295 296 296 296 296 296 296 296 296 296 296 296 296 296 295
311 309 308 307 307 306 306 305 305 305 304 304 303 303 302 302 302 302 303 303 304 305 305 304 304 304 304 303 303 302 302 301 301 300 299 298 298 298 298 298 298 297 296 296 296 295 293 294 295 296 296 296 296 296 296 296 296 296 296 296 296 296 295
309 308 307 306 306 306 306 306 305 304 303 303 302 302 300 299 299 299 301 302 304 305 304 304 304 304 304 303 302 302 302 301 301 300 298 298 298 298 298 298 297 297 296 295 296 295 293 294 295 295 296 296 296 296 296 296 295 295 296 296 296 296 295
308 307 306 305 305 305 305 305 304 304 303 303 302 301 299 297 295 295 297 300 303 304 304 304 304 304 304 303 302 302 301 301 300 299 298 298 298 298 298 298 297 297 295 295 296 295 294 294 294 295 295 296 296 296 296 296 295 295 295 296 296 296 296
307 306 306 305 305 305 305 305 304 303 303 302 302 300 298 295 293 293 294 297 301 304 304 304 304 303 303 303 302 301 301 301 300 299 299 298 298 298 298 297 297 296 295 295 295 295 294 294 294 294 294 294 295 295 295 295 295 295 295 295 296 296 295
306 305 305 305 304 304 304 304 304 303 303 301 299 296 294 293 293 294 294 296 300 303 304 304 303 303 303 302 302 301 301 301 300 300 299 298 298 297 297 297 296 296 295 295 295 294 293 293 294 294 294 294 294 294 294 294 294 295 295 295 295 295 295
305 305 305 304 304 304 304 304 303 303 302 300 296 293 293 293 294 294 294 296 300 303 303 303 303 303 303 302 301 300 300 300 300 300 299 298 298 298 297 296 296 296 295 295 294 293 293 293 294 294 294 294 294 294 294 294 294 294 294 295 295 295 295
305 305 304 304 304 304 304 304 303 303 302 299 295 293 293 293 294 294 295 296 299 302 303 303 303 303 302 302 301 301 300 300 299 300 299 298 298 298 297 296 296 296 295 293 293 293 293 294 294 294 294 294 294 294 294 294 294 294 294 294 294 294 295
304 304 304 304 304 304 303 303 303 302 301 298 294 293 293 294 294 294 295 297 299 301 302 302 302 302 302 301 301 301 300 299 299 299 299 299 298 298 297 296 296 296 294 293 293 294 294 294 294 294 294 294 294 294 294 294 294 294 294 294 294 294 294
304 304 304 303 304 303 303 303 303 302 300 295 293 293 294 294 294 294 296 297 298 300 301 301 302 301 301 301 301 300 300 299 299 299 299 299 298 297 297 296 296 295 294 293 294 294 294 294 294 294 294 294 294 294 293 293 293 293 293 294 294 294 294
304 304 304 304 304 304 304 303 303 301 298 294 293 293 293 294 294 294 296 297 298 299 300 300 301 301 301 300 300 300 300 300 299 298 298 299 298 297 296 296 296 295 294 294 294 294 295 295 294 294 294 293 293 293 293 293 293 293 293 293 294 294 294
303 303 303 304 304 304 303 303 302 301 299 297 294 292 293 293 293 294 295 296 298 299 299 300 300 300 300 300 300 300 300 300 299 298 298 298 298 297 296 296 296 294 294 294 295 294 295 295 294 293 293 292 292 292 292 293 293 293 293 293 293 294 294
303 303 303 303 304 304 303 303 302 301 301 299 295 292 293 293 293 294 295 296 298 298 299 299 299 299 300 299 300 300 299 299 299 298 298 298 297 297 296 296 296 295 294 294 295 295 295 294 293 293 292 292 291 291 291 292 292 292 292 293 293 293 293
303 303 303 303 303 303 303 303 302 302 302 300 295 292 293 293 293 293 294 295 297 298 298 298 298 298 298 298 299 299 299 299 299 298 298 298 297 297 296 296 296 295 294 294 295 295 295 294 293 292 292 291 291 291 291 291 291 292 292 292 293 293 293
303 303 303 303 303 303 303 303 303 302 302 301 297 293 292 292 292 292 293 294 295 296 296 297 298 298 297 296 297 298 299 299 298 298 297 298 297 297 297 296 296 295 294 295 295 295 294 294 293 293 292 291 291 290 290 290 291 291 291 292 292 292 293
302 302 303 302 303 303 303 303 303 303 302 302 299 294 291 292 291 291 291 292 292 292 293 294 295 295 294 293 294 296 298 298 298 298 297 297 297 297 297 296 295 294 295 295 295 294 294 293 293 292 292 291 290 290 290 290 290 291 292 292 292 292 292
302 302 302 302 303 303 303 303 303 303 302 302 301 296 292 292 292 292 292 291 291 291 291 291 291 292 292 292 293 295 296 297 298 297 297 297 297 296 295 295 295 295 295 295 295 294 293 293 293 292 292 291 290 290 290 289 290 292 293 293 292 292 293
302 302 302 302 302 302 302 302 302 303 302 302 301 298 294 294 295 295 295 295 293 291 290 290 290 291 291 291 291 293 294 295 296 296 296 297 296 295 295 295 295 295 295 295 294 293 293 293 293 292 292 291 290 290 290 289 290 291 292 292 292 293 293
302 302 302 302 301 301 301 301 301 302 302 302 302 299 296 294 296 297 298 297 296 294 291 290 290 290 291 291 291 291 292 293 294 295 295 295 295 294 295 295 295 295 295 295 294 293 293 293 293 292 291 291 291 290 289 289 289 290 291 291 292 292 292
301 301 301 302 301 301 301 300 299 300 301 301 300 298 295 295 297 298 298 298 298 296 293 291 290 290 291 291 291 291 291 293 294 294 294 294 295 295 295 295 295 295 295 295 294 293 293 293 292 292 291 291 291 290 289 289 290 290 290 290 291 291 292
301 301 301 301 301 301 300 298 296 296 298 298 298 296 296 297 298 298 298 299 298 297 295 292 291 290 291 290 290 291 292 293 294 294 294 295 295 295 295 296 296 295 295 294 294 293 292 292 292 291 291 290 290 290 289 289 290 290 290 290 291 291 291
301 302 301 301 301 300 299 299 298 297 297 297 297 297 298 298 299 299 299 299 299 298 295 293 292 291 290 290 290 291 293 293 294 294 295 295 295 295 296 296 295 295 295 294 293 293 292 292 291 291 290 290 290 289 289 290 290 290 290 290 290 290 291
302 301 301 301 300 300 300 300 300 300 299 299 299 299 299 299 299 299 299 299 299 298 296 294 292 291 290 290 290 292 293 294 294 295 295 295 295 295 295 296 295 295 294 294 293 293 292 291 291 291 290 290 289 289 290 290 290 290 290 290 290 290 290
302 301 301 301 301 301 301 301 301 300 300 300 300 300 300 300 300 300 299 299 299 298 296 294 293 291 290 290 291 293 294 294 294 295 295 295 295 295 295 296 295 295 294 294 293 293 293 291 291 291 291 290 288 288 290 290 290 289 289 289 289 289 290

ECMWFFLT1_925_thetae_114.txt.gz
Theta_e
328 324 323 323 322 321 320 319 318 318 317 317 317 317 316 315 314 312 310 309 307 306 305 305 306 306 306 306 306 306 305 305 304 303 303 303 302 301 300 298 296 296 296 298 300 303 305 306 301 297 295 296 296 295 296 297 297 295 295 295 295 295 295
327 324 322 321 320 319 319 317 317 316 316 316 316 315 314 313 312 310 309 308 307 306 306 306 306 306 306 305 305 305 304 303 302 301 301 299 298 297 297 296 295 295 295 295 297 297 298 302 303 299 296 296 296 295 295 296 296 295 295 295 295 295 295
324 322 320 319 318 318 318 316 315 315 314 315 314 313 312 311 310 309 308 307 306 306 306 306 305 305 305 305 304 303 302 302 301 300 299 297 296 295 295 295 295 296 296 296 296 296 296 298 299 298 296 296 297 296 295 295 296 295 295 295 295 295 295
324 321 319 317 316 316 316 314 314 313 313 313 313 312 311 309 309 307 307 307 306 306 305 305 305 304 304 303 303 302 302 301 301 299 297 296 295 295 294 294 295 295 296 296 296 296 296 296 297 297 296 295 296 296 295 295 295 295 295 294 295 295 294
324 322 320 318 316 316 316 314 312 312 312 312 311 311 310 309 308 307 306 306 306 305 305 305 304 303 302 302 301 302 301 301 300 298 296 295 295 295 294 294 294 294 294 295 295 295 296 296 296 297 296 295 296 295 295 295 294 295 295 294 294 294 294
324 323 321 319 317 316 315 313 311 311 311 311 310 310 309 308 307 306 306 305 305 305 305 304 304 303 302 302 301 300 300 299 298 296 295 295 295 294 294 293 293 293 293 294 294 294 295 295 295 296 295 295 296 295 294 294 294 295 294 294 294 294 294
324 322 321 320 317 316 314 312 311 310 310 309 309 308 308 307 306 306 305 305 305 305 305 304 303 303 302 302 300 298 297 297 296 295 295 295 294 294 293 293 292 293 293 293 294 294 295 295 295 296 295 295 295 294 294 294 294 294 295 294 294 294 294
324 322 320 319 317 315 313 311 309 309 309 308 308 308 307 307 306 306 305 305 305 304 304 304 303 303 302 301 299 296 296 296 295 295 295 294 294 293 293 293 292 292 293 293 294 294 295 295 295 295 295 296 296 295 295 295 294 294 294 294 294 294 294
323 321 319 316 315 313 311 309 308 308 308 308 307 307 307 307 306 306 306 305 305 304 304 304 303 302 302 300 298 296 295 295 295 295 294 294 294 294 293 292 292 292 293 293 294 294 295 295 295 295 295 295 296 296 295 295 295 295 294 294 294 294 294
322 321 318 315 312 310 309 308 307 307 308 307 306 306 306 306 306 306 305 305 304 304 303 303 303 302 301 300 297 296 295 295 295 295 295 294 294 293 292 292 292 292 292 293 293 294 295 295 295 295 295 295 295 295 295 295 295 295 295 294 294 294 294
321 319 317 314 311 308 307 306 307 307 307 307 306 306 305 306 306 305 305 305 304 304 303 303 302 301 300 299 297 296 295 295 295 295 295 294 293 293 292 292 292 292 292 293 293 294 294 294 294 295 295 295 295 295 295 295 295 295 294 294 294 294 294
320 317 315 313 309 307 306 306 306 306 306 306 306 306 305 305 305 305 305 304 304 303 302 302 302 301 300 299 297 296 295 295 295 296 295 294 293 292 292 292 292 292 292 292 293 293 293 293 294 294 294 294 294 294 294 294 294 294 294 294 293 293 293
318 316 314 312 309 307 306 305 306 306 306 306 306 305 305 305 305 305 304 304 303 303 302 302 301 301 300 299 297 295 295 295 295 295 295 294 293 293 292 292 292 292 292 292 293 293 293 293 293 293 293 293 293 293 293 293 294 294 293 293 293 293 293
316 315 313 311 309 307 305 305 305 306 306 305 305 305 305 304 304 304 304 304 303 303 302 302 301 301 299 297 296 295 295 295 295 295 294 294 294 293 292 292 292 293 293 293 293 293 293 293 293 293 293 293 293 293 293 293 293 294 293 292 293 293 292
315 314 311 309 308 306 305 305 305 305 305 305 305 304 304 304 304 304 304 303 303 303 302 302 301 300 298 295 295 295 295 296 296 295 294 294 294 293 292 292 293 293 293 294 294 294 294 293 293 293 292 292 292 292 292 292 292 293 293 292 292 292 292
314 312 310 308 307 306 305 304 304 305 305 305 304 304 304 304 304 303 303 303 303 303 302 302 301 300 298 296 296 296 296 297 296 296 295 295 294 294 292 292 293 293 294 294 294 294 294 293 292 292 291 291 291 291 291 292 292 292 292 292 292 292 291
312 310 309 307 306 306 305 304 304 304 304 304 304 304 304 303 303 303 303 303 303 302 302 302 301 300 299 297 297 297 297 297 297 296 296 295 295 294 293 293 294 294 294 294 294 294 293 293 292 291 291 291 291 290 290 290 291 291 292 292 291 291 291
311 309 307 306 306 305 305 304 304 304 303 303 303 304 304 303 303 303 303 303 303 302 302 301 301 300 299 298 298 298 298 297 297 297 296 296 295 294 293 293 294 294 294 294 294 294 293 292 292 291 291 290 290 290 290 290 290 290 291 291 291 291 291
309 308 307 306 305 305 305 304 304 303 303 303 303 303 303 304 303 303 303 303 302 302 302 301 301 300 299 298 298 298 298 298 297 297 296 296 295 294 293 293 294 294 294 294 294 294 293 292 292 291 291 290 289 289 289 289 289 290 290 290 290 291 291
309 308 307 306 305 305 304 304 304 303 303 302 301 302 303 303 303 303 303 303 303 302 302 301 301 300 300 299 299 299 299 298 297 297 296 296 296 294 293 293 294 294 294 294 294 294 293 292 292 291 290 290 289 289 289 289 289 289 290 290 290 290 291
308 307 306 305 305 304 304 304 303 302 302 300 299 299 302 303 303 303 303 303 303 303 302 302 301 300 300 300 299 299 299 299 298 297 297 296 296 294 293 294 294 294 294 294 294 293 292 292 292 291 290 289 289 289 289 289 289 289 289 290 290 290 290
307 306 306 305 304 304 303 303 303 302 302 300 296 296 300 302 303 303 303 303 303 303 302 302 301 300 300 299 299 299 299 299 298 298 297 296 296 295 294 294 294 294 294 294 293 293 292 292 292 291 290 289 289 289 289 289 289 289 289 290 290 290 290
306 305 305 304 304 303 303 302 302 302 300 297 294 294 298 301 302 303 303 303 302 302 302 301 301 300 299 299 299 298 299 299 298 298 297 296 296 295 295 295 294 294 294 294 293 292 292 292 291 291 289 289 289 289 289 289 289 289 289 289 290 290 290
305 305 304 304 303 303 303 302 302 300 296 294 293 294 297 299 301 302 303 302 302 302 302 301 300 300 300 299 299 298 298 298 298 298 297 296 296 296 295 294 294 294 295 294 293 292 292 292 291 290 289 288 289 290 290 289 289 289 289 289 290 290 290
305 304 303 303 303 302 302 302 300 297 294 293 294 294 296 299 301 302 302 302 302 302 301 301 301 300 300 299 299 298 298 298 297 298 297 297 296 296 296 294 293 294 294 293 292 292 292 291 290 289 289 288 289 291 291 291 290 290 289 289 290 290 290
304 303 303 303 302 302 301 301 300 296 293 293 294 295 296 298 300 301 301 301 301 301 301 301 301 300 300 299 299 299 298 298 298 297 297 297 296 296 296 294 294 294 294 293 292 292 292 291 290 289 289 289 289 291 292 292 292 291 291 290 290 290 291
303 303 303 302 302 302 301 301 299 295 293 293 294 295 296 298 299 300 301 301 301 301 300 300 300 300 300 299 299 299 299 299 298 297 297 297 296 296 296 294 294 295 294 293 292 292 291 290 289 289 289 289 289 290 291 292 293 293 293 292 291 291 292
303 302 302 302 302 302 302 300 297 294 293 293 294 294 296 297 298 299 300 300 300 300 300 299 299 299 299 299 299 299 299 299 298 298 297 297 297 296 295 294 294 295 294 293 292 292 291 289 288 288 288 289 289 289 290 292 292 293 293 293 293 292 292
303 302 302 302 302 302 301 298 295 293 293 293 294 295 296 297 298 298 299 299 299 299 299 298 298 299 298 298 298 298 298 298 298 298 297 297 297 296 294 294 295 295 294 293 292 291 290 288 288 288 288 288 288 289 289 290 291 292 293 293 293 293 293
303 302 302 301 302 301 300 297 294 292 292 293 294 295 296 297 298 298 298 298 298 298 298 298 297 296 295 294 295 296 298 298 298 297 297 297 296 295 294 295 295 294 293 292 292 291 289 288 289 289 288 288 288 288 289 289 290 291 292 293 294 294 294
303 302 302 301 302 300 299 298 295 293 292 293 293 294 295 296 297 297 298 298 298 297 296 295 293 292 292 292 294 295 297 297 297 297 297 297 295 294 294 295 295 294 293 292 292 290 289 289 290 290 289 288 288 288 288 288 290 291 292 292 293 294 294
302 302 301 302 301 300 299 299 296 293 292 293 293 294 295 296 297 297 297 297 296 294 293 291 291 290 291 292 293 294 296 297 297 297 297 297 295 294 294 295 294 294 293 292 292 290 290 290 291 291 290 289 289 288 288 288 289 290 292 292 293 293 293
303 302 302 301 301 300 300 299 297 293 292 293 293 293 294 294 294 294 294 293 292 291 290 290 290 290 290 291 291 293 294 295 296 296 296 296 295 294 295 295 294 294 293 292 292 291 291 291 292 292 292 291 289 289 288 288 288 290 291 292 292 292 293
303 302 302 302 301 301 300 300 297 293 292 292 292 292 292 291 291 291 290 290 290 290 290 290 289 290 290 290 291 292 292 293 294 295 295 295 294 294 295 294 294 294 293 293 292 292 292 292 292 292 292 292 291 290 290 289 288 288 290 292 292 292 292
303 302 302 302 302 301 300 300 298 294 292 291 291 291 291 290 290 290 290 290 290 290 290 290 289 289 290 291 292 292 293 293 293 294 294 294 295 295 294 294 294 294 294 293 293 293 293 293 293 293 293 293 292 292 292 291 289 288 288 290 291 292 292
302 302 302 303 302 301 300 300 299 295 292 291 291 292 293 293 293 293 293 292 291 291 290 290 290 289 290 291 292 293 293 294 294 294 294 295 295 295 295 295 294 294 294 294 293 293 293 293 293 293 293 293 293 293 293 292 291 290 288 288 289 291 291
302 302 302 302 302 302 301 300 299 296 292 291 293 295 296 296 296 296 296 295 294 294 292 291 290 289 290 291 293 293 293 294 294 294 295 295 295 295 295 295 294 294 294 294 294 294 293 293 293 293 293 293 293 293 293 293 292 291 289 288 288 289 290

ECMWFFLT1_925_thetae_117.txt.gz
Theta_e
327 326 326 327 326 324 322 321 320 319 319 318 318 318 317 316 314 312 309 306 305 304 304 304 305 306 306 305 304 303 302 301 302 304 305 305 303 301 299 298 297 297 298 301 304 304 304 304 303 301 300 298 298 299 299 299 299 298 298 298 298 298 298
328 327 326 325 323 321 320 319 318 318 317 317 316 316 315 313 311 309 307 305 304 304 305 305 305 305 304 303 301 300 298 297 297 297 298 300 301 301 301 301 301 301 300 301 302 303 303 303 302 302 302 301 301 300 298 299 299 298 298 298 298 298 298
326 325 324 322 320 319 319 317 317 316 315 315 315 314 313 311 309 307 306 305 305 305 305 305 304 303 302 301 299 298 296 296 295 295 295 296 297 298 300 302 303 303 303 302 302 303 303 303 302 302 302 302 302 301 299 299 299 298 298 298 298 298 298
326 324 321 319 318 318 317 315 315 315 314 314 313 312 311 309 308 307 305 305 305 305 305 304 303 301 301 300 298 297 296 295 295 295 295 295 295 295 297 300 301 301 302 302 302 302 302 302 303 302 301 300 301 300 299 298 298 298 298 297 297 297 297
325 323 321 318 317 317 316 315 314 314 314 313 312 311 309 308 307 306 305 305 305 304 303 302 301 300 300 299 297 296 295 295 295 295 295 295 295 296 296 298 299 299 300 300 301 301 301 302 302 302 301 300 301 300 299 298 298 298 298 297 297 297 297
325 323 322 320 318 317 316 315 314 313 313 312 311 309 308 307 306 306 305 305 304 303 302 301 301 300 299 298 296 295 295 295 294 294 294 294 294 295 296 297 297 298 298 299 299 300 300 301 301 302 301 300 301 300 299 298 298 298 298 297 297 297 297
325 323 322 321 319 318 316 315 313 312 312 311 310 309 307 307 306 305 305 304 304 303 302 301 300 299 298 296 296 295 295 294 294 294 294 293 293 294 295 296 297 298 298 298 298 299 299 300 300 301 301 301 301 302 300 299 299 298 297 297 297 297 297
324 323 322 321 319 317 316 314 312 311 311 311 309 308 307 306 305 305 305 304 303 302 302 301 299 297 296 296 295 295 294 294 294 293 293 293 293 293 293 295 296 297 297 297 298 298 298 299 299 299 300 300 301 301 301 301 300 299 297 297 297 297 296
324 322 321 319 318 316 314 312 311 310 310 309 308 307 306 306 305 305 305 304 303 302 302 301 298 296 295 295 295 294 294 294 293 293 293 293 293 292 293 294 295 296 296 297 298 298 298 298 298 298 298 299 299 299 300 300 301 300 298 297 297 296 296
324 323 321 318 317 315 312 311 310 309 309 308 308 307 306 306 305 305 304 304 303 302 301 300 298 296 295 295 295 295 294 294 293 293 293 293 293 292 292 294 295 296 296 297 297 297 297 297 297 297 297 297 298 298 298 298 299 300 298 297 296 296 295
324 322 321 319 316 313 310 309 309 308 308 308 307 307 306 306 305 305 304 304 303 302 301 299 297 296 295 295 295 295 294 294 294 294 294 293 293 293 293 294 295 296 296 296 296 296 296 296 296 296 296 297 297 297 297 297 298 299 298 297 296 296 295
323 321 320 318 315 311 309 308 308 308 307 307 307 306 306 306 305 304 304 303 303 302 300 299 298 296 295 295 296 295 295 295 296 295 294 293 293 294 294 295 296 296 296 296 296 296 296 295 296 296 296 296 296 296 296 296 297 297 297 297 296 296 295
321 320 318 316 313 310 308 307 307 307 307 306 306 306 306 306 305 304 304 303 302 301 300 299 297 296 295 296 297 296 296 296 296 295 294 293 294 295 295 296 296 296 296 296 296 296 296 295 295 296 295 295 296 296 296 296 296 297 297 296 297 296 296
320 318 316 314 312 309 307 307 306 306 306 306 306 306 306 305 305 304 303 303 302 301 300 299 297 296 296 296 296 296 297 297 296 295 295 294 295 296 296 296 296 295 296 296 296 296 295 295 295 295 295 295 295 295 295 295 296 296 296 296 296 296 296
318 316 315 313 310 308 307 306 306 306 306 306 305 305 305 305 304 304 303 302 302 301 301 299 297 295 296 296 296 297 297 297 297 296 296 295 295 296 296 296 296 295 295 296 296 295 295 295 295 295 295 295 294 295 295 295 295 296 296 296 296 296 296
316 315 314 312 309 308 306 305 305 306 306 306 305 305 305 305 304 304 303 302 302 301 301 299 296 295 297 297 297 297 298 298 298 297 296 296 296 296 296 296 296 296 296 296 296 296 295 295 295 295 295 295 295 294 294 295 295 296 296 296 296 296 296
315 314 313 311 309 307 306 305 305 305 305 305 305 305 304 304 304 304 303 302 302 301 301 298 295 296 297 298 298 298 298 298 298 298 296 296 296 296 296 296 296 296 297 297 297 296 295 295 295 295 295 294 294 294 294 295 295 295 296 296 296 296 296
315 314 312 310 308 307 306 305 305 305 305 305 305 304 304 304 304 303 303 302 302 302 301 298 296 297 297 298 299 298 298 298 298 298 297 296 296 296 296 296 296 297 297 297 297 296 295 295 295 295 294 294 294 294 295 295 295 295 296 296 296 296 296
314 313 311 309 308 307 306 305 305 305 305 304 304 304 304 304 304 303 303 302 302 302 301 299 298 297 298 298 299 299 298 298 298 298 297 296 296 296 296 296 297 297 297 297 297 296 296 295 295 295 294 294 294 294 295 295 295 296 296 296 296 296 296
313 312 311 309 308 306 305 304 304 304 304 304 304 304 304 304 303 303 303 302 302 302 301 300 299 298 298 299 299 299 299 299 298 298 297 297 296 296 296 296 297 297 297 297 296 295 295 295 295 295 294 294 294 295 295 295 295 295 296 296 296 296 296
312 311 310 308 307 306 305 304 304 304 303 303 304 304 304 303 303 303 303 302 302 302 301 300 299 298 299 299 300 299 299 299 299 298 298 297 296 296 296 296 297 297 296 295 294 293 293 293 293 294 293 293 294 295 295 295 295 296 295 296 296 296 296
311 310 309 308 307 306 305 304 304 303 303 303 303 303 303 303 303 303 303 303 302 302 301 300 299 299 299 299 300 300 300 299 299 298 298 297 297 297 296 296 296 295 294 293 292 292 292 291 290 291 291 291 292 294 295 295 295 295 295 296 296 296 296
309 309 308 307 306 305 305 304 304 303 303 303 303 303 303 303 303 303 303 302 302 302 301 301 300 300 299 299 300 300 300 300 299 299 298 298 298 297 296 296 295 294 294 293 292 292 291 290 289 289 289 289 290 292 294 294 295 295 295 296 296 296 296
308 308 307 306 305 305 304 304 304 303 303 302 301 302 303 303 303 303 303 302 302 302 301 301 301 300 299 299 299 299 300 299 299 299 299 298 298 298 297 296 295 294 294 293 292 291 290 289 289 289 289 289 290 291 292 293 293 294 295 295 296 296 296
307 307 306 306 305 304 304 304 303 303 302 301 300 300 302 303 303 303 303 303 303 302 301 301 300 300 299 299 299 299 300 299 299 299 299 298 298 298 297 297 296 295 294 293 292 291 289 288 289 289 289 289 289 290 291 291 292 293 294 295 295 296 295
307 306 305 305 305 304 304 303 302 302 302 300 298 298 300 302 303 303 303 303 303 302 302 301 300 300 300 299 299 299 299 299 299 299 299 298 298 298 297 297 296 295 294 293 292 291 289 289 289 289 289 289 289 290 290 291 291 292 292 294 295 295 295
306 305 305 304 304 304 303 302 302 302 301 298 295 296 299 302 302 303 303 302 302 302 301 301 300 300 300 300 299 298 298 299 298 298 298 298 298 298 296 295 296 296 294 293 292 290 289 289 289 289 289 289 289 289 289 290 291 292 292 293 294 294 294
306 305 304 304 303 303 302 302 302 301 298 295 294 295 298 301 302 302 302 302 302 302 301 301 300 300 300 299 299 299 299 299 298 298 298 297 297 297 295 294 295 295 294 293 292 290 289 289 290 290 291 290 289 289 289 289 290 291 292 292 293 293 293
304 303 302 303 302 302 302 302 302 299 295 294 294 295 297 300 301 302 302 302 302 301 301 301 300 300 300 299 299 299 299 299 298 298 297 297 297 296 294 294 295 294 294 293 292 290 289 289 291 293 293 292 292 291 290 289 289 290 291 292 292 292 293
303 303 302 302 302 302 302 302 301 298 295 294 294 295 297 300 301 301 301 301 301 301 300 300 300 299 299 299 299 299 299 299 299 298 297 297 297 295 294 294 295 294 294 293 291 290 289 290 292 294 294 293 294 294 293 290 289 289 289 290 291 292 292
305 304 303 303 303 302 302 302 301 298 294 293 294 295 297 299 300 300 301 300 300 300 300 299 299 299 299 299 298 298 299 299 299 298 297 297 296 295 294 294 295 294 294 293 292 291 290 290 292 294 294 294 295 295 294 292 291 290 289 289 290 290 291
306 305 304 303 302 302 302 301 300 296 293 293 294 295 296 298 299 300 300 300 300 300 299 299 298 298 297 295 295 296 298 299 299 298 298 297 296 295 294 294 294 293 294 293 292 291 291 291 292 293 294 294 295 295 294 293 292 291 290 289 289 289 290
306 305 304 303 302 302 302 301 298 295 293 293 294 295 296 297 298 299 299 299 299 298 298 298 296 294 293 292 293 295 297 298 298 298 298 297 297 296 295 295 294 293 294 294 293 292 292 292 292 293 294 295 295 294 293 293 293 292 291 291 289 290 291
305 305 304 303 303 302 301 301 298 294 293 293 294 295 296 297 298 298 298 298 298 298 297 295 292 291 291 292 293 295 297 298 298 298 298 297 297 296 296 296 295 294 293 294 294 293 293 293 292 293 294 294 294 293 293 293 293 293 293 292 292 291 292
304 303 302 303 302 301 301 301 299 294 292 293 294 295 296 297 297 297 297 297 297 296 294 292 290 290 290 291 291 293 295 296 296 297 297 297 296 296 296 296 295 294 294 294 294 294 293 293 293 293 293 293 293 293 293 293 293 293 293 294 293 293 292
303 302 302 302 302 301 300 300 297 294 292 292 293 295 296 296 297 297 296 296 295 293 291 290 290 290 290 291 291 292 293 293 294 295 297 297 296 296 295 295 294 294 294 294 294 294 294 293 293 293 293 293 293 293 293 294 294 294 294 294 294 293 292
302 302 302 302 302 301 299 298 296 294 292 292 294 295 295 295 296 296 296 295 293 291 290 290 290 290 290 291 292 292 293 293 294 294 295 296 296 295 295 294 294 294 294 294 294 294 294 294 293 293 293 293 293 293 294 294 294 294 295 295 294 294 293

ECMWFFLT1_925_thetae_120.txt.gz
Theta_e
330 329 329 330 329 327 326 323 322 322 321 320 320 319 319 317 315 312 310 310 311 313 314 314 314 313 312 311 311 311 313 315 314 312 310 308 306 307 307 306 305 307 308 309 310 310 310 310 307 305 305 305 304 303 303 302 302 302 302 302 302 301 302
329 328 329 330 327 324 323 322 321 321 320 319 319 318 317 316 314 311 310 312 313 313 313 312 312 311 310 308 307 307 308 310 311 311 310 309 309 308 309 309 309 308 307 308 308 308 309 308 306 306 307 307 307 304 303 303 303 303 302 302 302 301 301
328 327 327 327 325 322 322 322 321 321 320 319 318 317 316 315 313 312 312 313 313 312 311 310 309 307 305 304 304 305 306 307 308 308 308 308 309 309 309 309 309 308 307 308 308 307 308 308 307 306 305 306 308 305 303 303 303 303 302 302 301 301 301
328 328 326 325 323 322 322 322 322 321 320 319 318 317 316 314 313 313 313 312 312 312 310 309 308 306 304 303 303 305 306 306 306 307 307 307 307 307 307 307 307 307 307 306 307 306 307 308 308 307 305 305 306 304 303 303 303 302 302 301 301 301 301
328 328 326 324 323 323 323 322 321 320 318 318 317 317 316 314 313 312 312 312 311 311 310 309 307 306 305 305 305 305 305 306 306 307 307 306 306 306 305 305 305 305 305 305 306 306 306 306 307 307 306 305 305 304 303 303 303 301 301 301 300 300 300
326 327 327 325 324 324 323 321 320 319 318 318 317 316 315 313 312 312 311 311 310 309 309 308 307 306 305 305 305 305 305 305 305 305 306 306 305 305 305 304 304 304 304 305 305 305 305 305 306 307 306 306 307 306 304 303 303 301 300 300 300 300 300
326 326 326 325 324 323 322 321 320 319 318 318 317 315 314 313 312 312 311 310 309 308 308 307 306 305 305 304 304 304 304 304 303 304 304 305 305 305 304 304 304 304 304 304 304 303 304 304 305 306 306 306 307 306 304 304 303 302 301 300 300 299 299
326 326 325 324 323 322 321 321 320 319 318 317 316 315 313 313 312 311 310 309 308 308 307 306 305 305 305 304 304 304 303 303 303 303 303 304 304 304 303 303 304 304 303 303 303 303 303 303 303 303 304 304 306 305 304 304 303 302 301 300 300 299 299
326 326 325 324 323 321 320 320 319 318 317 316 315 314 313 312 311 310 309 309 308 307 306 305 305 305 304 304 304 304 303 303 303 302 302 303 304 303 303 303 303 303 302 302 302 302 302 302 302 302 302 302 304 304 303 303 303 302 301 300 300 299 299
326 327 326 324 322 320 319 319 318 317 316 315 314 313 312 312 311 310 309 308 307 306 305 305 304 304 304 304 304 304 303 303 303 302 302 302 303 302 302 302 302 302 302 301 301 301 301 301 301 301 301 301 301 302 301 302 303 303 301 300 300 299 299
327 326 324 322 320 319 318 317 317 316 315 314 313 313 312 311 310 310 309 308 307 306 305 304 304 304 304 304 304 303 303 303 302 302 302 302 302 302 302 302 302 301 301 301 301 301 300 301 300 300 300 300 300 300 301 301 302 302 301 300 300 300 300
325 324 323 322 319 317 317 316 316 315 314 313 313 312 312 311 310 309 309 308 307 305 304 304 304 304 304 304 303 303 302 302 302 302 302 302 302 302 302 302 302 301 301 301 301 300 300 300 300 299 300 300 300 300 300 301 301 301 300 300 300 300 300
325 323 322 321 319 316 316 315 315 315 314 313 312 312 311 310 310 309 309 307 306 305 304 304 304 304 304 304 303 303 302 301 301 302 301 301 301 301 301 301 301 301 301 301 300 300 300 300 300 299 299 299 300 299 300 300 301 301 301 300 300 300 300
324 321 320 319 317 315 315 315 314 314 313 312 312 311 311 310 309 309 308 307 306 305 304 304 304 304 304 303 303 302 301 301 301 301 301 301 301 301 300 300 300 300 300 300 300 299 299 299 299 299 299 299 299 299 299 299 300 301 301 300 300 300 300
323 320 319 317 315 315 315 314 313 313 312 312 311 311 310 310 309 309 308 307 306 305 305 304 304 304 303 303 303 302 301 301 301 301 301 301 301 301 301 300 301 301 301 300 300 299 299 299 299 299 299 299 299 299 299 299 300 301 301 300 300 300 300
321 320 318 316 314 315 315 314 313 312 312 311 311 310 310 309 309 308 307 307 306 305 304 303 303 303 303 303 303 302 302 301 301 301 301 301 301 301 301 301 301 302 301 301 300 299 299 299 299 299 298 298 299 299 299 300 300 300 300 301 301 300 301
319 319 317 315 314 314 314 313 312 312 311 311 311 310 310 309 309 308 307 307 306 305 304 303 303 303 303 303 303 303 302 302 301 301 301 301 301 300 301 301 301 302 301 301 300 299 299 299 299 298 298 298 298 298 299 300 300 300 300 301 301 301 301
318 318 317 315 314 314 313 313 312 311 311 310 310 310 309 309 308 308 307 306 306 305 303 303 303 303 303 303 303 303 303 302 301 300 300 300 301 301 301 301 301 301 301 301 300 299 299 299 299 299 298 298 298 298 299 300 300 300 301 301 301 301 301
318 317 316 314 314 313 313 312 312 311 310 310 310 309 309 308 308 308 307 307 306 305 303 302 303 303 303 303 303 303 303 302 302 301 300 300 300 301 301 301 301 301 300 300 299 299 298 298 299 298 298 298 298 298 300 300 299 300 300 300 301 301 300
317 316 315 314 314 313 313 312 311 310 310 309 309 309 309 308 308 308 307 306 306 305 303 303 303 303 303 303 303 303 303 303 302 301 300 300 300 301 301 301 301 300 298 298 298 298 297 297 298 297 297 297 298 298 299 299 299 299 300 300 300 300 300
317 316 315 314 314 313 312 312 311 310 309 309 309 308 308 308 308 307 307 307 306 305 304 303 303 303 303 303 304 303 303 303 303 302 301 301 300 300 301 301 300 298 296 295 294 294 293 294 296 297 296 296 297 298 298 298 298 299 299 299 300 300 300
316 316 315 314 314 313 312 311 310 310 309 309 309 308 308 308 308 307 307 307 306 305 305 304 303 303 303 304 304 304 303 303 303 302 302 301 301 300 300 300 298 296 294 291 290 290 290 290 292 294 294 295 296 297 297 297 298 298 298 299 299 299 300
316 316 315 314 313 312 312 311 310 309 309 309 308 308 308 307 307 307 307 307 307 306 305 305 304 303 303 304 304 304 304 303 303 303 302 302 301 300 301 299 297 295 295 293 290 289 289 289 289 290 291 292 293 295 296 296 297 297 298 298 299 299 299
316 315 314 314 313 312 311 311 310 309 308 309 308 308 308 307 307 307 307 307 307 306 306 305 303 302 302 304 304 304 304 303 303 303 302 303 302 301 301 300 299 298 297 296 295 292 290 289 289 289 289 290 290 291 293 294 296 296 297 298 299 299 299
315 314 313 313 312 311 310 310 309 309 309 309 308 308 307 307 307 307 306 307 306 306 306 305 301 300 301 302 304 304 304 304 303 303 303 303 302 302 301 301 300 299 296 295 296 296 294 292 291 291 291 291 291 290 291 291 293 295 296 297 298 298 298
313 312 312 311 311 310 309 309 309 309 309 308 308 307 307 307 307 307 306 306 306 306 306 304 301 299 299 300 302 304 304 303 303 303 303 302 302 302 301 301 301 300 297 296 296 297 297 296 295 295 295 295 294 293 292 291 291 292 294 297 298 297 297
311 311 310 309 309 309 308 309 309 308 308 308 307 307 307 307 308 307 307 307 306 307 306 304 301 300 299 299 300 303 304 303 303 303 303 302 302 302 301 301 301 300 300 298 295 295 296 298 298 298 298 298 297 296 295 293 292 292 293 295 296 296 296
309 308 307 307 308 307 307 308 308 307 308 307 307 307 307 307 307 307 307 307 306 307 306 304 301 300 299 299 299 301 303 303 303 303 303 302 303 302 300 300 300 300 300 297 292 291 294 297 299 299 299 299 299 298 297 295 293 292 292 293 293 294 294
308 307 308 309 308 307 307 307 307 306 306 306 306 306 306 306 307 306 306 306 307 307 306 304 301 300 300 299 299 300 303 304 303 304 303 302 303 302 300 301 300 299 300 296 291 289 291 296 300 299 299 300 300 299 299 297 295 294 293 292 292 292 292
308 309 311 311 307 306 306 306 305 305 304 304 304 304 305 305 306 306 306 306 306 307 306 303 301 300 300 300 299 301 303 304 303 304 303 302 302 301 300 300 299 299 300 296 292 290 291 296 299 299 299 300 300 299 299 298 297 297 295 294 294 294 294
310 311 312 310 306 305 305 305 304 304 303 303 303 303 304 304 304 305 305 306 306 306 305 302 301 301 300 300 300 302 304 303 303 304 303 302 302 301 299 297 297 300 300 296 292 291 292 295 299 299 299 300 300 299 298 297 298 297 296 296 297 297 296
312 313 311 307 305 304 304 304 304 303 302 301 301 301 302 303 304 304 305 305 305 305 305 302 301 301 300 300 300 302 304 303 303 304 303 302 302 301 299 295 294 296 298 295 293 293 292 293 297 299 299 300 299 299 297 297 297 297 297 298 299 298 298
312 312 308 306 305 304 304 304 303 302 301 300 300 300 301 302 303 303 304 305 305 305 305 302 300 300 300 299 299 301 302 303 303 303 303 302 301 301 300 297 294 293 294 294 293 293 293 293 294 297 299 299 298 297 295 295 296 297 298 299 299 299 299
311 309 307 306 305 304 304 304 304 303 301 298 298 298 299 301 302 303 304 304 304 304 304 302 301 300 300 299 299 299 301 303 303 303 302 302 301 301 300 300 297 294 293 294 294 294 294 293 293 295 298 297 295 294 294 294 296 298 299 299 299 298 298
309 307 306 305 304 303 302 302 303 303 300 298 296 296 298 300 301 302 303 303 303 303 303 302 300 299 299 299 298 296 299 302 302 302 302 301 301 301 300 301 299 295 293 294 294 294 294 293 293 295 296 294 293 293 293 295 297 299 299 299 299 298 298
307 306 305 304 303 303 301 301 302 302 300 298 297 297 298 299 300 301 302 302 302 303 302 301 300 299 298 298 295 293 297 301 301 301 302 302 301 301 300 300 299 295 294 294 294 294 294 294 294 295 294 293 293 294 295 297 299 299 299 299 299 298 298
306 305 305 304 303 303 302 301 302 301 300 299 298 298 298 299 300 301 302 301 301 302 301 300 299 298 296 294 291 291 295 299 299 300 302 301 300 300 300 300 298 295 294 294 294 294 294 294 294 294 294 293 294 295 297 298 299 299 299 299 298 298 298

ECMWFFLT1_925_thetae_123.txt.gz
Theta_e
335 334 333 333 332 331 330 329 328 327 326 325 324 323 322 321 320 318 318 317 317 318 319 319 318 318 317 317 318 319 319 319 317 314 312 310 310 311 312 311 309 311 313 314 314 314 314 314 311 309 309 309 307 305 304 305 305 305 306 305 305 304 304
335 333 332 332 331 330 329 328 327 326 324 324 323 322 321 319 318 318 318 318 317 317 317 317 317 316 316 316 316 317 317 317 316 315 314 313 313 312 313 312 310 309 310 311 311 311 312 313 310 309 310 312 312 308 305 305 306 306 306 305 305 304 303
334 332 331 331 330 328 328 327 326 326 325 323 322 320 319 318 318 318 318 318 317 315 315 314 313 313 313 313 314 314 314 314 314 314 315 314 314 314 313 313 312 311 311 311 311 311 311 311 310 308 308 311 312 310 307 306 307 306 305 305 304 304 303
333 332 331 330 329 328 327 327 327 326 325 323 321 320 318 318 318 318 318 317 315 314 313 312 310 310 310 311 312 312 312 312 312 312 312 312 312 311 311 311 311 311 311 311 311 311 311 311 311 309 308 308 309 309 307 307 307 305 303 303 303 303 302
332 332 331 330 329 327 327 327 327 326 325 323 321 320 319 319 318 317 317 316 314 313 312 310 309 309 309 309 310 311 311 311 311 311 311 311 310 310 310 310 309 310 310 310 310 310 310 310 310 310 309 308 308 308 307 307 306 304 303 302 302 302 302
332 332 332 330 328 327 326 327 327 326 324 322 321 320 319 318 317 316 316 315 314 313 312 310 309 309 309 309 310 310 310 311 311 311 311 311 310 309 309 308 309 309 308 309 309 308 309 309 309 310 309 309 309 307 306 306 305 304 303 302 302 302 301
332 332 332 330 329 328 328 328 327 325 323 321 321 319 318 317 316 316 315 314 313 312 311 310 309 309 309 308 309 309 309 309 310 310 310 310 310 309 309 309 308 308 307 307 308 307 307 307 307 308 308 309 309 306 305 306 304 304 303 301 302 301 301
332 332 331 330 330 330 329 328 326 324 323 321 320 319 318 317 316 315 314 313 312 312 310 310 309 309 309 308 309 309 308 308 309 309 309 309 309 308 308 308 307 307 307 307 307 306 306 306 306 306 306 308 308 306 306 306 305 304 302 302 302 301 301
332 332 331 331 330 329 328 327 325 324 323 322 320 318 317 316 315 313 312 312 312 311 310 310 309 309 309 308 308 308 307 307 308 308 308 308 308 308 307 307 306 306 306 306 306 306 306 305 305 305 304 305 306 306 305 306 306 304 302 302 302 302 301
331 331 331 330 330 328 327 326 325 324 323 321 319 317 316 314 313 313 312 311 311 310 309 309 309 309 308 308 308 307 307 307 307 307 307 307 307 307 306 306 305 305 305 305 305 305 305 305 304 304 304 304 305 305 305 306 306 304 303 302 303 302 302
331 331 330 329 328 327 326 325 324 322 321 320 318 317 315 314 313 312 312 311 310 309 309 308 308 308 308 308 308 307 307 307 307 307 307 307 307 306 306 305 305 305 305 304 304 304 304 304 304 304 304 304 304 304 305 305 305 304 303 303 303 303 303
332 331 329 328 327 326 325 324 323 321 320 319 317 316 315 314 313 312 311 311 310 309 308 308 308 308 308 308 307 307 307 307 307 306 306 306 306 306 306 305 305 305 305 304 304 304 304 304 303 303 303 303 303 303 304 304 304 304 304 304 303 303 303
331 330 328 326 325 325 324 323 322 321 319 318 317 316 315 314 313 312 311 310 309 308 308 308 308 308 308 307 307 306 306 306 306 306 306 305 305 305 305 305 305 305 305 304 303 303 303 303 303 302 302 303 303 302 303 303 304 304 304 304 303 303 303
330 328 327 325 324 323 322 322 321 320 318 317 316 315 314 313 313 312 310 309 308 308 308 308 308 308 308 307 306 306 306 306 306 305 305 305 304 304 304 304 304 304 304 304 303 303 303 303 302 302 302 302 302 302 302 302 304 305 304 304 304 304 304
329 327 325 324 323 322 321 321 320 319 317 316 316 314 314 313 312 311 310 309 308 308 308 308 308 308 308 307 306 305 305 305 305 305 305 305 304 304 304 304 304 304 304 304 303 302 303 302 302 302 302 302 302 302 302 302 304 305 304 304 304 304 303
328 325 324 323 322 321 321 320 319 318 317 316 315 314 313 312 312 311 310 309 308 308 308 308 308 308 307 306 306 305 305 305 305 305 305 304 304 304 305 305 305 305 305 304 303 303 303 303 302 302 301 301 302 302 302 303 304 304 304 304 304 304 303
327 325 323 323 322 321 320 320 318 317 317 315 314 314 313 312 311 311 310 309 309 308 307 307 307 307 307 306 306 305 305 305 305 305 305 304 304 305 305 305 305 305 305 304 303 303 303 303 303 302 301 302 302 301 302 303 304 303 303 304 304 303 303
325 324 323 322 321 320 320 319 318 317 316 314 314 314 313 312 312 311 310 309 309 308 307 307 307 307 307 306 306 305 304 305 305 305 305 304 304 305 305 305 304 304 304 304 303 303 303 303 303 301 301 301 301 301 302 303 303 303 303 303 303 303 303
325 325 323 321 320 320 320 319 317 316 315 314 314 313 312 311 311 311 310 309 308 308 307 306 306 306 306 306 306 305 305 304 304 304 304 304 304 305 305 304 304 303 303 303 302 302 302 302 302 301 300 300 300 301 302 302 302 302 302 302 303 303 303
326 324 322 320 320 319 319 318 317 316 315 314 314 313 312 311 311 310 309 309 308 307 306 306 306 306 307 306 306 306 305 304 304 304 304 304 305 305 305 304 302 302 302 302 301 300 300 301 301 300 299 300 300 301 301 302 301 301 301 302 302 302 302
325 324 321 320 319 318 318 318 317 316 314 314 313 312 311 311 311 310 309 309 308 307 306 306 306 306 306 306 306 306 306 305 304 304 304 304 304 305 304 302 301 299 298 298 297 296 296 299 301 300 299 299 299 300 300 300 300 300 300 301 302 302 302
323 322 321 320 318 318 318 318 317 315 314 313 312 311 311 311 311 310 310 309 308 307 306 306 307 306 306 306 307 306 306 305 305 304 304 304 304 304 303 301 299 295 293 293 292 292 292 294 297 297 297 297 298 299 299 299 299 300 300 300 301 301 301
321 320 320 319 318 318 318 317 316 315 314 313 311 311 311 311 310 310 310 309 309 307 307 306 306 306 306 307 307 306 306 306 305 304 304 304 304 303 301 299 295 292 290 290 290 291 291 291 292 293 293 294 295 296 297 298 298 299 299 300 301 301 301
321 320 319 318 318 318 317 317 316 314 313 312 311 311 311 310 310 310 310 310 309 308 307 307 306 305 306 306 307 307 307 306 306 305 305 304 304 303 301 299 296 295 296 296 294 293 292 292 293 293 293 293 294 294 295 295 296 297 298 299 301 300 300
320 320 319 318 317 317 316 316 315 314 313 312 311 311 311 310 310 310 310 310 310 309 308 307 305 304 305 306 306 307 307 307 306 306 305 305 304 304 303 302 301 300 300 300 300 298 296 296 297 297 296 296 296 296 295 294 294 295 296 299 300 299 299
321 320 319 318 317 316 315 315 315 313 312 312 311 311 311 311 310 311 310 310 310 310 309 308 305 303 304 305 306 307 307 307 307 306 306 306 305 304 304 304 303 300 298 299 301 301 300 300 300 300 299 299 299 298 297 296 295 295 295 297 298 298 298
322 320 318 317 316 316 315 314 314 312 312 312 312 311 311 310 310 310 310 310 310 309 309 308 305 303 303 305 305 306 307 307 306 306 306 306 306 305 304 304 304 302 301 300 299 300 301 301 302 302 301 301 301 300 299 298 298 297 297 297 298 298 297
320 318 317 316 315 315 314 313 313 312 312 312 312 311 311 310 310 310 309 310 310 309 309 308 304 301 301 304 305 305 306 307 306 306 306 306 306 305 304 305 304 304 303 299 296 297 299 301 303 303 302 303 303 302 302 300 298 298 298 298 299 298 298
317 316 316 315 315 315 314 313 313 312 312 312 311 310 310 310 310 310 309 310 310 309 309 308 304 299 299 301 303 304 306 306 306 306 306 305 306 305 303 304 304 303 303 298 293 293 297 300 303 303 302 303 303 303 303 301 298 298 298 298 299 299 299
316 315 315 314 314 315 314 313 313 312 311 311 310 309 309 309 310 310 309 309 309 309 309 307 304 300 298 298 301 303 305 306 306 307 306 305 305 305 303 303 303 303 302 299 293 292 296 300 302 303 303 303 303 303 302 300 299 300 299 299 300 300 300
316 316 315 314 314 314 314 313 312 310 310 309 308 308 308 308 308 309 308 309 309 309 309 307 304 301 298 297 299 302 305 306 306 307 307 305 305 305 303 303 303 303 303 300 295 293 295 300 302 303 303 303 303 303 301 300 300 301 300 300 302 302 301
316 315 315 314 313 313 313 311 310 309 308 308 307 306 306 306 307 307 307 308 308 308 308 307 304 301 299 298 298 300 304 307 306 306 307 305 305 305 303 301 301 302 303 300 295 293 294 297 300 302 302 303 303 302 300 299 299 300 300 302 302 302 301
315 315 314 313 312 311 311 309 308 308 307 307 306 305 304 304 304 304 305 306 306 307 308 307 305 302 301 300 298 299 304 307 306 306 307 305 305 305 303 299 298 301 302 299 294 293 293 294 297 299 301 303 302 300 298 296 297 299 300 302 302 301 301
315 314 313 312 311 310 309 308 308 307 306 306 305 303 302 301 301 302 303 305 306 306 307 306 304 302 301 301 299 299 302 306 306 306 306 305 304 305 304 300 297 297 298 296 293 293 294 294 294 296 300 301 299 296 295 295 297 299 301 302 301 301 300
314 313 312 311 310 309 308 307 307 306 305 304 303 302 300 300 301 302 304 305 306 305 305 304 303 302 301 301 300 299 301 304 305 305 306 305 304 304 304 302 300 296 294 293 293 293 293 294 294 295 297 298 296 295 295 296 298 300 301 301 301 300 300
312 312 311 310 309 308 307 306 306 305 304 303 302 301 300 300 302 303 304 305 305 304 304 304 303 302 302 301 300 299 300 302 303 303 304 305 304 303 303 303 302 299 296 293 293 294 293 294 294 295 295 295 294 295 296 297 299 301 301 301 300 300 300
311 310 310 309 308 307 306 306 306 305 305 304 303 303 302 302 303 303 304 304 304 303 304 304 303 302 302 301 301 300 299 300 301 301 303 304 304 304 304 303 302 301 298 294 293 294 294 294 294 295 295 295 295 295 297 299 300 301 300 300 300 300 300